<?xml version="1.0" encoding="UTF-8" standalone="no" ?><gpx xmlns="http://www.topografix.com/GPX/1/1" xmlns:gpxx="http://www.garmin.com/xmlschemas/GpxExtensions/v3" xmlns:wptx1="http://www.garmin.com/xmlschemas/WaypointExtension/v1" xmlns:gpxtpx="http://www.garmin.com/xmlschemas/TrackPointExtension/v1" creator="GuideVTT.com" version="1.1" xmlns:xsi="http://www.w3.org/2001/XMLSchema-instance" xsi:schemaLocation="http://www.topografix.com/GPX/1/1 http://www.topografix.com/GPX/1/1/gpx.xsd http://www.garmin.com/xmlschemas/GpxExtensions/v3 http://www8.garmin.com/xmlschemas/GpxExtensionsv3.xsd http://www.garmin.com/xmlschemas/WaypointExtension/v1 http://www8.garmin.com/xmlschemas/WaypointExtensionv1.xsd http://www.garmin.com/xmlschemas/TrackPointExtension/v1 http://www.garmin.com/xmlschemas/TrackPointExtensionv1.xsd">
<metadata><link href="http://www.garmin.com"><text>Garmin International</text></link><time>2013-06-22T15:13:50Z</time></metadata>
<trk><name>rp2025-22.gpx</name><extensions><gpxx:TrackExtension><gpxx:DisplayColor>Cyan</gpxx:DisplayColor></gpxx:TrackExtension></extensions><trkseg>
<trkpt lat="46.18003" lon="7.39613"><ele></ele><time>2025-9-4T22:54:29Z</time></trkpt>
<trkpt lat="46.17998" lon="7.39612"><ele></ele><time>2025-9-4T22:54:32Z</time></trkpt>
<trkpt lat="46.17984" lon="7.3961"><ele></ele><time>2025-9-4T22:54:35Z</time></trkpt>
<trkpt lat="46.17979" lon="7.39609"><ele></ele><time>2025-9-4T22:54:38Z</time></trkpt>
<trkpt lat="46.17973" lon="7.39609"><ele></ele><time>2025-9-4T22:54:41Z</time></trkpt>
<trkpt lat="46.17969" lon="7.39607"><ele></ele><time>2025-9-4T22:54:44Z</time></trkpt>
<trkpt lat="46.17968" lon="7.39608"><ele></ele><time>2025-9-4T22:54:47Z</time></trkpt>
<trkpt lat="46.17966" lon="7.39613"><ele></ele><time>2025-9-4T22:54:50Z</time></trkpt>
<trkpt lat="46.17963" lon="7.39615"><ele></ele><time>2025-9-4T22:54:53Z</time></trkpt>
<trkpt lat="46.17962" lon="7.39615"><ele></ele><time>2025-9-4T22:54:56Z</time></trkpt>
<trkpt lat="46.1796" lon="7.39615"><ele></ele><time>2025-9-4T22:54:59Z</time></trkpt>
<trkpt lat="46.17956" lon="7.39612"><ele></ele><time>2025-9-4T22:55:2Z</time></trkpt>
<trkpt lat="46.17952" lon="7.39608"><ele></ele><time>2025-9-4T22:55:5Z</time></trkpt>
<trkpt lat="46.17952" lon="7.39608"><ele></ele><time>2025-9-4T22:55:8Z</time></trkpt>
<trkpt lat="46.17952" lon="7.39608"><ele></ele><time>2025-9-4T22:55:11Z</time></trkpt>
<trkpt lat="46.17952" lon="7.39608"><ele></ele><time>2025-9-4T22:55:14Z</time></trkpt>
<trkpt lat="46.17952" lon="7.39608"><ele></ele><time>2025-9-4T22:55:17Z</time></trkpt>
<trkpt lat="46.17952" lon="7.39608"><ele></ele><time>2025-9-4T22:55:20Z</time></trkpt>
<trkpt lat="46.17952" lon="7.39608"><ele></ele><time>2025-9-4T22:55:23Z</time></trkpt>
<trkpt lat="46.17952" lon="7.39608"><ele></ele><time>2025-9-4T22:55:26Z</time></trkpt>
<trkpt lat="46.17952" lon="7.39608"><ele></ele><time>2025-9-4T22:55:29Z</time></trkpt>
<trkpt lat="46.17952" lon="7.39608"><ele></ele><time>2025-9-4T22:55:32Z</time></trkpt>
<trkpt lat="46.17952" lon="7.39608"><ele></ele><time>2025-9-4T22:55:35Z</time></trkpt>
<trkpt lat="46.17952" lon="7.39608"><ele></ele><time>2025-9-4T22:55:38Z</time></trkpt>
<trkpt lat="46.17951" lon="7.39608"><ele></ele><time>2025-9-4T22:55:41Z</time></trkpt>
<trkpt lat="46.1795" lon="7.39607"><ele></ele><time>2025-9-4T22:55:44Z</time></trkpt>
<trkpt lat="46.1795" lon="7.39604"><ele></ele><time>2025-9-4T22:55:47Z</time></trkpt>
<trkpt lat="46.17954" lon="7.39599"><ele></ele><time>2025-9-4T22:55:50Z</time></trkpt>
<trkpt lat="46.17964" lon="7.396"><ele></ele><time>2025-9-4T22:55:53Z</time></trkpt>
<trkpt lat="46.17968" lon="7.396"><ele></ele><time>2025-9-4T22:55:56Z</time></trkpt>
<trkpt lat="46.17971" lon="7.39599"><ele></ele><time>2025-9-4T22:55:59Z</time></trkpt>
<trkpt lat="46.17973" lon="7.39597"><ele></ele><time>2025-9-4T22:56:2Z</time></trkpt>
<trkpt lat="46.17974" lon="7.39597"><ele></ele><time>2025-9-4T22:56:5Z</time></trkpt>
<trkpt lat="46.1798" lon="7.39595"><ele></ele><time>2025-9-4T22:56:8Z</time></trkpt>
<trkpt lat="46.17981" lon="7.39595"><ele></ele><time>2025-9-4T22:56:11Z</time></trkpt>
<trkpt lat="46.17993" lon="7.39593"><ele></ele><time>2025-9-4T22:56:14Z</time></trkpt>
<trkpt lat="46.17995" lon="7.39593"><ele></ele><time>2025-9-4T22:56:17Z</time></trkpt>
<trkpt lat="46.1801" lon="7.39591"><ele></ele><time>2025-9-4T22:56:20Z</time></trkpt>
<trkpt lat="46.18021" lon="7.39593"><ele></ele><time>2025-9-4T22:56:23Z</time></trkpt>
<trkpt lat="46.18022" lon="7.39593"><ele></ele><time>2025-9-4T22:56:26Z</time></trkpt>
<trkpt lat="46.18032" lon="7.39592"><ele></ele><time>2025-9-4T22:56:29Z</time></trkpt>
<trkpt lat="46.18034" lon="7.3959"><ele></ele><time>2025-9-4T22:56:32Z</time></trkpt>
<trkpt lat="46.18036" lon="7.39583"><ele></ele><time>2025-9-4T22:56:35Z</time></trkpt>
<trkpt lat="46.18036" lon="7.39581"><ele></ele><time>2025-9-4T22:56:38Z</time></trkpt>
<trkpt lat="46.18031" lon="7.39573"><ele></ele><time>2025-9-4T22:56:41Z</time></trkpt>
<trkpt lat="46.18021" lon="7.39573"><ele></ele><time>2025-9-4T22:56:44Z</time></trkpt>
<trkpt lat="46.18019" lon="7.39573"><ele></ele><time>2025-9-4T22:56:47Z</time></trkpt>
<trkpt lat="46.18018" lon="7.39573"><ele></ele><time>2025-9-4T22:56:50Z</time></trkpt>
<trkpt lat="46.18016" lon="7.39573"><ele></ele><time>2025-9-4T22:56:53Z</time></trkpt>
<trkpt lat="46.18005" lon="7.39571"><ele></ele><time>2025-9-4T22:56:56Z</time></trkpt>
<trkpt lat="46.17992" lon="7.39565"><ele></ele><time>2025-9-4T22:56:59Z</time></trkpt>
<trkpt lat="46.17982" lon="7.39557"><ele></ele><time>2025-9-4T22:57:2Z</time></trkpt>
<trkpt lat="46.17979" lon="7.39555"><ele></ele><time>2025-9-4T22:57:5Z</time></trkpt>
<trkpt lat="46.17969" lon="7.39549"><ele></ele><time>2025-9-4T22:57:8Z</time></trkpt>
<trkpt lat="46.17966" lon="7.39547"><ele></ele><time>2025-9-4T22:57:11Z</time></trkpt>
<trkpt lat="46.1796" lon="7.39544"><ele></ele><time>2025-9-4T22:57:14Z</time></trkpt>
<trkpt lat="46.17957" lon="7.39542"><ele></ele><time>2025-9-4T22:57:17Z</time></trkpt>
<trkpt lat="46.1795" lon="7.39539"><ele></ele><time>2025-9-4T22:57:20Z</time></trkpt>
<trkpt lat="46.17944" lon="7.39536"><ele></ele><time>2025-9-4T22:57:23Z</time></trkpt>
<trkpt lat="46.17935" lon="7.39531"><ele></ele><time>2025-9-4T22:57:26Z</time></trkpt>
<trkpt lat="46.17934" lon="7.3953"><ele></ele><time>2025-9-4T22:57:29Z</time></trkpt>
<trkpt lat="46.17929" lon="7.39528"><ele></ele><time>2025-9-4T22:57:32Z</time></trkpt>
<trkpt lat="46.17926" lon="7.39526"><ele></ele><time>2025-9-4T22:57:35Z</time></trkpt>
<trkpt lat="46.17916" lon="7.39523"><ele></ele><time>2025-9-4T22:57:38Z</time></trkpt>
<trkpt lat="46.1791" lon="7.3952"><ele></ele><time>2025-9-4T22:57:41Z</time></trkpt>
<trkpt lat="46.17905" lon="7.39516"><ele></ele><time>2025-9-4T22:57:44Z</time></trkpt>
<trkpt lat="46.17899" lon="7.39514"><ele></ele><time>2025-9-4T22:57:47Z</time></trkpt>
<trkpt lat="46.17895" lon="7.39512"><ele></ele><time>2025-9-4T22:57:50Z</time></trkpt>
<trkpt lat="46.17891" lon="7.3951"><ele></ele><time>2025-9-4T22:57:53Z</time></trkpt>
<trkpt lat="46.17887" lon="7.39507"><ele></ele><time>2025-9-4T22:57:56Z</time></trkpt>
<trkpt lat="46.17884" lon="7.39505"><ele></ele><time>2025-9-4T22:57:59Z</time></trkpt>
<trkpt lat="46.17877" lon="7.39498"><ele></ele><time>2025-9-4T22:58:2Z</time></trkpt>
<trkpt lat="46.17875" lon="7.39496"><ele></ele><time>2025-9-4T22:58:5Z</time></trkpt>
<trkpt lat="46.17869" lon="7.39486"><ele></ele><time>2025-9-4T22:58:8Z</time></trkpt>
<trkpt lat="46.17868" lon="7.39484"><ele></ele><time>2025-9-4T22:58:11Z</time></trkpt>
<trkpt lat="46.17859" lon="7.39468"><ele></ele><time>2025-9-4T22:58:14Z</time></trkpt>
<trkpt lat="46.17857" lon="7.39466"><ele></ele><time>2025-9-4T22:58:17Z</time></trkpt>
<trkpt lat="46.1785" lon="7.39453"><ele></ele><time>2025-9-4T22:58:20Z</time></trkpt>
<trkpt lat="46.17847" lon="7.39448"><ele></ele><time>2025-9-4T22:58:23Z</time></trkpt>
<trkpt lat="46.17842" lon="7.39441"><ele></ele><time>2025-9-4T22:58:26Z</time></trkpt>
<trkpt lat="46.17838" lon="7.39434"><ele></ele><time>2025-9-4T22:58:29Z</time></trkpt>
<trkpt lat="46.17834" lon="7.39428"><ele></ele><time>2025-9-4T22:58:32Z</time></trkpt>
<trkpt lat="46.1783" lon="7.39421"><ele></ele><time>2025-9-4T22:58:35Z</time></trkpt>
<trkpt lat="46.17826" lon="7.39416"><ele></ele><time>2025-9-4T22:58:38Z</time></trkpt>
<trkpt lat="46.17822" lon="7.39411"><ele></ele><time>2025-9-4T22:58:41Z</time></trkpt>
<trkpt lat="46.17815" lon="7.39406"><ele></ele><time>2025-9-4T22:58:44Z</time></trkpt>
<trkpt lat="46.17813" lon="7.39402"><ele></ele><time>2025-9-4T22:58:47Z</time></trkpt>
<trkpt lat="46.17807" lon="7.39393"><ele></ele><time>2025-9-4T22:58:50Z</time></trkpt>
<trkpt lat="46.17807" lon="7.3939"><ele></ele><time>2025-9-4T22:58:53Z</time></trkpt>
<trkpt lat="46.17808" lon="7.39388"><ele></ele><time>2025-9-4T22:58:56Z</time></trkpt>
<trkpt lat="46.17809" lon="7.39386"><ele></ele><time>2025-9-4T22:58:59Z</time></trkpt>
<trkpt lat="46.17812" lon="7.39387"><ele></ele><time>2025-9-4T22:59:2Z</time></trkpt>
<trkpt lat="46.17813" lon="7.39388"><ele></ele><time>2025-9-4T22:59:5Z</time></trkpt>
<trkpt lat="46.17822" lon="7.39397"><ele></ele><time>2025-9-4T22:59:8Z</time></trkpt>
<trkpt lat="46.17825" lon="7.39399"><ele></ele><time>2025-9-4T22:59:11Z</time></trkpt>
<trkpt lat="46.1783" lon="7.39404"><ele></ele><time>2025-9-4T22:59:14Z</time></trkpt>
<trkpt lat="46.17835" lon="7.39408"><ele></ele><time>2025-9-4T22:59:17Z</time></trkpt>
<trkpt lat="46.1784" lon="7.39413"><ele></ele><time>2025-9-4T22:59:20Z</time></trkpt>
<trkpt lat="46.17843" lon="7.39416"><ele></ele><time>2025-9-4T22:59:23Z</time></trkpt>
<trkpt lat="46.17846" lon="7.39418"><ele></ele><time>2025-9-4T22:59:26Z</time></trkpt>
<trkpt lat="46.17858" lon="7.39424"><ele></ele><time>2025-9-4T22:59:29Z</time></trkpt>
<trkpt lat="46.1786" lon="7.39425"><ele></ele><time>2025-9-4T22:59:32Z</time></trkpt>
<trkpt lat="46.17872" lon="7.39429"><ele></ele><time>2025-9-4T22:59:35Z</time></trkpt>
<trkpt lat="46.17876" lon="7.3943"><ele></ele><time>2025-9-4T22:59:38Z</time></trkpt>
<trkpt lat="46.17887" lon="7.39437"><ele></ele><time>2025-9-4T22:59:41Z</time></trkpt>
<trkpt lat="46.17889" lon="7.39439"><ele></ele><time>2025-9-4T22:59:44Z</time></trkpt>
<trkpt lat="46.17899" lon="7.39446"><ele></ele><time>2025-9-4T22:59:47Z</time></trkpt>
<trkpt lat="46.17901" lon="7.39447"><ele></ele><time>2025-9-4T22:59:50Z</time></trkpt>
<trkpt lat="46.17909" lon="7.39451"><ele></ele><time>2025-9-4T22:59:53Z</time></trkpt>
<trkpt lat="46.1792" lon="7.39452"><ele></ele><time>2025-9-4T22:59:56Z</time></trkpt>
<trkpt lat="46.17925" lon="7.3945"><ele></ele><time>2025-9-4T22:59:59Z</time></trkpt>
<trkpt lat="46.17935" lon="7.39443"><ele></ele><time>2025-9-4T23:0:2Z</time></trkpt>
<trkpt lat="46.17941" lon="7.39438"><ele></ele><time>2025-9-4T23:0:5Z</time></trkpt>
<trkpt lat="46.17952" lon="7.39429"><ele></ele><time>2025-9-4T23:0:8Z</time></trkpt>
<trkpt lat="46.17954" lon="7.39428"><ele></ele><time>2025-9-4T23:0:11Z</time></trkpt>
<trkpt lat="46.17963" lon="7.39421"><ele></ele><time>2025-9-4T23:0:14Z</time></trkpt>
<trkpt lat="46.17965" lon="7.3942"><ele></ele><time>2025-9-4T23:0:17Z</time></trkpt>
<trkpt lat="46.17974" lon="7.39418"><ele></ele><time>2025-9-4T23:0:20Z</time></trkpt>
<trkpt lat="46.17977" lon="7.39418"><ele></ele><time>2025-9-4T23:0:23Z</time></trkpt>
<trkpt lat="46.17986" lon="7.39418"><ele></ele><time>2025-9-4T23:0:26Z</time></trkpt>
<trkpt lat="46.17991" lon="7.39419"><ele></ele><time>2025-9-4T23:0:29Z</time></trkpt>
<trkpt lat="46.17998" lon="7.3942"><ele></ele><time>2025-9-4T23:0:32Z</time></trkpt>
<trkpt lat="46.18007" lon="7.39421"><ele></ele><time>2025-9-4T23:0:35Z</time></trkpt>
<trkpt lat="46.1801" lon="7.39422"><ele></ele><time>2025-9-4T23:0:38Z</time></trkpt>
<trkpt lat="46.18022" lon="7.39422"><ele></ele><time>2025-9-4T23:0:41Z</time></trkpt>
<trkpt lat="46.18037" lon="7.39422"><ele></ele><time>2025-9-4T23:0:44Z</time></trkpt>
<trkpt lat="46.18039" lon="7.39422"><ele></ele><time>2025-9-4T23:0:47Z</time></trkpt>
<trkpt lat="46.18047" lon="7.39421"><ele></ele><time>2025-9-4T23:0:50Z</time></trkpt>
<trkpt lat="46.1806" lon="7.39418"><ele></ele><time>2025-9-4T23:0:53Z</time></trkpt>
<trkpt lat="46.18072" lon="7.39414"><ele></ele><time>2025-9-4T23:0:56Z</time></trkpt>
<trkpt lat="46.18076" lon="7.39414"><ele></ele><time>2025-9-4T23:0:59Z</time></trkpt>
<trkpt lat="46.18088" lon="7.39413"><ele></ele><time>2025-9-4T23:1:2Z</time></trkpt>
<trkpt lat="46.18092" lon="7.39413"><ele></ele><time>2025-9-4T23:1:5Z</time></trkpt>
<trkpt lat="46.18103" lon="7.39414"><ele></ele><time>2025-9-4T23:1:8Z</time></trkpt>
<trkpt lat="46.18107" lon="7.39415"><ele></ele><time>2025-9-4T23:1:11Z</time></trkpt>
<trkpt lat="46.18114" lon="7.39415"><ele></ele><time>2025-9-4T23:1:14Z</time></trkpt>
<trkpt lat="46.18118" lon="7.39415"><ele></ele><time>2025-9-4T23:1:17Z</time></trkpt>
<trkpt lat="46.18127" lon="7.39416"><ele></ele><time>2025-9-4T23:1:20Z</time></trkpt>
<trkpt lat="46.18133" lon="7.39418"><ele></ele><time>2025-9-4T23:1:23Z</time></trkpt>
<trkpt lat="46.18139" lon="7.39419"><ele></ele><time>2025-9-4T23:1:26Z</time></trkpt>
<trkpt lat="46.18148" lon="7.39421"><ele></ele><time>2025-9-4T23:1:29Z</time></trkpt>
<trkpt lat="46.18152" lon="7.39421"><ele></ele><time>2025-9-4T23:1:32Z</time></trkpt>
<trkpt lat="46.18159" lon="7.39423"><ele></ele><time>2025-9-4T23:1:35Z</time></trkpt>
<trkpt lat="46.18163" lon="7.39425"><ele></ele><time>2025-9-4T23:1:38Z</time></trkpt>
<trkpt lat="46.18168" lon="7.39426"><ele></ele><time>2025-9-4T23:1:41Z</time></trkpt>
<trkpt lat="46.18179" lon="7.39427"><ele></ele><time>2025-9-4T23:1:44Z</time></trkpt>
<trkpt lat="46.18181" lon="7.39427"><ele></ele><time>2025-9-4T23:1:47Z</time></trkpt>
<trkpt lat="46.18191" lon="7.39427"><ele></ele><time>2025-9-4T23:1:50Z</time></trkpt>
<trkpt lat="46.18195" lon="7.39427"><ele></ele><time>2025-9-4T23:1:53Z</time></trkpt>
<trkpt lat="46.18205" lon="7.39428"><ele></ele><time>2025-9-4T23:1:56Z</time></trkpt>
<trkpt lat="46.1821" lon="7.39429"><ele></ele><time>2025-9-4T23:1:59Z</time></trkpt>
<trkpt lat="46.18217" lon="7.3943"><ele></ele><time>2025-9-4T23:2:2Z</time></trkpt>
<trkpt lat="46.1822" lon="7.3943"><ele></ele><time>2025-9-4T23:2:5Z</time></trkpt>
<trkpt lat="46.1823" lon="7.3943"><ele></ele><time>2025-9-4T23:2:8Z</time></trkpt>
<trkpt lat="46.18242" lon="7.39432"><ele></ele><time>2025-9-4T23:2:11Z</time></trkpt>
<trkpt lat="46.18245" lon="7.39432"><ele></ele><time>2025-9-4T23:2:14Z</time></trkpt>
<trkpt lat="46.18253" lon="7.39434"><ele></ele><time>2025-9-4T23:2:17Z</time></trkpt>
<trkpt lat="46.18255" lon="7.39434"><ele></ele><time>2025-9-4T23:2:20Z</time></trkpt>
<trkpt lat="46.18263" lon="7.39435"><ele></ele><time>2025-9-4T23:2:23Z</time></trkpt>
<trkpt lat="46.1827" lon="7.39435"><ele></ele><time>2025-9-4T23:2:26Z</time></trkpt>
<trkpt lat="46.18276" lon="7.39434"><ele></ele><time>2025-9-4T23:2:29Z</time></trkpt>
<trkpt lat="46.18282" lon="7.39433"><ele></ele><time>2025-9-4T23:2:32Z</time></trkpt>
<trkpt lat="46.18289" lon="7.39432"><ele></ele><time>2025-9-4T23:2:35Z</time></trkpt>
<trkpt lat="46.18293" lon="7.39428"><ele></ele><time>2025-9-4T23:2:38Z</time></trkpt>
<trkpt lat="46.18303" lon="7.3942"><ele></ele><time>2025-9-4T23:2:41Z</time></trkpt>
<trkpt lat="46.18307" lon="7.39413"><ele></ele><time>2025-9-4T23:2:44Z</time></trkpt>
<trkpt lat="46.18313" lon="7.39405"><ele></ele><time>2025-9-4T23:2:47Z</time></trkpt>
<trkpt lat="46.18315" lon="7.39401"><ele></ele><time>2025-9-4T23:2:50Z</time></trkpt>
<trkpt lat="46.18321" lon="7.39391"><ele></ele><time>2025-9-4T23:2:53Z</time></trkpt>
<trkpt lat="46.18322" lon="7.39387"><ele></ele><time>2025-9-4T23:2:56Z</time></trkpt>
<trkpt lat="46.18327" lon="7.3938"><ele></ele><time>2025-9-4T23:2:59Z</time></trkpt>
<trkpt lat="46.18332" lon="7.39373"><ele></ele><time>2025-9-4T23:3:2Z</time></trkpt>
<trkpt lat="46.18336" lon="7.39368"><ele></ele><time>2025-9-4T23:3:5Z</time></trkpt>
<trkpt lat="46.18341" lon="7.39363"><ele></ele><time>2025-9-4T23:3:8Z</time></trkpt>
<trkpt lat="46.18346" lon="7.39359"><ele></ele><time>2025-9-4T23:3:11Z</time></trkpt>
<trkpt lat="46.18348" lon="7.39358"><ele></ele><time>2025-9-4T23:3:14Z</time></trkpt>
<trkpt lat="46.18351" lon="7.39354"><ele></ele><time>2025-9-4T23:3:17Z</time></trkpt>
<trkpt lat="46.18356" lon="7.39347"><ele></ele><time>2025-9-4T23:3:20Z</time></trkpt>
<trkpt lat="46.18363" lon="7.39342"><ele></ele><time>2025-9-4T23:3:23Z</time></trkpt>
<trkpt lat="46.18367" lon="7.39338"><ele></ele><time>2025-9-4T23:3:26Z</time></trkpt>
<trkpt lat="46.18375" lon="7.3933"><ele></ele><time>2025-9-4T23:3:29Z</time></trkpt>
<trkpt lat="46.18377" lon="7.39329"><ele></ele><time>2025-9-4T23:3:32Z</time></trkpt>
<trkpt lat="46.18388" lon="7.39321"><ele></ele><time>2025-9-4T23:3:35Z</time></trkpt>
<trkpt lat="46.184" lon="7.39318"><ele></ele><time>2025-9-4T23:3:38Z</time></trkpt>
<trkpt lat="46.18401" lon="7.39317"><ele></ele><time>2025-9-4T23:3:41Z</time></trkpt>
<trkpt lat="46.18409" lon="7.39313"><ele></ele><time>2025-9-4T23:3:44Z</time></trkpt>
<trkpt lat="46.18412" lon="7.39311"><ele></ele><time>2025-9-4T23:3:47Z</time></trkpt>
<trkpt lat="46.18417" lon="7.39306"><ele></ele><time>2025-9-4T23:3:50Z</time></trkpt>
<trkpt lat="46.18419" lon="7.39304"><ele></ele><time>2025-9-4T23:3:53Z</time></trkpt>
<trkpt lat="46.1843" lon="7.39297"><ele></ele><time>2025-9-4T23:3:56Z</time></trkpt>
<trkpt lat="46.18434" lon="7.39293"><ele></ele><time>2025-9-4T23:3:59Z</time></trkpt>
<trkpt lat="46.18442" lon="7.39289"><ele></ele><time>2025-9-4T23:4:2Z</time></trkpt>
<trkpt lat="46.18444" lon="7.39288"><ele></ele><time>2025-9-4T23:4:5Z</time></trkpt>
<trkpt lat="46.18453" lon="7.39284"><ele></ele><time>2025-9-4T23:4:8Z</time></trkpt>
<trkpt lat="46.18454" lon="7.39283"><ele></ele><time>2025-9-4T23:4:11Z</time></trkpt>
<trkpt lat="46.1846" lon="7.3928"><ele></ele><time>2025-9-4T23:4:14Z</time></trkpt>
<trkpt lat="46.18462" lon="7.39278"><ele></ele><time>2025-9-4T23:4:17Z</time></trkpt>
<trkpt lat="46.18473" lon="7.39268"><ele></ele><time>2025-9-4T23:4:20Z</time></trkpt>
<trkpt lat="46.18474" lon="7.39266"><ele></ele><time>2025-9-4T23:4:23Z</time></trkpt>
<trkpt lat="46.18482" lon="7.39258"><ele></ele><time>2025-9-4T23:4:26Z</time></trkpt>
<trkpt lat="46.18487" lon="7.39253"><ele></ele><time>2025-9-4T23:4:29Z</time></trkpt>
<trkpt lat="46.18492" lon="7.3925"><ele></ele><time>2025-9-4T23:4:32Z</time></trkpt>
<trkpt lat="46.18501" lon="7.39244"><ele></ele><time>2025-9-4T23:4:35Z</time></trkpt>
<trkpt lat="46.18505" lon="7.39244"><ele></ele><time>2025-9-4T23:4:38Z</time></trkpt>
<trkpt lat="46.18515" lon="7.39243"><ele></ele><time>2025-9-4T23:4:41Z</time></trkpt>
<trkpt lat="46.1852" lon="7.39243"><ele></ele><time>2025-9-4T23:4:44Z</time></trkpt>
<trkpt lat="46.18525" lon="7.39244"><ele></ele><time>2025-9-4T23:4:47Z</time></trkpt>
<trkpt lat="46.18536" lon="7.39244"><ele></ele><time>2025-9-4T23:4:50Z</time></trkpt>
<trkpt lat="46.18548" lon="7.39236"><ele></ele><time>2025-9-4T23:4:53Z</time></trkpt>
<trkpt lat="46.1855" lon="7.39234"><ele></ele><time>2025-9-4T23:4:56Z</time></trkpt>
<trkpt lat="46.18559" lon="7.39224"><ele></ele><time>2025-9-4T23:4:59Z</time></trkpt>
<trkpt lat="46.1857" lon="7.39212"><ele></ele><time>2025-9-4T23:5:2Z</time></trkpt>
<trkpt lat="46.18572" lon="7.39211"><ele></ele><time>2025-9-4T23:5:5Z</time></trkpt>
<trkpt lat="46.18582" lon="7.39202"><ele></ele><time>2025-9-4T23:5:8Z</time></trkpt>
<trkpt lat="46.18584" lon="7.39201"><ele></ele><time>2025-9-4T23:5:11Z</time></trkpt>
<trkpt lat="46.18593" lon="7.39196"><ele></ele><time>2025-9-4T23:5:14Z</time></trkpt>
<trkpt lat="46.18601" lon="7.39192"><ele></ele><time>2025-9-4T23:5:17Z</time></trkpt>
<trkpt lat="46.18605" lon="7.39191"><ele></ele><time>2025-9-4T23:5:20Z</time></trkpt>
<trkpt lat="46.18616" lon="7.39185"><ele></ele><time>2025-9-4T23:5:23Z</time></trkpt>
<trkpt lat="46.18618" lon="7.39185"><ele></ele><time>2025-9-4T23:5:26Z</time></trkpt>
<trkpt lat="46.18627" lon="7.39181"><ele></ele><time>2025-9-4T23:5:29Z</time></trkpt>
<trkpt lat="46.18633" lon="7.39178"><ele></ele><time>2025-9-4T23:5:32Z</time></trkpt>
<trkpt lat="46.18637" lon="7.39176"><ele></ele><time>2025-9-4T23:5:35Z</time></trkpt>
<trkpt lat="46.18644" lon="7.39172"><ele></ele><time>2025-9-4T23:5:38Z</time></trkpt>
<trkpt lat="46.18647" lon="7.3917"><ele></ele><time>2025-9-4T23:5:41Z</time></trkpt>
<trkpt lat="46.18655" lon="7.39167"><ele></ele><time>2025-9-4T23:5:44Z</time></trkpt>
<trkpt lat="46.18657" lon="7.39167"><ele></ele><time>2025-9-4T23:5:47Z</time></trkpt>
<trkpt lat="46.1867" lon="7.39163"><ele></ele><time>2025-9-4T23:5:50Z</time></trkpt>
<trkpt lat="46.18681" lon="7.3916"><ele></ele><time>2025-9-4T23:5:53Z</time></trkpt>
<trkpt lat="46.18684" lon="7.39158"><ele></ele><time>2025-9-4T23:5:56Z</time></trkpt>
<trkpt lat="46.18694" lon="7.39151"><ele></ele><time>2025-9-4T23:5:59Z</time></trkpt>
<trkpt lat="46.18696" lon="7.3915"><ele></ele><time>2025-9-4T23:6:2Z</time></trkpt>
<trkpt lat="46.18705" lon="7.39143"><ele></ele><time>2025-9-4T23:6:5Z</time></trkpt>
<trkpt lat="46.18707" lon="7.39141"><ele></ele><time>2025-9-4T23:6:8Z</time></trkpt>
<trkpt lat="46.18716" lon="7.39135"><ele></ele><time>2025-9-4T23:6:11Z</time></trkpt>
<trkpt lat="46.18719" lon="7.39132"><ele></ele><time>2025-9-4T23:6:14Z</time></trkpt>
<trkpt lat="46.18729" lon="7.39125"><ele></ele><time>2025-9-4T23:6:17Z</time></trkpt>
<trkpt lat="46.1873" lon="7.39124"><ele></ele><time>2025-9-4T23:6:20Z</time></trkpt>
<trkpt lat="46.18739" lon="7.39119"><ele></ele><time>2025-9-4T23:6:23Z</time></trkpt>
<trkpt lat="46.18741" lon="7.39118"><ele></ele><time>2025-9-4T23:6:26Z</time></trkpt>
<trkpt lat="46.18754" lon="7.39118"><ele></ele><time>2025-9-4T23:6:29Z</time></trkpt>
<trkpt lat="46.18763" lon="7.39112"><ele></ele><time>2025-9-4T23:6:32Z</time></trkpt>
<trkpt lat="46.18765" lon="7.39101"><ele></ele><time>2025-9-4T23:6:35Z</time></trkpt>
<trkpt lat="46.18763" lon="7.39097"><ele></ele><time>2025-9-4T23:6:38Z</time></trkpt>
<trkpt lat="46.18755" lon="7.39095"><ele></ele><time>2025-9-4T23:6:41Z</time></trkpt>
<trkpt lat="46.18753" lon="7.39096"><ele></ele><time>2025-9-4T23:6:44Z</time></trkpt>
<trkpt lat="46.18741" lon="7.39099"><ele></ele><time>2025-9-4T23:6:47Z</time></trkpt>
<trkpt lat="46.18737" lon="7.391"><ele></ele><time>2025-9-4T23:6:50Z</time></trkpt>
<trkpt lat="46.18726" lon="7.39104"><ele></ele><time>2025-9-4T23:6:53Z</time></trkpt>
<trkpt lat="46.18721" lon="7.39106"><ele></ele><time>2025-9-4T23:6:56Z</time></trkpt>
<trkpt lat="46.18711" lon="7.39107"><ele></ele><time>2025-9-4T23:6:59Z</time></trkpt>
<trkpt lat="46.18708" lon="7.39107"><ele></ele><time>2025-9-4T23:7:2Z</time></trkpt>
<trkpt lat="46.18695" lon="7.39106"><ele></ele><time>2025-9-4T23:7:5Z</time></trkpt>
<trkpt lat="46.18681" lon="7.39103"><ele></ele><time>2025-9-4T23:7:8Z</time></trkpt>
<trkpt lat="46.18678" lon="7.39103"><ele></ele><time>2025-9-4T23:7:11Z</time></trkpt>
<trkpt lat="46.18668" lon="7.39101"><ele></ele><time>2025-9-4T23:7:14Z</time></trkpt>
<trkpt lat="46.18662" lon="7.39101"><ele></ele><time>2025-9-4T23:7:17Z</time></trkpt>
<trkpt lat="46.18657" lon="7.391"><ele></ele><time>2025-9-4T23:7:20Z</time></trkpt>
<trkpt lat="46.1865" lon="7.391"><ele></ele><time>2025-9-4T23:7:23Z</time></trkpt>
<trkpt lat="46.18645" lon="7.391"><ele></ele><time>2025-9-4T23:7:26Z</time></trkpt>
<trkpt lat="46.18633" lon="7.39099"><ele></ele><time>2025-9-4T23:7:29Z</time></trkpt>
<trkpt lat="46.18631" lon="7.39099"><ele></ele><time>2025-9-4T23:7:32Z</time></trkpt>
<trkpt lat="46.18623" lon="7.39099"><ele></ele><time>2025-9-4T23:7:35Z</time></trkpt>
<trkpt lat="46.1862" lon="7.39099"><ele></ele><time>2025-9-4T23:7:38Z</time></trkpt>
<trkpt lat="46.18611" lon="7.39103"><ele></ele><time>2025-9-4T23:7:41Z</time></trkpt>
<trkpt lat="46.1861" lon="7.39104"><ele></ele><time>2025-9-4T23:7:44Z</time></trkpt>
<trkpt lat="46.18599" lon="7.39108"><ele></ele><time>2025-9-4T23:7:47Z</time></trkpt>
<trkpt lat="46.18597" lon="7.39109"><ele></ele><time>2025-9-4T23:7:50Z</time></trkpt>
<trkpt lat="46.18586" lon="7.39116"><ele></ele><time>2025-9-4T23:7:53Z</time></trkpt>
<trkpt lat="46.18582" lon="7.39119"><ele></ele><time>2025-9-4T23:7:56Z</time></trkpt>
<trkpt lat="46.18575" lon="7.39121"><ele></ele><time>2025-9-4T23:7:59Z</time></trkpt>
<trkpt lat="46.1857" lon="7.39123"><ele></ele><time>2025-9-4T23:8:2Z</time></trkpt>
<trkpt lat="46.1856" lon="7.39125"><ele></ele><time>2025-9-4T23:8:5Z</time></trkpt>
<trkpt lat="46.18552" lon="7.39124"><ele></ele><time>2025-9-4T23:8:8Z</time></trkpt>
<trkpt lat="46.18549" lon="7.39124"><ele></ele><time>2025-9-4T23:8:11Z</time></trkpt>
<trkpt lat="46.18537" lon="7.39122"><ele></ele><time>2025-9-4T23:8:14Z</time></trkpt>
<trkpt lat="46.18523" lon="7.39118"><ele></ele><time>2025-9-4T23:8:17Z</time></trkpt>
<trkpt lat="46.1852" lon="7.39117"><ele></ele><time>2025-9-4T23:8:20Z</time></trkpt>
<trkpt lat="46.1851" lon="7.39116"><ele></ele><time>2025-9-4T23:8:23Z</time></trkpt>
<trkpt lat="46.18505" lon="7.39116"><ele></ele><time>2025-9-4T23:8:26Z</time></trkpt>
<trkpt lat="46.18496" lon="7.39117"><ele></ele><time>2025-9-4T23:8:29Z</time></trkpt>
<trkpt lat="46.18492" lon="7.39117"><ele></ele><time>2025-9-4T23:8:32Z</time></trkpt>
<trkpt lat="46.18486" lon="7.39118"><ele></ele><time>2025-9-4T23:8:35Z</time></trkpt>
<trkpt lat="46.18474" lon="7.39122"><ele></ele><time>2025-9-4T23:8:38Z</time></trkpt>
<trkpt lat="46.1847" lon="7.39123"><ele></ele><time>2025-9-4T23:8:41Z</time></trkpt>
<trkpt lat="46.18459" lon="7.39128"><ele></ele><time>2025-9-4T23:8:44Z</time></trkpt>
<trkpt lat="46.18458" lon="7.39129"><ele></ele><time>2025-9-4T23:8:47Z</time></trkpt>
<trkpt lat="46.18446" lon="7.39137"><ele></ele><time>2025-9-4T23:8:50Z</time></trkpt>
<trkpt lat="46.18443" lon="7.39139"><ele></ele><time>2025-9-4T23:8:53Z</time></trkpt>
<trkpt lat="46.18434" lon="7.39145"><ele></ele><time>2025-9-4T23:8:56Z</time></trkpt>
<trkpt lat="46.1843" lon="7.39146"><ele></ele><time>2025-9-4T23:8:59Z</time></trkpt>
<trkpt lat="46.18421" lon="7.39149"><ele></ele><time>2025-9-4T23:9:2Z</time></trkpt>
<trkpt lat="46.18418" lon="7.3915"><ele></ele><time>2025-9-4T23:9:5Z</time></trkpt>
<trkpt lat="46.18406" lon="7.3915"><ele></ele><time>2025-9-4T23:9:8Z</time></trkpt>
<trkpt lat="46.18404" lon="7.3915"><ele></ele><time>2025-9-4T23:9:11Z</time></trkpt>
<trkpt lat="46.18394" lon="7.39146"><ele></ele><time>2025-9-4T23:9:14Z</time></trkpt>
<trkpt lat="46.18388" lon="7.39145"><ele></ele><time>2025-9-4T23:9:17Z</time></trkpt>
<trkpt lat="46.18384" lon="7.39143"><ele></ele><time>2025-9-4T23:9:20Z</time></trkpt>
<trkpt lat="46.18379" lon="7.3914"><ele></ele><time>2025-9-4T23:9:23Z</time></trkpt>
<trkpt lat="46.18375" lon="7.39138"><ele></ele><time>2025-9-4T23:9:26Z</time></trkpt>
<trkpt lat="46.18371" lon="7.39136"><ele></ele><time>2025-9-4T23:9:29Z</time></trkpt>
<trkpt lat="46.18368" lon="7.39134"><ele></ele><time>2025-9-4T23:9:32Z</time></trkpt>
<trkpt lat="46.18365" lon="7.39132"><ele></ele><time>2025-9-4T23:9:35Z</time></trkpt>
<trkpt lat="46.18354" lon="7.39124"><ele></ele><time>2025-9-4T23:9:38Z</time></trkpt>
<trkpt lat="46.18342" lon="7.39116"><ele></ele><time>2025-9-4T23:9:41Z</time></trkpt>
<trkpt lat="46.18332" lon="7.39111"><ele></ele><time>2025-9-4T23:9:44Z</time></trkpt>
<trkpt lat="46.18329" lon="7.39109"><ele></ele><time>2025-9-4T23:9:47Z</time></trkpt>
<trkpt lat="46.18321" lon="7.39104"><ele></ele><time>2025-9-4T23:9:50Z</time></trkpt>
<trkpt lat="46.18316" lon="7.39101"><ele></ele><time>2025-9-4T23:9:53Z</time></trkpt>
<trkpt lat="46.18311" lon="7.39097"><ele></ele><time>2025-9-4T23:9:56Z</time></trkpt>
<trkpt lat="46.18305" lon="7.39094"><ele></ele><time>2025-9-4T23:9:59Z</time></trkpt>
<trkpt lat="46.18298" lon="7.39089"><ele></ele><time>2025-9-4T23:10:2Z</time></trkpt>
<trkpt lat="46.18294" lon="7.39086"><ele></ele><time>2025-9-4T23:10:5Z</time></trkpt>
<trkpt lat="46.18286" lon="7.3908"><ele></ele><time>2025-9-4T23:10:8Z</time></trkpt>
<trkpt lat="46.18282" lon="7.39079"><ele></ele><time>2025-9-4T23:10:11Z</time></trkpt>
<trkpt lat="46.18274" lon="7.39074"><ele></ele><time>2025-9-4T23:10:14Z</time></trkpt>
<trkpt lat="46.18268" lon="7.39071"><ele></ele><time>2025-9-4T23:10:17Z</time></trkpt>
<trkpt lat="46.18261" lon="7.39066"><ele></ele><time>2025-9-4T23:10:20Z</time></trkpt>
<trkpt lat="46.18259" lon="7.39063"><ele></ele><time>2025-9-4T23:10:23Z</time></trkpt>
<trkpt lat="46.18258" lon="7.39062"><ele></ele><time>2025-9-4T23:10:26Z</time></trkpt>
<trkpt lat="46.18258" lon="7.39062"><ele></ele><time>2025-9-4T23:10:29Z</time></trkpt>
<trkpt lat="46.18258" lon="7.39062"><ele></ele><time>2025-9-4T23:10:32Z</time></trkpt>
<trkpt lat="46.18258" lon="7.39062"><ele></ele><time>2025-9-4T23:10:35Z</time></trkpt>
<trkpt lat="46.18258" lon="7.39062"><ele></ele><time>2025-9-4T23:10:38Z</time></trkpt>
<trkpt lat="46.18258" lon="7.39062"><ele></ele><time>2025-9-4T23:10:41Z</time></trkpt>
<trkpt lat="46.18258" lon="7.39062"><ele></ele><time>2025-9-4T23:10:44Z</time></trkpt>
<trkpt lat="46.18258" lon="7.39062"><ele></ele><time>2025-9-4T23:10:47Z</time></trkpt>
<trkpt lat="46.18258" lon="7.39062"><ele></ele><time>2025-9-4T23:10:50Z</time></trkpt>
<trkpt lat="46.18258" lon="7.39062"><ele></ele><time>2025-9-4T23:10:53Z</time></trkpt>
<trkpt lat="46.18258" lon="7.39063"><ele></ele><time>2025-9-4T23:10:56Z</time></trkpt>
<trkpt lat="46.18258" lon="7.39063"><ele></ele><time>2025-9-4T23:10:59Z</time></trkpt>
<trkpt lat="46.18258" lon="7.39064"><ele></ele><time>2025-9-4T23:11:2Z</time></trkpt>
<trkpt lat="46.1825" lon="7.39061"><ele></ele><time>2025-9-4T23:11:5Z</time></trkpt>
<trkpt lat="46.18248" lon="7.39059"><ele></ele><time>2025-9-4T23:11:8Z</time></trkpt>
<trkpt lat="46.18244" lon="7.39058"><ele></ele><time>2025-9-4T23:11:11Z</time></trkpt>
<trkpt lat="46.18234" lon="7.39053"><ele></ele><time>2025-9-4T23:11:14Z</time></trkpt>
<trkpt lat="46.18233" lon="7.39052"><ele></ele><time>2025-9-4T23:11:17Z</time></trkpt>
<trkpt lat="46.18228" lon="7.39049"><ele></ele><time>2025-9-4T23:11:20Z</time></trkpt>
<trkpt lat="46.18225" lon="7.39047"><ele></ele><time>2025-9-4T23:11:23Z</time></trkpt>
<trkpt lat="46.18222" lon="7.39045"><ele></ele><time>2025-9-4T23:11:26Z</time></trkpt>
<trkpt lat="46.18215" lon="7.39041"><ele></ele><time>2025-9-4T23:11:29Z</time></trkpt>
<trkpt lat="46.18211" lon="7.39037"><ele></ele><time>2025-9-4T23:11:32Z</time></trkpt>
<trkpt lat="46.18208" lon="7.39035"><ele></ele><time>2025-9-4T23:11:35Z</time></trkpt>
<trkpt lat="46.18207" lon="7.39034"><ele></ele><time>2025-9-4T23:11:38Z</time></trkpt>
<trkpt lat="46.18203" lon="7.39031"><ele></ele><time>2025-9-4T23:11:41Z</time></trkpt>
<trkpt lat="46.18202" lon="7.3903"><ele></ele><time>2025-9-4T23:11:44Z</time></trkpt>
<trkpt lat="46.18201" lon="7.3903"><ele></ele><time>2025-9-4T23:11:47Z</time></trkpt>
<trkpt lat="46.18192" lon="7.39023"><ele></ele><time>2025-9-4T23:11:50Z</time></trkpt>
<trkpt lat="46.18191" lon="7.39022"><ele></ele><time>2025-9-4T23:11:53Z</time></trkpt>
<trkpt lat="46.18182" lon="7.39018"><ele></ele><time>2025-9-4T23:11:56Z</time></trkpt>
<trkpt lat="46.18181" lon="7.39017"><ele></ele><time>2025-9-4T23:11:59Z</time></trkpt>
<trkpt lat="46.18172" lon="7.39013"><ele></ele><time>2025-9-4T23:12:2Z</time></trkpt>
<trkpt lat="46.1817" lon="7.39013"><ele></ele><time>2025-9-4T23:12:5Z</time></trkpt>
<trkpt lat="46.18161" lon="7.39009"><ele></ele><time>2025-9-4T23:12:8Z</time></trkpt>
<trkpt lat="46.18159" lon="7.39008"><ele></ele><time>2025-9-4T23:12:11Z</time></trkpt>
<trkpt lat="46.18152" lon="7.39005"><ele></ele><time>2025-9-4T23:12:14Z</time></trkpt>
<trkpt lat="46.18142" lon="7.39001"><ele></ele><time>2025-9-4T23:12:17Z</time></trkpt>
<trkpt lat="46.18141" lon="7.39"><ele></ele><time>2025-9-4T23:12:20Z</time></trkpt>
<trkpt lat="46.18131" lon="7.38997"><ele></ele><time>2025-9-4T23:12:23Z</time></trkpt>
<trkpt lat="46.18129" lon="7.38997"><ele></ele><time>2025-9-4T23:12:26Z</time></trkpt>
<trkpt lat="46.18121" lon="7.38997"><ele></ele><time>2025-9-4T23:12:29Z</time></trkpt>
<trkpt lat="46.18118" lon="7.38998"><ele></ele><time>2025-9-4T23:12:32Z</time></trkpt>
<trkpt lat="46.18109" lon="7.38999"><ele></ele><time>2025-9-4T23:12:35Z</time></trkpt>
<trkpt lat="46.18103" lon="7.39001"><ele></ele><time>2025-9-4T23:12:38Z</time></trkpt>
<trkpt lat="46.18098" lon="7.39002"><ele></ele><time>2025-9-4T23:12:41Z</time></trkpt>
<trkpt lat="46.18085" lon="7.39004"><ele></ele><time>2025-9-4T23:12:44Z</time></trkpt>
<trkpt lat="46.18083" lon="7.39005"><ele></ele><time>2025-9-4T23:12:47Z</time></trkpt>
<trkpt lat="46.1807" lon="7.39001"><ele></ele><time>2025-9-4T23:12:50Z</time></trkpt>
<trkpt lat="46.18069" lon="7.38993"><ele></ele><time>2025-9-4T23:12:53Z</time></trkpt>
<trkpt lat="46.1807" lon="7.3899"><ele></ele><time>2025-9-4T23:12:56Z</time></trkpt>
<trkpt lat="46.1808" lon="7.38987"><ele></ele><time>2025-9-4T23:12:59Z</time></trkpt>
<trkpt lat="46.18082" lon="7.38987"><ele></ele><time>2025-9-4T23:13:2Z</time></trkpt>
<trkpt lat="46.18096" lon="7.38984"><ele></ele><time>2025-9-4T23:13:5Z</time></trkpt>
<trkpt lat="46.18098" lon="7.38984"><ele></ele><time>2025-9-4T23:13:8Z</time></trkpt>
<trkpt lat="46.1811" lon="7.3898"><ele></ele><time>2025-9-4T23:13:11Z</time></trkpt>
<trkpt lat="46.18112" lon="7.3898"><ele></ele><time>2025-9-4T23:13:14Z</time></trkpt>
<trkpt lat="46.18123" lon="7.38975"><ele></ele><time>2025-9-4T23:13:17Z</time></trkpt>
<trkpt lat="46.18125" lon="7.38973"><ele></ele><time>2025-9-4T23:13:20Z</time></trkpt>
<trkpt lat="46.18136" lon="7.38969"><ele></ele><time>2025-9-4T23:13:23Z</time></trkpt>
<trkpt lat="46.18138" lon="7.38968"><ele></ele><time>2025-9-4T23:13:26Z</time></trkpt>
<trkpt lat="46.18146" lon="7.38965"><ele></ele><time>2025-9-4T23:13:29Z</time></trkpt>
<trkpt lat="46.18147" lon="7.38965"><ele></ele><time>2025-9-4T23:13:32Z</time></trkpt>
<trkpt lat="46.18156" lon="7.38961"><ele></ele><time>2025-9-4T23:13:35Z</time></trkpt>
<trkpt lat="46.18159" lon="7.3896"><ele></ele><time>2025-9-4T23:13:38Z</time></trkpt>
<trkpt lat="46.18167" lon="7.38957"><ele></ele><time>2025-9-4T23:13:41Z</time></trkpt>
<trkpt lat="46.18173" lon="7.38957"><ele></ele><time>2025-9-4T23:13:44Z</time></trkpt>
<trkpt lat="46.18178" lon="7.38954"><ele></ele><time>2025-9-4T23:13:47Z</time></trkpt>
<trkpt lat="46.18186" lon="7.38955"><ele></ele><time>2025-9-4T23:13:50Z</time></trkpt>
<trkpt lat="46.182" lon="7.38955"><ele></ele><time>2025-9-4T23:13:53Z</time></trkpt>
<trkpt lat="46.18203" lon="7.38955"><ele></ele><time>2025-9-4T23:13:56Z</time></trkpt>
<trkpt lat="46.18212" lon="7.38953"><ele></ele><time>2025-9-4T23:13:59Z</time></trkpt>
<trkpt lat="46.18216" lon="7.38952"><ele></ele><time>2025-9-4T23:14:2Z</time></trkpt>
<trkpt lat="46.18223" lon="7.3895"><ele></ele><time>2025-9-4T23:14:5Z</time></trkpt>
<trkpt lat="46.18229" lon="7.38947"><ele></ele><time>2025-9-4T23:14:8Z</time></trkpt>
<trkpt lat="46.18235" lon="7.38946"><ele></ele><time>2025-9-4T23:14:11Z</time></trkpt>
<trkpt lat="46.18244" lon="7.38943"><ele></ele><time>2025-9-4T23:14:14Z</time></trkpt>
<trkpt lat="46.18249" lon="7.3894"><ele></ele><time>2025-9-4T23:14:17Z</time></trkpt>
<trkpt lat="46.18256" lon="7.38936"><ele></ele><time>2025-9-4T23:14:20Z</time></trkpt>
<trkpt lat="46.18264" lon="7.38932"><ele></ele><time>2025-9-4T23:14:23Z</time></trkpt>
<trkpt lat="46.18268" lon="7.3893"><ele></ele><time>2025-9-4T23:14:26Z</time></trkpt>
<trkpt lat="46.18278" lon="7.38926"><ele></ele><time>2025-9-4T23:14:29Z</time></trkpt>
<trkpt lat="46.1829" lon="7.38923"><ele></ele><time>2025-9-4T23:14:32Z</time></trkpt>
<trkpt lat="46.18297" lon="7.38923"><ele></ele><time>2025-9-4T23:14:35Z</time></trkpt>
<trkpt lat="46.18305" lon="7.38923"><ele></ele><time>2025-9-4T23:14:38Z</time></trkpt>
<trkpt lat="46.18313" lon="7.38925"><ele></ele><time>2025-9-4T23:14:41Z</time></trkpt>
<trkpt lat="46.18321" lon="7.38928"><ele></ele><time>2025-9-4T23:14:44Z</time></trkpt>
<trkpt lat="46.18326" lon="7.38928"><ele></ele><time>2025-9-4T23:14:47Z</time></trkpt>
<trkpt lat="46.18336" lon="7.38919"><ele></ele><time>2025-9-4T23:14:50Z</time></trkpt>
<trkpt lat="46.18336" lon="7.38916"><ele></ele><time>2025-9-4T23:14:53Z</time></trkpt>
<trkpt lat="46.18335" lon="7.38907"><ele></ele><time>2025-9-4T23:14:56Z</time></trkpt>
<trkpt lat="46.18333" lon="7.38906"><ele></ele><time>2025-9-4T23:14:59Z</time></trkpt>
<trkpt lat="46.18328" lon="7.38905"><ele></ele><time>2025-9-4T23:15:2Z</time></trkpt>
<trkpt lat="46.18313" lon="7.38902"><ele></ele><time>2025-9-4T23:15:5Z</time></trkpt>
<trkpt lat="46.18311" lon="7.38901"><ele></ele><time>2025-9-4T23:15:8Z</time></trkpt>
<trkpt lat="46.18302" lon="7.38899"><ele></ele><time>2025-9-4T23:15:11Z</time></trkpt>
<trkpt lat="46.183" lon="7.38899"><ele></ele><time>2025-9-4T23:15:14Z</time></trkpt>
<trkpt lat="46.18292" lon="7.38898"><ele></ele><time>2025-9-4T23:15:17Z</time></trkpt>
<trkpt lat="46.1829" lon="7.38897"><ele></ele><time>2025-9-4T23:15:20Z</time></trkpt>
<trkpt lat="46.18281" lon="7.38894"><ele></ele><time>2025-9-4T23:15:23Z</time></trkpt>
<trkpt lat="46.18279" lon="7.38894"><ele></ele><time>2025-9-4T23:15:26Z</time></trkpt>
<trkpt lat="46.18271" lon="7.38891"><ele></ele><time>2025-9-4T23:15:29Z</time></trkpt>
<trkpt lat="46.18268" lon="7.38891"><ele></ele><time>2025-9-4T23:15:32Z</time></trkpt>
<trkpt lat="46.18261" lon="7.3889"><ele></ele><time>2025-9-4T23:15:35Z</time></trkpt>
<trkpt lat="46.18258" lon="7.38889"><ele></ele><time>2025-9-4T23:15:38Z</time></trkpt>
<trkpt lat="46.18251" lon="7.38886"><ele></ele><time>2025-9-4T23:15:41Z</time></trkpt>
<trkpt lat="46.18247" lon="7.38886"><ele></ele><time>2025-9-4T23:15:44Z</time></trkpt>
<trkpt lat="46.1824" lon="7.38882"><ele></ele><time>2025-9-4T23:15:47Z</time></trkpt>
<trkpt lat="46.18233" lon="7.38879"><ele></ele><time>2025-9-4T23:15:50Z</time></trkpt>
<trkpt lat="46.18232" lon="7.38878"><ele></ele><time>2025-9-4T23:15:53Z</time></trkpt>
<trkpt lat="46.18224" lon="7.38874"><ele></ele><time>2025-9-4T23:15:56Z</time></trkpt>
<trkpt lat="46.18222" lon="7.38874"><ele></ele><time>2025-9-4T23:15:59Z</time></trkpt>
<trkpt lat="46.18214" lon="7.38872"><ele></ele><time>2025-9-4T23:16:2Z</time></trkpt>
<trkpt lat="46.18212" lon="7.38871"><ele></ele><time>2025-9-4T23:16:5Z</time></trkpt>
<trkpt lat="46.18206" lon="7.38869"><ele></ele><time>2025-9-4T23:16:8Z</time></trkpt>
<trkpt lat="46.18203" lon="7.38868"><ele></ele><time>2025-9-4T23:16:11Z</time></trkpt>
<trkpt lat="46.18193" lon="7.38867"><ele></ele><time>2025-9-4T23:16:14Z</time></trkpt>
<trkpt lat="46.18192" lon="7.38867"><ele></ele><time>2025-9-4T23:16:17Z</time></trkpt>
<trkpt lat="46.18183" lon="7.38865"><ele></ele><time>2025-9-4T23:16:20Z</time></trkpt>
<trkpt lat="46.18173" lon="7.38863"><ele></ele><time>2025-9-4T23:16:23Z</time></trkpt>
<trkpt lat="46.18172" lon="7.38864"><ele></ele><time>2025-9-4T23:16:26Z</time></trkpt>
<trkpt lat="46.18163" lon="7.38861"><ele></ele><time>2025-9-4T23:16:29Z</time></trkpt>
<trkpt lat="46.18162" lon="7.38862"><ele></ele><time>2025-9-4T23:16:32Z</time></trkpt>
<trkpt lat="46.18154" lon="7.3886"><ele></ele><time>2025-9-4T23:16:35Z</time></trkpt>
<trkpt lat="46.18153" lon="7.3886"><ele></ele><time>2025-9-4T23:16:38Z</time></trkpt>
<trkpt lat="46.18144" lon="7.3886"><ele></ele><time>2025-9-4T23:16:41Z</time></trkpt>
<trkpt lat="46.18134" lon="7.38859"><ele></ele><time>2025-9-4T23:16:44Z</time></trkpt>
<trkpt lat="46.18131" lon="7.38857"><ele></ele><time>2025-9-4T23:16:47Z</time></trkpt>
<trkpt lat="46.18124" lon="7.38855"><ele></ele><time>2025-9-4T23:16:50Z</time></trkpt>
<trkpt lat="46.18118" lon="7.38853"><ele></ele><time>2025-9-4T23:16:53Z</time></trkpt>
<trkpt lat="46.18114" lon="7.38851"><ele></ele><time>2025-9-4T23:16:56Z</time></trkpt>
<trkpt lat="46.18108" lon="7.38851"><ele></ele><time>2025-9-4T23:16:59Z</time></trkpt>
<trkpt lat="46.18106" lon="7.38851"><ele></ele><time>2025-9-4T23:17:2Z</time></trkpt>
<trkpt lat="46.18096" lon="7.38849"><ele></ele><time>2025-9-4T23:17:5Z</time></trkpt>
<trkpt lat="46.18095" lon="7.38848"><ele></ele><time>2025-9-4T23:17:8Z</time></trkpt>
<trkpt lat="46.18086" lon="7.38843"><ele></ele><time>2025-9-4T23:17:11Z</time></trkpt>
<trkpt lat="46.18085" lon="7.38843"><ele></ele><time>2025-9-4T23:17:14Z</time></trkpt>
<trkpt lat="46.18078" lon="7.38838"><ele></ele><time>2025-9-4T23:17:17Z</time></trkpt>
<trkpt lat="46.18075" lon="7.38835"><ele></ele><time>2025-9-4T23:17:20Z</time></trkpt>
<trkpt lat="46.1807" lon="7.38828"><ele></ele><time>2025-9-4T23:17:23Z</time></trkpt>
<trkpt lat="46.18066" lon="7.38823"><ele></ele><time>2025-9-4T23:17:26Z</time></trkpt>
<trkpt lat="46.18062" lon="7.38818"><ele></ele><time>2025-9-4T23:17:29Z</time></trkpt>
<trkpt lat="46.18057" lon="7.38812"><ele></ele><time>2025-9-4T23:17:32Z</time></trkpt>
<trkpt lat="46.18055" lon="7.38809"><ele></ele><time>2025-9-4T23:17:35Z</time></trkpt>
<trkpt lat="46.18049" lon="7.38802"><ele></ele><time>2025-9-4T23:17:38Z</time></trkpt>
<trkpt lat="46.18047" lon="7.38801"><ele></ele><time>2025-9-4T23:17:41Z</time></trkpt>
<trkpt lat="46.18043" lon="7.38795"><ele></ele><time>2025-9-4T23:17:44Z</time></trkpt>
<trkpt lat="46.18037" lon="7.38789"><ele></ele><time>2025-9-4T23:17:47Z</time></trkpt>
<trkpt lat="46.18034" lon="7.38784"><ele></ele><time>2025-9-4T23:17:50Z</time></trkpt>
<trkpt lat="46.1803" lon="7.3878"><ele></ele><time>2025-9-4T23:17:53Z</time></trkpt>
<trkpt lat="46.18025" lon="7.38776"><ele></ele><time>2025-9-4T23:17:56Z</time></trkpt>
<trkpt lat="46.18021" lon="7.38773"><ele></ele><time>2025-9-4T23:17:59Z</time></trkpt>
<trkpt lat="46.18014" lon="7.38769"><ele></ele><time>2025-9-4T23:18:2Z</time></trkpt>
<trkpt lat="46.18011" lon="7.38767"><ele></ele><time>2025-9-4T23:18:5Z</time></trkpt>
<trkpt lat="46.18001" lon="7.38762"><ele></ele><time>2025-9-4T23:18:8Z</time></trkpt>
<trkpt lat="46.17994" lon="7.38755"><ele></ele><time>2025-9-4T23:18:11Z</time></trkpt>
<trkpt lat="46.17992" lon="7.38754"><ele></ele><time>2025-9-4T23:18:14Z</time></trkpt>
<trkpt lat="46.17984" lon="7.3875"><ele></ele><time>2025-9-4T23:18:17Z</time></trkpt>
<trkpt lat="46.17981" lon="7.38749"><ele></ele><time>2025-9-4T23:18:20Z</time></trkpt>
<trkpt lat="46.17975" lon="7.38747"><ele></ele><time>2025-9-4T23:18:23Z</time></trkpt>
<trkpt lat="46.17971" lon="7.38745"><ele></ele><time>2025-9-4T23:18:26Z</time></trkpt>
<trkpt lat="46.17965" lon="7.38744"><ele></ele><time>2025-9-4T23:18:29Z</time></trkpt>
<trkpt lat="46.17962" lon="7.38742"><ele></ele><time>2025-9-4T23:18:32Z</time></trkpt>
<trkpt lat="46.17954" lon="7.3874"><ele></ele><time>2025-9-4T23:18:35Z</time></trkpt>
<trkpt lat="46.17951" lon="7.3874"><ele></ele><time>2025-9-4T23:18:38Z</time></trkpt>
<trkpt lat="46.17943" lon="7.38738"><ele></ele><time>2025-9-4T23:18:41Z</time></trkpt>
<trkpt lat="46.17941" lon="7.38738"><ele></ele><time>2025-9-4T23:18:44Z</time></trkpt>
<trkpt lat="46.17933" lon="7.38738"><ele></ele><time>2025-9-4T23:18:47Z</time></trkpt>
<trkpt lat="46.17929" lon="7.38739"><ele></ele><time>2025-9-4T23:18:50Z</time></trkpt>
<trkpt lat="46.17921" lon="7.38739"><ele></ele><time>2025-9-4T23:18:53Z</time></trkpt>
<trkpt lat="46.17919" lon="7.38739"><ele></ele><time>2025-9-4T23:18:56Z</time></trkpt>
<trkpt lat="46.17912" lon="7.38738"><ele></ele><time>2025-9-4T23:18:59Z</time></trkpt>
<trkpt lat="46.1791" lon="7.38738"><ele></ele><time>2025-9-4T23:19:2Z</time></trkpt>
<trkpt lat="46.17902" lon="7.38742"><ele></ele><time>2025-9-4T23:19:5Z</time></trkpt>
<trkpt lat="46.179" lon="7.38742"><ele></ele><time>2025-9-4T23:19:8Z</time></trkpt>
<trkpt lat="46.17893" lon="7.38744"><ele></ele><time>2025-9-4T23:19:11Z</time></trkpt>
<trkpt lat="46.17885" lon="7.38746"><ele></ele><time>2025-9-4T23:19:14Z</time></trkpt>
<trkpt lat="46.17883" lon="7.38746"><ele></ele><time>2025-9-4T23:19:17Z</time></trkpt>
<trkpt lat="46.17877" lon="7.38748"><ele></ele><time>2025-9-4T23:19:20Z</time></trkpt>
<trkpt lat="46.17874" lon="7.38748"><ele></ele><time>2025-9-4T23:19:23Z</time></trkpt>
<trkpt lat="46.1787" lon="7.38749"><ele></ele><time>2025-9-4T23:19:26Z</time></trkpt>
<trkpt lat="46.17861" lon="7.38752"><ele></ele><time>2025-9-4T23:19:29Z</time></trkpt>
<trkpt lat="46.1786" lon="7.38752"><ele></ele><time>2025-9-4T23:19:32Z</time></trkpt>
<trkpt lat="46.17853" lon="7.38754"><ele></ele><time>2025-9-4T23:19:35Z</time></trkpt>
<trkpt lat="46.17852" lon="7.38755"><ele></ele><time>2025-9-4T23:19:38Z</time></trkpt>
<trkpt lat="46.17842" lon="7.38759"><ele></ele><time>2025-9-4T23:19:41Z</time></trkpt>
<trkpt lat="46.17841" lon="7.38759"><ele></ele><time>2025-9-4T23:19:44Z</time></trkpt>
<trkpt lat="46.17836" lon="7.3876"><ele></ele><time>2025-9-4T23:19:47Z</time></trkpt>
<trkpt lat="46.17834" lon="7.38761"><ele></ele><time>2025-9-4T23:19:50Z</time></trkpt>
<trkpt lat="46.1783" lon="7.38763"><ele></ele><time>2025-9-4T23:19:53Z</time></trkpt>
<trkpt lat="46.17825" lon="7.38765"><ele></ele><time>2025-9-4T23:19:56Z</time></trkpt>
<trkpt lat="46.17819" lon="7.38768"><ele></ele><time>2025-9-4T23:19:59Z</time></trkpt>
<trkpt lat="46.17817" lon="7.38767"><ele></ele><time>2025-9-4T23:20:2Z</time></trkpt>
<trkpt lat="46.17809" lon="7.38762"><ele></ele><time>2025-9-4T23:20:5Z</time></trkpt>
<trkpt lat="46.17808" lon="7.3876"><ele></ele><time>2025-9-4T23:20:8Z</time></trkpt>
<trkpt lat="46.17809" lon="7.3875"><ele></ele><time>2025-9-4T23:20:11Z</time></trkpt>
<trkpt lat="46.17815" lon="7.38743"><ele></ele><time>2025-9-4T23:20:14Z</time></trkpt>
<trkpt lat="46.17818" lon="7.3874"><ele></ele><time>2025-9-4T23:20:17Z</time></trkpt>
<trkpt lat="46.17832" lon="7.38731"><ele></ele><time>2025-9-4T23:20:20Z</time></trkpt>
<trkpt lat="46.17834" lon="7.3873"><ele></ele><time>2025-9-4T23:20:23Z</time></trkpt>
<trkpt lat="46.17843" lon="7.38722"><ele></ele><time>2025-9-4T23:20:26Z</time></trkpt>
<trkpt lat="46.17853" lon="7.38716"><ele></ele><time>2025-9-4T23:20:29Z</time></trkpt>
<trkpt lat="46.17863" lon="7.38708"><ele></ele><time>2025-9-4T23:20:32Z</time></trkpt>
<trkpt lat="46.17868" lon="7.38704"><ele></ele><time>2025-9-4T23:20:35Z</time></trkpt>
<trkpt lat="46.17873" lon="7.38699"><ele></ele><time>2025-9-4T23:20:38Z</time></trkpt>
<trkpt lat="46.17881" lon="7.38693"><ele></ele><time>2025-9-4T23:20:41Z</time></trkpt>
<trkpt lat="46.17889" lon="7.38687"><ele></ele><time>2025-9-4T23:20:44Z</time></trkpt>
<trkpt lat="46.17893" lon="7.38684"><ele></ele><time>2025-9-4T23:20:47Z</time></trkpt>
<trkpt lat="46.17905" lon="7.3868"><ele></ele><time>2025-9-4T23:20:50Z</time></trkpt>
<trkpt lat="46.17912" lon="7.38679"><ele></ele><time>2025-9-4T23:20:53Z</time></trkpt>
<trkpt lat="46.17923" lon="7.38679"><ele></ele><time>2025-9-4T23:20:56Z</time></trkpt>
<trkpt lat="46.17928" lon="7.38678"><ele></ele><time>2025-9-4T23:20:59Z</time></trkpt>
<trkpt lat="46.17938" lon="7.38678"><ele></ele><time>2025-9-4T23:21:2Z</time></trkpt>
<trkpt lat="46.17943" lon="7.38677"><ele></ele><time>2025-9-4T23:21:5Z</time></trkpt>
<trkpt lat="46.17951" lon="7.38677"><ele></ele><time>2025-9-4T23:21:8Z</time></trkpt>
<trkpt lat="46.17955" lon="7.38676"><ele></ele><time>2025-9-4T23:21:11Z</time></trkpt>
<trkpt lat="46.17969" lon="7.38675"><ele></ele><time>2025-9-4T23:21:14Z</time></trkpt>
<trkpt lat="46.17971" lon="7.38675"><ele></ele><time>2025-9-4T23:21:17Z</time></trkpt>
<trkpt lat="46.17986" lon="7.38675"><ele></ele><time>2025-9-4T23:21:20Z</time></trkpt>
<trkpt lat="46.1799" lon="7.38674"><ele></ele><time>2025-9-4T23:21:23Z</time></trkpt>
<trkpt lat="46.17998" lon="7.38675"><ele></ele><time>2025-9-4T23:21:26Z</time></trkpt>
<trkpt lat="46.18007" lon="7.38675"><ele></ele><time>2025-9-4T23:21:29Z</time></trkpt>
<trkpt lat="46.18021" lon="7.38675"><ele></ele><time>2025-9-4T23:21:32Z</time></trkpt>
<trkpt lat="46.18023" lon="7.38673"><ele></ele><time>2025-9-4T23:21:35Z</time></trkpt>
<trkpt lat="46.18034" lon="7.3867"><ele></ele><time>2025-9-4T23:21:38Z</time></trkpt>
<trkpt lat="46.18035" lon="7.38667"><ele></ele><time>2025-9-4T23:21:41Z</time></trkpt>
<trkpt lat="46.18035" lon="7.38661"><ele></ele><time>2025-9-4T23:21:44Z</time></trkpt>
<trkpt lat="46.18033" lon="7.3866"><ele></ele><time>2025-9-4T23:21:47Z</time></trkpt>
<trkpt lat="46.18027" lon="7.38661"><ele></ele><time>2025-9-4T23:21:50Z</time></trkpt>
<trkpt lat="46.1802" lon="7.38663"><ele></ele><time>2025-9-4T23:21:53Z</time></trkpt>
<trkpt lat="46.18016" lon="7.38662"><ele></ele><time>2025-9-4T23:21:56Z</time></trkpt>
<trkpt lat="46.18014" lon="7.38662"><ele></ele><time>2025-9-4T23:21:59Z</time></trkpt>
<trkpt lat="46.18012" lon="7.38662"><ele></ele><time>2025-9-4T23:22:2Z</time></trkpt>
<trkpt lat="46.17999" lon="7.38663"><ele></ele><time>2025-9-4T23:22:5Z</time></trkpt>
<trkpt lat="46.17995" lon="7.38663"><ele></ele><time>2025-9-4T23:22:8Z</time></trkpt>
<trkpt lat="46.1799" lon="7.38663"><ele></ele><time>2025-9-4T23:22:11Z</time></trkpt>
<trkpt lat="46.17989" lon="7.38663"><ele></ele><time>2025-9-4T23:22:14Z</time></trkpt>
<trkpt lat="46.17982" lon="7.38661"><ele></ele><time>2025-9-4T23:22:17Z</time></trkpt>
<trkpt lat="46.17981" lon="7.3866"><ele></ele><time>2025-9-4T23:22:20Z</time></trkpt>
<trkpt lat="46.17981" lon="7.38659"><ele></ele><time>2025-9-4T23:22:23Z</time></trkpt>
<trkpt lat="46.17975" lon="7.38655"><ele></ele><time>2025-9-4T23:22:26Z</time></trkpt>
<trkpt lat="46.17974" lon="7.38655"><ele></ele><time>2025-9-4T23:22:29Z</time></trkpt>
<trkpt lat="46.17967" lon="7.38657"><ele></ele><time>2025-9-4T23:22:32Z</time></trkpt>
<trkpt lat="46.17966" lon="7.38656"><ele></ele><time>2025-9-4T23:22:35Z</time></trkpt>
<trkpt lat="46.17959" lon="7.38654"><ele></ele><time>2025-9-4T23:22:38Z</time></trkpt>
<trkpt lat="46.17954" lon="7.38651"><ele></ele><time>2025-9-4T23:22:41Z</time></trkpt>
<trkpt lat="46.17953" lon="7.38649"><ele></ele><time>2025-9-4T23:22:44Z</time></trkpt>
<trkpt lat="46.17951" lon="7.38648"><ele></ele><time>2025-9-4T23:22:47Z</time></trkpt>
<trkpt lat="46.17947" lon="7.38647"><ele></ele><time>2025-9-4T23:22:50Z</time></trkpt>
<trkpt lat="46.17946" lon="7.38647"><ele></ele><time>2025-9-4T23:22:53Z</time></trkpt>
<trkpt lat="46.17935" lon="7.38645"><ele></ele><time>2025-9-4T23:22:56Z</time></trkpt>
<trkpt lat="46.17934" lon="7.38645"><ele></ele><time>2025-9-4T23:22:59Z</time></trkpt>
<trkpt lat="46.17927" lon="7.38641"><ele></ele><time>2025-9-4T23:23:2Z</time></trkpt>
<trkpt lat="46.17925" lon="7.38639"><ele></ele><time>2025-9-4T23:23:5Z</time></trkpt>
<trkpt lat="46.1792" lon="7.38637"><ele></ele><time>2025-9-4T23:23:8Z</time></trkpt>
<trkpt lat="46.17919" lon="7.38637"><ele></ele><time>2025-9-4T23:23:11Z</time></trkpt>
<trkpt lat="46.17915" lon="7.38636"><ele></ele><time>2025-9-4T23:23:14Z</time></trkpt>
<trkpt lat="46.17914" lon="7.38635"><ele></ele><time>2025-9-4T23:23:17Z</time></trkpt>
<trkpt lat="46.17908" lon="7.38631"><ele></ele><time>2025-9-4T23:23:20Z</time></trkpt>
<trkpt lat="46.17907" lon="7.38631"><ele></ele><time>2025-9-4T23:23:23Z</time></trkpt>
<trkpt lat="46.179" lon="7.3863"><ele></ele><time>2025-9-4T23:23:26Z</time></trkpt>
<trkpt lat="46.17893" lon="7.38626"><ele></ele><time>2025-9-4T23:23:29Z</time></trkpt>
<trkpt lat="46.17889" lon="7.38624"><ele></ele><time>2025-9-4T23:23:32Z</time></trkpt>
<trkpt lat="46.17885" lon="7.38622"><ele></ele><time>2025-9-4T23:23:35Z</time></trkpt>
<trkpt lat="46.17884" lon="7.38621"><ele></ele><time>2025-9-4T23:23:38Z</time></trkpt>
<trkpt lat="46.17878" lon="7.38617"><ele></ele><time>2025-9-4T23:23:41Z</time></trkpt>
<trkpt lat="46.17872" lon="7.38615"><ele></ele><time>2025-9-4T23:23:44Z</time></trkpt>
<trkpt lat="46.17865" lon="7.38612"><ele></ele><time>2025-9-4T23:23:47Z</time></trkpt>
<trkpt lat="46.17863" lon="7.38611"><ele></ele><time>2025-9-4T23:23:50Z</time></trkpt>
<trkpt lat="46.17852" lon="7.38604"><ele></ele><time>2025-9-4T23:23:53Z</time></trkpt>
<trkpt lat="46.17843" lon="7.38597"><ele></ele><time>2025-9-4T23:23:56Z</time></trkpt>
<trkpt lat="46.17839" lon="7.38594"><ele></ele><time>2025-9-4T23:23:59Z</time></trkpt>
<trkpt lat="46.17836" lon="7.38594"><ele></ele><time>2025-9-4T23:24:2Z</time></trkpt>
<trkpt lat="46.17835" lon="7.38593"><ele></ele><time>2025-9-4T23:24:5Z</time></trkpt>
<trkpt lat="46.17833" lon="7.38592"><ele></ele><time>2025-9-4T23:24:8Z</time></trkpt>
<trkpt lat="46.17828" lon="7.38591"><ele></ele><time>2025-9-4T23:24:11Z</time></trkpt>
<trkpt lat="46.17823" lon="7.3859"><ele></ele><time>2025-9-4T23:24:14Z</time></trkpt>
<trkpt lat="46.17821" lon="7.38589"><ele></ele><time>2025-9-4T23:24:17Z</time></trkpt>
<trkpt lat="46.17819" lon="7.38589"><ele></ele><time>2025-9-4T23:24:20Z</time></trkpt>
<trkpt lat="46.17816" lon="7.38589"><ele></ele><time>2025-9-4T23:24:23Z</time></trkpt>
<trkpt lat="46.17815" lon="7.38589"><ele></ele><time>2025-9-4T23:24:26Z</time></trkpt>
<trkpt lat="46.17814" lon="7.38589"><ele></ele><time>2025-9-4T23:24:29Z</time></trkpt>
<trkpt lat="46.17805" lon="7.38585"><ele></ele><time>2025-9-4T23:24:32Z</time></trkpt>
<trkpt lat="46.17802" lon="7.38584"><ele></ele><time>2025-9-4T23:24:35Z</time></trkpt>
<trkpt lat="46.17796" lon="7.38581"><ele></ele><time>2025-9-4T23:24:38Z</time></trkpt>
<trkpt lat="46.17792" lon="7.38581"><ele></ele><time>2025-9-4T23:24:41Z</time></trkpt>
<trkpt lat="46.1779" lon="7.3858"><ele></ele><time>2025-9-4T23:24:44Z</time></trkpt>
<trkpt lat="46.17785" lon="7.38578"><ele></ele><time>2025-9-4T23:24:47Z</time></trkpt>
<trkpt lat="46.17782" lon="7.38578"><ele></ele><time>2025-9-4T23:24:50Z</time></trkpt>
<trkpt lat="46.17777" lon="7.38577"><ele></ele><time>2025-9-4T23:24:53Z</time></trkpt>
<trkpt lat="46.17774" lon="7.38578"><ele></ele><time>2025-9-4T23:24:56Z</time></trkpt>
<trkpt lat="46.1777" lon="7.38578"><ele></ele><time>2025-9-4T23:24:59Z</time></trkpt>
<trkpt lat="46.17761" lon="7.38578"><ele></ele><time>2025-9-4T23:25:2Z</time></trkpt>
<trkpt lat="46.17753" lon="7.3858"><ele></ele><time>2025-9-4T23:25:5Z</time></trkpt>
<trkpt lat="46.17752" lon="7.38581"><ele></ele><time>2025-9-4T23:25:8Z</time></trkpt>
<trkpt lat="46.17749" lon="7.38583"><ele></ele><time>2025-9-4T23:25:11Z</time></trkpt>
<trkpt lat="46.17748" lon="7.38584"><ele></ele><time>2025-9-4T23:25:14Z</time></trkpt>
<trkpt lat="46.17746" lon="7.38583"><ele></ele><time>2025-9-4T23:25:17Z</time></trkpt>
<trkpt lat="46.17741" lon="7.38585"><ele></ele><time>2025-9-4T23:25:20Z</time></trkpt>
<trkpt lat="46.17741" lon="7.38585"><ele></ele><time>2025-9-4T23:25:23Z</time></trkpt>
<trkpt lat="46.1774" lon="7.38587"><ele></ele><time>2025-9-4T23:25:26Z</time></trkpt>
<trkpt lat="46.17737" lon="7.3859"><ele></ele><time>2025-9-4T23:25:29Z</time></trkpt>
<trkpt lat="46.17736" lon="7.38591"><ele></ele><time>2025-9-4T23:25:32Z</time></trkpt>
<trkpt lat="46.17733" lon="7.38594"><ele></ele><time>2025-9-4T23:25:35Z</time></trkpt>
<trkpt lat="46.17732" lon="7.38595"><ele></ele><time>2025-9-4T23:25:38Z</time></trkpt>
<trkpt lat="46.17731" lon="7.38603"><ele></ele><time>2025-9-4T23:25:41Z</time></trkpt>
<trkpt lat="46.17727" lon="7.38605"><ele></ele><time>2025-9-4T23:25:44Z</time></trkpt>
<trkpt lat="46.17724" lon="7.38605"><ele></ele><time>2025-9-4T23:25:47Z</time></trkpt>
<trkpt lat="46.17719" lon="7.38604"><ele></ele><time>2025-9-4T23:25:50Z</time></trkpt>
<trkpt lat="46.17716" lon="7.38603"><ele></ele><time>2025-9-4T23:25:53Z</time></trkpt>
<trkpt lat="46.17714" lon="7.38603"><ele></ele><time>2025-9-4T23:25:56Z</time></trkpt>
<trkpt lat="46.17708" lon="7.38601"><ele></ele><time>2025-9-4T23:25:59Z</time></trkpt>
<trkpt lat="46.17702" lon="7.386"><ele></ele><time>2025-9-4T23:26:2Z</time></trkpt>
<trkpt lat="46.17696" lon="7.38598"><ele></ele><time>2025-9-4T23:26:5Z</time></trkpt>
<trkpt lat="46.17693" lon="7.38596"><ele></ele><time>2025-9-4T23:26:8Z</time></trkpt>
<trkpt lat="46.1769" lon="7.38595"><ele></ele><time>2025-9-4T23:26:11Z</time></trkpt>
<trkpt lat="46.17684" lon="7.38592"><ele></ele><time>2025-9-4T23:26:14Z</time></trkpt>
<trkpt lat="46.17683" lon="7.38591"><ele></ele><time>2025-9-4T23:26:17Z</time></trkpt>
<trkpt lat="46.17673" lon="7.38581"><ele></ele><time>2025-9-4T23:26:20Z</time></trkpt>
<trkpt lat="46.17669" lon="7.38577"><ele></ele><time>2025-9-4T23:26:23Z</time></trkpt>
<trkpt lat="46.17667" lon="7.38576"><ele></ele><time>2025-9-4T23:26:26Z</time></trkpt>
<trkpt lat="46.1766" lon="7.38569"><ele></ele><time>2025-9-4T23:26:29Z</time></trkpt>
<trkpt lat="46.17653" lon="7.38564"><ele></ele><time>2025-9-4T23:26:32Z</time></trkpt>
<trkpt lat="46.17652" lon="7.38562"><ele></ele><time>2025-9-4T23:26:35Z</time></trkpt>
<trkpt lat="46.17651" lon="7.38559"><ele></ele><time>2025-9-4T23:26:38Z</time></trkpt>
<trkpt lat="46.1765" lon="7.38558"><ele></ele><time>2025-9-4T23:26:41Z</time></trkpt>
<trkpt lat="46.17648" lon="7.38556"><ele></ele><time>2025-9-4T23:26:44Z</time></trkpt>
<trkpt lat="46.17644" lon="7.38553"><ele></ele><time>2025-9-4T23:26:47Z</time></trkpt>
<trkpt lat="46.17642" lon="7.38551"><ele></ele><time>2025-9-4T23:26:50Z</time></trkpt>
<trkpt lat="46.1764" lon="7.38549"><ele></ele><time>2025-9-4T23:26:53Z</time></trkpt>
<trkpt lat="46.17637" lon="7.38546"><ele></ele><time>2025-9-4T23:26:56Z</time></trkpt>
<trkpt lat="46.17635" lon="7.38545"><ele></ele><time>2025-9-4T23:26:59Z</time></trkpt>
<trkpt lat="46.17631" lon="7.38541"><ele></ele><time>2025-9-4T23:27:2Z</time></trkpt>
<trkpt lat="46.1763" lon="7.38539"><ele></ele><time>2025-9-4T23:27:5Z</time></trkpt>
<trkpt lat="46.17628" lon="7.38536"><ele></ele><time>2025-9-4T23:27:8Z</time></trkpt>
<trkpt lat="46.17626" lon="7.38535"><ele></ele><time>2025-9-4T23:27:11Z</time></trkpt>
<trkpt lat="46.17626" lon="7.38534"><ele></ele><time>2025-9-4T23:27:14Z</time></trkpt>
<trkpt lat="46.17626" lon="7.38534"><ele></ele><time>2025-9-4T23:27:17Z</time></trkpt>
<trkpt lat="46.17626" lon="7.38534"><ele></ele><time>2025-9-4T23:27:20Z</time></trkpt>
<trkpt lat="46.17626" lon="7.38534"><ele></ele><time>2025-9-4T23:27:23Z</time></trkpt>
<trkpt lat="46.17626" lon="7.38534"><ele></ele><time>2025-9-4T23:27:26Z</time></trkpt>
<trkpt lat="46.17626" lon="7.38534"><ele></ele><time>2025-9-4T23:27:29Z</time></trkpt>
<trkpt lat="46.17626" lon="7.38534"><ele></ele><time>2025-9-4T23:27:32Z</time></trkpt>
<trkpt lat="46.17626" lon="7.38534"><ele></ele><time>2025-9-4T23:27:35Z</time></trkpt>
<trkpt lat="46.17622" lon="7.38533"><ele></ele><time>2025-9-4T23:27:38Z</time></trkpt>
<trkpt lat="46.17621" lon="7.38531"><ele></ele><time>2025-9-4T23:27:41Z</time></trkpt>
<trkpt lat="46.1762" lon="7.38528"><ele></ele><time>2025-9-4T23:27:44Z</time></trkpt>
<trkpt lat="46.17619" lon="7.38527"><ele></ele><time>2025-9-4T23:27:47Z</time></trkpt>
<trkpt lat="46.17619" lon="7.38525"><ele></ele><time>2025-9-4T23:27:50Z</time></trkpt>
<trkpt lat="46.17618" lon="7.38524"><ele></ele><time>2025-9-4T23:27:53Z</time></trkpt>
<trkpt lat="46.17617" lon="7.3852"><ele></ele><time>2025-9-4T23:27:56Z</time></trkpt>
<trkpt lat="46.17616" lon="7.38515"><ele></ele><time>2025-9-4T23:27:59Z</time></trkpt>
<trkpt lat="46.17616" lon="7.38514"><ele></ele><time>2025-9-4T23:28:2Z</time></trkpt>
<trkpt lat="46.17614" lon="7.3851"><ele></ele><time>2025-9-4T23:28:5Z</time></trkpt>
<trkpt lat="46.17613" lon="7.3851"><ele></ele><time>2025-9-4T23:28:8Z</time></trkpt>
<trkpt lat="46.17611" lon="7.38508"><ele></ele><time>2025-9-4T23:28:11Z</time></trkpt>
<trkpt lat="46.1761" lon="7.38506"><ele></ele><time>2025-9-4T23:28:14Z</time></trkpt>
<trkpt lat="46.1761" lon="7.38505"><ele></ele><time>2025-9-4T23:28:17Z</time></trkpt>
<trkpt lat="46.1761" lon="7.38503"><ele></ele><time>2025-9-4T23:28:20Z</time></trkpt>
<trkpt lat="46.17609" lon="7.38503"><ele></ele><time>2025-9-4T23:28:23Z</time></trkpt>
<trkpt lat="46.17607" lon="7.38501"><ele></ele><time>2025-9-4T23:28:26Z</time></trkpt>
<trkpt lat="46.17606" lon="7.38499"><ele></ele><time>2025-9-4T23:28:29Z</time></trkpt>
<trkpt lat="46.17603" lon="7.38494"><ele></ele><time>2025-9-4T23:28:32Z</time></trkpt>
<trkpt lat="46.176" lon="7.3849"><ele></ele><time>2025-9-4T23:28:35Z</time></trkpt>
<trkpt lat="46.17599" lon="7.38489"><ele></ele><time>2025-9-4T23:28:38Z</time></trkpt>
<trkpt lat="46.17599" lon="7.38487"><ele></ele><time>2025-9-4T23:28:41Z</time></trkpt>
<trkpt lat="46.17598" lon="7.38484"><ele></ele><time>2025-9-4T23:28:44Z</time></trkpt>
<trkpt lat="46.17597" lon="7.38483"><ele></ele><time>2025-9-4T23:28:47Z</time></trkpt>
<trkpt lat="46.17596" lon="7.3848"><ele></ele><time>2025-9-4T23:28:50Z</time></trkpt>
<trkpt lat="46.17597" lon="7.38477"><ele></ele><time>2025-9-4T23:28:53Z</time></trkpt>
<trkpt lat="46.17597" lon="7.38473"><ele></ele><time>2025-9-4T23:28:56Z</time></trkpt>
<trkpt lat="46.17598" lon="7.38472"><ele></ele><time>2025-9-4T23:28:59Z</time></trkpt>
<trkpt lat="46.17598" lon="7.3847"><ele></ele><time>2025-9-4T23:29:2Z</time></trkpt>
<trkpt lat="46.17597" lon="7.38469"><ele></ele><time>2025-9-4T23:29:5Z</time></trkpt>
<trkpt lat="46.17594" lon="7.38467"><ele></ele><time>2025-9-4T23:29:8Z</time></trkpt>
<trkpt lat="46.17593" lon="7.38466"><ele></ele><time>2025-9-4T23:29:11Z</time></trkpt>
<trkpt lat="46.17592" lon="7.38464"><ele></ele><time>2025-9-4T23:29:14Z</time></trkpt>
<trkpt lat="46.17592" lon="7.38464"><ele></ele><time>2025-9-4T23:29:17Z</time></trkpt>
<trkpt lat="46.1759" lon="7.38462"><ele></ele><time>2025-9-4T23:29:20Z</time></trkpt>
<trkpt lat="46.1759" lon="7.38461"><ele></ele><time>2025-9-4T23:29:23Z</time></trkpt>
<trkpt lat="46.17588" lon="7.38457"><ele></ele><time>2025-9-4T23:29:26Z</time></trkpt>
<trkpt lat="46.17588" lon="7.38457"><ele></ele><time>2025-9-4T23:29:29Z</time></trkpt>
<trkpt lat="46.17586" lon="7.38455"><ele></ele><time>2025-9-4T23:29:32Z</time></trkpt>
<trkpt lat="46.17585" lon="7.38454"><ele></ele><time>2025-9-4T23:29:35Z</time></trkpt>
<trkpt lat="46.17584" lon="7.38451"><ele></ele><time>2025-9-4T23:29:38Z</time></trkpt>
<trkpt lat="46.17584" lon="7.3845"><ele></ele><time>2025-9-4T23:29:41Z</time></trkpt>
<trkpt lat="46.17583" lon="7.38449"><ele></ele><time>2025-9-4T23:29:44Z</time></trkpt>
<trkpt lat="46.17582" lon="7.38445"><ele></ele><time>2025-9-4T23:29:47Z</time></trkpt>
<trkpt lat="46.17582" lon="7.38445"><ele></ele><time>2025-9-4T23:29:50Z</time></trkpt>
<trkpt lat="46.1758" lon="7.38441"><ele></ele><time>2025-9-4T23:29:53Z</time></trkpt>
<trkpt lat="46.17579" lon="7.38441"><ele></ele><time>2025-9-4T23:29:56Z</time></trkpt>
<trkpt lat="46.17578" lon="7.38438"><ele></ele><time>2025-9-4T23:29:59Z</time></trkpt>
<trkpt lat="46.17578" lon="7.38437"><ele></ele><time>2025-9-4T23:30:2Z</time></trkpt>
<trkpt lat="46.17577" lon="7.38434"><ele></ele><time>2025-9-4T23:30:5Z</time></trkpt>
<trkpt lat="46.17577" lon="7.38432"><ele></ele><time>2025-9-4T23:30:8Z</time></trkpt>
<trkpt lat="46.17577" lon="7.38429"><ele></ele><time>2025-9-4T23:30:11Z</time></trkpt>
<trkpt lat="46.17577" lon="7.38426"><ele></ele><time>2025-9-4T23:30:14Z</time></trkpt>
<trkpt lat="46.17577" lon="7.38425"><ele></ele><time>2025-9-4T23:30:17Z</time></trkpt>
<trkpt lat="46.17575" lon="7.38418"><ele></ele><time>2025-9-4T23:30:20Z</time></trkpt>
<trkpt lat="46.17575" lon="7.38418"><ele></ele><time>2025-9-4T23:30:23Z</time></trkpt>
<trkpt lat="46.17576" lon="7.3842"><ele></ele><time>2025-9-4T23:30:26Z</time></trkpt>
<trkpt lat="46.17577" lon="7.3842"><ele></ele><time>2025-9-4T23:30:29Z</time></trkpt>
<trkpt lat="46.17577" lon="7.3842"><ele></ele><time>2025-9-4T23:30:32Z</time></trkpt>
<trkpt lat="46.17577" lon="7.3842"><ele></ele><time>2025-9-4T23:30:35Z</time></trkpt>
<trkpt lat="46.17577" lon="7.3842"><ele></ele><time>2025-9-4T23:30:38Z</time></trkpt>
<trkpt lat="46.17577" lon="7.3842"><ele></ele><time>2025-9-4T23:30:41Z</time></trkpt>
<trkpt lat="46.17577" lon="7.3842"><ele></ele><time>2025-9-4T23:30:44Z</time></trkpt>
<trkpt lat="46.17577" lon="7.3842"><ele></ele><time>2025-9-4T23:30:47Z</time></trkpt>
<trkpt lat="46.17577" lon="7.3842"><ele></ele><time>2025-9-4T23:30:50Z</time></trkpt>
<trkpt lat="46.17577" lon="7.3842"><ele></ele><time>2025-9-4T23:30:53Z</time></trkpt>
<trkpt lat="46.17579" lon="7.38417"><ele></ele><time>2025-9-4T23:30:56Z</time></trkpt>
<trkpt lat="46.17575" lon="7.38411"><ele></ele><time>2025-9-4T23:30:59Z</time></trkpt>
<trkpt lat="46.17566" lon="7.38407"><ele></ele><time>2025-9-4T23:31:2Z</time></trkpt>
<trkpt lat="46.17564" lon="7.38405"><ele></ele><time>2025-9-4T23:31:5Z</time></trkpt>
<trkpt lat="46.17558" lon="7.38403"><ele></ele><time>2025-9-4T23:31:8Z</time></trkpt>
<trkpt lat="46.17547" lon="7.38404"><ele></ele><time>2025-9-4T23:31:11Z</time></trkpt>
<trkpt lat="46.17545" lon="7.38404"><ele></ele><time>2025-9-4T23:31:14Z</time></trkpt>
<trkpt lat="46.17544" lon="7.38405"><ele></ele><time>2025-9-4T23:31:17Z</time></trkpt>
<trkpt lat="46.1754" lon="7.38405"><ele></ele><time>2025-9-4T23:31:20Z</time></trkpt>
<trkpt lat="46.17535" lon="7.38406"><ele></ele><time>2025-9-4T23:31:23Z</time></trkpt>
<trkpt lat="46.17523" lon="7.38408"><ele></ele><time>2025-9-4T23:31:26Z</time></trkpt>
<trkpt lat="46.17505" lon="7.38409"><ele></ele><time>2025-9-4T23:31:29Z</time></trkpt>
<trkpt lat="46.17496" lon="7.38409"><ele></ele><time>2025-9-4T23:31:32Z</time></trkpt>
<trkpt lat="46.17489" lon="7.38406"><ele></ele><time>2025-9-4T23:31:35Z</time></trkpt>
<trkpt lat="46.17483" lon="7.38402"><ele></ele><time>2025-9-4T23:31:38Z</time></trkpt>
<trkpt lat="46.17477" lon="7.384"><ele></ele><time>2025-9-4T23:31:41Z</time></trkpt>
<trkpt lat="46.17472" lon="7.38397"><ele></ele><time>2025-9-4T23:31:44Z</time></trkpt>
<trkpt lat="46.17465" lon="7.38394"><ele></ele><time>2025-9-4T23:31:47Z</time></trkpt>
<trkpt lat="46.1746" lon="7.38391"><ele></ele><time>2025-9-4T23:31:50Z</time></trkpt>
<trkpt lat="46.17454" lon="7.38388"><ele></ele><time>2025-9-4T23:31:53Z</time></trkpt>
<trkpt lat="46.17449" lon="7.38385"><ele></ele><time>2025-9-4T23:31:56Z</time></trkpt>
<trkpt lat="46.17444" lon="7.38381"><ele></ele><time>2025-9-4T23:31:59Z</time></trkpt>
<trkpt lat="46.17439" lon="7.38378"><ele></ele><time>2025-9-4T23:32:2Z</time></trkpt>
<trkpt lat="46.1743" lon="7.38375"><ele></ele><time>2025-9-4T23:32:5Z</time></trkpt>
<trkpt lat="46.17427" lon="7.38374"><ele></ele><time>2025-9-4T23:32:8Z</time></trkpt>
<trkpt lat="46.17424" lon="7.38372"><ele></ele><time>2025-9-4T23:32:11Z</time></trkpt>
<trkpt lat="46.17421" lon="7.3837"><ele></ele><time>2025-9-4T23:32:14Z</time></trkpt>
<trkpt lat="46.17419" lon="7.38368"><ele></ele><time>2025-9-4T23:32:17Z</time></trkpt>
<trkpt lat="46.17417" lon="7.38368"><ele></ele><time>2025-9-4T23:32:20Z</time></trkpt>
<trkpt lat="46.17409" lon="7.38365"><ele></ele><time>2025-9-4T23:32:23Z</time></trkpt>
<trkpt lat="46.17407" lon="7.38363"><ele></ele><time>2025-9-4T23:32:26Z</time></trkpt>
<trkpt lat="46.17405" lon="7.38362"><ele></ele><time>2025-9-4T23:32:29Z</time></trkpt>
<trkpt lat="46.17394" lon="7.38356"><ele></ele><time>2025-9-4T23:32:32Z</time></trkpt>
<trkpt lat="46.17393" lon="7.38355"><ele></ele><time>2025-9-4T23:32:35Z</time></trkpt>
<trkpt lat="46.17382" lon="7.38345"><ele></ele><time>2025-9-4T23:32:38Z</time></trkpt>
<trkpt lat="46.17376" lon="7.38337"><ele></ele><time>2025-9-4T23:32:41Z</time></trkpt>
<trkpt lat="46.17372" lon="7.38334"><ele></ele><time>2025-9-4T23:32:44Z</time></trkpt>
<trkpt lat="46.17361" lon="7.38325"><ele></ele><time>2025-9-4T23:32:47Z</time></trkpt>
<trkpt lat="46.17355" lon="7.38318"><ele></ele><time>2025-9-4T23:32:50Z</time></trkpt>
<trkpt lat="46.17348" lon="7.38311"><ele></ele><time>2025-9-4T23:32:53Z</time></trkpt>
<trkpt lat="46.17338" lon="7.38301"><ele></ele><time>2025-9-4T23:32:56Z</time></trkpt>
<trkpt lat="46.17329" lon="7.38291"><ele></ele><time>2025-9-4T23:32:59Z</time></trkpt>
<trkpt lat="46.17325" lon="7.38286"><ele></ele><time>2025-9-4T23:33:2Z</time></trkpt>
<trkpt lat="46.17318" lon="7.38278"><ele></ele><time>2025-9-4T23:33:5Z</time></trkpt>
<trkpt lat="46.17309" lon="7.3827"><ele></ele><time>2025-9-4T23:33:8Z</time></trkpt>
<trkpt lat="46.17305" lon="7.38263"><ele></ele><time>2025-9-4T23:33:11Z</time></trkpt>
<trkpt lat="46.17298" lon="7.38256"><ele></ele><time>2025-9-4T23:33:14Z</time></trkpt>
<trkpt lat="46.17295" lon="7.38251"><ele></ele><time>2025-9-4T23:33:17Z</time></trkpt>
<trkpt lat="46.17289" lon="7.38245"><ele></ele><time>2025-9-4T23:33:20Z</time></trkpt>
<trkpt lat="46.17286" lon="7.38243"><ele></ele><time>2025-9-4T23:33:23Z</time></trkpt>
<trkpt lat="46.17279" lon="7.38232"><ele></ele><time>2025-9-4T23:33:26Z</time></trkpt>
<trkpt lat="46.17273" lon="7.38226"><ele></ele><time>2025-9-4T23:33:29Z</time></trkpt>
<trkpt lat="46.17268" lon="7.38221"><ele></ele><time>2025-9-4T23:33:32Z</time></trkpt>
<trkpt lat="46.17266" lon="7.38219"><ele></ele><time>2025-9-4T23:33:35Z</time></trkpt>
<trkpt lat="46.17258" lon="7.38209"><ele></ele><time>2025-9-4T23:33:38Z</time></trkpt>
<trkpt lat="46.17252" lon="7.38203"><ele></ele><time>2025-9-4T23:33:41Z</time></trkpt>
<trkpt lat="46.17248" lon="7.38199"><ele></ele><time>2025-9-4T23:33:44Z</time></trkpt>
<trkpt lat="46.17243" lon="7.38195"><ele></ele><time>2025-9-4T23:33:47Z</time></trkpt>
<trkpt lat="46.17237" lon="7.3819"><ele></ele><time>2025-9-4T23:33:50Z</time></trkpt>
<trkpt lat="46.17235" lon="7.38189"><ele></ele><time>2025-9-4T23:33:53Z</time></trkpt>
<trkpt lat="46.17233" lon="7.38187"><ele></ele><time>2025-9-4T23:33:56Z</time></trkpt>
<trkpt lat="46.17225" lon="7.38178"><ele></ele><time>2025-9-4T23:33:59Z</time></trkpt>
<trkpt lat="46.17222" lon="7.38176"><ele></ele><time>2025-9-4T23:34:2Z</time></trkpt>
<trkpt lat="46.17215" lon="7.38169"><ele></ele><time>2025-9-4T23:34:5Z</time></trkpt>
<trkpt lat="46.17204" lon="7.3816"><ele></ele><time>2025-9-4T23:34:8Z</time></trkpt>
<trkpt lat="46.17201" lon="7.38156"><ele></ele><time>2025-9-4T23:34:11Z</time></trkpt>
<trkpt lat="46.17189" lon="7.38147"><ele></ele><time>2025-9-4T23:34:14Z</time></trkpt>
<trkpt lat="46.17186" lon="7.38145"><ele></ele><time>2025-9-4T23:34:17Z</time></trkpt>
<trkpt lat="46.17179" lon="7.38138"><ele></ele><time>2025-9-4T23:34:20Z</time></trkpt>
<trkpt lat="46.17178" lon="7.38135"><ele></ele><time>2025-9-4T23:34:23Z</time></trkpt>
<trkpt lat="46.17177" lon="7.38123"><ele></ele><time>2025-9-4T23:34:26Z</time></trkpt>
<trkpt lat="46.17178" lon="7.38119"><ele></ele><time>2025-9-4T23:34:29Z</time></trkpt>
<trkpt lat="46.17185" lon="7.38112"><ele></ele><time>2025-9-4T23:34:32Z</time></trkpt>
<trkpt lat="46.17191" lon="7.3811"><ele></ele><time>2025-9-4T23:34:35Z</time></trkpt>
<trkpt lat="46.17194" lon="7.38111"><ele></ele><time>2025-9-4T23:34:38Z</time></trkpt>
<trkpt lat="46.17206" lon="7.38115"><ele></ele><time>2025-9-4T23:34:41Z</time></trkpt>
<trkpt lat="46.1721" lon="7.38116"><ele></ele><time>2025-9-4T23:34:44Z</time></trkpt>
<trkpt lat="46.17217" lon="7.38119"><ele></ele><time>2025-9-4T23:34:47Z</time></trkpt>
<trkpt lat="46.17222" lon="7.38119"><ele></ele><time>2025-9-4T23:34:50Z</time></trkpt>
<trkpt lat="46.17229" lon="7.38121"><ele></ele><time>2025-9-4T23:34:53Z</time></trkpt>
<trkpt lat="46.17231" lon="7.38121"><ele></ele><time>2025-9-4T23:34:56Z</time></trkpt>
<trkpt lat="46.17241" lon="7.38122"><ele></ele><time>2025-9-4T23:34:59Z</time></trkpt>
<trkpt lat="46.17251" lon="7.38124"><ele></ele><time>2025-9-4T23:35:2Z</time></trkpt>
<trkpt lat="46.17252" lon="7.38124"><ele></ele><time>2025-9-4T23:35:5Z</time></trkpt>
<trkpt lat="46.17261" lon="7.38127"><ele></ele><time>2025-9-4T23:35:8Z</time></trkpt>
<trkpt lat="46.17271" lon="7.38129"><ele></ele><time>2025-9-4T23:35:11Z</time></trkpt>
<trkpt lat="46.17281" lon="7.38131"><ele></ele><time>2025-9-4T23:35:14Z</time></trkpt>
<trkpt lat="46.17282" lon="7.3813"><ele></ele><time>2025-9-4T23:35:17Z</time></trkpt>
<trkpt lat="46.17289" lon="7.3813"><ele></ele><time>2025-9-4T23:35:20Z</time></trkpt>
<trkpt lat="46.17291" lon="7.38128"><ele></ele><time>2025-9-4T23:35:23Z</time></trkpt>
<trkpt lat="46.17292" lon="7.38128"><ele></ele><time>2025-9-4T23:35:26Z</time></trkpt>
<trkpt lat="46.173" lon="7.38129"><ele></ele><time>2025-9-4T23:35:29Z</time></trkpt>
<trkpt lat="46.17301" lon="7.38129"><ele></ele><time>2025-9-4T23:35:32Z</time></trkpt>
<trkpt lat="46.17307" lon="7.38129"><ele></ele><time>2025-9-4T23:35:35Z</time></trkpt>
<trkpt lat="46.17315" lon="7.38127"><ele></ele><time>2025-9-4T23:35:38Z</time></trkpt>
<trkpt lat="46.17322" lon="7.38127"><ele></ele><time>2025-9-4T23:35:41Z</time></trkpt>
<trkpt lat="46.17326" lon="7.38127"><ele></ele><time>2025-9-4T23:35:44Z</time></trkpt>
<trkpt lat="46.17334" lon="7.38125"><ele></ele><time>2025-9-4T23:35:47Z</time></trkpt>
<trkpt lat="46.17336" lon="7.38126"><ele></ele><time>2025-9-4T23:35:50Z</time></trkpt>
<trkpt lat="46.1734" lon="7.38124"><ele></ele><time>2025-9-4T23:35:53Z</time></trkpt>
<trkpt lat="46.17345" lon="7.38124"><ele></ele><time>2025-9-4T23:35:56Z</time></trkpt>
<trkpt lat="46.17354" lon="7.38123"><ele></ele><time>2025-9-4T23:35:59Z</time></trkpt>
<trkpt lat="46.17367" lon="7.38122"><ele></ele><time>2025-9-4T23:36:2Z</time></trkpt>
<trkpt lat="46.17379" lon="7.38122"><ele></ele><time>2025-9-4T23:36:5Z</time></trkpt>
<trkpt lat="46.17384" lon="7.38123"><ele></ele><time>2025-9-4T23:36:8Z</time></trkpt>
<trkpt lat="46.17405" lon="7.38134"><ele></ele><time>2025-9-4T23:36:11Z</time></trkpt>
<trkpt lat="46.17426" lon="7.38148"><ele></ele><time>2025-9-4T23:36:14Z</time></trkpt>
<trkpt lat="46.17429" lon="7.38149"><ele></ele><time>2025-9-4T23:36:17Z</time></trkpt>
<trkpt lat="46.17436" lon="7.38153"><ele></ele><time>2025-9-4T23:36:20Z</time></trkpt>
<trkpt lat="46.17438" lon="7.38154"><ele></ele><time>2025-9-4T23:36:23Z</time></trkpt>
<trkpt lat="46.17442" lon="7.38151"><ele></ele><time>2025-9-4T23:36:26Z</time></trkpt>
<trkpt lat="46.17443" lon="7.38151"><ele></ele><time>2025-9-4T23:36:29Z</time></trkpt>
<trkpt lat="46.17444" lon="7.38149"><ele></ele><time>2025-9-4T23:36:32Z</time></trkpt>
<trkpt lat="46.17446" lon="7.38148"><ele></ele><time>2025-9-4T23:36:35Z</time></trkpt>
<trkpt lat="46.17447" lon="7.38145"><ele></ele><time>2025-9-4T23:36:38Z</time></trkpt>
<trkpt lat="46.17446" lon="7.38142"><ele></ele><time>2025-9-4T23:36:41Z</time></trkpt>
<trkpt lat="46.17446" lon="7.3814"><ele></ele><time>2025-9-4T23:36:44Z</time></trkpt>
<trkpt lat="46.17444" lon="7.38133"><ele></ele><time>2025-9-4T23:36:47Z</time></trkpt>
<trkpt lat="46.17444" lon="7.38132"><ele></ele><time>2025-9-4T23:36:50Z</time></trkpt>
<trkpt lat="46.17443" lon="7.38129"><ele></ele><time>2025-9-4T23:36:53Z</time></trkpt>
<trkpt lat="46.17442" lon="7.38123"><ele></ele><time>2025-9-4T23:36:56Z</time></trkpt>
<trkpt lat="46.17441" lon="7.38121"><ele></ele><time>2025-9-4T23:36:59Z</time></trkpt>
<trkpt lat="46.17438" lon="7.38113"><ele></ele><time>2025-9-4T23:37:2Z</time></trkpt>
<trkpt lat="46.17437" lon="7.38112"><ele></ele><time>2025-9-4T23:37:5Z</time></trkpt>
<trkpt lat="46.17435" lon="7.38105"><ele></ele><time>2025-9-4T23:37:8Z</time></trkpt>
<trkpt lat="46.17434" lon="7.38104"><ele></ele><time>2025-9-4T23:37:11Z</time></trkpt>
<trkpt lat="46.17432" lon="7.38098"><ele></ele><time>2025-9-4T23:37:14Z</time></trkpt>
<trkpt lat="46.1743" lon="7.38094"><ele></ele><time>2025-9-4T23:37:17Z</time></trkpt>
<trkpt lat="46.17428" lon="7.38092"><ele></ele><time>2025-9-4T23:37:20Z</time></trkpt>
<trkpt lat="46.17427" lon="7.38089"><ele></ele><time>2025-9-4T23:37:23Z</time></trkpt>
<trkpt lat="46.17426" lon="7.38085"><ele></ele><time>2025-9-4T23:37:26Z</time></trkpt>
<trkpt lat="46.17424" lon="7.38082"><ele></ele><time>2025-9-4T23:37:29Z</time></trkpt>
<trkpt lat="46.17424" lon="7.38081"><ele></ele><time>2025-9-4T23:37:32Z</time></trkpt>
<trkpt lat="46.17421" lon="7.38075"><ele></ele><time>2025-9-4T23:37:35Z</time></trkpt>
<trkpt lat="46.1742" lon="7.38074"><ele></ele><time>2025-9-4T23:37:38Z</time></trkpt>
<trkpt lat="46.17417" lon="7.38069"><ele></ele><time>2025-9-4T23:37:41Z</time></trkpt>
<trkpt lat="46.17416" lon="7.38067"><ele></ele><time>2025-9-4T23:37:44Z</time></trkpt>
<trkpt lat="46.17413" lon="7.38063"><ele></ele><time>2025-9-4T23:37:47Z</time></trkpt>
<trkpt lat="46.17412" lon="7.3806"><ele></ele><time>2025-9-4T23:37:50Z</time></trkpt>
<trkpt lat="46.1741" lon="7.38058"><ele></ele><time>2025-9-4T23:37:53Z</time></trkpt>
<trkpt lat="46.17409" lon="7.38054"><ele></ele><time>2025-9-4T23:37:56Z</time></trkpt>
<trkpt lat="46.17407" lon="7.38051"><ele></ele><time>2025-9-4T23:37:59Z</time></trkpt>
<trkpt lat="46.17405" lon="7.38047"><ele></ele><time>2025-9-4T23:38:2Z</time></trkpt>
<trkpt lat="46.17402" lon="7.38042"><ele></ele><time>2025-9-4T23:38:5Z</time></trkpt>
<trkpt lat="46.17402" lon="7.38038"><ele></ele><time>2025-9-4T23:38:8Z</time></trkpt>
<trkpt lat="46.174" lon="7.38032"><ele></ele><time>2025-9-4T23:38:11Z</time></trkpt>
<trkpt lat="46.17401" lon="7.38031"><ele></ele><time>2025-9-4T23:38:14Z</time></trkpt>
<trkpt lat="46.17401" lon="7.38025"><ele></ele><time>2025-9-4T23:38:17Z</time></trkpt>
<trkpt lat="46.17402" lon="7.38024"><ele></ele><time>2025-9-4T23:38:20Z</time></trkpt>
<trkpt lat="46.17404" lon="7.38023"><ele></ele><time>2025-9-4T23:38:23Z</time></trkpt>
<trkpt lat="46.17406" lon="7.38023"><ele></ele><time>2025-9-4T23:38:26Z</time></trkpt>
<trkpt lat="46.17408" lon="7.38024"><ele></ele><time>2025-9-4T23:38:29Z</time></trkpt>
<trkpt lat="46.17413" lon="7.38025"><ele></ele><time>2025-9-4T23:38:32Z</time></trkpt>
<trkpt lat="46.17417" lon="7.38027"><ele></ele><time>2025-9-4T23:38:35Z</time></trkpt>
<trkpt lat="46.17427" lon="7.38032"><ele></ele><time>2025-9-4T23:38:38Z</time></trkpt>
<trkpt lat="46.1744" lon="7.38037"><ele></ele><time>2025-9-4T23:38:41Z</time></trkpt>
<trkpt lat="46.1745" lon="7.38043"><ele></ele><time>2025-9-4T23:38:44Z</time></trkpt>
<trkpt lat="46.17457" lon="7.38046"><ele></ele><time>2025-9-4T23:38:47Z</time></trkpt>
<trkpt lat="46.17463" lon="7.3805"><ele></ele><time>2025-9-4T23:38:50Z</time></trkpt>
<trkpt lat="46.17465" lon="7.38051"><ele></ele><time>2025-9-4T23:38:53Z</time></trkpt>
<trkpt lat="46.17477" lon="7.3806"><ele></ele><time>2025-9-4T23:38:56Z</time></trkpt>
<trkpt lat="46.17483" lon="7.38069"><ele></ele><time>2025-9-4T23:38:59Z</time></trkpt>
<trkpt lat="46.17485" lon="7.38072"><ele></ele><time>2025-9-4T23:39:2Z</time></trkpt>
<trkpt lat="46.17487" lon="7.38076"><ele></ele><time>2025-9-4T23:39:5Z</time></trkpt>
<trkpt lat="46.17488" lon="7.38079"><ele></ele><time>2025-9-4T23:39:8Z</time></trkpt>
<trkpt lat="46.17488" lon="7.38078"><ele></ele><time>2025-9-4T23:39:11Z</time></trkpt>
<trkpt lat="46.17488" lon="7.38078"><ele></ele><time>2025-9-4T23:39:14Z</time></trkpt>
<trkpt lat="46.17488" lon="7.38078"><ele></ele><time>2025-9-4T23:39:17Z</time></trkpt>
<trkpt lat="46.17488" lon="7.38078"><ele></ele><time>2025-9-4T23:39:20Z</time></trkpt>
<trkpt lat="46.17488" lon="7.38078"><ele></ele><time>2025-9-4T23:39:23Z</time></trkpt>
<trkpt lat="46.17488" lon="7.38078"><ele></ele><time>2025-9-4T23:39:26Z</time></trkpt>
<trkpt lat="46.17488" lon="7.38078"><ele></ele><time>2025-9-4T23:39:29Z</time></trkpt>
<trkpt lat="46.17488" lon="7.38078"><ele></ele><time>2025-9-4T23:39:32Z</time></trkpt>
<trkpt lat="46.17488" lon="7.38078"><ele></ele><time>2025-9-4T23:39:35Z</time></trkpt>
<trkpt lat="46.17488" lon="7.38077"><ele></ele><time>2025-9-4T23:39:38Z</time></trkpt>
<trkpt lat="46.17488" lon="7.38078"><ele></ele><time>2025-9-4T23:39:41Z</time></trkpt>
<trkpt lat="46.17488" lon="7.38078"><ele></ele><time>2025-9-4T23:39:44Z</time></trkpt>
<trkpt lat="46.17488" lon="7.38077"><ele></ele><time>2025-9-4T23:39:47Z</time></trkpt>
<trkpt lat="46.17488" lon="7.38078"><ele></ele><time>2025-9-4T23:39:50Z</time></trkpt>
<trkpt lat="46.17488" lon="7.38078"><ele></ele><time>2025-9-4T23:39:53Z</time></trkpt>
<trkpt lat="46.17488" lon="7.38078"><ele></ele><time>2025-9-4T23:39:56Z</time></trkpt>
<trkpt lat="46.17488" lon="7.38078"><ele></ele><time>2025-9-4T23:39:59Z</time></trkpt>
<trkpt lat="46.17488" lon="7.38078"><ele></ele><time>2025-9-4T23:40:2Z</time></trkpt>
<trkpt lat="46.17488" lon="7.38078"><ele></ele><time>2025-9-4T23:40:5Z</time></trkpt>
<trkpt lat="46.17489" lon="7.38077"><ele></ele><time>2025-9-4T23:40:8Z</time></trkpt>
<trkpt lat="46.17491" lon="7.38078"><ele></ele><time>2025-9-4T23:40:11Z</time></trkpt>
<trkpt lat="46.17502" lon="7.38085"><ele></ele><time>2025-9-4T23:40:14Z</time></trkpt>
<trkpt lat="46.17505" lon="7.38087"><ele></ele><time>2025-9-4T23:40:17Z</time></trkpt>
<trkpt lat="46.17518" lon="7.3809"><ele></ele><time>2025-9-4T23:40:20Z</time></trkpt>
<trkpt lat="46.17532" lon="7.38094"><ele></ele><time>2025-9-4T23:40:23Z</time></trkpt>
<trkpt lat="46.17536" lon="7.38095"><ele></ele><time>2025-9-4T23:40:26Z</time></trkpt>
<trkpt lat="46.17543" lon="7.38096"><ele></ele><time>2025-9-4T23:40:29Z</time></trkpt>
<trkpt lat="46.17569" lon="7.381"><ele></ele><time>2025-9-4T23:40:32Z</time></trkpt>
<trkpt lat="46.17581" lon="7.38102"><ele></ele><time>2025-9-4T23:40:35Z</time></trkpt>
<trkpt lat="46.17593" lon="7.38103"><ele></ele><time>2025-9-4T23:40:38Z</time></trkpt>
<trkpt lat="46.17598" lon="7.38102"><ele></ele><time>2025-9-4T23:40:41Z</time></trkpt>
<trkpt lat="46.17617" lon="7.38099"><ele></ele><time>2025-9-4T23:40:44Z</time></trkpt>
<trkpt lat="46.17622" lon="7.38099"><ele></ele><time>2025-9-4T23:40:47Z</time></trkpt>
<trkpt lat="46.17632" lon="7.381"><ele></ele><time>2025-9-4T23:40:50Z</time></trkpt>
<trkpt lat="46.17643" lon="7.381"><ele></ele><time>2025-9-4T23:40:53Z</time></trkpt>
<trkpt lat="46.17648" lon="7.38101"><ele></ele><time>2025-9-4T23:40:56Z</time></trkpt>
<trkpt lat="46.17653" lon="7.38101"><ele></ele><time>2025-9-4T23:40:59Z</time></trkpt>
<trkpt lat="46.17668" lon="7.38099"><ele></ele><time>2025-9-4T23:41:2Z</time></trkpt>
<trkpt lat="46.17674" lon="7.38099"><ele></ele><time>2025-9-4T23:41:5Z</time></trkpt>
<trkpt lat="46.17679" lon="7.38099"><ele></ele><time>2025-9-4T23:41:8Z</time></trkpt>
<trkpt lat="46.1769" lon="7.38101"><ele></ele><time>2025-9-4T23:41:11Z</time></trkpt>
<trkpt lat="46.17695" lon="7.38102"><ele></ele><time>2025-9-4T23:41:14Z</time></trkpt>
<trkpt lat="46.177" lon="7.38104"><ele></ele><time>2025-9-4T23:41:17Z</time></trkpt>
<trkpt lat="46.17721" lon="7.38108"><ele></ele><time>2025-9-4T23:41:20Z</time></trkpt>
<trkpt lat="46.17726" lon="7.38109"><ele></ele><time>2025-9-4T23:41:23Z</time></trkpt>
<trkpt lat="46.17738" lon="7.38113"><ele></ele><time>2025-9-4T23:41:26Z</time></trkpt>
<trkpt lat="46.17749" lon="7.38115"><ele></ele><time>2025-9-4T23:41:29Z</time></trkpt>
<trkpt lat="46.17753" lon="7.38113"><ele></ele><time>2025-9-4T23:41:32Z</time></trkpt>
<trkpt lat="46.1776" lon="7.38107"><ele></ele><time>2025-9-4T23:41:35Z</time></trkpt>
<trkpt lat="46.17763" lon="7.38106"><ele></ele><time>2025-9-4T23:41:38Z</time></trkpt>
<trkpt lat="46.17766" lon="7.38105"><ele></ele><time>2025-9-4T23:41:41Z</time></trkpt>
<trkpt lat="46.17768" lon="7.38105"><ele></ele><time>2025-9-4T23:41:44Z</time></trkpt>
<trkpt lat="46.17771" lon="7.38105"><ele></ele><time>2025-9-4T23:41:47Z</time></trkpt>
<trkpt lat="46.17776" lon="7.38104"><ele></ele><time>2025-9-4T23:41:50Z</time></trkpt>
<trkpt lat="46.17784" lon="7.38102"><ele></ele><time>2025-9-4T23:41:53Z</time></trkpt>
<trkpt lat="46.17789" lon="7.38101"><ele></ele><time>2025-9-4T23:41:56Z</time></trkpt>
<trkpt lat="46.17795" lon="7.38099"><ele></ele><time>2025-9-4T23:41:59Z</time></trkpt>
<trkpt lat="46.17798" lon="7.38098"><ele></ele><time>2025-9-4T23:42:2Z</time></trkpt>
<trkpt lat="46.17801" lon="7.38096"><ele></ele><time>2025-9-4T23:42:5Z</time></trkpt>
<trkpt lat="46.17803" lon="7.38096"><ele></ele><time>2025-9-4T23:42:8Z</time></trkpt>
<trkpt lat="46.17808" lon="7.38094"><ele></ele><time>2025-9-4T23:42:11Z</time></trkpt>
<trkpt lat="46.17814" lon="7.38093"><ele></ele><time>2025-9-4T23:42:14Z</time></trkpt>
<trkpt lat="46.17815" lon="7.38093"><ele></ele><time>2025-9-4T23:42:17Z</time></trkpt>
<trkpt lat="46.17821" lon="7.38092"><ele></ele><time>2025-9-4T23:42:20Z</time></trkpt>
<trkpt lat="46.17834" lon="7.38088"><ele></ele><time>2025-9-4T23:42:23Z</time></trkpt>
<trkpt lat="46.17845" lon="7.38087"><ele></ele><time>2025-9-4T23:42:26Z</time></trkpt>
<trkpt lat="46.17846" lon="7.3809"><ele></ele><time>2025-9-4T23:42:29Z</time></trkpt>
<trkpt lat="46.17846" lon="7.38095"><ele></ele><time>2025-9-4T23:42:32Z</time></trkpt>
<trkpt lat="46.17846" lon="7.38097"><ele></ele><time>2025-9-4T23:42:35Z</time></trkpt>
<trkpt lat="46.17846" lon="7.38097"><ele></ele><time>2025-9-4T23:42:38Z</time></trkpt>
<trkpt lat="46.17846" lon="7.38097"><ele></ele><time>2025-9-4T23:42:41Z</time></trkpt>
<trkpt lat="46.17845" lon="7.38097"><ele></ele><time>2025-9-4T23:42:44Z</time></trkpt>
<trkpt lat="46.17846" lon="7.38097"><ele></ele><time>2025-9-4T23:42:47Z</time></trkpt>
<trkpt lat="46.17845" lon="7.38097"><ele></ele><time>2025-9-4T23:42:50Z</time></trkpt>
<trkpt lat="46.17844" lon="7.38099"><ele></ele><time>2025-9-4T23:42:53Z</time></trkpt>
<trkpt lat="46.17844" lon="7.38099"><ele></ele><time>2025-9-4T23:42:56Z</time></trkpt>
<trkpt lat="46.17843" lon="7.38099"><ele></ele><time>2025-9-4T23:42:59Z</time></trkpt>
<trkpt lat="46.17842" lon="7.38098"><ele></ele><time>2025-9-4T23:43:2Z</time></trkpt>
<trkpt lat="46.17843" lon="7.38099"><ele></ele><time>2025-9-4T23:43:5Z</time></trkpt>
<trkpt lat="46.17843" lon="7.38098"><ele></ele><time>2025-9-4T23:43:8Z</time></trkpt>
<trkpt lat="46.17843" lon="7.38098"><ele></ele><time>2025-9-4T23:43:11Z</time></trkpt>
<trkpt lat="46.17843" lon="7.38098"><ele></ele><time>2025-9-4T23:43:14Z</time></trkpt>
<trkpt lat="46.17843" lon="7.38098"><ele></ele><time>2025-9-4T23:43:17Z</time></trkpt>
<trkpt lat="46.17843" lon="7.38098"><ele></ele><time>2025-9-4T23:43:20Z</time></trkpt>
<trkpt lat="46.17843" lon="7.38099"><ele></ele><time>2025-9-4T23:43:23Z</time></trkpt>
<trkpt lat="46.17845" lon="7.381"><ele></ele><time>2025-9-4T23:43:26Z</time></trkpt>
<trkpt lat="46.17846" lon="7.381"><ele></ele><time>2025-9-4T23:43:29Z</time></trkpt>
<trkpt lat="46.17845" lon="7.38101"><ele></ele><time>2025-9-4T23:43:32Z</time></trkpt>
<trkpt lat="46.17845" lon="7.38102"><ele></ele><time>2025-9-4T23:43:35Z</time></trkpt>
<trkpt lat="46.17844" lon="7.38101"><ele></ele><time>2025-9-4T23:43:38Z</time></trkpt>
<trkpt lat="46.17844" lon="7.381"><ele></ele><time>2025-9-4T23:43:41Z</time></trkpt>
<trkpt lat="46.17844" lon="7.381"><ele></ele><time>2025-9-4T23:43:44Z</time></trkpt>
<trkpt lat="46.17844" lon="7.38102"><ele></ele><time>2025-9-4T23:43:47Z</time></trkpt>
<trkpt lat="46.17843" lon="7.381"><ele></ele><time>2025-9-4T23:43:50Z</time></trkpt>
<trkpt lat="46.17843" lon="7.38098"><ele></ele><time>2025-9-4T23:43:53Z</time></trkpt>
<trkpt lat="46.17847" lon="7.38097"><ele></ele><time>2025-9-4T23:43:56Z</time></trkpt>
<trkpt lat="46.17847" lon="7.38097"><ele></ele><time>2025-9-4T23:43:59Z</time></trkpt>
<trkpt lat="46.17847" lon="7.38097"><ele></ele><time>2025-9-4T23:44:2Z</time></trkpt>
<trkpt lat="46.17847" lon="7.38097"><ele></ele><time>2025-9-4T23:44:5Z</time></trkpt>
<trkpt lat="46.17847" lon="7.38097"><ele></ele><time>2025-9-4T23:44:8Z</time></trkpt>
<trkpt lat="46.17846" lon="7.38097"><ele></ele><time>2025-9-4T23:44:11Z</time></trkpt>
<trkpt lat="46.17847" lon="7.38097"><ele></ele><time>2025-9-4T23:44:14Z</time></trkpt>
<trkpt lat="46.17847" lon="7.38097"><ele></ele><time>2025-9-4T23:44:17Z</time></trkpt>
<trkpt lat="46.17847" lon="7.38097"><ele></ele><time>2025-9-4T23:44:20Z</time></trkpt>
<trkpt lat="46.17847" lon="7.38097"><ele></ele><time>2025-9-4T23:44:23Z</time></trkpt>
<trkpt lat="46.17847" lon="7.38097"><ele></ele><time>2025-9-4T23:44:26Z</time></trkpt>
<trkpt lat="46.17847" lon="7.38097"><ele></ele><time>2025-9-4T23:44:29Z</time></trkpt>
<trkpt lat="46.17847" lon="7.38097"><ele></ele><time>2025-9-4T23:44:32Z</time></trkpt>
<trkpt lat="46.17846" lon="7.38089"><ele></ele><time>2025-9-4T23:44:35Z</time></trkpt>
<trkpt lat="46.17847" lon="7.38083"><ele></ele><time>2025-9-4T23:44:38Z</time></trkpt>
<trkpt lat="46.17847" lon="7.38083"><ele></ele><time>2025-9-4T23:44:41Z</time></trkpt>
<trkpt lat="46.17847" lon="7.38083"><ele></ele><time>2025-9-4T23:44:44Z</time></trkpt>
<trkpt lat="46.17849" lon="7.38083"><ele></ele><time>2025-9-4T23:44:47Z</time></trkpt>
<trkpt lat="46.1785" lon="7.38082"><ele></ele><time>2025-9-4T23:44:50Z</time></trkpt>
<trkpt lat="46.17853" lon="7.38081"><ele></ele><time>2025-9-4T23:44:53Z</time></trkpt>
<trkpt lat="46.17857" lon="7.38079"><ele></ele><time>2025-9-4T23:44:56Z</time></trkpt>
<trkpt lat="46.17862" lon="7.38075"><ele></ele><time>2025-9-4T23:44:59Z</time></trkpt>
<trkpt lat="46.17868" lon="7.3807"><ele></ele><time>2025-9-4T23:45:2Z</time></trkpt>
<trkpt lat="46.1787" lon="7.38069"><ele></ele><time>2025-9-4T23:45:5Z</time></trkpt>
<trkpt lat="46.17875" lon="7.38066"><ele></ele><time>2025-9-4T23:45:8Z</time></trkpt>
<trkpt lat="46.17884" lon="7.38062"><ele></ele><time>2025-9-4T23:45:11Z</time></trkpt>
<trkpt lat="46.17892" lon="7.38059"><ele></ele><time>2025-9-4T23:45:14Z</time></trkpt>
<trkpt lat="46.179" lon="7.38057"><ele></ele><time>2025-9-4T23:45:17Z</time></trkpt>
<trkpt lat="46.17903" lon="7.38057"><ele></ele><time>2025-9-4T23:45:20Z</time></trkpt>
<trkpt lat="46.17907" lon="7.38056"><ele></ele><time>2025-9-4T23:45:23Z</time></trkpt>
<trkpt lat="46.17911" lon="7.38056"><ele></ele><time>2025-9-4T23:45:26Z</time></trkpt>
<trkpt lat="46.17915" lon="7.38056"><ele></ele><time>2025-9-4T23:45:29Z</time></trkpt>
<trkpt lat="46.17917" lon="7.38056"><ele></ele><time>2025-9-4T23:45:32Z</time></trkpt>
<trkpt lat="46.17921" lon="7.38054"><ele></ele><time>2025-9-4T23:45:35Z</time></trkpt>
<trkpt lat="46.17923" lon="7.38054"><ele></ele><time>2025-9-4T23:45:38Z</time></trkpt>
<trkpt lat="46.17927" lon="7.3805"><ele></ele><time>2025-9-4T23:45:41Z</time></trkpt>
<trkpt lat="46.17928" lon="7.38046"><ele></ele><time>2025-9-4T23:45:44Z</time></trkpt>
<trkpt lat="46.17929" lon="7.38043"><ele></ele><time>2025-9-4T23:45:47Z</time></trkpt>
<trkpt lat="46.17932" lon="7.3804"><ele></ele><time>2025-9-4T23:45:50Z</time></trkpt>
<trkpt lat="46.17937" lon="7.38035"><ele></ele><time>2025-9-4T23:45:53Z</time></trkpt>
<trkpt lat="46.1794" lon="7.38032"><ele></ele><time>2025-9-4T23:45:56Z</time></trkpt>
<trkpt lat="46.17941" lon="7.38032"><ele></ele><time>2025-9-4T23:45:59Z</time></trkpt>
<trkpt lat="46.17941" lon="7.38031"><ele></ele><time>2025-9-4T23:46:2Z</time></trkpt>
<trkpt lat="46.17944" lon="7.38027"><ele></ele><time>2025-9-4T23:46:5Z</time></trkpt>
<trkpt lat="46.17946" lon="7.38025"><ele></ele><time>2025-9-4T23:46:8Z</time></trkpt>
<trkpt lat="46.17948" lon="7.38024"><ele></ele><time>2025-9-4T23:46:11Z</time></trkpt>
<trkpt lat="46.17951" lon="7.38023"><ele></ele><time>2025-9-4T23:46:14Z</time></trkpt>
<trkpt lat="46.17958" lon="7.3802"><ele></ele><time>2025-9-4T23:46:17Z</time></trkpt>
<trkpt lat="46.17965" lon="7.38019"><ele></ele><time>2025-9-4T23:46:20Z</time></trkpt>
<trkpt lat="46.17971" lon="7.38016"><ele></ele><time>2025-9-4T23:46:23Z</time></trkpt>
<trkpt lat="46.17972" lon="7.38015"><ele></ele><time>2025-9-4T23:46:26Z</time></trkpt>
<trkpt lat="46.17975" lon="7.38012"><ele></ele><time>2025-9-4T23:46:29Z</time></trkpt>
<trkpt lat="46.17976" lon="7.3801"><ele></ele><time>2025-9-4T23:46:32Z</time></trkpt>
<trkpt lat="46.17978" lon="7.38006"><ele></ele><time>2025-9-4T23:46:35Z</time></trkpt>
<trkpt lat="46.17978" lon="7.38005"><ele></ele><time>2025-9-4T23:46:38Z</time></trkpt>
<trkpt lat="46.17979" lon="7.38"><ele></ele><time>2025-9-4T23:46:41Z</time></trkpt>
<trkpt lat="46.17979" lon="7.37998"><ele></ele><time>2025-9-4T23:46:44Z</time></trkpt>
<trkpt lat="46.17979" lon="7.37995"><ele></ele><time>2025-9-4T23:46:47Z</time></trkpt>
<trkpt lat="46.17978" lon="7.37993"><ele></ele><time>2025-9-4T23:46:50Z</time></trkpt>
<trkpt lat="46.17977" lon="7.37992"><ele></ele><time>2025-9-4T23:46:53Z</time></trkpt>
<trkpt lat="46.17976" lon="7.37988"><ele></ele><time>2025-9-4T23:46:56Z</time></trkpt>
<trkpt lat="46.17974" lon="7.37985"><ele></ele><time>2025-9-4T23:46:59Z</time></trkpt>
<trkpt lat="46.17972" lon="7.37981"><ele></ele><time>2025-9-4T23:47:2Z</time></trkpt>
<trkpt lat="46.17971" lon="7.37981"><ele></ele><time>2025-9-4T23:47:5Z</time></trkpt>
<trkpt lat="46.17969" lon="7.37977"><ele></ele><time>2025-9-4T23:47:8Z</time></trkpt>
<trkpt lat="46.17969" lon="7.37976"><ele></ele><time>2025-9-4T23:47:11Z</time></trkpt>
<trkpt lat="46.17966" lon="7.37971"><ele></ele><time>2025-9-4T23:47:14Z</time></trkpt>
<trkpt lat="46.17965" lon="7.3797"><ele></ele><time>2025-9-4T23:47:17Z</time></trkpt>
<trkpt lat="46.17963" lon="7.37966"><ele></ele><time>2025-9-4T23:47:20Z</time></trkpt>
<trkpt lat="46.17962" lon="7.37964"><ele></ele><time>2025-9-4T23:47:23Z</time></trkpt>
<trkpt lat="46.17963" lon="7.37962"><ele></ele><time>2025-9-4T23:47:26Z</time></trkpt>
<trkpt lat="46.17962" lon="7.37959"><ele></ele><time>2025-9-4T23:47:29Z</time></trkpt>
<trkpt lat="46.17962" lon="7.37958"><ele></ele><time>2025-9-4T23:47:32Z</time></trkpt>
<trkpt lat="46.17961" lon="7.37954"><ele></ele><time>2025-9-4T23:47:35Z</time></trkpt>
<trkpt lat="46.17961" lon="7.3795"><ele></ele><time>2025-9-4T23:47:38Z</time></trkpt>
<trkpt lat="46.17961" lon="7.37948"><ele></ele><time>2025-9-4T23:47:41Z</time></trkpt>
<trkpt lat="46.17962" lon="7.37943"><ele></ele><time>2025-9-4T23:47:44Z</time></trkpt>
<trkpt lat="46.17962" lon="7.37942"><ele></ele><time>2025-9-4T23:47:47Z</time></trkpt>
<trkpt lat="46.17962" lon="7.37938"><ele></ele><time>2025-9-4T23:47:50Z</time></trkpt>
<trkpt lat="46.17964" lon="7.37935"><ele></ele><time>2025-9-4T23:47:53Z</time></trkpt>
<trkpt lat="46.17964" lon="7.37933"><ele></ele><time>2025-9-4T23:47:56Z</time></trkpt>
<trkpt lat="46.17965" lon="7.37927"><ele></ele><time>2025-9-4T23:47:59Z</time></trkpt>
<trkpt lat="46.17966" lon="7.37924"><ele></ele><time>2025-9-4T23:48:2Z</time></trkpt>
<trkpt lat="46.17967" lon="7.37921"><ele></ele><time>2025-9-4T23:48:5Z</time></trkpt>
<trkpt lat="46.17968" lon="7.3792"><ele></ele><time>2025-9-4T23:48:8Z</time></trkpt>
<trkpt lat="46.17968" lon="7.37916"><ele></ele><time>2025-9-4T23:48:11Z</time></trkpt>
<trkpt lat="46.17969" lon="7.37915"><ele></ele><time>2025-9-4T23:48:14Z</time></trkpt>
<trkpt lat="46.17971" lon="7.37909"><ele></ele><time>2025-9-4T23:48:17Z</time></trkpt>
<trkpt lat="46.17973" lon="7.37905"><ele></ele><time>2025-9-4T23:48:20Z</time></trkpt>
<trkpt lat="46.17975" lon="7.37901"><ele></ele><time>2025-9-4T23:48:23Z</time></trkpt>
<trkpt lat="46.17976" lon="7.37899"><ele></ele><time>2025-9-4T23:48:26Z</time></trkpt>
<trkpt lat="46.17975" lon="7.37897"><ele></ele><time>2025-9-4T23:48:29Z</time></trkpt>
<trkpt lat="46.17974" lon="7.37895"><ele></ele><time>2025-9-4T23:48:32Z</time></trkpt>
<trkpt lat="46.17971" lon="7.37892"><ele></ele><time>2025-9-4T23:48:35Z</time></trkpt>
<trkpt lat="46.1797" lon="7.37892"><ele></ele><time>2025-9-4T23:48:38Z</time></trkpt>
<trkpt lat="46.1797" lon="7.37891"><ele></ele><time>2025-9-4T23:48:41Z</time></trkpt>
<trkpt lat="46.17969" lon="7.3789"><ele></ele><time>2025-9-4T23:48:44Z</time></trkpt>
<trkpt lat="46.17966" lon="7.37886"><ele></ele><time>2025-9-4T23:48:47Z</time></trkpt>
<trkpt lat="46.17963" lon="7.37884"><ele></ele><time>2025-9-4T23:48:50Z</time></trkpt>
<trkpt lat="46.1796" lon="7.37882"><ele></ele><time>2025-9-4T23:48:53Z</time></trkpt>
<trkpt lat="46.17955" lon="7.37876"><ele></ele><time>2025-9-4T23:48:56Z</time></trkpt>
<trkpt lat="46.17954" lon="7.37876"><ele></ele><time>2025-9-4T23:48:59Z</time></trkpt>
<trkpt lat="46.1795" lon="7.37872"><ele></ele><time>2025-9-4T23:49:2Z</time></trkpt>
<trkpt lat="46.17948" lon="7.37869"><ele></ele><time>2025-9-4T23:49:5Z</time></trkpt>
<trkpt lat="46.17947" lon="7.37866"><ele></ele><time>2025-9-4T23:49:8Z</time></trkpt>
<trkpt lat="46.17942" lon="7.37862"><ele></ele><time>2025-9-4T23:49:11Z</time></trkpt>
<trkpt lat="46.17938" lon="7.37859"><ele></ele><time>2025-9-4T23:49:14Z</time></trkpt>
<trkpt lat="46.17937" lon="7.37858"><ele></ele><time>2025-9-4T23:49:17Z</time></trkpt>
<trkpt lat="46.17934" lon="7.37856"><ele></ele><time>2025-9-4T23:49:20Z</time></trkpt>
<trkpt lat="46.1793" lon="7.37854"><ele></ele><time>2025-9-4T23:49:23Z</time></trkpt>
<trkpt lat="46.17928" lon="7.37852"><ele></ele><time>2025-9-4T23:49:26Z</time></trkpt>
<trkpt lat="46.17922" lon="7.37847"><ele></ele><time>2025-9-4T23:49:29Z</time></trkpt>
<trkpt lat="46.1792" lon="7.37844"><ele></ele><time>2025-9-4T23:49:32Z</time></trkpt>
<trkpt lat="46.17916" lon="7.37842"><ele></ele><time>2025-9-4T23:49:35Z</time></trkpt>
<trkpt lat="46.17909" lon="7.37838"><ele></ele><time>2025-9-4T23:49:38Z</time></trkpt>
<trkpt lat="46.17899" lon="7.37833"><ele></ele><time>2025-9-4T23:49:41Z</time></trkpt>
<trkpt lat="46.17897" lon="7.37833"><ele></ele><time>2025-9-4T23:49:44Z</time></trkpt>
<trkpt lat="46.17891" lon="7.37829"><ele></ele><time>2025-9-4T23:49:47Z</time></trkpt>
<trkpt lat="46.1789" lon="7.37829"><ele></ele><time>2025-9-4T23:49:50Z</time></trkpt>
<trkpt lat="46.17881" lon="7.37825"><ele></ele><time>2025-9-4T23:49:53Z</time></trkpt>
<trkpt lat="46.17878" lon="7.37821"><ele></ele><time>2025-9-4T23:49:56Z</time></trkpt>
<trkpt lat="46.17877" lon="7.37819"><ele></ele><time>2025-9-4T23:49:59Z</time></trkpt>
<trkpt lat="46.17873" lon="7.37814"><ele></ele><time>2025-9-4T23:50:2Z</time></trkpt>
<trkpt lat="46.17872" lon="7.37813"><ele></ele><time>2025-9-4T23:50:5Z</time></trkpt>
<trkpt lat="46.17867" lon="7.37806"><ele></ele><time>2025-9-4T23:50:8Z</time></trkpt>
<trkpt lat="46.17864" lon="7.37804"><ele></ele><time>2025-9-4T23:50:11Z</time></trkpt>
<trkpt lat="46.17861" lon="7.378"><ele></ele><time>2025-9-4T23:50:14Z</time></trkpt>
<trkpt lat="46.17858" lon="7.37796"><ele></ele><time>2025-9-4T23:50:17Z</time></trkpt>
<trkpt lat="46.17855" lon="7.37792"><ele></ele><time>2025-9-4T23:50:20Z</time></trkpt>
<trkpt lat="46.17851" lon="7.37787"><ele></ele><time>2025-9-4T23:50:23Z</time></trkpt>
<trkpt lat="46.17844" lon="7.37778"><ele></ele><time>2025-9-4T23:50:26Z</time></trkpt>
<trkpt lat="46.17843" lon="7.37777"><ele></ele><time>2025-9-4T23:50:29Z</time></trkpt>
<trkpt lat="46.17835" lon="7.37769"><ele></ele><time>2025-9-4T23:50:32Z</time></trkpt>
<trkpt lat="46.17834" lon="7.37767"><ele></ele><time>2025-9-4T23:50:35Z</time></trkpt>
<trkpt lat="46.17825" lon="7.37759"><ele></ele><time>2025-9-4T23:50:38Z</time></trkpt>
<trkpt lat="46.17824" lon="7.37758"><ele></ele><time>2025-9-4T23:50:41Z</time></trkpt>
<trkpt lat="46.17816" lon="7.3775"><ele></ele><time>2025-9-4T23:50:44Z</time></trkpt>
<trkpt lat="46.17808" lon="7.37743"><ele></ele><time>2025-9-4T23:50:47Z</time></trkpt>
<trkpt lat="46.17799" lon="7.37737"><ele></ele><time>2025-9-4T23:50:50Z</time></trkpt>
<trkpt lat="46.17798" lon="7.37737"><ele></ele><time>2025-9-4T23:50:53Z</time></trkpt>
<trkpt lat="46.17789" lon="7.37734"><ele></ele><time>2025-9-4T23:50:56Z</time></trkpt>
<trkpt lat="46.17788" lon="7.37734"><ele></ele><time>2025-9-4T23:50:59Z</time></trkpt>
<trkpt lat="46.17781" lon="7.37732"><ele></ele><time>2025-9-4T23:51:2Z</time></trkpt>
<trkpt lat="46.17778" lon="7.3773"><ele></ele><time>2025-9-4T23:51:5Z</time></trkpt>
<trkpt lat="46.17772" lon="7.37728"><ele></ele><time>2025-9-4T23:51:8Z</time></trkpt>
<trkpt lat="46.17769" lon="7.37728"><ele></ele><time>2025-9-4T23:51:11Z</time></trkpt>
<trkpt lat="46.17761" lon="7.37725"><ele></ele><time>2025-9-4T23:51:14Z</time></trkpt>
<trkpt lat="46.17759" lon="7.37724"><ele></ele><time>2025-9-4T23:51:17Z</time></trkpt>
<trkpt lat="46.17751" lon="7.37719"><ele></ele><time>2025-9-4T23:51:20Z</time></trkpt>
<trkpt lat="46.17747" lon="7.37716"><ele></ele><time>2025-9-4T23:51:23Z</time></trkpt>
<trkpt lat="46.17742" lon="7.37711"><ele></ele><time>2025-9-4T23:51:26Z</time></trkpt>
<trkpt lat="46.17738" lon="7.37708"><ele></ele><time>2025-9-4T23:51:29Z</time></trkpt>
<trkpt lat="46.17734" lon="7.37704"><ele></ele><time>2025-9-4T23:51:32Z</time></trkpt>
<trkpt lat="46.1773" lon="7.377"><ele></ele><time>2025-9-4T23:51:35Z</time></trkpt>
<trkpt lat="46.17726" lon="7.37695"><ele></ele><time>2025-9-4T23:51:38Z</time></trkpt>
<trkpt lat="46.17724" lon="7.37692"><ele></ele><time>2025-9-4T23:51:41Z</time></trkpt>
<trkpt lat="46.17721" lon="7.37689"><ele></ele><time>2025-9-4T23:51:44Z</time></trkpt>
<trkpt lat="46.17721" lon="7.37685"><ele></ele><time>2025-9-4T23:51:47Z</time></trkpt>
<trkpt lat="46.1772" lon="7.37683"><ele></ele><time>2025-9-4T23:51:50Z</time></trkpt>
<trkpt lat="46.17718" lon="7.37682"><ele></ele><time>2025-9-4T23:51:53Z</time></trkpt>
<trkpt lat="46.17717" lon="7.37681"><ele></ele><time>2025-9-4T23:51:56Z</time></trkpt>
<trkpt lat="46.17712" lon="7.37672"><ele></ele><time>2025-9-4T23:51:59Z</time></trkpt>
<trkpt lat="46.17711" lon="7.3767"><ele></ele><time>2025-9-4T23:52:2Z</time></trkpt>
<trkpt lat="46.17705" lon="7.37663"><ele></ele><time>2025-9-4T23:52:5Z</time></trkpt>
<trkpt lat="46.17698" lon="7.37657"><ele></ele><time>2025-9-4T23:52:8Z</time></trkpt>
<trkpt lat="46.17695" lon="7.37654"><ele></ele><time>2025-9-4T23:52:11Z</time></trkpt>
<trkpt lat="46.17691" lon="7.37652"><ele></ele><time>2025-9-4T23:52:14Z</time></trkpt>
<trkpt lat="46.17687" lon="7.37648"><ele></ele><time>2025-9-4T23:52:17Z</time></trkpt>
<trkpt lat="46.17686" lon="7.37648"><ele></ele><time>2025-9-4T23:52:20Z</time></trkpt>
<trkpt lat="46.17682" lon="7.37648"><ele></ele><time>2025-9-4T23:52:23Z</time></trkpt>
<trkpt lat="46.17679" lon="7.37645"><ele></ele><time>2025-9-4T23:52:26Z</time></trkpt>
<trkpt lat="46.17673" lon="7.37644"><ele></ele><time>2025-9-4T23:52:29Z</time></trkpt>
<trkpt lat="46.17671" lon="7.37644"><ele></ele><time>2025-9-4T23:52:32Z</time></trkpt>
<trkpt lat="46.17659" lon="7.37643"><ele></ele><time>2025-9-4T23:52:35Z</time></trkpt>
<trkpt lat="46.17658" lon="7.37643"><ele></ele><time>2025-9-4T23:52:38Z</time></trkpt>
<trkpt lat="46.1765" lon="7.37642"><ele></ele><time>2025-9-4T23:52:41Z</time></trkpt>
<trkpt lat="46.17642" lon="7.37635"><ele></ele><time>2025-9-4T23:52:44Z</time></trkpt>
<trkpt lat="46.17642" lon="7.37632"><ele></ele><time>2025-9-4T23:52:47Z</time></trkpt>
<trkpt lat="46.17643" lon="7.37629"><ele></ele><time>2025-9-4T23:52:50Z</time></trkpt>
<trkpt lat="46.17646" lon="7.37627"><ele></ele><time>2025-9-4T23:52:53Z</time></trkpt>
<trkpt lat="46.17653" lon="7.37626"><ele></ele><time>2025-9-4T23:52:56Z</time></trkpt>
<trkpt lat="46.17657" lon="7.37627"><ele></ele><time>2025-9-4T23:52:59Z</time></trkpt>
<trkpt lat="46.17665" lon="7.37625"><ele></ele><time>2025-9-4T23:53:2Z</time></trkpt>
<trkpt lat="46.17666" lon="7.37624"><ele></ele><time>2025-9-4T23:53:5Z</time></trkpt>
<trkpt lat="46.17678" lon="7.37621"><ele></ele><time>2025-9-4T23:53:8Z</time></trkpt>
<trkpt lat="46.17688" lon="7.37614"><ele></ele><time>2025-9-4T23:53:11Z</time></trkpt>
<trkpt lat="46.17691" lon="7.37612"><ele></ele><time>2025-9-4T23:53:14Z</time></trkpt>
<trkpt lat="46.177" lon="7.37608"><ele></ele><time>2025-9-4T23:53:17Z</time></trkpt>
<trkpt lat="46.17703" lon="7.37606"><ele></ele><time>2025-9-4T23:53:20Z</time></trkpt>
<trkpt lat="46.17708" lon="7.37604"><ele></ele><time>2025-9-4T23:53:23Z</time></trkpt>
<trkpt lat="46.17715" lon="7.376"><ele></ele><time>2025-9-4T23:53:26Z</time></trkpt>
<trkpt lat="46.1772" lon="7.37598"><ele></ele><time>2025-9-4T23:53:29Z</time></trkpt>
<trkpt lat="46.17728" lon="7.37594"><ele></ele><time>2025-9-4T23:53:32Z</time></trkpt>
<trkpt lat="46.17731" lon="7.37593"><ele></ele><time>2025-9-4T23:53:35Z</time></trkpt>
<trkpt lat="46.17742" lon="7.37589"><ele></ele><time>2025-9-4T23:53:38Z</time></trkpt>
<trkpt lat="46.17751" lon="7.37585"><ele></ele><time>2025-9-4T23:53:41Z</time></trkpt>
<trkpt lat="46.17753" lon="7.37584"><ele></ele><time>2025-9-4T23:53:44Z</time></trkpt>
<trkpt lat="46.17762" lon="7.37579"><ele></ele><time>2025-9-4T23:53:47Z</time></trkpt>
<trkpt lat="46.17765" lon="7.37577"><ele></ele><time>2025-9-4T23:53:50Z</time></trkpt>
<trkpt lat="46.17772" lon="7.37572"><ele></ele><time>2025-9-4T23:53:53Z</time></trkpt>
<trkpt lat="46.17778" lon="7.37568"><ele></ele><time>2025-9-4T23:53:56Z</time></trkpt>
<trkpt lat="46.17783" lon="7.37565"><ele></ele><time>2025-9-4T23:53:59Z</time></trkpt>
<trkpt lat="46.17787" lon="7.37562"><ele></ele><time>2025-9-4T23:54:2Z</time></trkpt>
<trkpt lat="46.17794" lon="7.37557"><ele></ele><time>2025-9-4T23:54:5Z</time></trkpt>
<trkpt lat="46.17795" lon="7.37555"><ele></ele><time>2025-9-4T23:54:8Z</time></trkpt>
<trkpt lat="46.17804" lon="7.37548"><ele></ele><time>2025-9-4T23:54:11Z</time></trkpt>
<trkpt lat="46.17815" lon="7.3754"><ele></ele><time>2025-9-4T23:54:14Z</time></trkpt>
<trkpt lat="46.17822" lon="7.37537"><ele></ele><time>2025-9-4T23:54:17Z</time></trkpt>
<trkpt lat="46.17824" lon="7.37538"><ele></ele><time>2025-9-4T23:54:20Z</time></trkpt>
<trkpt lat="46.17827" lon="7.37538"><ele></ele><time>2025-9-4T23:54:23Z</time></trkpt>
<trkpt lat="46.17832" lon="7.37537"><ele></ele><time>2025-9-4T23:54:26Z</time></trkpt>
<trkpt lat="46.1784" lon="7.37537"><ele></ele><time>2025-9-4T23:54:29Z</time></trkpt>
<trkpt lat="46.17841" lon="7.37536"><ele></ele><time>2025-9-4T23:54:32Z</time></trkpt>
<trkpt lat="46.17848" lon="7.37534"><ele></ele><time>2025-9-4T23:54:35Z</time></trkpt>
<trkpt lat="46.17851" lon="7.37534"><ele></ele><time>2025-9-4T23:54:38Z</time></trkpt>
<trkpt lat="46.1786" lon="7.37534"><ele></ele><time>2025-9-4T23:54:41Z</time></trkpt>
<trkpt lat="46.17868" lon="7.37533"><ele></ele><time>2025-9-4T23:54:44Z</time></trkpt>
<trkpt lat="46.17869" lon="7.37532"><ele></ele><time>2025-9-4T23:54:47Z</time></trkpt>
<trkpt lat="46.17878" lon="7.37527"><ele></ele><time>2025-9-4T23:54:50Z</time></trkpt>
<trkpt lat="46.17879" lon="7.37524"><ele></ele><time>2025-9-4T23:54:53Z</time></trkpt>
<trkpt lat="46.17878" lon="7.37519"><ele></ele><time>2025-9-4T23:54:56Z</time></trkpt>
<trkpt lat="46.17875" lon="7.37517"><ele></ele><time>2025-9-4T23:54:59Z</time></trkpt>
<trkpt lat="46.1787" lon="7.37513"><ele></ele><time>2025-9-4T23:55:2Z</time></trkpt>
<trkpt lat="46.17866" lon="7.37511"><ele></ele><time>2025-9-4T23:55:5Z</time></trkpt>
<trkpt lat="46.17863" lon="7.37509"><ele></ele><time>2025-9-4T23:55:8Z</time></trkpt>
<trkpt lat="46.17856" lon="7.37505"><ele></ele><time>2025-9-4T23:55:11Z</time></trkpt>
<trkpt lat="46.17854" lon="7.37504"><ele></ele><time>2025-9-4T23:55:14Z</time></trkpt>
<trkpt lat="46.17847" lon="7.37499"><ele></ele><time>2025-9-4T23:55:17Z</time></trkpt>
<trkpt lat="46.17843" lon="7.37498"><ele></ele><time>2025-9-4T23:55:20Z</time></trkpt>
<trkpt lat="46.17837" lon="7.37495"><ele></ele><time>2025-9-4T23:55:23Z</time></trkpt>
<trkpt lat="46.17831" lon="7.37493"><ele></ele><time>2025-9-4T23:55:26Z</time></trkpt>
<trkpt lat="46.17826" lon="7.37491"><ele></ele><time>2025-9-4T23:55:29Z</time></trkpt>
<trkpt lat="46.1782" lon="7.37488"><ele></ele><time>2025-9-4T23:55:32Z</time></trkpt>
<trkpt lat="46.17817" lon="7.37487"><ele></ele><time>2025-9-4T23:55:35Z</time></trkpt>
<trkpt lat="46.17807" lon="7.37484"><ele></ele><time>2025-9-4T23:55:38Z</time></trkpt>
<trkpt lat="46.17806" lon="7.37484"><ele></ele><time>2025-9-4T23:55:41Z</time></trkpt>
<trkpt lat="46.17795" lon="7.37481"><ele></ele><time>2025-9-4T23:55:44Z</time></trkpt>
<trkpt lat="46.1779" lon="7.37481"><ele></ele><time>2025-9-4T23:55:47Z</time></trkpt>
<trkpt lat="46.17782" lon="7.37479"><ele></ele><time>2025-9-4T23:55:50Z</time></trkpt>
<trkpt lat="46.17772" lon="7.37479"><ele></ele><time>2025-9-4T23:55:53Z</time></trkpt>
<trkpt lat="46.17763" lon="7.37479"><ele></ele><time>2025-9-4T23:55:56Z</time></trkpt>
<trkpt lat="46.17755" lon="7.37479"><ele></ele><time>2025-9-4T23:55:59Z</time></trkpt>
<trkpt lat="46.17744" lon="7.3748"><ele></ele><time>2025-9-4T23:56:2Z</time></trkpt>
<trkpt lat="46.17737" lon="7.37475"><ele></ele><time>2025-9-4T23:56:5Z</time></trkpt>
<trkpt lat="46.17736" lon="7.37472"><ele></ele><time>2025-9-4T23:56:8Z</time></trkpt>
<trkpt lat="46.17738" lon="7.37462"><ele></ele><time>2025-9-4T23:56:11Z</time></trkpt>
<trkpt lat="46.17739" lon="7.3746"><ele></ele><time>2025-9-4T23:56:14Z</time></trkpt>
<trkpt lat="46.17749" lon="7.37456"><ele></ele><time>2025-9-4T23:56:17Z</time></trkpt>
<trkpt lat="46.17754" lon="7.37454"><ele></ele><time>2025-9-4T23:56:20Z</time></trkpt>
<trkpt lat="46.17762" lon="7.37449"><ele></ele><time>2025-9-4T23:56:23Z</time></trkpt>
<trkpt lat="46.17764" lon="7.37448"><ele></ele><time>2025-9-4T23:56:26Z</time></trkpt>
<trkpt lat="46.17773" lon="7.3744"><ele></ele><time>2025-9-4T23:56:29Z</time></trkpt>
<trkpt lat="46.17774" lon="7.37439"><ele></ele><time>2025-9-4T23:56:32Z</time></trkpt>
<trkpt lat="46.17787" lon="7.3743"><ele></ele><time>2025-9-4T23:56:35Z</time></trkpt>
<trkpt lat="46.17789" lon="7.37429"><ele></ele><time>2025-9-4T23:56:38Z</time></trkpt>
<trkpt lat="46.17798" lon="7.37424"><ele></ele><time>2025-9-4T23:56:41Z</time></trkpt>
<trkpt lat="46.17804" lon="7.37422"><ele></ele><time>2025-9-4T23:56:44Z</time></trkpt>
<trkpt lat="46.1781" lon="7.3742"><ele></ele><time>2025-9-4T23:56:47Z</time></trkpt>
<trkpt lat="46.17818" lon="7.37416"><ele></ele><time>2025-9-4T23:56:50Z</time></trkpt>
<trkpt lat="46.17823" lon="7.37415"><ele></ele><time>2025-9-4T23:56:53Z</time></trkpt>
<trkpt lat="46.17825" lon="7.37414"><ele></ele><time>2025-9-4T23:56:56Z</time></trkpt>
<trkpt lat="46.17833" lon="7.37412"><ele></ele><time>2025-9-4T23:56:59Z</time></trkpt>
<trkpt lat="46.17834" lon="7.37412"><ele></ele><time>2025-9-4T23:57:2Z</time></trkpt>
<trkpt lat="46.17841" lon="7.37409"><ele></ele><time>2025-9-4T23:57:5Z</time></trkpt>
<trkpt lat="46.17845" lon="7.37407"><ele></ele><time>2025-9-4T23:57:8Z</time></trkpt>
<trkpt lat="46.1785" lon="7.37406"><ele></ele><time>2025-9-4T23:57:11Z</time></trkpt>
<trkpt lat="46.17854" lon="7.37404"><ele></ele><time>2025-9-4T23:57:14Z</time></trkpt>
<trkpt lat="46.17859" lon="7.37402"><ele></ele><time>2025-9-4T23:57:17Z</time></trkpt>
<trkpt lat="46.17861" lon="7.37401"><ele></ele><time>2025-9-4T23:57:20Z</time></trkpt>
<trkpt lat="46.17866" lon="7.37396"><ele></ele><time>2025-9-4T23:57:23Z</time></trkpt>
<trkpt lat="46.17867" lon="7.37394"><ele></ele><time>2025-9-4T23:57:26Z</time></trkpt>
<trkpt lat="46.17871" lon="7.3739"><ele></ele><time>2025-9-4T23:57:29Z</time></trkpt>
<trkpt lat="46.17874" lon="7.37388"><ele></ele><time>2025-9-4T23:57:32Z</time></trkpt>
<trkpt lat="46.17876" lon="7.37386"><ele></ele><time>2025-9-4T23:57:35Z</time></trkpt>
<trkpt lat="46.17881" lon="7.37381"><ele></ele><time>2025-9-4T23:57:38Z</time></trkpt>
<trkpt lat="46.17882" lon="7.37381"><ele></ele><time>2025-9-4T23:57:41Z</time></trkpt>
<trkpt lat="46.17888" lon="7.37373"><ele></ele><time>2025-9-4T23:57:44Z</time></trkpt>
<trkpt lat="46.17895" lon="7.37367"><ele></ele><time>2025-9-4T23:57:47Z</time></trkpt>
<trkpt lat="46.17903" lon="7.37365"><ele></ele><time>2025-9-4T23:57:50Z</time></trkpt>
<trkpt lat="46.17911" lon="7.37364"><ele></ele><time>2025-9-4T23:57:53Z</time></trkpt>
<trkpt lat="46.17918" lon="7.37363"><ele></ele><time>2025-9-4T23:57:56Z</time></trkpt>
<trkpt lat="46.17921" lon="7.37363"><ele></ele><time>2025-9-4T23:57:59Z</time></trkpt>
<trkpt lat="46.17929" lon="7.37363"><ele></ele><time>2025-9-4T23:58:2Z</time></trkpt>
<trkpt lat="46.17936" lon="7.37363"><ele></ele><time>2025-9-4T23:58:5Z</time></trkpt>
<trkpt lat="46.17937" lon="7.37363"><ele></ele><time>2025-9-4T23:58:8Z</time></trkpt>
<trkpt lat="46.17944" lon="7.37362"><ele></ele><time>2025-9-4T23:58:11Z</time></trkpt>
<trkpt lat="46.17945" lon="7.3736"><ele></ele><time>2025-9-4T23:58:14Z</time></trkpt>
<trkpt lat="46.1795" lon="7.37358"><ele></ele><time>2025-9-4T23:58:17Z</time></trkpt>
<trkpt lat="46.17958" lon="7.37355"><ele></ele><time>2025-9-4T23:58:20Z</time></trkpt>
<trkpt lat="46.17964" lon="7.3735"><ele></ele><time>2025-9-4T23:58:23Z</time></trkpt>
<trkpt lat="46.17967" lon="7.37344"><ele></ele><time>2025-9-4T23:58:26Z</time></trkpt>
<trkpt lat="46.17974" lon="7.3733"><ele></ele><time>2025-9-4T23:58:29Z</time></trkpt>
<trkpt lat="46.17975" lon="7.37328"><ele></ele><time>2025-9-4T23:58:32Z</time></trkpt>
<trkpt lat="46.17979" lon="7.37317"><ele></ele><time>2025-9-4T23:58:35Z</time></trkpt>
<trkpt lat="46.1798" lon="7.37313"><ele></ele><time>2025-9-4T23:58:38Z</time></trkpt>
<trkpt lat="46.17982" lon="7.37307"><ele></ele><time>2025-9-4T23:58:41Z</time></trkpt>
<trkpt lat="46.17983" lon="7.37303"><ele></ele><time>2025-9-4T23:58:44Z</time></trkpt>
<trkpt lat="46.17986" lon="7.37294"><ele></ele><time>2025-9-4T23:58:47Z</time></trkpt>
<trkpt lat="46.17987" lon="7.37293"><ele></ele><time>2025-9-4T23:58:50Z</time></trkpt>
<trkpt lat="46.17993" lon="7.37281"><ele></ele><time>2025-9-4T23:58:53Z</time></trkpt>
<trkpt lat="46.17994" lon="7.3728"><ele></ele><time>2025-9-4T23:58:56Z</time></trkpt>
<trkpt lat="46.18001" lon="7.37271"><ele></ele><time>2025-9-4T23:58:59Z</time></trkpt>
<trkpt lat="46.18002" lon="7.37271"><ele></ele><time>2025-9-4T23:59:2Z</time></trkpt>
<trkpt lat="46.18009" lon="7.37265"><ele></ele><time>2025-9-4T23:59:5Z</time></trkpt>
<trkpt lat="46.18009" lon="7.37264"><ele></ele><time>2025-9-4T23:59:8Z</time></trkpt>
<trkpt lat="46.18015" lon="7.37262"><ele></ele><time>2025-9-4T23:59:11Z</time></trkpt>
<trkpt lat="46.18019" lon="7.37259"><ele></ele><time>2025-9-4T23:59:14Z</time></trkpt>
<trkpt lat="46.18022" lon="7.37259"><ele></ele><time>2025-9-4T23:59:17Z</time></trkpt>
<trkpt lat="46.18029" lon="7.37256"><ele></ele><time>2025-9-4T23:59:20Z</time></trkpt>
<trkpt lat="46.18039" lon="7.37255"><ele></ele><time>2025-9-4T23:59:23Z</time></trkpt>
<trkpt lat="46.18048" lon="7.37255"><ele></ele><time>2025-9-4T23:59:26Z</time></trkpt>
<trkpt lat="46.18049" lon="7.37254"><ele></ele><time>2025-9-4T23:59:29Z</time></trkpt>
<trkpt lat="46.18055" lon="7.37249"><ele></ele><time>2025-9-4T23:59:32Z</time></trkpt>
<trkpt lat="46.18058" lon="7.37239"><ele></ele><time>2025-9-4T23:59:35Z</time></trkpt>
<trkpt lat="46.18058" lon="7.37237"><ele></ele><time>2025-9-4T23:59:38Z</time></trkpt>
<trkpt lat="46.18052" lon="7.37229"><ele></ele><time>2025-9-4T23:59:41Z</time></trkpt>
<trkpt lat="46.18044" lon="7.37221"><ele></ele><time>2025-9-4T23:59:44Z</time></trkpt>
<trkpt lat="46.1804" lon="7.37216"><ele></ele><time>2025-9-4T23:59:47Z</time></trkpt>
<trkpt lat="46.18033" lon="7.3721"><ele></ele><time>2025-9-4T23:59:50Z</time></trkpt>
<trkpt lat="46.18029" lon="7.37206"><ele></ele><time>2025-9-4T23:59:53Z</time></trkpt>
<trkpt lat="46.18024" lon="7.37201"><ele></ele><time>2025-9-4T23:59:56Z</time></trkpt>
<trkpt lat="46.18019" lon="7.37197"><ele></ele><time>2025-9-4T23:59:59Z</time></trkpt>
<trkpt lat="46.18006" lon="7.37187"><ele></ele><time>2025-9-5T0:0:2Z</time></trkpt>
<trkpt lat="46.18004" lon="7.37186"><ele></ele><time>2025-9-5T0:0:5Z</time></trkpt>
<trkpt lat="46.17994" lon="7.37177"><ele></ele><time>2025-9-5T0:0:8Z</time></trkpt>
<trkpt lat="46.17993" lon="7.37175"><ele></ele><time>2025-9-5T0:0:11Z</time></trkpt>
<trkpt lat="46.17992" lon="7.37173"><ele></ele><time>2025-9-5T0:0:14Z</time></trkpt>
<trkpt lat="46.17983" lon="7.37159"><ele></ele><time>2025-9-5T0:0:17Z</time></trkpt>
<trkpt lat="46.17981" lon="7.37152"><ele></ele><time>2025-9-5T0:0:20Z</time></trkpt>
<trkpt lat="46.17982" lon="7.37137"><ele></ele><time>2025-9-5T0:0:23Z</time></trkpt>
<trkpt lat="46.17987" lon="7.37134"><ele></ele><time>2025-9-5T0:0:26Z</time></trkpt>
<trkpt lat="46.17987" lon="7.37134"><ele></ele><time>2025-9-5T0:0:29Z</time></trkpt>
<trkpt lat="46.17987" lon="7.37134"><ele></ele><time>2025-9-5T0:0:32Z</time></trkpt>
<trkpt lat="46.17986" lon="7.37132"><ele></ele><time>2025-9-5T0:0:35Z</time></trkpt>
<trkpt lat="46.17992" lon="7.37119"><ele></ele><time>2025-9-5T0:0:38Z</time></trkpt>
<trkpt lat="46.18003" lon="7.37097"><ele></ele><time>2025-9-5T0:0:41Z</time></trkpt>
<trkpt lat="46.1801" lon="7.37075"><ele></ele><time>2025-9-5T0:0:44Z</time></trkpt>
<trkpt lat="46.18013" lon="7.37067"><ele></ele><time>2025-9-5T0:0:47Z</time></trkpt>
<trkpt lat="46.18014" lon="7.37064"><ele></ele><time>2025-9-5T0:0:50Z</time></trkpt>
<trkpt lat="46.18017" lon="7.37061"><ele></ele><time>2025-9-5T0:0:53Z</time></trkpt>
<trkpt lat="46.18022" lon="7.3705"><ele></ele><time>2025-9-5T0:0:56Z</time></trkpt>
<trkpt lat="46.18022" lon="7.37048"><ele></ele><time>2025-9-5T0:0:59Z</time></trkpt>
<trkpt lat="46.18027" lon="7.37039"><ele></ele><time>2025-9-5T0:1:2Z</time></trkpt>
<trkpt lat="46.18027" lon="7.37037"><ele></ele><time>2025-9-5T0:1:5Z</time></trkpt>
<trkpt lat="46.1803" lon="7.37029"><ele></ele><time>2025-9-5T0:1:8Z</time></trkpt>
<trkpt lat="46.1803" lon="7.37028"><ele></ele><time>2025-9-5T0:1:11Z</time></trkpt>
<trkpt lat="46.1803" lon="7.37026"><ele></ele><time>2025-9-5T0:1:14Z</time></trkpt>
<trkpt lat="46.1803" lon="7.37019"><ele></ele><time>2025-9-5T0:1:17Z</time></trkpt>
<trkpt lat="46.18031" lon="7.37017"><ele></ele><time>2025-9-5T0:1:20Z</time></trkpt>
<trkpt lat="46.18031" lon="7.37017"><ele></ele><time>2025-9-5T0:1:23Z</time></trkpt>
<trkpt lat="46.1803" lon="7.37018"><ele></ele><time>2025-9-5T0:1:26Z</time></trkpt>
<trkpt lat="46.1803" lon="7.37018"><ele></ele><time>2025-9-5T0:1:29Z</time></trkpt>
<trkpt lat="46.1803" lon="7.37018"><ele></ele><time>2025-9-5T0:1:32Z</time></trkpt>
<trkpt lat="46.1803" lon="7.37018"><ele></ele><time>2025-9-5T0:1:35Z</time></trkpt>
<trkpt lat="46.1803" lon="7.37018"><ele></ele><time>2025-9-5T0:1:38Z</time></trkpt>
<trkpt lat="46.1803" lon="7.37018"><ele></ele><time>2025-9-5T0:1:41Z</time></trkpt>
<trkpt lat="46.1803" lon="7.37018"><ele></ele><time>2025-9-5T0:1:44Z</time></trkpt>
<trkpt lat="46.18031" lon="7.37016"><ele></ele><time>2025-9-5T0:1:47Z</time></trkpt>
<trkpt lat="46.18032" lon="7.37014"><ele></ele><time>2025-9-5T0:1:50Z</time></trkpt>
<trkpt lat="46.18037" lon="7.37007"><ele></ele><time>2025-9-5T0:1:53Z</time></trkpt>
<trkpt lat="46.18041" lon="7.37001"><ele></ele><time>2025-9-5T0:1:56Z</time></trkpt>
<trkpt lat="46.18045" lon="7.36995"><ele></ele><time>2025-9-5T0:1:59Z</time></trkpt>
<trkpt lat="46.18046" lon="7.36993"><ele></ele><time>2025-9-5T0:2:2Z</time></trkpt>
<trkpt lat="46.18049" lon="7.36992"><ele></ele><time>2025-9-5T0:2:5Z</time></trkpt>
<trkpt lat="46.18052" lon="7.36993"><ele></ele><time>2025-9-5T0:2:8Z</time></trkpt>
<trkpt lat="46.18061" lon="7.37007"><ele></ele><time>2025-9-5T0:2:11Z</time></trkpt>
<trkpt lat="46.18075" lon="7.37028"><ele></ele><time>2025-9-5T0:2:14Z</time></trkpt>
<trkpt lat="46.18088" lon="7.37031"><ele></ele><time>2025-9-5T0:2:17Z</time></trkpt>
<trkpt lat="46.18093" lon="7.37024"><ele></ele><time>2025-9-5T0:2:20Z</time></trkpt>
<trkpt lat="46.18094" lon="7.37022"><ele></ele><time>2025-9-5T0:2:23Z</time></trkpt>
<trkpt lat="46.18097" lon="7.3701"><ele></ele><time>2025-9-5T0:2:26Z</time></trkpt>
<trkpt lat="46.18103" lon="7.36991"><ele></ele><time>2025-9-5T0:2:29Z</time></trkpt>
<trkpt lat="46.18103" lon="7.36988"><ele></ele><time>2025-9-5T0:2:32Z</time></trkpt>
<trkpt lat="46.18104" lon="7.36975"><ele></ele><time>2025-9-5T0:2:35Z</time></trkpt>
<trkpt lat="46.18098" lon="7.36947"><ele></ele><time>2025-9-5T0:2:38Z</time></trkpt>
<trkpt lat="46.18092" lon="7.36913"><ele></ele><time>2025-9-5T0:2:41Z</time></trkpt>
<trkpt lat="46.18091" lon="7.36906"><ele></ele><time>2025-9-5T0:2:44Z</time></trkpt>
<trkpt lat="46.1809" lon="7.36898"><ele></ele><time>2025-9-5T0:2:47Z</time></trkpt>
<trkpt lat="46.18091" lon="7.36876"><ele></ele><time>2025-9-5T0:2:50Z</time></trkpt>
<trkpt lat="46.18091" lon="7.36845"><ele></ele><time>2025-9-5T0:2:53Z</time></trkpt>
<trkpt lat="46.18091" lon="7.36841"><ele></ele><time>2025-9-5T0:2:56Z</time></trkpt>
<trkpt lat="46.1809" lon="7.36832"><ele></ele><time>2025-9-5T0:2:59Z</time></trkpt>
<trkpt lat="46.1809" lon="7.36829"><ele></ele><time>2025-9-5T0:3:2Z</time></trkpt>
<trkpt lat="46.18089" lon="7.36821"><ele></ele><time>2025-9-5T0:3:5Z</time></trkpt>
<trkpt lat="46.18089" lon="7.36816"><ele></ele><time>2025-9-5T0:3:8Z</time></trkpt>
<trkpt lat="46.18089" lon="7.36811"><ele></ele><time>2025-9-5T0:3:11Z</time></trkpt>
<trkpt lat="46.18088" lon="7.368"><ele></ele><time>2025-9-5T0:3:14Z</time></trkpt>
<trkpt lat="46.18088" lon="7.36798"><ele></ele><time>2025-9-5T0:3:17Z</time></trkpt>
<trkpt lat="46.18086" lon="7.3678"><ele></ele><time>2025-9-5T0:3:20Z</time></trkpt>
<trkpt lat="46.18084" lon="7.36753"><ele></ele><time>2025-9-5T0:3:23Z</time></trkpt>
<trkpt lat="46.18089" lon="7.36729"><ele></ele><time>2025-9-5T0:3:26Z</time></trkpt>
<trkpt lat="46.18099" lon="7.36708"><ele></ele><time>2025-9-5T0:3:29Z</time></trkpt>
<trkpt lat="46.18101" lon="7.36702"><ele></ele><time>2025-9-5T0:3:32Z</time></trkpt>
<trkpt lat="46.18102" lon="7.36695"><ele></ele><time>2025-9-5T0:3:35Z</time></trkpt>
<trkpt lat="46.18102" lon="7.3668"><ele></ele><time>2025-9-5T0:3:38Z</time></trkpt>
<trkpt lat="46.18101" lon="7.36673"><ele></ele><time>2025-9-5T0:3:41Z</time></trkpt>
<trkpt lat="46.18099" lon="7.36659"><ele></ele><time>2025-9-5T0:3:44Z</time></trkpt>
<trkpt lat="46.18096" lon="7.36648"><ele></ele><time>2025-9-5T0:3:47Z</time></trkpt>
<trkpt lat="46.18095" lon="7.36643"><ele></ele><time>2025-9-5T0:3:50Z</time></trkpt>
<trkpt lat="46.18091" lon="7.36631"><ele></ele><time>2025-9-5T0:3:53Z</time></trkpt>
<trkpt lat="46.1809" lon="7.36628"><ele></ele><time>2025-9-5T0:3:56Z</time></trkpt>
<trkpt lat="46.18089" lon="7.36626"><ele></ele><time>2025-9-5T0:3:59Z</time></trkpt>
<trkpt lat="46.18089" lon="7.36627"><ele></ele><time>2025-9-5T0:4:2Z</time></trkpt>
<trkpt lat="46.18089" lon="7.36628"><ele></ele><time>2025-9-5T0:4:5Z</time></trkpt>
<trkpt lat="46.18089" lon="7.36628"><ele></ele><time>2025-9-5T0:4:8Z</time></trkpt>
<trkpt lat="46.18089" lon="7.36628"><ele></ele><time>2025-9-5T0:4:11Z</time></trkpt>
<trkpt lat="46.18089" lon="7.36628"><ele></ele><time>2025-9-5T0:4:14Z</time></trkpt>
<trkpt lat="46.18089" lon="7.36628"><ele></ele><time>2025-9-5T0:4:17Z</time></trkpt>
<trkpt lat="46.18089" lon="7.36628"><ele></ele><time>2025-9-5T0:4:20Z</time></trkpt>
<trkpt lat="46.18088" lon="7.36627"><ele></ele><time>2025-9-5T0:4:23Z</time></trkpt>
<trkpt lat="46.1809" lon="7.3662"><ele></ele><time>2025-9-5T0:4:26Z</time></trkpt>
<trkpt lat="46.18097" lon="7.36618"><ele></ele><time>2025-9-5T0:4:29Z</time></trkpt>
<trkpt lat="46.18101" lon="7.36618"><ele></ele><time>2025-9-5T0:4:32Z</time></trkpt>
<trkpt lat="46.1811" lon="7.36619"><ele></ele><time>2025-9-5T0:4:35Z</time></trkpt>
<trkpt lat="46.18115" lon="7.36618"><ele></ele><time>2025-9-5T0:4:38Z</time></trkpt>
<trkpt lat="46.1812" lon="7.36617"><ele></ele><time>2025-9-5T0:4:41Z</time></trkpt>
<trkpt lat="46.18125" lon="7.36616"><ele></ele><time>2025-9-5T0:4:44Z</time></trkpt>
<trkpt lat="46.18131" lon="7.36615"><ele></ele><time>2025-9-5T0:4:47Z</time></trkpt>
<trkpt lat="46.18134" lon="7.36612"><ele></ele><time>2025-9-5T0:4:50Z</time></trkpt>
<trkpt lat="46.18137" lon="7.36608"><ele></ele><time>2025-9-5T0:4:53Z</time></trkpt>
<trkpt lat="46.18139" lon="7.36602"><ele></ele><time>2025-9-5T0:4:56Z</time></trkpt>
<trkpt lat="46.1814" lon="7.3659"><ele></ele><time>2025-9-5T0:4:59Z</time></trkpt>
<trkpt lat="46.18138" lon="7.36577"><ele></ele><time>2025-9-5T0:5:2Z</time></trkpt>
<trkpt lat="46.1813" lon="7.36555"><ele></ele><time>2025-9-5T0:5:5Z</time></trkpt>
<trkpt lat="46.18128" lon="7.36547"><ele></ele><time>2025-9-5T0:5:8Z</time></trkpt>
<trkpt lat="46.18117" lon="7.36517"><ele></ele><time>2025-9-5T0:5:11Z</time></trkpt>
<trkpt lat="46.18113" lon="7.365"><ele></ele><time>2025-9-5T0:5:14Z</time></trkpt>
<trkpt lat="46.18111" lon="7.36491"><ele></ele><time>2025-9-5T0:5:17Z</time></trkpt>
<trkpt lat="46.18109" lon="7.36482"><ele></ele><time>2025-9-5T0:5:20Z</time></trkpt>
<trkpt lat="46.18107" lon="7.36474"><ele></ele><time>2025-9-5T0:5:23Z</time></trkpt>
<trkpt lat="46.18103" lon="7.3646"><ele></ele><time>2025-9-5T0:5:26Z</time></trkpt>
<trkpt lat="46.181" lon="7.36454"><ele></ele><time>2025-9-5T0:5:29Z</time></trkpt>
<trkpt lat="46.18093" lon="7.36436"><ele></ele><time>2025-9-5T0:5:32Z</time></trkpt>
<trkpt lat="46.18092" lon="7.3643"><ele></ele><time>2025-9-5T0:5:35Z</time></trkpt>
<trkpt lat="46.18093" lon="7.36424"><ele></ele><time>2025-9-5T0:5:38Z</time></trkpt>
<trkpt lat="46.18099" lon="7.36416"><ele></ele><time>2025-9-5T0:5:41Z</time></trkpt>
<trkpt lat="46.18103" lon="7.36414"><ele></ele><time>2025-9-5T0:5:44Z</time></trkpt>
<trkpt lat="46.18114" lon="7.3641"><ele></ele><time>2025-9-5T0:5:47Z</time></trkpt>
<trkpt lat="46.18119" lon="7.36408"><ele></ele><time>2025-9-5T0:5:50Z</time></trkpt>
<trkpt lat="46.18131" lon="7.36403"><ele></ele><time>2025-9-5T0:5:53Z</time></trkpt>
<trkpt lat="46.18137" lon="7.36402"><ele></ele><time>2025-9-5T0:5:56Z</time></trkpt>
<trkpt lat="46.18142" lon="7.36401"><ele></ele><time>2025-9-5T0:5:59Z</time></trkpt>
<trkpt lat="46.18147" lon="7.36402"><ele></ele><time>2025-9-5T0:6:2Z</time></trkpt>
<trkpt lat="46.18153" lon="7.36403"><ele></ele><time>2025-9-5T0:6:5Z</time></trkpt>
<trkpt lat="46.18169" lon="7.36406"><ele></ele><time>2025-9-5T0:6:8Z</time></trkpt>
<trkpt lat="46.18174" lon="7.36408"><ele></ele><time>2025-9-5T0:6:11Z</time></trkpt>
<trkpt lat="46.18183" lon="7.36415"><ele></ele><time>2025-9-5T0:6:14Z</time></trkpt>
<trkpt lat="46.18191" lon="7.36423"><ele></ele><time>2025-9-5T0:6:17Z</time></trkpt>
<trkpt lat="46.18194" lon="7.3643"><ele></ele><time>2025-9-5T0:6:20Z</time></trkpt>
<trkpt lat="46.18197" lon="7.36436"><ele></ele><time>2025-9-5T0:6:23Z</time></trkpt>
<trkpt lat="46.18202" lon="7.36443"><ele></ele><time>2025-9-5T0:6:26Z</time></trkpt>
<trkpt lat="46.18213" lon="7.36451"><ele></ele><time>2025-9-5T0:6:29Z</time></trkpt>
<trkpt lat="46.18222" lon="7.36445"><ele></ele><time>2025-9-5T0:6:32Z</time></trkpt>
<trkpt lat="46.18224" lon="7.36439"><ele></ele><time>2025-9-5T0:6:35Z</time></trkpt>
<trkpt lat="46.18223" lon="7.36432"><ele></ele><time>2025-9-5T0:6:38Z</time></trkpt>
<trkpt lat="46.1822" lon="7.36427"><ele></ele><time>2025-9-5T0:6:41Z</time></trkpt>
<trkpt lat="46.18215" lon="7.36422"><ele></ele><time>2025-9-5T0:6:44Z</time></trkpt>
<trkpt lat="46.18209" lon="7.36407"><ele></ele><time>2025-9-5T0:6:47Z</time></trkpt>
<trkpt lat="46.18208" lon="7.36398"><ele></ele><time>2025-9-5T0:6:50Z</time></trkpt>
<trkpt lat="46.18208" lon="7.36388"><ele></ele><time>2025-9-5T0:6:53Z</time></trkpt>
<trkpt lat="46.18211" lon="7.36358"><ele></ele><time>2025-9-5T0:6:56Z</time></trkpt>
<trkpt lat="46.18213" lon="7.3634"><ele></ele><time>2025-9-5T0:6:59Z</time></trkpt>
<trkpt lat="46.18211" lon="7.36331"><ele></ele><time>2025-9-5T0:7:2Z</time></trkpt>
<trkpt lat="46.18209" lon="7.36323"><ele></ele><time>2025-9-5T0:7:5Z</time></trkpt>
<trkpt lat="46.18202" lon="7.36307"><ele></ele><time>2025-9-5T0:7:8Z</time></trkpt>
<trkpt lat="46.18197" lon="7.363"><ele></ele><time>2025-9-5T0:7:11Z</time></trkpt>
<trkpt lat="46.18192" lon="7.36293"><ele></ele><time>2025-9-5T0:7:14Z</time></trkpt>
<trkpt lat="46.18186" lon="7.36288"><ele></ele><time>2025-9-5T0:7:17Z</time></trkpt>
<trkpt lat="46.18181" lon="7.36283"><ele></ele><time>2025-9-5T0:7:20Z</time></trkpt>
<trkpt lat="46.18172" lon="7.36275"><ele></ele><time>2025-9-5T0:7:23Z</time></trkpt>
<trkpt lat="46.18166" lon="7.36273"><ele></ele><time>2025-9-5T0:7:26Z</time></trkpt>
<trkpt lat="46.18146" lon="7.36264"><ele></ele><time>2025-9-5T0:7:29Z</time></trkpt>
<trkpt lat="46.1813" lon="7.36255"><ele></ele><time>2025-9-5T0:7:32Z</time></trkpt>
<trkpt lat="46.18118" lon="7.36248"><ele></ele><time>2025-9-5T0:7:35Z</time></trkpt>
<trkpt lat="46.18106" lon="7.36241"><ele></ele><time>2025-9-5T0:7:38Z</time></trkpt>
<trkpt lat="46.181" lon="7.36236"><ele></ele><time>2025-9-5T0:7:41Z</time></trkpt>
<trkpt lat="46.18095" lon="7.36231"><ele></ele><time>2025-9-5T0:7:44Z</time></trkpt>
<trkpt lat="46.18089" lon="7.36226"><ele></ele><time>2025-9-5T0:7:47Z</time></trkpt>
<trkpt lat="46.18082" lon="7.3622"><ele></ele><time>2025-9-5T0:7:50Z</time></trkpt>
<trkpt lat="46.1807" lon="7.36209"><ele></ele><time>2025-9-5T0:7:53Z</time></trkpt>
<trkpt lat="46.18065" lon="7.36204"><ele></ele><time>2025-9-5T0:7:56Z</time></trkpt>
<trkpt lat="46.1806" lon="7.362"><ele></ele><time>2025-9-5T0:7:59Z</time></trkpt>
<trkpt lat="46.18049" lon="7.36195"><ele></ele><time>2025-9-5T0:8:2Z</time></trkpt>
<trkpt lat="46.18043" lon="7.36194"><ele></ele><time>2025-9-5T0:8:5Z</time></trkpt>
<trkpt lat="46.18036" lon="7.36193"><ele></ele><time>2025-9-5T0:8:8Z</time></trkpt>
<trkpt lat="46.18029" lon="7.36194"><ele></ele><time>2025-9-5T0:8:11Z</time></trkpt>
<trkpt lat="46.18022" lon="7.36195"><ele></ele><time>2025-9-5T0:8:14Z</time></trkpt>
<trkpt lat="46.18014" lon="7.36197"><ele></ele><time>2025-9-5T0:8:17Z</time></trkpt>
<trkpt lat="46.18005" lon="7.36198"><ele></ele><time>2025-9-5T0:8:20Z</time></trkpt>
<trkpt lat="46.17997" lon="7.362"><ele></ele><time>2025-9-5T0:8:23Z</time></trkpt>
<trkpt lat="46.17989" lon="7.36201"><ele></ele><time>2025-9-5T0:8:26Z</time></trkpt>
<trkpt lat="46.17972" lon="7.36202"><ele></ele><time>2025-9-5T0:8:29Z</time></trkpt>
<trkpt lat="46.17963" lon="7.36201"><ele></ele><time>2025-9-5T0:8:32Z</time></trkpt>
<trkpt lat="46.17954" lon="7.36199"><ele></ele><time>2025-9-5T0:8:35Z</time></trkpt>
<trkpt lat="46.17945" lon="7.36197"><ele></ele><time>2025-9-5T0:8:38Z</time></trkpt>
<trkpt lat="46.17936" lon="7.36194"><ele></ele><time>2025-9-5T0:8:41Z</time></trkpt>
<trkpt lat="46.17917" lon="7.36189"><ele></ele><time>2025-9-5T0:8:44Z</time></trkpt>
<trkpt lat="46.1789" lon="7.36178"><ele></ele><time>2025-9-5T0:8:47Z</time></trkpt>
<trkpt lat="46.17881" lon="7.36173"><ele></ele><time>2025-9-5T0:8:50Z</time></trkpt>
<trkpt lat="46.17873" lon="7.3617"><ele></ele><time>2025-9-5T0:8:53Z</time></trkpt>
<trkpt lat="46.17866" lon="7.36167"><ele></ele><time>2025-9-5T0:8:56Z</time></trkpt>
<trkpt lat="46.17858" lon="7.36166"><ele></ele><time>2025-9-5T0:8:59Z</time></trkpt>
<trkpt lat="46.17844" lon="7.36164"><ele></ele><time>2025-9-5T0:9:2Z</time></trkpt>
<trkpt lat="46.17837" lon="7.36165"><ele></ele><time>2025-9-5T0:9:5Z</time></trkpt>
<trkpt lat="46.17829" lon="7.36166"><ele></ele><time>2025-9-5T0:9:8Z</time></trkpt>
<trkpt lat="46.17821" lon="7.36171"><ele></ele><time>2025-9-5T0:9:11Z</time></trkpt>
<trkpt lat="46.17813" lon="7.36175"><ele></ele><time>2025-9-5T0:9:14Z</time></trkpt>
<trkpt lat="46.17804" lon="7.36179"><ele></ele><time>2025-9-5T0:9:17Z</time></trkpt>
<trkpt lat="46.17781" lon="7.36187"><ele></ele><time>2025-9-5T0:9:20Z</time></trkpt>
<trkpt lat="46.17769" lon="7.3619"><ele></ele><time>2025-9-5T0:9:23Z</time></trkpt>
<trkpt lat="46.17762" lon="7.36194"><ele></ele><time>2025-9-5T0:9:26Z</time></trkpt>
<trkpt lat="46.17755" lon="7.36203"><ele></ele><time>2025-9-5T0:9:29Z</time></trkpt>
<trkpt lat="46.17752" lon="7.36204"><ele></ele><time>2025-9-5T0:9:32Z</time></trkpt>
<trkpt lat="46.17736" lon="7.36212"><ele></ele><time>2025-9-5T0:9:35Z</time></trkpt>
<trkpt lat="46.17724" lon="7.36214"><ele></ele><time>2025-9-5T0:9:38Z</time></trkpt>
<trkpt lat="46.1772" lon="7.36213"><ele></ele><time>2025-9-5T0:9:41Z</time></trkpt>
<trkpt lat="46.17714" lon="7.36214"><ele></ele><time>2025-9-5T0:9:44Z</time></trkpt>
<trkpt lat="46.1771" lon="7.36214"><ele></ele><time>2025-9-5T0:9:47Z</time></trkpt>
<trkpt lat="46.17705" lon="7.36215"><ele></ele><time>2025-9-5T0:9:50Z</time></trkpt>
<trkpt lat="46.17701" lon="7.36218"><ele></ele><time>2025-9-5T0:9:53Z</time></trkpt>
<trkpt lat="46.17698" lon="7.36217"><ele></ele><time>2025-9-5T0:9:56Z</time></trkpt>
<trkpt lat="46.17695" lon="7.36219"><ele></ele><time>2025-9-5T0:9:59Z</time></trkpt>
<trkpt lat="46.17691" lon="7.36219"><ele></ele><time>2025-9-5T0:10:2Z</time></trkpt>
<trkpt lat="46.17681" lon="7.36221"><ele></ele><time>2025-9-5T0:10:5Z</time></trkpt>
<trkpt lat="46.17675" lon="7.36221"><ele></ele><time>2025-9-5T0:10:8Z</time></trkpt>
<trkpt lat="46.17673" lon="7.36222"><ele></ele><time>2025-9-5T0:10:11Z</time></trkpt>
<trkpt lat="46.17671" lon="7.36222"><ele></ele><time>2025-9-5T0:10:14Z</time></trkpt>
<trkpt lat="46.17665" lon="7.3622"><ele></ele><time>2025-9-5T0:10:17Z</time></trkpt>
<trkpt lat="46.17659" lon="7.36219"><ele></ele><time>2025-9-5T0:10:20Z</time></trkpt>
<trkpt lat="46.17656" lon="7.36218"><ele></ele><time>2025-9-5T0:10:23Z</time></trkpt>
<trkpt lat="46.1765" lon="7.36216"><ele></ele><time>2025-9-5T0:10:26Z</time></trkpt>
<trkpt lat="46.17649" lon="7.36215"><ele></ele><time>2025-9-5T0:10:29Z</time></trkpt>
<trkpt lat="46.17637" lon="7.36213"><ele></ele><time>2025-9-5T0:10:32Z</time></trkpt>
<trkpt lat="46.17635" lon="7.36213"><ele></ele><time>2025-9-5T0:10:35Z</time></trkpt>
<trkpt lat="46.1763" lon="7.36211"><ele></ele><time>2025-9-5T0:10:38Z</time></trkpt>
<trkpt lat="46.17628" lon="7.36213"><ele></ele><time>2025-9-5T0:10:41Z</time></trkpt>
<trkpt lat="46.17625" lon="7.36213"><ele></ele><time>2025-9-5T0:10:44Z</time></trkpt>
<trkpt lat="46.17623" lon="7.36214"><ele></ele><time>2025-9-5T0:10:47Z</time></trkpt>
<trkpt lat="46.17618" lon="7.36214"><ele></ele><time>2025-9-5T0:10:50Z</time></trkpt>
<trkpt lat="46.17616" lon="7.36214"><ele></ele><time>2025-9-5T0:10:53Z</time></trkpt>
<trkpt lat="46.1761" lon="7.36214"><ele></ele><time>2025-9-5T0:10:56Z</time></trkpt>
<trkpt lat="46.17603" lon="7.36213"><ele></ele><time>2025-9-5T0:10:59Z</time></trkpt>
<trkpt lat="46.17595" lon="7.36208"><ele></ele><time>2025-9-5T0:11:2Z</time></trkpt>
<trkpt lat="46.17594" lon="7.36207"><ele></ele><time>2025-9-5T0:11:5Z</time></trkpt>
<trkpt lat="46.17587" lon="7.36203"><ele></ele><time>2025-9-5T0:11:8Z</time></trkpt>
<trkpt lat="46.17579" lon="7.36199"><ele></ele><time>2025-9-5T0:11:11Z</time></trkpt>
<trkpt lat="46.17575" lon="7.36196"><ele></ele><time>2025-9-5T0:11:14Z</time></trkpt>
<trkpt lat="46.17567" lon="7.36192"><ele></ele><time>2025-9-5T0:11:17Z</time></trkpt>
<trkpt lat="46.17565" lon="7.36192"><ele></ele><time>2025-9-5T0:11:20Z</time></trkpt>
<trkpt lat="46.17557" lon="7.36188"><ele></ele><time>2025-9-5T0:11:23Z</time></trkpt>
<trkpt lat="46.17553" lon="7.36186"><ele></ele><time>2025-9-5T0:11:26Z</time></trkpt>
<trkpt lat="46.17548" lon="7.36185"><ele></ele><time>2025-9-5T0:11:29Z</time></trkpt>
<trkpt lat="46.17544" lon="7.36183"><ele></ele><time>2025-9-5T0:11:32Z</time></trkpt>
<trkpt lat="46.17541" lon="7.36184"><ele></ele><time>2025-9-5T0:11:35Z</time></trkpt>
<trkpt lat="46.17539" lon="7.36183"><ele></ele><time>2025-9-5T0:11:38Z</time></trkpt>
<trkpt lat="46.17535" lon="7.36182"><ele></ele><time>2025-9-5T0:11:41Z</time></trkpt>
<trkpt lat="46.17532" lon="7.3618"><ele></ele><time>2025-9-5T0:11:44Z</time></trkpt>
<trkpt lat="46.17526" lon="7.36178"><ele></ele><time>2025-9-5T0:11:47Z</time></trkpt>
<trkpt lat="46.17523" lon="7.36178"><ele></ele><time>2025-9-5T0:11:50Z</time></trkpt>
<trkpt lat="46.17513" lon="7.36174"><ele></ele><time>2025-9-5T0:11:53Z</time></trkpt>
<trkpt lat="46.1751" lon="7.36173"><ele></ele><time>2025-9-5T0:11:56Z</time></trkpt>
<trkpt lat="46.17503" lon="7.36171"><ele></ele><time>2025-9-5T0:11:59Z</time></trkpt>
<trkpt lat="46.17495" lon="7.36167"><ele></ele><time>2025-9-5T0:12:2Z</time></trkpt>
<trkpt lat="46.17484" lon="7.36162"><ele></ele><time>2025-9-5T0:12:5Z</time></trkpt>
<trkpt lat="46.17479" lon="7.36161"><ele></ele><time>2025-9-5T0:12:8Z</time></trkpt>
<trkpt lat="46.17469" lon="7.36157"><ele></ele><time>2025-9-5T0:12:11Z</time></trkpt>
<trkpt lat="46.17464" lon="7.36158"><ele></ele><time>2025-9-5T0:12:14Z</time></trkpt>
<trkpt lat="46.17463" lon="7.36158"><ele></ele><time>2025-9-5T0:12:17Z</time></trkpt>
<trkpt lat="46.17456" lon="7.36161"><ele></ele><time>2025-9-5T0:12:20Z</time></trkpt>
<trkpt lat="46.17454" lon="7.36164"><ele></ele><time>2025-9-5T0:12:23Z</time></trkpt>
<trkpt lat="46.1745" lon="7.36167"><ele></ele><time>2025-9-5T0:12:26Z</time></trkpt>
<trkpt lat="46.17447" lon="7.36169"><ele></ele><time>2025-9-5T0:12:29Z</time></trkpt>
<trkpt lat="46.17443" lon="7.36171"><ele></ele><time>2025-9-5T0:12:32Z</time></trkpt>
<trkpt lat="46.17442" lon="7.36171"><ele></ele><time>2025-9-5T0:12:35Z</time></trkpt>
<trkpt lat="46.17438" lon="7.36173"><ele></ele><time>2025-9-5T0:12:38Z</time></trkpt>
<trkpt lat="46.17433" lon="7.36174"><ele></ele><time>2025-9-5T0:12:41Z</time></trkpt>
<trkpt lat="46.17429" lon="7.36175"><ele></ele><time>2025-9-5T0:12:44Z</time></trkpt>
<trkpt lat="46.17425" lon="7.36175"><ele></ele><time>2025-9-5T0:12:47Z</time></trkpt>
<trkpt lat="46.17418" lon="7.36175"><ele></ele><time>2025-9-5T0:12:50Z</time></trkpt>
<trkpt lat="46.17413" lon="7.36174"><ele></ele><time>2025-9-5T0:12:53Z</time></trkpt>
<trkpt lat="46.17411" lon="7.36174"><ele></ele><time>2025-9-5T0:12:56Z</time></trkpt>
<trkpt lat="46.17406" lon="7.36174"><ele></ele><time>2025-9-5T0:12:59Z</time></trkpt>
<trkpt lat="46.17405" lon="7.36175"><ele></ele><time>2025-9-5T0:13:2Z</time></trkpt>
<trkpt lat="46.17399" lon="7.36177"><ele></ele><time>2025-9-5T0:13:5Z</time></trkpt>
<trkpt lat="46.17398" lon="7.36178"><ele></ele><time>2025-9-5T0:13:8Z</time></trkpt>
<trkpt lat="46.1739" lon="7.36182"><ele></ele><time>2025-9-5T0:13:11Z</time></trkpt>
<trkpt lat="46.17384" lon="7.36186"><ele></ele><time>2025-9-5T0:13:14Z</time></trkpt>
<trkpt lat="46.17374" lon="7.36189"><ele></ele><time>2025-9-5T0:13:17Z</time></trkpt>
<trkpt lat="46.17371" lon="7.36189"><ele></ele><time>2025-9-5T0:13:20Z</time></trkpt>
<trkpt lat="46.1736" lon="7.36188"><ele></ele><time>2025-9-5T0:13:23Z</time></trkpt>
<trkpt lat="46.17355" lon="7.36189"><ele></ele><time>2025-9-5T0:13:26Z</time></trkpt>
<trkpt lat="46.17347" lon="7.3619"><ele></ele><time>2025-9-5T0:13:29Z</time></trkpt>
<trkpt lat="46.17341" lon="7.36192"><ele></ele><time>2025-9-5T0:13:32Z</time></trkpt>
<trkpt lat="46.17336" lon="7.36192"><ele></ele><time>2025-9-5T0:13:35Z</time></trkpt>
<trkpt lat="46.17329" lon="7.36191"><ele></ele><time>2025-9-5T0:13:38Z</time></trkpt>
<trkpt lat="46.17326" lon="7.36189"><ele></ele><time>2025-9-5T0:13:41Z</time></trkpt>
<trkpt lat="46.17322" lon="7.36187"><ele></ele><time>2025-9-5T0:13:44Z</time></trkpt>
<trkpt lat="46.17319" lon="7.36184"><ele></ele><time>2025-9-5T0:13:47Z</time></trkpt>
<trkpt lat="46.17312" lon="7.36174"><ele></ele><time>2025-9-5T0:13:50Z</time></trkpt>
<trkpt lat="46.1731" lon="7.36171"><ele></ele><time>2025-9-5T0:13:53Z</time></trkpt>
<trkpt lat="46.17305" lon="7.36165"><ele></ele><time>2025-9-5T0:13:56Z</time></trkpt>
<trkpt lat="46.17303" lon="7.36162"><ele></ele><time>2025-9-5T0:13:59Z</time></trkpt>
<trkpt lat="46.17294" lon="7.36148"><ele></ele><time>2025-9-5T0:14:2Z</time></trkpt>
<trkpt lat="46.17293" lon="7.36145"><ele></ele><time>2025-9-5T0:14:5Z</time></trkpt>
<trkpt lat="46.17288" lon="7.36142"><ele></ele><time>2025-9-5T0:14:8Z</time></trkpt>
<trkpt lat="46.1728" lon="7.36136"><ele></ele><time>2025-9-5T0:14:11Z</time></trkpt>
<trkpt lat="46.17279" lon="7.36135"><ele></ele><time>2025-9-5T0:14:14Z</time></trkpt>
<trkpt lat="46.17273" lon="7.36128"><ele></ele><time>2025-9-5T0:14:17Z</time></trkpt>
<trkpt lat="46.17272" lon="7.36127"><ele></ele><time>2025-9-5T0:14:20Z</time></trkpt>
<trkpt lat="46.17265" lon="7.36121"><ele></ele><time>2025-9-5T0:14:23Z</time></trkpt>
<trkpt lat="46.17261" lon="7.36116"><ele></ele><time>2025-9-5T0:14:26Z</time></trkpt>
<trkpt lat="46.17256" lon="7.36112"><ele></ele><time>2025-9-5T0:14:29Z</time></trkpt>
<trkpt lat="46.17246" lon="7.36108"><ele></ele><time>2025-9-5T0:14:32Z</time></trkpt>
<trkpt lat="46.17238" lon="7.36105"><ele></ele><time>2025-9-5T0:14:35Z</time></trkpt>
<trkpt lat="46.17236" lon="7.36105"><ele></ele><time>2025-9-5T0:14:38Z</time></trkpt>
<trkpt lat="46.17228" lon="7.36104"><ele></ele><time>2025-9-5T0:14:41Z</time></trkpt>
<trkpt lat="46.17219" lon="7.36105"><ele></ele><time>2025-9-5T0:14:44Z</time></trkpt>
<trkpt lat="46.17218" lon="7.36106"><ele></ele><time>2025-9-5T0:14:47Z</time></trkpt>
<trkpt lat="46.1721" lon="7.36107"><ele></ele><time>2025-9-5T0:14:50Z</time></trkpt>
<trkpt lat="46.17206" lon="7.36106"><ele></ele><time>2025-9-5T0:14:53Z</time></trkpt>
<trkpt lat="46.172" lon="7.36105"><ele></ele><time>2025-9-5T0:14:56Z</time></trkpt>
<trkpt lat="46.17196" lon="7.36104"><ele></ele><time>2025-9-5T0:14:59Z</time></trkpt>
<trkpt lat="46.17188" lon="7.36104"><ele></ele><time>2025-9-5T0:15:2Z</time></trkpt>
<trkpt lat="46.17184" lon="7.36103"><ele></ele><time>2025-9-5T0:15:5Z</time></trkpt>
<trkpt lat="46.1718" lon="7.36102"><ele></ele><time>2025-9-5T0:15:8Z</time></trkpt>
<trkpt lat="46.17173" lon="7.36103"><ele></ele><time>2025-9-5T0:15:11Z</time></trkpt>
<trkpt lat="46.17172" lon="7.36103"><ele></ele><time>2025-9-5T0:15:14Z</time></trkpt>
<trkpt lat="46.17165" lon="7.36102"><ele></ele><time>2025-9-5T0:15:17Z</time></trkpt>
<trkpt lat="46.17157" lon="7.36104"><ele></ele><time>2025-9-5T0:15:20Z</time></trkpt>
<trkpt lat="46.17155" lon="7.36104"><ele></ele><time>2025-9-5T0:15:23Z</time></trkpt>
<trkpt lat="46.17145" lon="7.36107"><ele></ele><time>2025-9-5T0:15:26Z</time></trkpt>
<trkpt lat="46.17137" lon="7.36112"><ele></ele><time>2025-9-5T0:15:29Z</time></trkpt>
<trkpt lat="46.1713" lon="7.36119"><ele></ele><time>2025-9-5T0:15:32Z</time></trkpt>
<trkpt lat="46.17128" lon="7.36121"><ele></ele><time>2025-9-5T0:15:35Z</time></trkpt>
<trkpt lat="46.17122" lon="7.36125"><ele></ele><time>2025-9-5T0:15:38Z</time></trkpt>
<trkpt lat="46.1712" lon="7.36126"><ele></ele><time>2025-9-5T0:15:41Z</time></trkpt>
<trkpt lat="46.17116" lon="7.3613"><ele></ele><time>2025-9-5T0:15:44Z</time></trkpt>
<trkpt lat="46.1711" lon="7.36133"><ele></ele><time>2025-9-5T0:15:47Z</time></trkpt>
<trkpt lat="46.17108" lon="7.36133"><ele></ele><time>2025-9-5T0:15:50Z</time></trkpt>
<trkpt lat="46.171" lon="7.36137"><ele></ele><time>2025-9-5T0:15:53Z</time></trkpt>
<trkpt lat="46.17099" lon="7.36137"><ele></ele><time>2025-9-5T0:15:56Z</time></trkpt>
<trkpt lat="46.17092" lon="7.3614"><ele></ele><time>2025-9-5T0:15:59Z</time></trkpt>
<trkpt lat="46.17086" lon="7.36141"><ele></ele><time>2025-9-5T0:16:2Z</time></trkpt>
<trkpt lat="46.17083" lon="7.36142"><ele></ele><time>2025-9-5T0:16:5Z</time></trkpt>
<trkpt lat="46.17074" lon="7.36143"><ele></ele><time>2025-9-5T0:16:8Z</time></trkpt>
<trkpt lat="46.17071" lon="7.36143"><ele></ele><time>2025-9-5T0:16:11Z</time></trkpt>
<trkpt lat="46.17062" lon="7.36141"><ele></ele><time>2025-9-5T0:16:14Z</time></trkpt>
<trkpt lat="46.17051" lon="7.3614"><ele></ele><time>2025-9-5T0:16:17Z</time></trkpt>
<trkpt lat="46.17046" lon="7.36138"><ele></ele><time>2025-9-5T0:16:20Z</time></trkpt>
<trkpt lat="46.17038" lon="7.36136"><ele></ele><time>2025-9-5T0:16:23Z</time></trkpt>
<trkpt lat="46.17034" lon="7.36135"><ele></ele><time>2025-9-5T0:16:26Z</time></trkpt>
<trkpt lat="46.17024" lon="7.36134"><ele></ele><time>2025-9-5T0:16:29Z</time></trkpt>
<trkpt lat="46.17019" lon="7.36133"><ele></ele><time>2025-9-5T0:16:32Z</time></trkpt>
<trkpt lat="46.17014" lon="7.36132"><ele></ele><time>2025-9-5T0:16:35Z</time></trkpt>
<trkpt lat="46.17007" lon="7.36131"><ele></ele><time>2025-9-5T0:16:38Z</time></trkpt>
<trkpt lat="46.17004" lon="7.36131"><ele></ele><time>2025-9-5T0:16:41Z</time></trkpt>
<trkpt lat="46.16994" lon="7.36129"><ele></ele><time>2025-9-5T0:16:44Z</time></trkpt>
<trkpt lat="46.16993" lon="7.36129"><ele></ele><time>2025-9-5T0:16:47Z</time></trkpt>
<trkpt lat="46.16986" lon="7.36128"><ele></ele><time>2025-9-5T0:16:50Z</time></trkpt>
<trkpt lat="46.1698" lon="7.36129"><ele></ele><time>2025-9-5T0:16:53Z</time></trkpt>
<trkpt lat="46.16978" lon="7.36129"><ele></ele><time>2025-9-5T0:16:56Z</time></trkpt>
<trkpt lat="46.16965" lon="7.36128"><ele></ele><time>2025-9-5T0:16:59Z</time></trkpt>
<trkpt lat="46.16962" lon="7.36127"><ele></ele><time>2025-9-5T0:17:2Z</time></trkpt>
<trkpt lat="46.16953" lon="7.36124"><ele></ele><time>2025-9-5T0:17:5Z</time></trkpt>
<trkpt lat="46.16949" lon="7.36122"><ele></ele><time>2025-9-5T0:17:8Z</time></trkpt>
<trkpt lat="46.16944" lon="7.36119"><ele></ele><time>2025-9-5T0:17:11Z</time></trkpt>
<trkpt lat="46.16936" lon="7.36113"><ele></ele><time>2025-9-5T0:17:14Z</time></trkpt>
<trkpt lat="46.16934" lon="7.36113"><ele></ele><time>2025-9-5T0:17:17Z</time></trkpt>
<trkpt lat="46.16929" lon="7.36108"><ele></ele><time>2025-9-5T0:17:20Z</time></trkpt>
<trkpt lat="46.16928" lon="7.36107"><ele></ele><time>2025-9-5T0:17:23Z</time></trkpt>
<trkpt lat="46.16921" lon="7.36102"><ele></ele><time>2025-9-5T0:17:26Z</time></trkpt>
<trkpt lat="46.1692" lon="7.36101"><ele></ele><time>2025-9-5T0:17:29Z</time></trkpt>
<trkpt lat="46.16918" lon="7.361"><ele></ele><time>2025-9-5T0:17:32Z</time></trkpt>
<trkpt lat="46.16914" lon="7.36097"><ele></ele><time>2025-9-5T0:17:35Z</time></trkpt>
<trkpt lat="46.16912" lon="7.36097"><ele></ele><time>2025-9-5T0:17:38Z</time></trkpt>
<trkpt lat="46.16907" lon="7.36091"><ele></ele><time>2025-9-5T0:17:41Z</time></trkpt>
<trkpt lat="46.16905" lon="7.36088"><ele></ele><time>2025-9-5T0:17:44Z</time></trkpt>
<trkpt lat="46.16899" lon="7.36081"><ele></ele><time>2025-9-5T0:17:47Z</time></trkpt>
<trkpt lat="46.16895" lon="7.36077"><ele></ele><time>2025-9-5T0:17:50Z</time></trkpt>
<trkpt lat="46.16892" lon="7.36075"><ele></ele><time>2025-9-5T0:17:53Z</time></trkpt>
<trkpt lat="46.16885" lon="7.36069"><ele></ele><time>2025-9-5T0:17:56Z</time></trkpt>
<trkpt lat="46.16883" lon="7.36068"><ele></ele><time>2025-9-5T0:17:59Z</time></trkpt>
<trkpt lat="46.16872" lon="7.36062"><ele></ele><time>2025-9-5T0:18:2Z</time></trkpt>
<trkpt lat="46.16871" lon="7.36061"><ele></ele><time>2025-9-5T0:18:5Z</time></trkpt>
<trkpt lat="46.16865" lon="7.36057"><ele></ele><time>2025-9-5T0:18:8Z</time></trkpt>
<trkpt lat="46.16861" lon="7.36054"><ele></ele><time>2025-9-5T0:18:11Z</time></trkpt>
<trkpt lat="46.16859" lon="7.36052"><ele></ele><time>2025-9-5T0:18:14Z</time></trkpt>
<trkpt lat="46.16852" lon="7.36046"><ele></ele><time>2025-9-5T0:18:17Z</time></trkpt>
<trkpt lat="46.16849" lon="7.36045"><ele></ele><time>2025-9-5T0:18:20Z</time></trkpt>
<trkpt lat="46.16842" lon="7.36042"><ele></ele><time>2025-9-5T0:18:23Z</time></trkpt>
<trkpt lat="46.16838" lon="7.36039"><ele></ele><time>2025-9-5T0:18:26Z</time></trkpt>
<trkpt lat="46.16834" lon="7.36036"><ele></ele><time>2025-9-5T0:18:29Z</time></trkpt>
<trkpt lat="46.16828" lon="7.3603"><ele></ele><time>2025-9-5T0:18:32Z</time></trkpt>
<trkpt lat="46.16825" lon="7.36027"><ele></ele><time>2025-9-5T0:18:35Z</time></trkpt>
<trkpt lat="46.16819" lon="7.36023"><ele></ele><time>2025-9-5T0:18:38Z</time></trkpt>
<trkpt lat="46.16816" lon="7.3602"><ele></ele><time>2025-9-5T0:18:41Z</time></trkpt>
<trkpt lat="46.16813" lon="7.36019"><ele></ele><time>2025-9-5T0:18:44Z</time></trkpt>
<trkpt lat="46.16808" lon="7.36015"><ele></ele><time>2025-9-5T0:18:47Z</time></trkpt>
<trkpt lat="46.16803" lon="7.36013"><ele></ele><time>2025-9-5T0:18:50Z</time></trkpt>
<trkpt lat="46.16796" lon="7.36007"><ele></ele><time>2025-9-5T0:18:53Z</time></trkpt>
<trkpt lat="46.16783" lon="7.36001"><ele></ele><time>2025-9-5T0:18:56Z</time></trkpt>
<trkpt lat="46.16779" lon="7.35999"><ele></ele><time>2025-9-5T0:18:59Z</time></trkpt>
<trkpt lat="46.16769" lon="7.35998"><ele></ele><time>2025-9-5T0:19:2Z</time></trkpt>
<trkpt lat="46.16763" lon="7.35999"><ele></ele><time>2025-9-5T0:19:5Z</time></trkpt>
<trkpt lat="46.1676" lon="7.35998"><ele></ele><time>2025-9-5T0:19:8Z</time></trkpt>
<trkpt lat="46.16755" lon="7.35998"><ele></ele><time>2025-9-5T0:19:11Z</time></trkpt>
<trkpt lat="46.1675" lon="7.35998"><ele></ele><time>2025-9-5T0:19:14Z</time></trkpt>
<trkpt lat="46.1674" lon="7.35995"><ele></ele><time>2025-9-5T0:19:17Z</time></trkpt>
<trkpt lat="46.16739" lon="7.35995"><ele></ele><time>2025-9-5T0:19:20Z</time></trkpt>
<trkpt lat="46.16726" lon="7.35996"><ele></ele><time>2025-9-5T0:19:23Z</time></trkpt>
<trkpt lat="46.16713" lon="7.36001"><ele></ele><time>2025-9-5T0:19:26Z</time></trkpt>
<trkpt lat="46.16712" lon="7.36002"><ele></ele><time>2025-9-5T0:19:29Z</time></trkpt>
<trkpt lat="46.16705" lon="7.36004"><ele></ele><time>2025-9-5T0:19:32Z</time></trkpt>
<trkpt lat="46.167" lon="7.36004"><ele></ele><time>2025-9-5T0:19:35Z</time></trkpt>
<trkpt lat="46.16694" lon="7.36005"><ele></ele><time>2025-9-5T0:19:38Z</time></trkpt>
<trkpt lat="46.16688" lon="7.36005"><ele></ele><time>2025-9-5T0:19:41Z</time></trkpt>
<trkpt lat="46.16683" lon="7.36005"><ele></ele><time>2025-9-5T0:19:44Z</time></trkpt>
<trkpt lat="46.16676" lon="7.36003"><ele></ele><time>2025-9-5T0:19:47Z</time></trkpt>
<trkpt lat="46.16671" lon="7.36002"><ele></ele><time>2025-9-5T0:19:50Z</time></trkpt>
<trkpt lat="46.16666" lon="7.36002"><ele></ele><time>2025-9-5T0:19:53Z</time></trkpt>
<trkpt lat="46.16663" lon="7.36001"><ele></ele><time>2025-9-5T0:19:56Z</time></trkpt>
<trkpt lat="46.16652" lon="7.35996"><ele></ele><time>2025-9-5T0:19:59Z</time></trkpt>
<trkpt lat="46.16651" lon="7.35995"><ele></ele><time>2025-9-5T0:20:2Z</time></trkpt>
<trkpt lat="46.16641" lon="7.35988"><ele></ele><time>2025-9-5T0:20:5Z</time></trkpt>
<trkpt lat="46.1664" lon="7.35987"><ele></ele><time>2025-9-5T0:20:8Z</time></trkpt>
<trkpt lat="46.16631" lon="7.35978"><ele></ele><time>2025-9-5T0:20:11Z</time></trkpt>
<trkpt lat="46.1663" lon="7.35977"><ele></ele><time>2025-9-5T0:20:14Z</time></trkpt>
<trkpt lat="46.16625" lon="7.35973"><ele></ele><time>2025-9-5T0:20:17Z</time></trkpt>
<trkpt lat="46.16622" lon="7.35972"><ele></ele><time>2025-9-5T0:20:20Z</time></trkpt>
<trkpt lat="46.16621" lon="7.35971"><ele></ele><time>2025-9-5T0:20:23Z</time></trkpt>
<trkpt lat="46.16614" lon="7.35964"><ele></ele><time>2025-9-5T0:20:26Z</time></trkpt>
<trkpt lat="46.16613" lon="7.35962"><ele></ele><time>2025-9-5T0:20:29Z</time></trkpt>
<trkpt lat="46.16609" lon="7.35958"><ele></ele><time>2025-9-5T0:20:32Z</time></trkpt>
<trkpt lat="46.16604" lon="7.35952"><ele></ele><time>2025-9-5T0:20:35Z</time></trkpt>
<trkpt lat="46.16603" lon="7.35949"><ele></ele><time>2025-9-5T0:20:38Z</time></trkpt>
<trkpt lat="46.16597" lon="7.35945"><ele></ele><time>2025-9-5T0:20:41Z</time></trkpt>
<trkpt lat="46.16595" lon="7.35943"><ele></ele><time>2025-9-5T0:20:44Z</time></trkpt>
<trkpt lat="46.16591" lon="7.35938"><ele></ele><time>2025-9-5T0:20:47Z</time></trkpt>
<trkpt lat="46.1659" lon="7.35936"><ele></ele><time>2025-9-5T0:20:50Z</time></trkpt>
<trkpt lat="46.16586" lon="7.35931"><ele></ele><time>2025-9-5T0:20:53Z</time></trkpt>
<trkpt lat="46.16583" lon="7.35926"><ele></ele><time>2025-9-5T0:20:56Z</time></trkpt>
<trkpt lat="46.16578" lon="7.35922"><ele></ele><time>2025-9-5T0:20:59Z</time></trkpt>
<trkpt lat="46.16575" lon="7.35919"><ele></ele><time>2025-9-5T0:21:2Z</time></trkpt>
<trkpt lat="46.16572" lon="7.35917"><ele></ele><time>2025-9-5T0:21:5Z</time></trkpt>
<trkpt lat="46.16566" lon="7.35912"><ele></ele><time>2025-9-5T0:21:8Z</time></trkpt>
<trkpt lat="46.16565" lon="7.35911"><ele></ele><time>2025-9-5T0:21:11Z</time></trkpt>
<trkpt lat="46.16559" lon="7.3591"><ele></ele><time>2025-9-5T0:21:14Z</time></trkpt>
<trkpt lat="46.16552" lon="7.35908"><ele></ele><time>2025-9-5T0:21:17Z</time></trkpt>
<trkpt lat="46.1655" lon="7.35906"><ele></ele><time>2025-9-5T0:21:20Z</time></trkpt>
<trkpt lat="46.1654" lon="7.35901"><ele></ele><time>2025-9-5T0:21:23Z</time></trkpt>
<trkpt lat="46.16538" lon="7.35899"><ele></ele><time>2025-9-5T0:21:26Z</time></trkpt>
<trkpt lat="46.16538" lon="7.35899"><ele></ele><time>2025-9-5T0:21:29Z</time></trkpt>
<trkpt lat="46.16538" lon="7.35899"><ele></ele><time>2025-9-5T0:21:32Z</time></trkpt>
<trkpt lat="46.16538" lon="7.35899"><ele></ele><time>2025-9-5T0:21:35Z</time></trkpt>
<trkpt lat="46.16538" lon="7.35899"><ele></ele><time>2025-9-5T0:21:38Z</time></trkpt>
<trkpt lat="46.16538" lon="7.35899"><ele></ele><time>2025-9-5T0:21:41Z</time></trkpt>
<trkpt lat="46.16538" lon="7.35899"><ele></ele><time>2025-9-5T0:21:44Z</time></trkpt>
<trkpt lat="46.16538" lon="7.35899"><ele></ele><time>2025-9-5T0:21:47Z</time></trkpt>
<trkpt lat="46.16538" lon="7.35899"><ele></ele><time>2025-9-5T0:21:50Z</time></trkpt>
<trkpt lat="46.16538" lon="7.35899"><ele></ele><time>2025-9-5T0:21:53Z</time></trkpt>
<trkpt lat="46.16537" lon="7.35899"><ele></ele><time>2025-9-5T0:21:56Z</time></trkpt>
<trkpt lat="46.16535" lon="7.35899"><ele></ele><time>2025-9-5T0:21:59Z</time></trkpt>
<trkpt lat="46.16531" lon="7.35899"><ele></ele><time>2025-9-5T0:22:2Z</time></trkpt>
<trkpt lat="46.16522" lon="7.35902"><ele></ele><time>2025-9-5T0:22:5Z</time></trkpt>
<trkpt lat="46.1652" lon="7.35902"><ele></ele><time>2025-9-5T0:22:8Z</time></trkpt>
<trkpt lat="46.16515" lon="7.35903"><ele></ele><time>2025-9-5T0:22:11Z</time></trkpt>
<trkpt lat="46.16512" lon="7.35905"><ele></ele><time>2025-9-5T0:22:14Z</time></trkpt>
<trkpt lat="46.1651" lon="7.35906"><ele></ele><time>2025-9-5T0:22:17Z</time></trkpt>
<trkpt lat="46.16505" lon="7.35907"><ele></ele><time>2025-9-5T0:22:20Z</time></trkpt>
<trkpt lat="46.16503" lon="7.35908"><ele></ele><time>2025-9-5T0:22:23Z</time></trkpt>
<trkpt lat="46.16496" lon="7.35912"><ele></ele><time>2025-9-5T0:22:26Z</time></trkpt>
<trkpt lat="46.16491" lon="7.35913"><ele></ele><time>2025-9-5T0:22:29Z</time></trkpt>
<trkpt lat="46.16487" lon="7.35913"><ele></ele><time>2025-9-5T0:22:32Z</time></trkpt>
<trkpt lat="46.16479" lon="7.35912"><ele></ele><time>2025-9-5T0:22:35Z</time></trkpt>
<trkpt lat="46.16476" lon="7.35911"><ele></ele><time>2025-9-5T0:22:38Z</time></trkpt>
<trkpt lat="46.1647" lon="7.35909"><ele></ele><time>2025-9-5T0:22:41Z</time></trkpt>
<trkpt lat="46.16469" lon="7.35908"><ele></ele><time>2025-9-5T0:22:44Z</time></trkpt>
<trkpt lat="46.16463" lon="7.35906"><ele></ele><time>2025-9-5T0:22:47Z</time></trkpt>
<trkpt lat="46.16461" lon="7.35906"><ele></ele><time>2025-9-5T0:22:50Z</time></trkpt>
<trkpt lat="46.16458" lon="7.35907"><ele></ele><time>2025-9-5T0:22:53Z</time></trkpt>
<trkpt lat="46.16457" lon="7.35907"><ele></ele><time>2025-9-5T0:22:56Z</time></trkpt>
<trkpt lat="46.1645" lon="7.35906"><ele></ele><time>2025-9-5T0:22:59Z</time></trkpt>
<trkpt lat="46.16449" lon="7.35906"><ele></ele><time>2025-9-5T0:23:2Z</time></trkpt>
<trkpt lat="46.16441" lon="7.35903"><ele></ele><time>2025-9-5T0:23:5Z</time></trkpt>
<trkpt lat="46.16436" lon="7.35899"><ele></ele><time>2025-9-5T0:23:8Z</time></trkpt>
<trkpt lat="46.16433" lon="7.35898"><ele></ele><time>2025-9-5T0:23:11Z</time></trkpt>
<trkpt lat="46.16426" lon="7.35895"><ele></ele><time>2025-9-5T0:23:14Z</time></trkpt>
<trkpt lat="46.16425" lon="7.35894"><ele></ele><time>2025-9-5T0:23:17Z</time></trkpt>
<trkpt lat="46.16417" lon="7.3589"><ele></ele><time>2025-9-5T0:23:20Z</time></trkpt>
<trkpt lat="46.16413" lon="7.35887"><ele></ele><time>2025-9-5T0:23:23Z</time></trkpt>
<trkpt lat="46.16411" lon="7.35887"><ele></ele><time>2025-9-5T0:23:26Z</time></trkpt>
<trkpt lat="46.16409" lon="7.35886"><ele></ele><time>2025-9-5T0:23:29Z</time></trkpt>
<trkpt lat="46.16405" lon="7.35884"><ele></ele><time>2025-9-5T0:23:32Z</time></trkpt>
<trkpt lat="46.16403" lon="7.35884"><ele></ele><time>2025-9-5T0:23:35Z</time></trkpt>
<trkpt lat="46.16397" lon="7.3588"><ele></ele><time>2025-9-5T0:23:38Z</time></trkpt>
<trkpt lat="46.16389" lon="7.35876"><ele></ele><time>2025-9-5T0:23:41Z</time></trkpt>
<trkpt lat="46.16388" lon="7.35875"><ele></ele><time>2025-9-5T0:23:44Z</time></trkpt>
<trkpt lat="46.16381" lon="7.35873"><ele></ele><time>2025-9-5T0:23:47Z</time></trkpt>
<trkpt lat="46.16381" lon="7.35876"><ele></ele><time>2025-9-5T0:23:50Z</time></trkpt>
<trkpt lat="46.16382" lon="7.35879"><ele></ele><time>2025-9-5T0:23:53Z</time></trkpt>
<trkpt lat="46.16387" lon="7.35883"><ele></ele><time>2025-9-5T0:23:56Z</time></trkpt>
<trkpt lat="46.16391" lon="7.35886"><ele></ele><time>2025-9-5T0:23:59Z</time></trkpt>
<trkpt lat="46.16393" lon="7.35888"><ele></ele><time>2025-9-5T0:24:2Z</time></trkpt>
<trkpt lat="46.16401" lon="7.35894"><ele></ele><time>2025-9-5T0:24:5Z</time></trkpt>
<trkpt lat="46.16413" lon="7.35903"><ele></ele><time>2025-9-5T0:24:8Z</time></trkpt>
<trkpt lat="46.16421" lon="7.35917"><ele></ele><time>2025-9-5T0:24:11Z</time></trkpt>
<trkpt lat="46.16426" lon="7.35925"><ele></ele><time>2025-9-5T0:24:14Z</time></trkpt>
<trkpt lat="46.16425" lon="7.35928"><ele></ele><time>2025-9-5T0:24:17Z</time></trkpt>
<trkpt lat="46.16425" lon="7.3593"><ele></ele><time>2025-9-5T0:24:20Z</time></trkpt>
<trkpt lat="46.1642" lon="7.35931"><ele></ele><time>2025-9-5T0:24:23Z</time></trkpt>
<trkpt lat="46.1642" lon="7.3593"><ele></ele><time>2025-9-5T0:24:26Z</time></trkpt>
<trkpt lat="46.16416" lon="7.3593"><ele></ele><time>2025-9-5T0:24:29Z</time></trkpt>
<trkpt lat="46.16415" lon="7.3593"><ele></ele><time>2025-9-5T0:24:32Z</time></trkpt>
<trkpt lat="46.16413" lon="7.3593"><ele></ele><time>2025-9-5T0:24:35Z</time></trkpt>
<trkpt lat="46.16411" lon="7.35929"><ele></ele><time>2025-9-5T0:24:38Z</time></trkpt>
<trkpt lat="46.16407" lon="7.3593"><ele></ele><time>2025-9-5T0:24:41Z</time></trkpt>
<trkpt lat="46.16406" lon="7.3593"><ele></ele><time>2025-9-5T0:24:44Z</time></trkpt>
<trkpt lat="46.16403" lon="7.35932"><ele></ele><time>2025-9-5T0:24:47Z</time></trkpt>
<trkpt lat="46.16403" lon="7.35932"><ele></ele><time>2025-9-5T0:24:50Z</time></trkpt>
<trkpt lat="46.16403" lon="7.35932"><ele></ele><time>2025-9-5T0:24:53Z</time></trkpt>
<trkpt lat="46.16403" lon="7.35932"><ele></ele><time>2025-9-5T0:24:56Z</time></trkpt>
<trkpt lat="46.16403" lon="7.35932"><ele></ele><time>2025-9-5T0:24:59Z</time></trkpt>
<trkpt lat="46.16403" lon="7.35932"><ele></ele><time>2025-9-5T0:25:2Z</time></trkpt>
<trkpt lat="46.16403" lon="7.35932"><ele></ele><time>2025-9-5T0:25:5Z</time></trkpt>
<trkpt lat="46.16403" lon="7.35932"><ele></ele><time>2025-9-5T0:25:8Z</time></trkpt>
<trkpt lat="46.16403" lon="7.35933"><ele></ele><time>2025-9-5T0:25:11Z</time></trkpt>
<trkpt lat="46.16399" lon="7.35935"><ele></ele><time>2025-9-5T0:25:14Z</time></trkpt>
<trkpt lat="46.1639" lon="7.35934"><ele></ele><time>2025-9-5T0:25:17Z</time></trkpt>
<trkpt lat="46.16387" lon="7.35933"><ele></ele><time>2025-9-5T0:25:20Z</time></trkpt>
<trkpt lat="46.16386" lon="7.35933"><ele></ele><time>2025-9-5T0:25:23Z</time></trkpt>
<trkpt lat="46.16386" lon="7.35934"><ele></ele><time>2025-9-5T0:25:26Z</time></trkpt>
<trkpt lat="46.16383" lon="7.35933"><ele></ele><time>2025-9-5T0:25:29Z</time></trkpt>
<trkpt lat="46.16381" lon="7.35933"><ele></ele><time>2025-9-5T0:25:32Z</time></trkpt>
<trkpt lat="46.16378" lon="7.35933"><ele></ele><time>2025-9-5T0:25:35Z</time></trkpt>
<trkpt lat="46.16377" lon="7.35933"><ele></ele><time>2025-9-5T0:25:38Z</time></trkpt>
<trkpt lat="46.16373" lon="7.35933"><ele></ele><time>2025-9-5T0:25:41Z</time></trkpt>
<trkpt lat="46.16372" lon="7.35934"><ele></ele><time>2025-9-5T0:25:44Z</time></trkpt>
<trkpt lat="46.16372" lon="7.35933"><ele></ele><time>2025-9-5T0:25:47Z</time></trkpt>
<trkpt lat="46.1637" lon="7.35931"><ele></ele><time>2025-9-5T0:25:50Z</time></trkpt>
<trkpt lat="46.16364" lon="7.35927"><ele></ele><time>2025-9-5T0:25:53Z</time></trkpt>
<trkpt lat="46.16361" lon="7.35923"><ele></ele><time>2025-9-5T0:25:56Z</time></trkpt>
<trkpt lat="46.16359" lon="7.3592"><ele></ele><time>2025-9-5T0:25:59Z</time></trkpt>
<trkpt lat="46.16358" lon="7.35918"><ele></ele><time>2025-9-5T0:26:2Z</time></trkpt>
<trkpt lat="46.16355" lon="7.35915"><ele></ele><time>2025-9-5T0:26:5Z</time></trkpt>
<trkpt lat="46.16351" lon="7.35911"><ele></ele><time>2025-9-5T0:26:8Z</time></trkpt>
<trkpt lat="46.1635" lon="7.3591"><ele></ele><time>2025-9-5T0:26:11Z</time></trkpt>
<trkpt lat="46.16347" lon="7.35907"><ele></ele><time>2025-9-5T0:26:14Z</time></trkpt>
<trkpt lat="46.16345" lon="7.35905"><ele></ele><time>2025-9-5T0:26:17Z</time></trkpt>
<trkpt lat="46.16345" lon="7.35904"><ele></ele><time>2025-9-5T0:26:20Z</time></trkpt>
<trkpt lat="46.1634" lon="7.35901"><ele></ele><time>2025-9-5T0:26:23Z</time></trkpt>
<trkpt lat="46.16339" lon="7.35901"><ele></ele><time>2025-9-5T0:26:26Z</time></trkpt>
<trkpt lat="46.16335" lon="7.35898"><ele></ele><time>2025-9-5T0:26:29Z</time></trkpt>
<trkpt lat="46.16334" lon="7.35898"><ele></ele><time>2025-9-5T0:26:32Z</time></trkpt>
<trkpt lat="46.16334" lon="7.35898"><ele></ele><time>2025-9-5T0:26:35Z</time></trkpt>
<trkpt lat="46.16331" lon="7.35897"><ele></ele><time>2025-9-5T0:26:38Z</time></trkpt>
<trkpt lat="46.1633" lon="7.35897"><ele></ele><time>2025-9-5T0:26:41Z</time></trkpt>
<trkpt lat="46.16327" lon="7.35896"><ele></ele><time>2025-9-5T0:26:44Z</time></trkpt>
<trkpt lat="46.16326" lon="7.35896"><ele></ele><time>2025-9-5T0:26:47Z</time></trkpt>
<trkpt lat="46.16325" lon="7.35896"><ele></ele><time>2025-9-5T0:26:50Z</time></trkpt>
<trkpt lat="46.16321" lon="7.35894"><ele></ele><time>2025-9-5T0:26:53Z</time></trkpt>
<trkpt lat="46.1632" lon="7.35894"><ele></ele><time>2025-9-5T0:26:56Z</time></trkpt>
<trkpt lat="46.16316" lon="7.35892"><ele></ele><time>2025-9-5T0:26:59Z</time></trkpt>
<trkpt lat="46.16314" lon="7.35892"><ele></ele><time>2025-9-5T0:27:2Z</time></trkpt>
<trkpt lat="46.16311" lon="7.35892"><ele></ele><time>2025-9-5T0:27:5Z</time></trkpt>
<trkpt lat="46.16307" lon="7.35893"><ele></ele><time>2025-9-5T0:27:8Z</time></trkpt>
<trkpt lat="46.16306" lon="7.35893"><ele></ele><time>2025-9-5T0:27:11Z</time></trkpt>
<trkpt lat="46.163" lon="7.35893"><ele></ele><time>2025-9-5T0:27:14Z</time></trkpt>
<trkpt lat="46.163" lon="7.35893"><ele></ele><time>2025-9-5T0:27:17Z</time></trkpt>
<trkpt lat="46.16295" lon="7.35894"><ele></ele><time>2025-9-5T0:27:20Z</time></trkpt>
<trkpt lat="46.16291" lon="7.35896"><ele></ele><time>2025-9-5T0:27:23Z</time></trkpt>
<trkpt lat="46.1629" lon="7.35897"><ele></ele><time>2025-9-5T0:27:26Z</time></trkpt>
<trkpt lat="46.16286" lon="7.35897"><ele></ele><time>2025-9-5T0:27:29Z</time></trkpt>
<trkpt lat="46.16284" lon="7.35898"><ele></ele><time>2025-9-5T0:27:32Z</time></trkpt>
<trkpt lat="46.16281" lon="7.35899"><ele></ele><time>2025-9-5T0:27:35Z</time></trkpt>
<trkpt lat="46.16281" lon="7.359"><ele></ele><time>2025-9-5T0:27:38Z</time></trkpt>
<trkpt lat="46.16278" lon="7.35903"><ele></ele><time>2025-9-5T0:27:41Z</time></trkpt>
<trkpt lat="46.16278" lon="7.35903"><ele></ele><time>2025-9-5T0:27:44Z</time></trkpt>
<trkpt lat="46.16278" lon="7.35903"><ele></ele><time>2025-9-5T0:27:47Z</time></trkpt>
<trkpt lat="46.16278" lon="7.35903"><ele></ele><time>2025-9-5T0:27:50Z</time></trkpt>
<trkpt lat="46.16275" lon="7.35904"><ele></ele><time>2025-9-5T0:27:53Z</time></trkpt>
<trkpt lat="46.16274" lon="7.35905"><ele></ele><time>2025-9-5T0:27:56Z</time></trkpt>
<trkpt lat="46.16273" lon="7.35905"><ele></ele><time>2025-9-5T0:27:59Z</time></trkpt>
<trkpt lat="46.16273" lon="7.35906"><ele></ele><time>2025-9-5T0:28:2Z</time></trkpt>
<trkpt lat="46.16273" lon="7.35906"><ele></ele><time>2025-9-5T0:28:5Z</time></trkpt>
<trkpt lat="46.16273" lon="7.35906"><ele></ele><time>2025-9-5T0:28:8Z</time></trkpt>
<trkpt lat="46.1627" lon="7.35907"><ele></ele><time>2025-9-5T0:28:11Z</time></trkpt>
<trkpt lat="46.1627" lon="7.35907"><ele></ele><time>2025-9-5T0:28:14Z</time></trkpt>
<trkpt lat="46.1627" lon="7.35907"><ele></ele><time>2025-9-5T0:28:17Z</time></trkpt>
<trkpt lat="46.1627" lon="7.35907"><ele></ele><time>2025-9-5T0:28:20Z</time></trkpt>
<trkpt lat="46.16272" lon="7.35907"><ele></ele><time>2025-9-5T0:28:23Z</time></trkpt>
<trkpt lat="46.16276" lon="7.35904"><ele></ele><time>2025-9-5T0:28:26Z</time></trkpt>
<trkpt lat="46.16278" lon="7.35904"><ele></ele><time>2025-9-5T0:28:29Z</time></trkpt>
<trkpt lat="46.16278" lon="7.35902"><ele></ele><time>2025-9-5T0:28:32Z</time></trkpt>
<trkpt lat="46.16277" lon="7.35904"><ele></ele><time>2025-9-5T0:28:35Z</time></trkpt>
<trkpt lat="46.16272" lon="7.35906"><ele></ele><time>2025-9-5T0:28:38Z</time></trkpt>
<trkpt lat="46.16271" lon="7.35906"><ele></ele><time>2025-9-5T0:28:41Z</time></trkpt>
<trkpt lat="46.16271" lon="7.35908"><ele></ele><time>2025-9-5T0:28:44Z</time></trkpt>
<trkpt lat="46.16272" lon="7.35908"><ele></ele><time>2025-9-5T0:28:47Z</time></trkpt>
<trkpt lat="46.16273" lon="7.35908"><ele></ele><time>2025-9-5T0:28:50Z</time></trkpt>
<trkpt lat="46.16273" lon="7.35907"><ele></ele><time>2025-9-5T0:28:53Z</time></trkpt>
<trkpt lat="46.1627" lon="7.35908"><ele></ele><time>2025-9-5T0:28:56Z</time></trkpt>
<trkpt lat="46.16269" lon="7.35909"><ele></ele><time>2025-9-5T0:28:59Z</time></trkpt>
<trkpt lat="46.16264" lon="7.35907"><ele></ele><time>2025-9-5T0:29:2Z</time></trkpt>
<trkpt lat="46.16263" lon="7.35908"><ele></ele><time>2025-9-5T0:29:5Z</time></trkpt>
<trkpt lat="46.16261" lon="7.35911"><ele></ele><time>2025-9-5T0:29:8Z</time></trkpt>
<trkpt lat="46.1626" lon="7.35913"><ele></ele><time>2025-9-5T0:29:11Z</time></trkpt>
<trkpt lat="46.16259" lon="7.35917"><ele></ele><time>2025-9-5T0:29:14Z</time></trkpt>
<trkpt lat="46.16259" lon="7.3592"><ele></ele><time>2025-9-5T0:29:17Z</time></trkpt>
<trkpt lat="46.16258" lon="7.35922"><ele></ele><time>2025-9-5T0:29:20Z</time></trkpt>
<trkpt lat="46.16258" lon="7.35925"><ele></ele><time>2025-9-5T0:29:23Z</time></trkpt>
<trkpt lat="46.16258" lon="7.35927"><ele></ele><time>2025-9-5T0:29:26Z</time></trkpt>
<trkpt lat="46.16258" lon="7.35933"><ele></ele><time>2025-9-5T0:29:29Z</time></trkpt>
<trkpt lat="46.16258" lon="7.35934"><ele></ele><time>2025-9-5T0:29:32Z</time></trkpt>
<trkpt lat="46.1626" lon="7.35942"><ele></ele><time>2025-9-5T0:29:35Z</time></trkpt>
<trkpt lat="46.16261" lon="7.35945"><ele></ele><time>2025-9-5T0:29:38Z</time></trkpt>
<trkpt lat="46.16262" lon="7.35951"><ele></ele><time>2025-9-5T0:29:41Z</time></trkpt>
<trkpt lat="46.16263" lon="7.35955"><ele></ele><time>2025-9-5T0:29:44Z</time></trkpt>
<trkpt lat="46.16265" lon="7.3596"><ele></ele><time>2025-9-5T0:29:47Z</time></trkpt>
<trkpt lat="46.16266" lon="7.35961"><ele></ele><time>2025-9-5T0:29:50Z</time></trkpt>
<trkpt lat="46.16271" lon="7.35966"><ele></ele><time>2025-9-5T0:29:53Z</time></trkpt>
<trkpt lat="46.16272" lon="7.35967"><ele></ele><time>2025-9-5T0:29:56Z</time></trkpt>
<trkpt lat="46.16279" lon="7.35973"><ele></ele><time>2025-9-5T0:29:59Z</time></trkpt>
<trkpt lat="46.1628" lon="7.35974"><ele></ele><time>2025-9-5T0:30:2Z</time></trkpt>
<trkpt lat="46.16285" lon="7.35981"><ele></ele><time>2025-9-5T0:30:5Z</time></trkpt>
<trkpt lat="46.16286" lon="7.35982"><ele></ele><time>2025-9-5T0:30:8Z</time></trkpt>
<trkpt lat="46.16291" lon="7.35988"><ele></ele><time>2025-9-5T0:30:11Z</time></trkpt>
<trkpt lat="46.16294" lon="7.35992"><ele></ele><time>2025-9-5T0:30:14Z</time></trkpt>
<trkpt lat="46.16296" lon="7.35996"><ele></ele><time>2025-9-5T0:30:17Z</time></trkpt>
<trkpt lat="46.16301" lon="7.36003"><ele></ele><time>2025-9-5T0:30:20Z</time></trkpt>
<trkpt lat="46.16303" lon="7.36005"><ele></ele><time>2025-9-5T0:30:23Z</time></trkpt>
<trkpt lat="46.16306" lon="7.36012"><ele></ele><time>2025-9-5T0:30:26Z</time></trkpt>
<trkpt lat="46.16308" lon="7.36017"><ele></ele><time>2025-9-5T0:30:29Z</time></trkpt>
<trkpt lat="46.16311" lon="7.36024"><ele></ele><time>2025-9-5T0:30:32Z</time></trkpt>
<trkpt lat="46.16314" lon="7.36033"><ele></ele><time>2025-9-5T0:30:35Z</time></trkpt>
<trkpt lat="46.16313" lon="7.36033"><ele></ele><time>2025-9-5T0:30:38Z</time></trkpt>
<trkpt lat="46.16313" lon="7.36033"><ele></ele><time>2025-9-5T0:30:41Z</time></trkpt>
<trkpt lat="46.16313" lon="7.36033"><ele></ele><time>2025-9-5T0:30:44Z</time></trkpt>
<trkpt lat="46.16313" lon="7.36033"><ele></ele><time>2025-9-5T0:30:47Z</time></trkpt>
<trkpt lat="46.16313" lon="7.36033"><ele></ele><time>2025-9-5T0:30:50Z</time></trkpt>
<trkpt lat="46.16313" lon="7.36033"><ele></ele><time>2025-9-5T0:30:53Z</time></trkpt>
<trkpt lat="46.16313" lon="7.36033"><ele></ele><time>2025-9-5T0:30:56Z</time></trkpt>
<trkpt lat="46.16313" lon="7.36033"><ele></ele><time>2025-9-5T0:30:59Z</time></trkpt>
<trkpt lat="46.16314" lon="7.36034"><ele></ele><time>2025-9-5T0:31:2Z</time></trkpt>
<trkpt lat="46.16314" lon="7.36036"><ele></ele><time>2025-9-5T0:31:5Z</time></trkpt>
<trkpt lat="46.16317" lon="7.36034"><ele></ele><time>2025-9-5T0:31:8Z</time></trkpt>
<trkpt lat="46.16312" lon="7.36023"><ele></ele><time>2025-9-5T0:31:11Z</time></trkpt>
<trkpt lat="46.16307" lon="7.36011"><ele></ele><time>2025-9-5T0:31:14Z</time></trkpt>
<trkpt lat="46.16306" lon="7.36008"><ele></ele><time>2025-9-5T0:31:17Z</time></trkpt>
<trkpt lat="46.16303" lon="7.36003"><ele></ele><time>2025-9-5T0:31:20Z</time></trkpt>
<trkpt lat="46.16302" lon="7.36002"><ele></ele><time>2025-9-5T0:31:23Z</time></trkpt>
<trkpt lat="46.16301" lon="7.36004"><ele></ele><time>2025-9-5T0:31:26Z</time></trkpt>
<trkpt lat="46.16302" lon="7.36006"><ele></ele><time>2025-9-5T0:31:29Z</time></trkpt>
<trkpt lat="46.16308" lon="7.36017"><ele></ele><time>2025-9-5T0:31:32Z</time></trkpt>
<trkpt lat="46.16311" lon="7.36025"><ele></ele><time>2025-9-5T0:31:35Z</time></trkpt>
<trkpt lat="46.16316" lon="7.36039"><ele></ele><time>2025-9-5T0:31:38Z</time></trkpt>
<trkpt lat="46.16318" lon="7.3604"><ele></ele><time>2025-9-5T0:31:41Z</time></trkpt>
<trkpt lat="46.16318" lon="7.36036"><ele></ele><time>2025-9-5T0:31:44Z</time></trkpt>
<trkpt lat="46.16316" lon="7.36035"><ele></ele><time>2025-9-5T0:31:47Z</time></trkpt>
<trkpt lat="46.16314" lon="7.36034"><ele></ele><time>2025-9-5T0:31:50Z</time></trkpt>
<trkpt lat="46.16315" lon="7.36034"><ele></ele><time>2025-9-5T0:31:53Z</time></trkpt>
<trkpt lat="46.16315" lon="7.36035"><ele></ele><time>2025-9-5T0:31:56Z</time></trkpt>
<trkpt lat="46.16315" lon="7.36035"><ele></ele><time>2025-9-5T0:31:59Z</time></trkpt>
<trkpt lat="46.16315" lon="7.36037"><ele></ele><time>2025-9-5T0:32:2Z</time></trkpt>
<trkpt lat="46.16315" lon="7.3603"><ele></ele><time>2025-9-5T0:32:5Z</time></trkpt>
<trkpt lat="46.16313" lon="7.36024"><ele></ele><time>2025-9-5T0:32:8Z</time></trkpt>
<trkpt lat="46.16311" lon="7.36024"><ele></ele><time>2025-9-5T0:32:11Z</time></trkpt>
<trkpt lat="46.16312" lon="7.36025"><ele></ele><time>2025-9-5T0:32:14Z</time></trkpt>
<trkpt lat="46.16314" lon="7.36029"><ele></ele><time>2025-9-5T0:32:17Z</time></trkpt>
<trkpt lat="46.16322" lon="7.36045"><ele></ele><time>2025-9-5T0:32:20Z</time></trkpt>
<trkpt lat="46.16323" lon="7.36047"><ele></ele><time>2025-9-5T0:32:23Z</time></trkpt>
<trkpt lat="46.16328" lon="7.36051"><ele></ele><time>2025-9-5T0:32:26Z</time></trkpt>
<trkpt lat="46.16328" lon="7.36048"><ele></ele><time>2025-9-5T0:32:29Z</time></trkpt>
<trkpt lat="46.16322" lon="7.36045"><ele></ele><time>2025-9-5T0:32:32Z</time></trkpt>
<trkpt lat="46.16314" lon="7.36031"><ele></ele><time>2025-9-5T0:32:35Z</time></trkpt>
<trkpt lat="46.16314" lon="7.36031"><ele></ele><time>2025-9-5T0:32:38Z</time></trkpt>
<trkpt lat="46.16315" lon="7.36032"><ele></ele><time>2025-9-5T0:32:41Z</time></trkpt>
<trkpt lat="46.16315" lon="7.36032"><ele></ele><time>2025-9-5T0:32:44Z</time></trkpt>
<trkpt lat="46.16316" lon="7.36037"><ele></ele><time>2025-9-5T0:32:47Z</time></trkpt>
<trkpt lat="46.16323" lon="7.36046"><ele></ele><time>2025-9-5T0:32:50Z</time></trkpt>
<trkpt lat="46.16326" lon="7.36049"><ele></ele><time>2025-9-5T0:32:53Z</time></trkpt>
<trkpt lat="46.16327" lon="7.3605"><ele></ele><time>2025-9-5T0:32:56Z</time></trkpt>
<trkpt lat="46.16336" lon="7.36055"><ele></ele><time>2025-9-5T0:32:59Z</time></trkpt>
<trkpt lat="46.16342" lon="7.36058"><ele></ele><time>2025-9-5T0:33:2Z</time></trkpt>
<trkpt lat="46.1635" lon="7.36062"><ele></ele><time>2025-9-5T0:33:5Z</time></trkpt>
<trkpt lat="46.16351" lon="7.36063"><ele></ele><time>2025-9-5T0:33:8Z</time></trkpt>
<trkpt lat="46.1636" lon="7.36066"><ele></ele><time>2025-9-5T0:33:11Z</time></trkpt>
<trkpt lat="46.16363" lon="7.36067"><ele></ele><time>2025-9-5T0:33:14Z</time></trkpt>
<trkpt lat="46.16373" lon="7.36072"><ele></ele><time>2025-9-5T0:33:17Z</time></trkpt>
<trkpt lat="46.16375" lon="7.36073"><ele></ele><time>2025-9-5T0:33:20Z</time></trkpt>
<trkpt lat="46.16379" lon="7.36079"><ele></ele><time>2025-9-5T0:33:23Z</time></trkpt>
<trkpt lat="46.16383" lon="7.36081"><ele></ele><time>2025-9-5T0:33:26Z</time></trkpt>
<trkpt lat="46.16385" lon="7.36084"><ele></ele><time>2025-9-5T0:33:29Z</time></trkpt>
<trkpt lat="46.16388" lon="7.36086"><ele></ele><time>2025-9-5T0:33:32Z</time></trkpt>
<trkpt lat="46.16389" lon="7.36088"><ele></ele><time>2025-9-5T0:33:35Z</time></trkpt>
<trkpt lat="46.16393" lon="7.36091"><ele></ele><time>2025-9-5T0:33:38Z</time></trkpt>
<trkpt lat="46.16394" lon="7.36092"><ele></ele><time>2025-9-5T0:33:41Z</time></trkpt>
<trkpt lat="46.16395" lon="7.36093"><ele></ele><time>2025-9-5T0:33:44Z</time></trkpt>
<trkpt lat="46.164" lon="7.36096"><ele></ele><time>2025-9-5T0:33:47Z</time></trkpt>
<trkpt lat="46.16401" lon="7.36097"><ele></ele><time>2025-9-5T0:33:50Z</time></trkpt>
<trkpt lat="46.16404" lon="7.36099"><ele></ele><time>2025-9-5T0:33:53Z</time></trkpt>
<trkpt lat="46.16405" lon="7.36101"><ele></ele><time>2025-9-5T0:33:56Z</time></trkpt>
<trkpt lat="46.16405" lon="7.36102"><ele></ele><time>2025-9-5T0:33:59Z</time></trkpt>
<trkpt lat="46.16405" lon="7.36102"><ele></ele><time>2025-9-5T0:34:2Z</time></trkpt>
<trkpt lat="46.16405" lon="7.36102"><ele></ele><time>2025-9-5T0:34:5Z</time></trkpt>
<trkpt lat="46.16403" lon="7.36102"><ele></ele><time>2025-9-5T0:34:8Z</time></trkpt>
<trkpt lat="46.16403" lon="7.36102"><ele></ele><time>2025-9-5T0:34:11Z</time></trkpt>
<trkpt lat="46.16403" lon="7.36102"><ele></ele><time>2025-9-5T0:34:14Z</time></trkpt>
<trkpt lat="46.16403" lon="7.36102"><ele></ele><time>2025-9-5T0:34:17Z</time></trkpt>
<trkpt lat="46.16403" lon="7.36102"><ele></ele><time>2025-9-5T0:34:20Z</time></trkpt>
<trkpt lat="46.16403" lon="7.36102"><ele></ele><time>2025-9-5T0:34:23Z</time></trkpt>
<trkpt lat="46.16403" lon="7.36101"><ele></ele><time>2025-9-5T0:34:26Z</time></trkpt>
<trkpt lat="46.16404" lon="7.36101"><ele></ele><time>2025-9-5T0:34:29Z</time></trkpt>
<trkpt lat="46.16407" lon="7.36102"><ele></ele><time>2025-9-5T0:34:32Z</time></trkpt>
<trkpt lat="46.1641" lon="7.36104"><ele></ele><time>2025-9-5T0:34:35Z</time></trkpt>
<trkpt lat="46.16414" lon="7.36109"><ele></ele><time>2025-9-5T0:34:38Z</time></trkpt>
<trkpt lat="46.16416" lon="7.36111"><ele></ele><time>2025-9-5T0:34:41Z</time></trkpt>
<trkpt lat="46.16421" lon="7.36118"><ele></ele><time>2025-9-5T0:34:44Z</time></trkpt>
<trkpt lat="46.16422" lon="7.36119"><ele></ele><time>2025-9-5T0:34:47Z</time></trkpt>
<trkpt lat="46.16427" lon="7.36128"><ele></ele><time>2025-9-5T0:34:50Z</time></trkpt>
<trkpt lat="46.16429" lon="7.36132"><ele></ele><time>2025-9-5T0:34:53Z</time></trkpt>
<trkpt lat="46.16431" lon="7.36135"><ele></ele><time>2025-9-5T0:34:56Z</time></trkpt>
<trkpt lat="46.16436" lon="7.3614"><ele></ele><time>2025-9-5T0:34:59Z</time></trkpt>
<trkpt lat="46.16437" lon="7.36141"><ele></ele><time>2025-9-5T0:35:2Z</time></trkpt>
<trkpt lat="46.16438" lon="7.36143"><ele></ele><time>2025-9-5T0:35:5Z</time></trkpt>
<trkpt lat="46.16442" lon="7.36149"><ele></ele><time>2025-9-5T0:35:8Z</time></trkpt>
<trkpt lat="46.16444" lon="7.3615"><ele></ele><time>2025-9-5T0:35:11Z</time></trkpt>
<trkpt lat="46.16451" lon="7.36158"><ele></ele><time>2025-9-5T0:35:14Z</time></trkpt>
<trkpt lat="46.16456" lon="7.36164"><ele></ele><time>2025-9-5T0:35:17Z</time></trkpt>
<trkpt lat="46.16458" lon="7.36167"><ele></ele><time>2025-9-5T0:35:20Z</time></trkpt>
<trkpt lat="46.16463" lon="7.36174"><ele></ele><time>2025-9-5T0:35:23Z</time></trkpt>
<trkpt lat="46.16464" lon="7.36176"><ele></ele><time>2025-9-5T0:35:26Z</time></trkpt>
<trkpt lat="46.1647" lon="7.3618"><ele></ele><time>2025-9-5T0:35:29Z</time></trkpt>
<trkpt lat="46.1647" lon="7.36181"><ele></ele><time>2025-9-5T0:35:32Z</time></trkpt>
<trkpt lat="46.16473" lon="7.36184"><ele></ele><time>2025-9-5T0:35:35Z</time></trkpt>
<trkpt lat="46.16474" lon="7.36185"><ele></ele><time>2025-9-5T0:35:38Z</time></trkpt>
<trkpt lat="46.16479" lon="7.36192"><ele></ele><time>2025-9-5T0:35:41Z</time></trkpt>
<trkpt lat="46.16481" lon="7.36194"><ele></ele><time>2025-9-5T0:35:44Z</time></trkpt>
<trkpt lat="46.16493" lon="7.36204"><ele></ele><time>2025-9-5T0:35:47Z</time></trkpt>
<trkpt lat="46.16496" lon="7.36206"><ele></ele><time>2025-9-5T0:35:50Z</time></trkpt>
<trkpt lat="46.165" lon="7.36207"><ele></ele><time>2025-9-5T0:35:53Z</time></trkpt>
<trkpt lat="46.16503" lon="7.36208"><ele></ele><time>2025-9-5T0:35:56Z</time></trkpt>
<trkpt lat="46.16509" lon="7.3621"><ele></ele><time>2025-9-5T0:35:59Z</time></trkpt>
<trkpt lat="46.16513" lon="7.36214"><ele></ele><time>2025-9-5T0:36:2Z</time></trkpt>
<trkpt lat="46.16516" lon="7.36217"><ele></ele><time>2025-9-5T0:36:5Z</time></trkpt>
<trkpt lat="46.1652" lon="7.3622"><ele></ele><time>2025-9-5T0:36:8Z</time></trkpt>
<trkpt lat="46.1652" lon="7.36221"><ele></ele><time>2025-9-5T0:36:11Z</time></trkpt>
<trkpt lat="46.16522" lon="7.36226"><ele></ele><time>2025-9-5T0:36:14Z</time></trkpt>
<trkpt lat="46.16522" lon="7.36226"><ele></ele><time>2025-9-5T0:36:17Z</time></trkpt>
<trkpt lat="46.16522" lon="7.36226"><ele></ele><time>2025-9-5T0:36:20Z</time></trkpt>
<trkpt lat="46.16522" lon="7.36226"><ele></ele><time>2025-9-5T0:36:23Z</time></trkpt>
<trkpt lat="46.16522" lon="7.36226"><ele></ele><time>2025-9-5T0:36:26Z</time></trkpt>
<trkpt lat="46.16522" lon="7.36226"><ele></ele><time>2025-9-5T0:36:29Z</time></trkpt>
<trkpt lat="46.16522" lon="7.36226"><ele></ele><time>2025-9-5T0:36:32Z</time></trkpt>
<trkpt lat="46.16522" lon="7.36226"><ele></ele><time>2025-9-5T0:36:35Z</time></trkpt>
<trkpt lat="46.16522" lon="7.36226"><ele></ele><time>2025-9-5T0:36:38Z</time></trkpt>
<trkpt lat="46.16522" lon="7.36226"><ele></ele><time>2025-9-5T0:36:41Z</time></trkpt>
<trkpt lat="46.16522" lon="7.36226"><ele></ele><time>2025-9-5T0:36:44Z</time></trkpt>
<trkpt lat="46.16522" lon="7.36226"><ele></ele><time>2025-9-5T0:36:47Z</time></trkpt>
<trkpt lat="46.16522" lon="7.36226"><ele></ele><time>2025-9-5T0:36:50Z</time></trkpt>
<trkpt lat="46.16522" lon="7.36226"><ele></ele><time>2025-9-5T0:36:53Z</time></trkpt>
<trkpt lat="46.16522" lon="7.36226"><ele></ele><time>2025-9-5T0:36:56Z</time></trkpt>
<trkpt lat="46.16523" lon="7.36226"><ele></ele><time>2025-9-5T0:36:59Z</time></trkpt>
<trkpt lat="46.16524" lon="7.36226"><ele></ele><time>2025-9-5T0:37:2Z</time></trkpt>
<trkpt lat="46.16524" lon="7.36226"><ele></ele><time>2025-9-5T0:37:5Z</time></trkpt>
<trkpt lat="46.16523" lon="7.36225"><ele></ele><time>2025-9-5T0:37:8Z</time></trkpt>
<trkpt lat="46.16525" lon="7.36226"><ele></ele><time>2025-9-5T0:37:11Z</time></trkpt>
<trkpt lat="46.16524" lon="7.36226"><ele></ele><time>2025-9-5T0:37:14Z</time></trkpt>
<trkpt lat="46.16524" lon="7.36225"><ele></ele><time>2025-9-5T0:37:17Z</time></trkpt>
<trkpt lat="46.16524" lon="7.36226"><ele></ele><time>2025-9-5T0:37:20Z</time></trkpt>
<trkpt lat="46.16524" lon="7.36226"><ele></ele><time>2025-9-5T0:37:23Z</time></trkpt>
<trkpt lat="46.16524" lon="7.36226"><ele></ele><time>2025-9-5T0:37:26Z</time></trkpt>
<trkpt lat="46.16524" lon="7.36226"><ele></ele><time>2025-9-5T0:37:29Z</time></trkpt>
<trkpt lat="46.16524" lon="7.36226"><ele></ele><time>2025-9-5T0:37:32Z</time></trkpt>
<trkpt lat="46.16524" lon="7.36226"><ele></ele><time>2025-9-5T0:37:35Z</time></trkpt>
<trkpt lat="46.16524" lon="7.36226"><ele></ele><time>2025-9-5T0:37:38Z</time></trkpt>
<trkpt lat="46.16525" lon="7.36224"><ele></ele><time>2025-9-5T0:37:41Z</time></trkpt>
<trkpt lat="46.16524" lon="7.36222"><ele></ele><time>2025-9-5T0:37:44Z</time></trkpt>
<trkpt lat="46.16517" lon="7.36218"><ele></ele><time>2025-9-5T0:37:47Z</time></trkpt>
<trkpt lat="46.16514" lon="7.36215"><ele></ele><time>2025-9-5T0:37:50Z</time></trkpt>
<trkpt lat="46.16508" lon="7.36212"><ele></ele><time>2025-9-5T0:37:53Z</time></trkpt>
<trkpt lat="46.16508" lon="7.36213"><ele></ele><time>2025-9-5T0:37:56Z</time></trkpt>
<trkpt lat="46.16512" lon="7.36215"><ele></ele><time>2025-9-5T0:37:59Z</time></trkpt>
<trkpt lat="46.16519" lon="7.36222"><ele></ele><time>2025-9-5T0:38:2Z</time></trkpt>
<trkpt lat="46.16527" lon="7.36229"><ele></ele><time>2025-9-5T0:38:5Z</time></trkpt>
<trkpt lat="46.16536" lon="7.36241"><ele></ele><time>2025-9-5T0:38:8Z</time></trkpt>
<trkpt lat="46.16539" lon="7.36242"><ele></ele><time>2025-9-5T0:38:11Z</time></trkpt>
<trkpt lat="46.16536" lon="7.36238"><ele></ele><time>2025-9-5T0:38:14Z</time></trkpt>
<trkpt lat="46.16528" lon="7.36231"><ele></ele><time>2025-9-5T0:38:17Z</time></trkpt>
<trkpt lat="46.16525" lon="7.36228"><ele></ele><time>2025-9-5T0:38:20Z</time></trkpt>
<trkpt lat="46.16522" lon="7.36227"><ele></ele><time>2025-9-5T0:38:23Z</time></trkpt>
<trkpt lat="46.16522" lon="7.36227"><ele></ele><time>2025-9-5T0:38:26Z</time></trkpt>
<trkpt lat="46.16521" lon="7.36224"><ele></ele><time>2025-9-5T0:38:29Z</time></trkpt>
<trkpt lat="46.16522" lon="7.36223"><ele></ele><time>2025-9-5T0:38:32Z</time></trkpt>
<trkpt lat="46.16523" lon="7.36223"><ele></ele><time>2025-9-5T0:38:35Z</time></trkpt>
<trkpt lat="46.16523" lon="7.36223"><ele></ele><time>2025-9-5T0:38:38Z</time></trkpt>
<trkpt lat="46.16523" lon="7.36223"><ele></ele><time>2025-9-5T0:38:41Z</time></trkpt>
<trkpt lat="46.16525" lon="7.36224"><ele></ele><time>2025-9-5T0:38:44Z</time></trkpt>
<trkpt lat="46.16528" lon="7.36228"><ele></ele><time>2025-9-5T0:38:47Z</time></trkpt>
<trkpt lat="46.1654" lon="7.36243"><ele></ele><time>2025-9-5T0:38:50Z</time></trkpt>
<trkpt lat="46.16548" lon="7.36255"><ele></ele><time>2025-9-5T0:38:53Z</time></trkpt>
<trkpt lat="46.16553" lon="7.36262"><ele></ele><time>2025-9-5T0:38:56Z</time></trkpt>
<trkpt lat="46.16566" lon="7.36272"><ele></ele><time>2025-9-5T0:38:59Z</time></trkpt>
<trkpt lat="46.16569" lon="7.36275"><ele></ele><time>2025-9-5T0:39:2Z</time></trkpt>
<trkpt lat="46.16581" lon="7.36287"><ele></ele><time>2025-9-5T0:39:5Z</time></trkpt>
<trkpt lat="46.16587" lon="7.36293"><ele></ele><time>2025-9-5T0:39:8Z</time></trkpt>
<trkpt lat="46.16599" lon="7.36311"><ele></ele><time>2025-9-5T0:39:11Z</time></trkpt>
<trkpt lat="46.16605" lon="7.36321"><ele></ele><time>2025-9-5T0:39:14Z</time></trkpt>
<trkpt lat="46.16607" lon="7.36323"><ele></ele><time>2025-9-5T0:39:17Z</time></trkpt>
<trkpt lat="46.16618" lon="7.36336"><ele></ele><time>2025-9-5T0:39:20Z</time></trkpt>
<trkpt lat="46.16624" lon="7.36339"><ele></ele><time>2025-9-5T0:39:23Z</time></trkpt>
<trkpt lat="46.16623" lon="7.3634"><ele></ele><time>2025-9-5T0:39:26Z</time></trkpt>
<trkpt lat="46.16625" lon="7.3634"><ele></ele><time>2025-9-5T0:39:29Z</time></trkpt>
<trkpt lat="46.16628" lon="7.3634"><ele></ele><time>2025-9-5T0:39:32Z</time></trkpt>
<trkpt lat="46.16627" lon="7.36339"><ele></ele><time>2025-9-5T0:39:35Z</time></trkpt>
<trkpt lat="46.16628" lon="7.36337"><ele></ele><time>2025-9-5T0:39:38Z</time></trkpt>
<trkpt lat="46.16627" lon="7.36338"><ele></ele><time>2025-9-5T0:39:41Z</time></trkpt>
<trkpt lat="46.16627" lon="7.36339"><ele></ele><time>2025-9-5T0:39:44Z</time></trkpt>
<trkpt lat="46.16627" lon="7.36338"><ele></ele><time>2025-9-5T0:39:47Z</time></trkpt>
<trkpt lat="46.16627" lon="7.36338"><ele></ele><time>2025-9-5T0:39:50Z</time></trkpt>
<trkpt lat="46.16627" lon="7.36338"><ele></ele><time>2025-9-5T0:39:53Z</time></trkpt>
<trkpt lat="46.16627" lon="7.36338"><ele></ele><time>2025-9-5T0:39:56Z</time></trkpt>
<trkpt lat="46.16627" lon="7.36338"><ele></ele><time>2025-9-5T0:39:59Z</time></trkpt>
<trkpt lat="46.16627" lon="7.36338"><ele></ele><time>2025-9-5T0:40:2Z</time></trkpt>
<trkpt lat="46.16627" lon="7.36338"><ele></ele><time>2025-9-5T0:40:5Z</time></trkpt>
<trkpt lat="46.16627" lon="7.36338"><ele></ele><time>2025-9-5T0:40:8Z</time></trkpt>
<trkpt lat="46.16627" lon="7.36338"><ele></ele><time>2025-9-5T0:40:11Z</time></trkpt>
<trkpt lat="46.16627" lon="7.36338"><ele></ele><time>2025-9-5T0:40:14Z</time></trkpt>
<trkpt lat="46.16627" lon="7.36338"><ele></ele><time>2025-9-5T0:40:17Z</time></trkpt>
<trkpt lat="46.16628" lon="7.36337"><ele></ele><time>2025-9-5T0:40:20Z</time></trkpt>
<trkpt lat="46.16627" lon="7.36338"><ele></ele><time>2025-9-5T0:40:23Z</time></trkpt>
<trkpt lat="46.16627" lon="7.36338"><ele></ele><time>2025-9-5T0:40:26Z</time></trkpt>
<trkpt lat="46.16627" lon="7.36338"><ele></ele><time>2025-9-5T0:40:29Z</time></trkpt>
<trkpt lat="46.16627" lon="7.36338"><ele></ele><time>2025-9-5T0:40:32Z</time></trkpt>
<trkpt lat="46.16627" lon="7.36338"><ele></ele><time>2025-9-5T0:40:35Z</time></trkpt>
<trkpt lat="46.16627" lon="7.36338"><ele></ele><time>2025-9-5T0:40:38Z</time></trkpt>
<trkpt lat="46.16628" lon="7.36338"><ele></ele><time>2025-9-5T0:40:41Z</time></trkpt>
<trkpt lat="46.16628" lon="7.36338"><ele></ele><time>2025-9-5T0:40:44Z</time></trkpt>
<trkpt lat="46.16628" lon="7.36337"><ele></ele><time>2025-9-5T0:40:47Z</time></trkpt>
<trkpt lat="46.16628" lon="7.36337"><ele></ele><time>2025-9-5T0:40:50Z</time></trkpt>
<trkpt lat="46.16627" lon="7.36337"><ele></ele><time>2025-9-5T0:40:53Z</time></trkpt>
<trkpt lat="46.16628" lon="7.36337"><ele></ele><time>2025-9-5T0:40:56Z</time></trkpt>
<trkpt lat="46.16628" lon="7.36338"><ele></ele><time>2025-9-5T0:40:59Z</time></trkpt>
<trkpt lat="46.16627" lon="7.36338"><ele></ele><time>2025-9-5T0:41:2Z</time></trkpt>
<trkpt lat="46.16627" lon="7.36338"><ele></ele><time>2025-9-5T0:41:5Z</time></trkpt>
<trkpt lat="46.16627" lon="7.36338"><ele></ele><time>2025-9-5T0:41:8Z</time></trkpt>
<trkpt lat="46.16627" lon="7.36338"><ele></ele><time>2025-9-5T0:41:11Z</time></trkpt>
<trkpt lat="46.16627" lon="7.36338"><ele></ele><time>2025-9-5T0:41:14Z</time></trkpt>
<trkpt lat="46.16627" lon="7.36338"><ele></ele><time>2025-9-5T0:41:17Z</time></trkpt>
<trkpt lat="46.16627" lon="7.36338"><ele></ele><time>2025-9-5T0:41:20Z</time></trkpt>
<trkpt lat="46.16627" lon="7.36338"><ele></ele><time>2025-9-5T0:41:23Z</time></trkpt>
<trkpt lat="46.16627" lon="7.36338"><ele></ele><time>2025-9-5T0:41:26Z</time></trkpt>
<trkpt lat="46.16627" lon="7.36338"><ele></ele><time>2025-9-5T0:41:29Z</time></trkpt>
<trkpt lat="46.16627" lon="7.36338"><ele></ele><time>2025-9-5T0:41:32Z</time></trkpt>
<trkpt lat="46.16627" lon="7.36339"><ele></ele><time>2025-9-5T0:41:35Z</time></trkpt>
<trkpt lat="46.16628" lon="7.36339"><ele></ele><time>2025-9-5T0:41:38Z</time></trkpt>
<trkpt lat="46.16628" lon="7.36339"><ele></ele><time>2025-9-5T0:41:41Z</time></trkpt>
<trkpt lat="46.16628" lon="7.36339"><ele></ele><time>2025-9-5T0:41:44Z</time></trkpt>
<trkpt lat="46.16628" lon="7.36339"><ele></ele><time>2025-9-5T0:41:47Z</time></trkpt>
<trkpt lat="46.16628" lon="7.36339"><ele></ele><time>2025-9-5T0:41:50Z</time></trkpt>
<trkpt lat="46.16628" lon="7.36339"><ele></ele><time>2025-9-5T0:41:53Z</time></trkpt>
<trkpt lat="46.16628" lon="7.36339"><ele></ele><time>2025-9-5T0:41:56Z</time></trkpt>
<trkpt lat="46.16628" lon="7.36339"><ele></ele><time>2025-9-5T0:41:59Z</time></trkpt>
<trkpt lat="46.16628" lon="7.36339"><ele></ele><time>2025-9-5T0:42:2Z</time></trkpt>
<trkpt lat="46.16628" lon="7.36338"><ele></ele><time>2025-9-5T0:42:5Z</time></trkpt>
<trkpt lat="46.16628" lon="7.36339"><ele></ele><time>2025-9-5T0:42:8Z</time></trkpt>
<trkpt lat="46.16628" lon="7.36337"><ele></ele><time>2025-9-5T0:42:11Z</time></trkpt>
<trkpt lat="46.16627" lon="7.3634"><ele></ele><time>2025-9-5T0:42:14Z</time></trkpt>
<trkpt lat="46.16627" lon="7.36339"><ele></ele><time>2025-9-5T0:42:17Z</time></trkpt>
<trkpt lat="46.16627" lon="7.36341"><ele></ele><time>2025-9-5T0:42:20Z</time></trkpt>
<trkpt lat="46.16627" lon="7.36341"><ele></ele><time>2025-9-5T0:42:23Z</time></trkpt>
<trkpt lat="46.16627" lon="7.36341"><ele></ele><time>2025-9-5T0:42:26Z</time></trkpt>
<trkpt lat="46.16627" lon="7.36341"><ele></ele><time>2025-9-5T0:42:29Z</time></trkpt>
<trkpt lat="46.16627" lon="7.36338"><ele></ele><time>2025-9-5T0:42:32Z</time></trkpt>
<trkpt lat="46.16627" lon="7.36337"><ele></ele><time>2025-9-5T0:42:35Z</time></trkpt>
<trkpt lat="46.16627" lon="7.3634"><ele></ele><time>2025-9-5T0:42:38Z</time></trkpt>
<trkpt lat="46.16627" lon="7.36341"><ele></ele><time>2025-9-5T0:42:41Z</time></trkpt>
<trkpt lat="46.16627" lon="7.3634"><ele></ele><time>2025-9-5T0:42:44Z</time></trkpt>
<trkpt lat="46.16627" lon="7.36339"><ele></ele><time>2025-9-5T0:42:47Z</time></trkpt>
<trkpt lat="46.16628" lon="7.36343"><ele></ele><time>2025-9-5T0:42:50Z</time></trkpt>
<trkpt lat="46.16628" lon="7.36343"><ele></ele><time>2025-9-5T0:42:53Z</time></trkpt>
<trkpt lat="46.16629" lon="7.36345"><ele></ele><time>2025-9-5T0:42:56Z</time></trkpt>
<trkpt lat="46.16629" lon="7.36346"><ele></ele><time>2025-9-5T0:42:59Z</time></trkpt>
<trkpt lat="46.16629" lon="7.36346"><ele></ele><time>2025-9-5T0:43:2Z</time></trkpt>
<trkpt lat="46.16629" lon="7.36346"><ele></ele><time>2025-9-5T0:43:5Z</time></trkpt>
<trkpt lat="46.16633" lon="7.36349"><ele></ele><time>2025-9-5T0:43:8Z</time></trkpt>
<trkpt lat="46.16635" lon="7.36351"><ele></ele><time>2025-9-5T0:43:11Z</time></trkpt>
<trkpt lat="46.16637" lon="7.36353"><ele></ele><time>2025-9-5T0:43:14Z</time></trkpt>
<trkpt lat="46.16638" lon="7.36354"><ele></ele><time>2025-9-5T0:43:17Z</time></trkpt>
<trkpt lat="46.16643" lon="7.36358"><ele></ele><time>2025-9-5T0:43:20Z</time></trkpt>
<trkpt lat="46.16647" lon="7.36362"><ele></ele><time>2025-9-5T0:43:23Z</time></trkpt>
<trkpt lat="46.16648" lon="7.36363"><ele></ele><time>2025-9-5T0:43:26Z</time></trkpt>
<trkpt lat="46.1665" lon="7.36366"><ele></ele><time>2025-9-5T0:43:29Z</time></trkpt>
<trkpt lat="46.16651" lon="7.36368"><ele></ele><time>2025-9-5T0:43:32Z</time></trkpt>
<trkpt lat="46.16652" lon="7.36368"><ele></ele><time>2025-9-5T0:43:35Z</time></trkpt>
<trkpt lat="46.16653" lon="7.36374"><ele></ele><time>2025-9-5T0:43:38Z</time></trkpt>
<trkpt lat="46.16654" lon="7.3638"><ele></ele><time>2025-9-5T0:43:41Z</time></trkpt>
<trkpt lat="46.16654" lon="7.3638"><ele></ele><time>2025-9-5T0:43:44Z</time></trkpt>
<trkpt lat="46.16653" lon="7.36383"><ele></ele><time>2025-9-5T0:43:47Z</time></trkpt>
<trkpt lat="46.16651" lon="7.36387"><ele></ele><time>2025-9-5T0:43:50Z</time></trkpt>
<trkpt lat="46.16651" lon="7.36387"><ele></ele><time>2025-9-5T0:43:53Z</time></trkpt>
<trkpt lat="46.16648" lon="7.3639"><ele></ele><time>2025-9-5T0:43:56Z</time></trkpt>
<trkpt lat="46.16643" lon="7.36394"><ele></ele><time>2025-9-5T0:43:59Z</time></trkpt>
<trkpt lat="46.16639" lon="7.36397"><ele></ele><time>2025-9-5T0:44:2Z</time></trkpt>
<trkpt lat="46.16638" lon="7.36398"><ele></ele><time>2025-9-5T0:44:5Z</time></trkpt>
<trkpt lat="46.16636" lon="7.364"><ele></ele><time>2025-9-5T0:44:8Z</time></trkpt>
<trkpt lat="46.16635" lon="7.36401"><ele></ele><time>2025-9-5T0:44:11Z</time></trkpt>
<trkpt lat="46.16631" lon="7.36404"><ele></ele><time>2025-9-5T0:44:14Z</time></trkpt>
<trkpt lat="46.16628" lon="7.3641"><ele></ele><time>2025-9-5T0:44:17Z</time></trkpt>
<trkpt lat="46.16624" lon="7.36414"><ele></ele><time>2025-9-5T0:44:20Z</time></trkpt>
<trkpt lat="46.16621" lon="7.36415"><ele></ele><time>2025-9-5T0:44:23Z</time></trkpt>
<trkpt lat="46.1662" lon="7.36416"><ele></ele><time>2025-9-5T0:44:26Z</time></trkpt>
<trkpt lat="46.16617" lon="7.36419"><ele></ele><time>2025-9-5T0:44:29Z</time></trkpt>
<trkpt lat="46.16616" lon="7.36419"><ele></ele><time>2025-9-5T0:44:32Z</time></trkpt>
<trkpt lat="46.16613" lon="7.3642"><ele></ele><time>2025-9-5T0:44:35Z</time></trkpt>
<trkpt lat="46.16612" lon="7.3642"><ele></ele><time>2025-9-5T0:44:38Z</time></trkpt>
<trkpt lat="46.16607" lon="7.36419"><ele></ele><time>2025-9-5T0:44:41Z</time></trkpt>
<trkpt lat="46.16603" lon="7.3642"><ele></ele><time>2025-9-5T0:44:44Z</time></trkpt>
<trkpt lat="46.16598" lon="7.36419"><ele></ele><time>2025-9-5T0:44:47Z</time></trkpt>
<trkpt lat="46.16596" lon="7.36418"><ele></ele><time>2025-9-5T0:44:50Z</time></trkpt>
<trkpt lat="46.16594" lon="7.36417"><ele></ele><time>2025-9-5T0:44:53Z</time></trkpt>
<trkpt lat="46.16589" lon="7.36414"><ele></ele><time>2025-9-5T0:44:56Z</time></trkpt>
<trkpt lat="46.16582" lon="7.36413"><ele></ele><time>2025-9-5T0:44:59Z</time></trkpt>
<trkpt lat="46.1658" lon="7.36412"><ele></ele><time>2025-9-5T0:45:2Z</time></trkpt>
<trkpt lat="46.16577" lon="7.36412"><ele></ele><time>2025-9-5T0:45:5Z</time></trkpt>
<trkpt lat="46.16574" lon="7.36413"><ele></ele><time>2025-9-5T0:45:8Z</time></trkpt>
<trkpt lat="46.16571" lon="7.36412"><ele></ele><time>2025-9-5T0:45:11Z</time></trkpt>
<trkpt lat="46.1657" lon="7.36412"><ele></ele><time>2025-9-5T0:45:14Z</time></trkpt>
<trkpt lat="46.16566" lon="7.36414"><ele></ele><time>2025-9-5T0:45:17Z</time></trkpt>
<trkpt lat="46.16563" lon="7.36414"><ele></ele><time>2025-9-5T0:45:20Z</time></trkpt>
<trkpt lat="46.1656" lon="7.36414"><ele></ele><time>2025-9-5T0:45:23Z</time></trkpt>
<trkpt lat="46.16559" lon="7.36413"><ele></ele><time>2025-9-5T0:45:26Z</time></trkpt>
<trkpt lat="46.16556" lon="7.36412"><ele></ele><time>2025-9-5T0:45:29Z</time></trkpt>
<trkpt lat="46.16553" lon="7.3641"><ele></ele><time>2025-9-5T0:45:32Z</time></trkpt>
<trkpt lat="46.16553" lon="7.36407"><ele></ele><time>2025-9-5T0:45:35Z</time></trkpt>
<trkpt lat="46.16552" lon="7.36404"><ele></ele><time>2025-9-5T0:45:38Z</time></trkpt>
<trkpt lat="46.16551" lon="7.36404"><ele></ele><time>2025-9-5T0:45:41Z</time></trkpt>
<trkpt lat="46.1655" lon="7.36404"><ele></ele><time>2025-9-5T0:45:44Z</time></trkpt>
<trkpt lat="46.16548" lon="7.36404"><ele></ele><time>2025-9-5T0:45:47Z</time></trkpt>
<trkpt lat="46.16547" lon="7.36407"><ele></ele><time>2025-9-5T0:45:50Z</time></trkpt>
<trkpt lat="46.16548" lon="7.3641"><ele></ele><time>2025-9-5T0:45:53Z</time></trkpt>
<trkpt lat="46.16549" lon="7.36412"><ele></ele><time>2025-9-5T0:45:56Z</time></trkpt>
<trkpt lat="46.1655" lon="7.36413"><ele></ele><time>2025-9-5T0:45:59Z</time></trkpt>
<trkpt lat="46.16551" lon="7.36416"><ele></ele><time>2025-9-5T0:46:2Z</time></trkpt>
<trkpt lat="46.16552" lon="7.36417"><ele></ele><time>2025-9-5T0:46:5Z</time></trkpt>
<trkpt lat="46.16554" lon="7.36419"><ele></ele><time>2025-9-5T0:46:8Z</time></trkpt>
<trkpt lat="46.16555" lon="7.36423"><ele></ele><time>2025-9-5T0:46:11Z</time></trkpt>
<trkpt lat="46.16555" lon="7.36423"><ele></ele><time>2025-9-5T0:46:14Z</time></trkpt>
<trkpt lat="46.16555" lon="7.36423"><ele></ele><time>2025-9-5T0:46:17Z</time></trkpt>
<trkpt lat="46.16559" lon="7.36429"><ele></ele><time>2025-9-5T0:46:20Z</time></trkpt>
<trkpt lat="46.16559" lon="7.3643"><ele></ele><time>2025-9-5T0:46:23Z</time></trkpt>
<trkpt lat="46.16562" lon="7.36434"><ele></ele><time>2025-9-5T0:46:26Z</time></trkpt>
<trkpt lat="46.16566" lon="7.36439"><ele></ele><time>2025-9-5T0:46:29Z</time></trkpt>
<trkpt lat="46.16566" lon="7.3644"><ele></ele><time>2025-9-5T0:46:32Z</time></trkpt>
<trkpt lat="46.16568" lon="7.36442"><ele></ele><time>2025-9-5T0:46:35Z</time></trkpt>
<trkpt lat="46.16569" lon="7.36443"><ele></ele><time>2025-9-5T0:46:38Z</time></trkpt>
<trkpt lat="46.1657" lon="7.36446"><ele></ele><time>2025-9-5T0:46:41Z</time></trkpt>
<trkpt lat="46.16571" lon="7.36447"><ele></ele><time>2025-9-5T0:46:44Z</time></trkpt>
<trkpt lat="46.16573" lon="7.36451"><ele></ele><time>2025-9-5T0:46:47Z</time></trkpt>
<trkpt lat="46.16574" lon="7.36452"><ele></ele><time>2025-9-5T0:46:50Z</time></trkpt>
<trkpt lat="46.16576" lon="7.36456"><ele></ele><time>2025-9-5T0:46:53Z</time></trkpt>
<trkpt lat="46.16576" lon="7.36458"><ele></ele><time>2025-9-5T0:46:56Z</time></trkpt>
<trkpt lat="46.16578" lon="7.3646"><ele></ele><time>2025-9-5T0:46:59Z</time></trkpt>
<trkpt lat="46.16579" lon="7.36463"><ele></ele><time>2025-9-5T0:47:2Z</time></trkpt>
<trkpt lat="46.1658" lon="7.36465"><ele></ele><time>2025-9-5T0:47:5Z</time></trkpt>
<trkpt lat="46.1658" lon="7.36468"><ele></ele><time>2025-9-5T0:47:8Z</time></trkpt>
<trkpt lat="46.1658" lon="7.3647"><ele></ele><time>2025-9-5T0:47:11Z</time></trkpt>
<trkpt lat="46.16581" lon="7.36471"><ele></ele><time>2025-9-5T0:47:14Z</time></trkpt>
<trkpt lat="46.16583" lon="7.36474"><ele></ele><time>2025-9-5T0:47:17Z</time></trkpt>
<trkpt lat="46.16583" lon="7.36474"><ele></ele><time>2025-9-5T0:47:20Z</time></trkpt>
<trkpt lat="46.16586" lon="7.36476"><ele></ele><time>2025-9-5T0:47:23Z</time></trkpt>
<trkpt lat="46.16587" lon="7.36476"><ele></ele><time>2025-9-5T0:47:26Z</time></trkpt>
<trkpt lat="46.1659" lon="7.36479"><ele></ele><time>2025-9-5T0:47:29Z</time></trkpt>
<trkpt lat="46.16593" lon="7.36483"><ele></ele><time>2025-9-5T0:47:32Z</time></trkpt>
<trkpt lat="46.16595" lon="7.36486"><ele></ele><time>2025-9-5T0:47:35Z</time></trkpt>
<trkpt lat="46.16598" lon="7.36489"><ele></ele><time>2025-9-5T0:47:38Z</time></trkpt>
<trkpt lat="46.16599" lon="7.36489"><ele></ele><time>2025-9-5T0:47:41Z</time></trkpt>
<trkpt lat="46.16599" lon="7.36491"><ele></ele><time>2025-9-5T0:47:44Z</time></trkpt>
<trkpt lat="46.16601" lon="7.36493"><ele></ele><time>2025-9-5T0:47:47Z</time></trkpt>
<trkpt lat="46.16602" lon="7.36495"><ele></ele><time>2025-9-5T0:47:50Z</time></trkpt>
<trkpt lat="46.16604" lon="7.36496"><ele></ele><time>2025-9-5T0:47:53Z</time></trkpt>
<trkpt lat="46.16604" lon="7.36497"><ele></ele><time>2025-9-5T0:47:56Z</time></trkpt>
<trkpt lat="46.16606" lon="7.365"><ele></ele><time>2025-9-5T0:47:59Z</time></trkpt>
<trkpt lat="46.16606" lon="7.365"><ele></ele><time>2025-9-5T0:48:2Z</time></trkpt>
<trkpt lat="46.16609" lon="7.36502"><ele></ele><time>2025-9-5T0:48:5Z</time></trkpt>
<trkpt lat="46.1661" lon="7.36502"><ele></ele><time>2025-9-5T0:48:8Z</time></trkpt>
<trkpt lat="46.16612" lon="7.36505"><ele></ele><time>2025-9-5T0:48:11Z</time></trkpt>
<trkpt lat="46.16613" lon="7.36506"><ele></ele><time>2025-9-5T0:48:14Z</time></trkpt>
<trkpt lat="46.16615" lon="7.36507"><ele></ele><time>2025-9-5T0:48:17Z</time></trkpt>
<trkpt lat="46.16615" lon="7.36507"><ele></ele><time>2025-9-5T0:48:20Z</time></trkpt>
<trkpt lat="46.16617" lon="7.3651"><ele></ele><time>2025-9-5T0:48:23Z</time></trkpt>
<trkpt lat="46.16619" lon="7.36512"><ele></ele><time>2025-9-5T0:48:26Z</time></trkpt>
<trkpt lat="46.1662" lon="7.36513"><ele></ele><time>2025-9-5T0:48:29Z</time></trkpt>
<trkpt lat="46.16622" lon="7.36516"><ele></ele><time>2025-9-5T0:48:32Z</time></trkpt>
<trkpt lat="46.16623" lon="7.36517"><ele></ele><time>2025-9-5T0:48:35Z</time></trkpt>
<trkpt lat="46.16625" lon="7.3652"><ele></ele><time>2025-9-5T0:48:38Z</time></trkpt>
<trkpt lat="46.16626" lon="7.36521"><ele></ele><time>2025-9-5T0:48:41Z</time></trkpt>
<trkpt lat="46.16628" lon="7.36522"><ele></ele><time>2025-9-5T0:48:44Z</time></trkpt>
<trkpt lat="46.16629" lon="7.36523"><ele></ele><time>2025-9-5T0:48:47Z</time></trkpt>
<trkpt lat="46.16631" lon="7.36526"><ele></ele><time>2025-9-5T0:48:50Z</time></trkpt>
<trkpt lat="46.16632" lon="7.36527"><ele></ele><time>2025-9-5T0:48:53Z</time></trkpt>
<trkpt lat="46.16635" lon="7.3653"><ele></ele><time>2025-9-5T0:48:56Z</time></trkpt>
<trkpt lat="46.16636" lon="7.36532"><ele></ele><time>2025-9-5T0:48:59Z</time></trkpt>
<trkpt lat="46.16638" lon="7.36533"><ele></ele><time>2025-9-5T0:49:2Z</time></trkpt>
<trkpt lat="46.16639" lon="7.36535"><ele></ele><time>2025-9-5T0:49:5Z</time></trkpt>
<trkpt lat="46.1664" lon="7.36535"><ele></ele><time>2025-9-5T0:49:8Z</time></trkpt>
<trkpt lat="46.16643" lon="7.36538"><ele></ele><time>2025-9-5T0:49:11Z</time></trkpt>
<trkpt lat="46.16645" lon="7.36539"><ele></ele><time>2025-9-5T0:49:14Z</time></trkpt>
<trkpt lat="46.16646" lon="7.36541"><ele></ele><time>2025-9-5T0:49:17Z</time></trkpt>
<trkpt lat="46.16648" lon="7.36542"><ele></ele><time>2025-9-5T0:49:20Z</time></trkpt>
<trkpt lat="46.1665" lon="7.36546"><ele></ele><time>2025-9-5T0:49:23Z</time></trkpt>
<trkpt lat="46.1665" lon="7.36546"><ele></ele><time>2025-9-5T0:49:26Z</time></trkpt>
<trkpt lat="46.16654" lon="7.3655"><ele></ele><time>2025-9-5T0:49:29Z</time></trkpt>
<trkpt lat="46.16655" lon="7.36551"><ele></ele><time>2025-9-5T0:49:32Z</time></trkpt>
<trkpt lat="46.16656" lon="7.36554"><ele></ele><time>2025-9-5T0:49:35Z</time></trkpt>
<trkpt lat="46.16657" lon="7.36555"><ele></ele><time>2025-9-5T0:49:38Z</time></trkpt>
<trkpt lat="46.16659" lon="7.36558"><ele></ele><time>2025-9-5T0:49:41Z</time></trkpt>
<trkpt lat="46.16659" lon="7.36558"><ele></ele><time>2025-9-5T0:49:44Z</time></trkpt>
<trkpt lat="46.16662" lon="7.36562"><ele></ele><time>2025-9-5T0:49:47Z</time></trkpt>
<trkpt lat="46.16662" lon="7.36563"><ele></ele><time>2025-9-5T0:49:50Z</time></trkpt>
<trkpt lat="46.16664" lon="7.36565"><ele></ele><time>2025-9-5T0:49:53Z</time></trkpt>
<trkpt lat="46.16665" lon="7.36566"><ele></ele><time>2025-9-5T0:49:56Z</time></trkpt>
<trkpt lat="46.16666" lon="7.3657"><ele></ele><time>2025-9-5T0:49:59Z</time></trkpt>
<trkpt lat="46.16667" lon="7.36571"><ele></ele><time>2025-9-5T0:50:2Z</time></trkpt>
<trkpt lat="46.16669" lon="7.36574"><ele></ele><time>2025-9-5T0:50:5Z</time></trkpt>
<trkpt lat="46.16671" lon="7.36575"><ele></ele><time>2025-9-5T0:50:8Z</time></trkpt>
<trkpt lat="46.16673" lon="7.36577"><ele></ele><time>2025-9-5T0:50:11Z</time></trkpt>
<trkpt lat="46.16674" lon="7.36578"><ele></ele><time>2025-9-5T0:50:14Z</time></trkpt>
<trkpt lat="46.16678" lon="7.36578"><ele></ele><time>2025-9-5T0:50:17Z</time></trkpt>
<trkpt lat="46.16679" lon="7.36578"><ele></ele><time>2025-9-5T0:50:20Z</time></trkpt>
<trkpt lat="46.16679" lon="7.36578"><ele></ele><time>2025-9-5T0:50:23Z</time></trkpt>
<trkpt lat="46.16679" lon="7.36578"><ele></ele><time>2025-9-5T0:50:26Z</time></trkpt>
<trkpt lat="46.16679" lon="7.36578"><ele></ele><time>2025-9-5T0:50:29Z</time></trkpt>
<trkpt lat="46.16679" lon="7.36578"><ele></ele><time>2025-9-5T0:50:32Z</time></trkpt>
<trkpt lat="46.16679" lon="7.36578"><ele></ele><time>2025-9-5T0:50:35Z</time></trkpt>
<trkpt lat="46.16679" lon="7.36578"><ele></ele><time>2025-9-5T0:50:38Z</time></trkpt>
<trkpt lat="46.16679" lon="7.36578"><ele></ele><time>2025-9-5T0:50:41Z</time></trkpt>
<trkpt lat="46.16678" lon="7.3658"><ele></ele><time>2025-9-5T0:50:44Z</time></trkpt>
<trkpt lat="46.16678" lon="7.36583"><ele></ele><time>2025-9-5T0:50:47Z</time></trkpt>
<trkpt lat="46.16681" lon="7.36586"><ele></ele><time>2025-9-5T0:50:50Z</time></trkpt>
<trkpt lat="46.16685" lon="7.3659"><ele></ele><time>2025-9-5T0:50:53Z</time></trkpt>
<trkpt lat="46.16685" lon="7.3659"><ele></ele><time>2025-9-5T0:50:56Z</time></trkpt>
<trkpt lat="46.16689" lon="7.36593"><ele></ele><time>2025-9-5T0:50:59Z</time></trkpt>
<trkpt lat="46.1669" lon="7.36594"><ele></ele><time>2025-9-5T0:51:2Z</time></trkpt>
<trkpt lat="46.16693" lon="7.36596"><ele></ele><time>2025-9-5T0:51:5Z</time></trkpt>
<trkpt lat="46.16693" lon="7.36597"><ele></ele><time>2025-9-5T0:51:8Z</time></trkpt>
<trkpt lat="46.16699" lon="7.366"><ele></ele><time>2025-9-5T0:51:11Z</time></trkpt>
<trkpt lat="46.16703" lon="7.36604"><ele></ele><time>2025-9-5T0:51:14Z</time></trkpt>
<trkpt lat="46.16703" lon="7.36605"><ele></ele><time>2025-9-5T0:51:17Z</time></trkpt>
<trkpt lat="46.16707" lon="7.36607"><ele></ele><time>2025-9-5T0:51:20Z</time></trkpt>
<trkpt lat="46.16706" lon="7.36607"><ele></ele><time>2025-9-5T0:51:23Z</time></trkpt>
<trkpt lat="46.16708" lon="7.36608"><ele></ele><time>2025-9-5T0:51:26Z</time></trkpt>
<trkpt lat="46.16709" lon="7.36608"><ele></ele><time>2025-9-5T0:51:29Z</time></trkpt>
<trkpt lat="46.16713" lon="7.3661"><ele></ele><time>2025-9-5T0:51:32Z</time></trkpt>
<trkpt lat="46.16714" lon="7.36614"><ele></ele><time>2025-9-5T0:51:35Z</time></trkpt>
<trkpt lat="46.16716" lon="7.36618"><ele></ele><time>2025-9-5T0:51:38Z</time></trkpt>
<trkpt lat="46.16717" lon="7.36619"><ele></ele><time>2025-9-5T0:51:41Z</time></trkpt>
<trkpt lat="46.16718" lon="7.36619"><ele></ele><time>2025-9-5T0:51:44Z</time></trkpt>
<trkpt lat="46.16721" lon="7.36621"><ele></ele><time>2025-9-5T0:51:47Z</time></trkpt>
<trkpt lat="46.16723" lon="7.36623"><ele></ele><time>2025-9-5T0:51:50Z</time></trkpt>
<trkpt lat="46.16725" lon="7.36625"><ele></ele><time>2025-9-5T0:51:53Z</time></trkpt>
<trkpt lat="46.16727" lon="7.36626"><ele></ele><time>2025-9-5T0:51:56Z</time></trkpt>
<trkpt lat="46.16732" lon="7.36628"><ele></ele><time>2025-9-5T0:51:59Z</time></trkpt>
<trkpt lat="46.16737" lon="7.36631"><ele></ele><time>2025-9-5T0:52:2Z</time></trkpt>
<trkpt lat="46.16739" lon="7.3663"><ele></ele><time>2025-9-5T0:52:5Z</time></trkpt>
<trkpt lat="46.1674" lon="7.36631"><ele></ele><time>2025-9-5T0:52:8Z</time></trkpt>
<trkpt lat="46.16741" lon="7.36631"><ele></ele><time>2025-9-5T0:52:11Z</time></trkpt>
<trkpt lat="46.16744" lon="7.36633"><ele></ele><time>2025-9-5T0:52:14Z</time></trkpt>
<trkpt lat="46.16745" lon="7.36633"><ele></ele><time>2025-9-5T0:52:17Z</time></trkpt>
<trkpt lat="46.16748" lon="7.36634"><ele></ele><time>2025-9-5T0:52:20Z</time></trkpt>
<trkpt lat="46.16751" lon="7.36635"><ele></ele><time>2025-9-5T0:52:23Z</time></trkpt>
<trkpt lat="46.16753" lon="7.36634"><ele></ele><time>2025-9-5T0:52:26Z</time></trkpt>
<trkpt lat="46.16756" lon="7.36634"><ele></ele><time>2025-9-5T0:52:29Z</time></trkpt>
<trkpt lat="46.16759" lon="7.36636"><ele></ele><time>2025-9-5T0:52:32Z</time></trkpt>
<trkpt lat="46.16762" lon="7.36635"><ele></ele><time>2025-9-5T0:52:35Z</time></trkpt>
<trkpt lat="46.16763" lon="7.36636"><ele></ele><time>2025-9-5T0:52:38Z</time></trkpt>
<trkpt lat="46.16766" lon="7.36636"><ele></ele><time>2025-9-5T0:52:41Z</time></trkpt>
<trkpt lat="46.16769" lon="7.36635"><ele></ele><time>2025-9-5T0:52:44Z</time></trkpt>
<trkpt lat="46.16771" lon="7.36634"><ele></ele><time>2025-9-5T0:52:47Z</time></trkpt>
<trkpt lat="46.16773" lon="7.36633"><ele></ele><time>2025-9-5T0:52:50Z</time></trkpt>
<trkpt lat="46.16777" lon="7.36633"><ele></ele><time>2025-9-5T0:52:53Z</time></trkpt>
<trkpt lat="46.16778" lon="7.36632"><ele></ele><time>2025-9-5T0:52:56Z</time></trkpt>
<trkpt lat="46.16779" lon="7.36632"><ele></ele><time>2025-9-5T0:52:59Z</time></trkpt>
<trkpt lat="46.1678" lon="7.36631"><ele></ele><time>2025-9-5T0:53:2Z</time></trkpt>
<trkpt lat="46.16783" lon="7.36629"><ele></ele><time>2025-9-5T0:53:5Z</time></trkpt>
<trkpt lat="46.16784" lon="7.36629"><ele></ele><time>2025-9-5T0:53:8Z</time></trkpt>
<trkpt lat="46.16789" lon="7.36627"><ele></ele><time>2025-9-5T0:53:11Z</time></trkpt>
<trkpt lat="46.16791" lon="7.36622"><ele></ele><time>2025-9-5T0:53:14Z</time></trkpt>
<trkpt lat="46.16794" lon="7.3662"><ele></ele><time>2025-9-5T0:53:17Z</time></trkpt>
<trkpt lat="46.16799" lon="7.36618"><ele></ele><time>2025-9-5T0:53:20Z</time></trkpt>
<trkpt lat="46.16802" lon="7.36617"><ele></ele><time>2025-9-5T0:53:23Z</time></trkpt>
<trkpt lat="46.16806" lon="7.36616"><ele></ele><time>2025-9-5T0:53:26Z</time></trkpt>
<trkpt lat="46.16807" lon="7.36616"><ele></ele><time>2025-9-5T0:53:29Z</time></trkpt>
<trkpt lat="46.16813" lon="7.36618"><ele></ele><time>2025-9-5T0:53:32Z</time></trkpt>
<trkpt lat="46.16814" lon="7.36618"><ele></ele><time>2025-9-5T0:53:35Z</time></trkpt>
<trkpt lat="46.16816" lon="7.36619"><ele></ele><time>2025-9-5T0:53:38Z</time></trkpt>
<trkpt lat="46.16818" lon="7.36619"><ele></ele><time>2025-9-5T0:53:41Z</time></trkpt>
<trkpt lat="46.16822" lon="7.36624"><ele></ele><time>2025-9-5T0:53:44Z</time></trkpt>
<trkpt lat="46.16822" lon="7.36625"><ele></ele><time>2025-9-5T0:53:47Z</time></trkpt>
<trkpt lat="46.16826" lon="7.3663"><ele></ele><time>2025-9-5T0:53:50Z</time></trkpt>
<trkpt lat="46.16831" lon="7.36635"><ele></ele><time>2025-9-5T0:53:53Z</time></trkpt>
<trkpt lat="46.16831" lon="7.36636"><ele></ele><time>2025-9-5T0:53:56Z</time></trkpt>
<trkpt lat="46.16837" lon="7.36642"><ele></ele><time>2025-9-5T0:53:59Z</time></trkpt>
<trkpt lat="46.1684" lon="7.36644"><ele></ele><time>2025-9-5T0:54:2Z</time></trkpt>
<trkpt lat="46.16842" lon="7.36647"><ele></ele><time>2025-9-5T0:54:5Z</time></trkpt>
<trkpt lat="46.16847" lon="7.36651"><ele></ele><time>2025-9-5T0:54:8Z</time></trkpt>
<trkpt lat="46.16851" lon="7.36654"><ele></ele><time>2025-9-5T0:54:11Z</time></trkpt>
<trkpt lat="46.16855" lon="7.36658"><ele></ele><time>2025-9-5T0:54:14Z</time></trkpt>
<trkpt lat="46.16857" lon="7.3666"><ele></ele><time>2025-9-5T0:54:17Z</time></trkpt>
<trkpt lat="46.16858" lon="7.36662"><ele></ele><time>2025-9-5T0:54:20Z</time></trkpt>
<trkpt lat="46.1686" lon="7.36663"><ele></ele><time>2025-9-5T0:54:23Z</time></trkpt>
<trkpt lat="46.16861" lon="7.36665"><ele></ele><time>2025-9-5T0:54:26Z</time></trkpt>
<trkpt lat="46.16863" lon="7.36666"><ele></ele><time>2025-9-5T0:54:29Z</time></trkpt>
<trkpt lat="46.16868" lon="7.36668"><ele></ele><time>2025-9-5T0:54:32Z</time></trkpt>
<trkpt lat="46.16872" lon="7.36673"><ele></ele><time>2025-9-5T0:54:35Z</time></trkpt>
<trkpt lat="46.16877" lon="7.36674"><ele></ele><time>2025-9-5T0:54:38Z</time></trkpt>
<trkpt lat="46.16879" lon="7.36675"><ele></ele><time>2025-9-5T0:54:41Z</time></trkpt>
<trkpt lat="46.16887" lon="7.3668"><ele></ele><time>2025-9-5T0:54:44Z</time></trkpt>
<trkpt lat="46.16891" lon="7.36682"><ele></ele><time>2025-9-5T0:54:47Z</time></trkpt>
<trkpt lat="46.16898" lon="7.36687"><ele></ele><time>2025-9-5T0:54:50Z</time></trkpt>
<trkpt lat="46.169" lon="7.36688"><ele></ele><time>2025-9-5T0:54:53Z</time></trkpt>
<trkpt lat="46.16905" lon="7.36693"><ele></ele><time>2025-9-5T0:54:56Z</time></trkpt>
<trkpt lat="46.16911" lon="7.36698"><ele></ele><time>2025-9-5T0:54:59Z</time></trkpt>
<trkpt lat="46.16912" lon="7.36699"><ele></ele><time>2025-9-5T0:55:2Z</time></trkpt>
<trkpt lat="46.16919" lon="7.36707"><ele></ele><time>2025-9-5T0:55:5Z</time></trkpt>
<trkpt lat="46.16922" lon="7.36709"><ele></ele><time>2025-9-5T0:55:8Z</time></trkpt>
<trkpt lat="46.16922" lon="7.36711"><ele></ele><time>2025-9-5T0:55:11Z</time></trkpt>
<trkpt lat="46.16927" lon="7.3672"><ele></ele><time>2025-9-5T0:55:14Z</time></trkpt>
<trkpt lat="46.16933" lon="7.36728"><ele></ele><time>2025-9-5T0:55:17Z</time></trkpt>
<trkpt lat="46.16935" lon="7.3673"><ele></ele><time>2025-9-5T0:55:20Z</time></trkpt>
<trkpt lat="46.16939" lon="7.36735"><ele></ele><time>2025-9-5T0:55:23Z</time></trkpt>
<trkpt lat="46.16943" lon="7.36739"><ele></ele><time>2025-9-5T0:55:26Z</time></trkpt>
<trkpt lat="46.16946" lon="7.36742"><ele></ele><time>2025-9-5T0:55:29Z</time></trkpt>
<trkpt lat="46.16951" lon="7.36747"><ele></ele><time>2025-9-5T0:55:32Z</time></trkpt>
<trkpt lat="46.16952" lon="7.36748"><ele></ele><time>2025-9-5T0:55:35Z</time></trkpt>
<trkpt lat="46.16958" lon="7.36752"><ele></ele><time>2025-9-5T0:55:38Z</time></trkpt>
<trkpt lat="46.16963" lon="7.36755"><ele></ele><time>2025-9-5T0:55:41Z</time></trkpt>
<trkpt lat="46.16965" lon="7.36758"><ele></ele><time>2025-9-5T0:55:44Z</time></trkpt>
<trkpt lat="46.16966" lon="7.36758"><ele></ele><time>2025-9-5T0:55:47Z</time></trkpt>
<trkpt lat="46.16969" lon="7.36758"><ele></ele><time>2025-9-5T0:55:50Z</time></trkpt>
<trkpt lat="46.16972" lon="7.36758"><ele></ele><time>2025-9-5T0:55:53Z</time></trkpt>
<trkpt lat="46.16979" lon="7.3676"><ele></ele><time>2025-9-5T0:55:56Z</time></trkpt>
<trkpt lat="46.1698" lon="7.36761"><ele></ele><time>2025-9-5T0:55:59Z</time></trkpt>
<trkpt lat="46.16989" lon="7.36761"><ele></ele><time>2025-9-5T0:56:2Z</time></trkpt>
<trkpt lat="46.16991" lon="7.36762"><ele></ele><time>2025-9-5T0:56:5Z</time></trkpt>
<trkpt lat="46.16999" lon="7.36763"><ele></ele><time>2025-9-5T0:56:8Z</time></trkpt>
<trkpt lat="46.17004" lon="7.36762"><ele></ele><time>2025-9-5T0:56:11Z</time></trkpt>
<trkpt lat="46.17006" lon="7.36762"><ele></ele><time>2025-9-5T0:56:14Z</time></trkpt>
<trkpt lat="46.17015" lon="7.36762"><ele></ele><time>2025-9-5T0:56:17Z</time></trkpt>
<trkpt lat="46.17018" lon="7.36762"><ele></ele><time>2025-9-5T0:56:20Z</time></trkpt>
<trkpt lat="46.17024" lon="7.36762"><ele></ele><time>2025-9-5T0:56:23Z</time></trkpt>
<trkpt lat="46.17031" lon="7.36762"><ele></ele><time>2025-9-5T0:56:26Z</time></trkpt>
<trkpt lat="46.17032" lon="7.36762"><ele></ele><time>2025-9-5T0:56:29Z</time></trkpt>
<trkpt lat="46.17042" lon="7.36763"><ele></ele><time>2025-9-5T0:56:32Z</time></trkpt>
<trkpt lat="46.17045" lon="7.36764"><ele></ele><time>2025-9-5T0:56:35Z</time></trkpt>
<trkpt lat="46.1705" lon="7.36765"><ele></ele><time>2025-9-5T0:56:38Z</time></trkpt>
<trkpt lat="46.1706" lon="7.36764"><ele></ele><time>2025-9-5T0:56:41Z</time></trkpt>
<trkpt lat="46.17064" lon="7.36762"><ele></ele><time>2025-9-5T0:56:44Z</time></trkpt>
<trkpt lat="46.1707" lon="7.36761"><ele></ele><time>2025-9-5T0:56:47Z</time></trkpt>
<trkpt lat="46.17082" lon="7.36764"><ele></ele><time>2025-9-5T0:56:50Z</time></trkpt>
<trkpt lat="46.17083" lon="7.36765"><ele></ele><time>2025-9-5T0:56:53Z</time></trkpt>
<trkpt lat="46.1709" lon="7.36772"><ele></ele><time>2025-9-5T0:56:56Z</time></trkpt>
<trkpt lat="46.17091" lon="7.36778"><ele></ele><time>2025-9-5T0:56:59Z</time></trkpt>
<trkpt lat="46.1709" lon="7.36782"><ele></ele><time>2025-9-5T0:57:2Z</time></trkpt>
<trkpt lat="46.17089" lon="7.36786"><ele></ele><time>2025-9-5T0:57:5Z</time></trkpt>
<trkpt lat="46.17089" lon="7.36789"><ele></ele><time>2025-9-5T0:57:8Z</time></trkpt>
<trkpt lat="46.17089" lon="7.3679"><ele></ele><time>2025-9-5T0:57:11Z</time></trkpt>
<trkpt lat="46.17089" lon="7.3679"><ele></ele><time>2025-9-5T0:57:14Z</time></trkpt>
<trkpt lat="46.17089" lon="7.3679"><ele></ele><time>2025-9-5T0:57:17Z</time></trkpt>
<trkpt lat="46.17089" lon="7.3679"><ele></ele><time>2025-9-5T0:57:20Z</time></trkpt>
<trkpt lat="46.17089" lon="7.3679"><ele></ele><time>2025-9-5T0:57:23Z</time></trkpt>
<trkpt lat="46.17089" lon="7.3679"><ele></ele><time>2025-9-5T0:57:26Z</time></trkpt>
<trkpt lat="46.17089" lon="7.3679"><ele></ele><time>2025-9-5T0:57:29Z</time></trkpt>
<trkpt lat="46.17089" lon="7.3679"><ele></ele><time>2025-9-5T0:57:32Z</time></trkpt>
<trkpt lat="46.17089" lon="7.3679"><ele></ele><time>2025-9-5T0:57:35Z</time></trkpt>
<trkpt lat="46.17089" lon="7.3679"><ele></ele><time>2025-9-5T0:57:38Z</time></trkpt>
<trkpt lat="46.17089" lon="7.3679"><ele></ele><time>2025-9-5T0:57:41Z</time></trkpt>
<trkpt lat="46.17089" lon="7.3679"><ele></ele><time>2025-9-5T0:57:44Z</time></trkpt>
<trkpt lat="46.17089" lon="7.3679"><ele></ele><time>2025-9-5T0:57:47Z</time></trkpt>
<trkpt lat="46.17089" lon="7.3679"><ele></ele><time>2025-9-5T0:57:50Z</time></trkpt>
<trkpt lat="46.17088" lon="7.36792"><ele></ele><time>2025-9-5T0:57:53Z</time></trkpt>
<trkpt lat="46.17085" lon="7.36793"><ele></ele><time>2025-9-5T0:57:56Z</time></trkpt>
<trkpt lat="46.1708" lon="7.36795"><ele></ele><time>2025-9-5T0:57:59Z</time></trkpt>
<trkpt lat="46.17076" lon="7.36798"><ele></ele><time>2025-9-5T0:58:2Z</time></trkpt>
<trkpt lat="46.17074" lon="7.36802"><ele></ele><time>2025-9-5T0:58:5Z</time></trkpt>
<trkpt lat="46.17072" lon="7.36804"><ele></ele><time>2025-9-5T0:58:8Z</time></trkpt>
<trkpt lat="46.17069" lon="7.36805"><ele></ele><time>2025-9-5T0:58:11Z</time></trkpt>
<trkpt lat="46.17068" lon="7.36806"><ele></ele><time>2025-9-5T0:58:14Z</time></trkpt>
<trkpt lat="46.17066" lon="7.36808"><ele></ele><time>2025-9-5T0:58:17Z</time></trkpt>
<trkpt lat="46.17064" lon="7.36809"><ele></ele><time>2025-9-5T0:58:20Z</time></trkpt>
<trkpt lat="46.17063" lon="7.3681"><ele></ele><time>2025-9-5T0:58:23Z</time></trkpt>
<trkpt lat="46.17062" lon="7.36812"><ele></ele><time>2025-9-5T0:58:26Z</time></trkpt>
<trkpt lat="46.1706" lon="7.36813"><ele></ele><time>2025-9-5T0:58:29Z</time></trkpt>
<trkpt lat="46.17059" lon="7.36815"><ele></ele><time>2025-9-5T0:58:32Z</time></trkpt>
<trkpt lat="46.17056" lon="7.36816"><ele></ele><time>2025-9-5T0:58:35Z</time></trkpt>
<trkpt lat="46.17055" lon="7.36816"><ele></ele><time>2025-9-5T0:58:38Z</time></trkpt>
<trkpt lat="46.17053" lon="7.36817"><ele></ele><time>2025-9-5T0:58:41Z</time></trkpt>
<trkpt lat="46.17053" lon="7.36817"><ele></ele><time>2025-9-5T0:58:44Z</time></trkpt>
<trkpt lat="46.17049" lon="7.36819"><ele></ele><time>2025-9-5T0:58:47Z</time></trkpt>
<trkpt lat="46.17048" lon="7.36819"><ele></ele><time>2025-9-5T0:58:50Z</time></trkpt>
<trkpt lat="46.17046" lon="7.3682"><ele></ele><time>2025-9-5T0:58:53Z</time></trkpt>
<trkpt lat="46.17045" lon="7.3682"><ele></ele><time>2025-9-5T0:58:56Z</time></trkpt>
<trkpt lat="46.17043" lon="7.36821"><ele></ele><time>2025-9-5T0:58:59Z</time></trkpt>
<trkpt lat="46.17041" lon="7.36822"><ele></ele><time>2025-9-5T0:59:2Z</time></trkpt>
<trkpt lat="46.1704" lon="7.36822"><ele></ele><time>2025-9-5T0:59:5Z</time></trkpt>
<trkpt lat="46.17038" lon="7.36823"><ele></ele><time>2025-9-5T0:59:8Z</time></trkpt>
<trkpt lat="46.17036" lon="7.36823"><ele></ele><time>2025-9-5T0:59:11Z</time></trkpt>
<trkpt lat="46.17033" lon="7.36823"><ele></ele><time>2025-9-5T0:59:14Z</time></trkpt>
<trkpt lat="46.17031" lon="7.36824"><ele></ele><time>2025-9-5T0:59:17Z</time></trkpt>
<trkpt lat="46.17029" lon="7.36825"><ele></ele><time>2025-9-5T0:59:20Z</time></trkpt>
<trkpt lat="46.17028" lon="7.36825"><ele></ele><time>2025-9-5T0:59:23Z</time></trkpt>
<trkpt lat="46.17025" lon="7.36825"><ele></ele><time>2025-9-5T0:59:26Z</time></trkpt>
<trkpt lat="46.17023" lon="7.36826"><ele></ele><time>2025-9-5T0:59:29Z</time></trkpt>
<trkpt lat="46.17021" lon="7.36826"><ele></ele><time>2025-9-5T0:59:32Z</time></trkpt>
<trkpt lat="46.17017" lon="7.36826"><ele></ele><time>2025-9-5T0:59:35Z</time></trkpt>
<trkpt lat="46.17015" lon="7.36827"><ele></ele><time>2025-9-5T0:59:38Z</time></trkpt>
<trkpt lat="46.17012" lon="7.36828"><ele></ele><time>2025-9-5T0:59:41Z</time></trkpt>
<trkpt lat="46.17007" lon="7.36828"><ele></ele><time>2025-9-5T0:59:44Z</time></trkpt>
<trkpt lat="46.17" lon="7.36829"><ele></ele><time>2025-9-5T0:59:47Z</time></trkpt>
<trkpt lat="46.16999" lon="7.36829"><ele></ele><time>2025-9-5T0:59:50Z</time></trkpt>
<trkpt lat="46.16998" lon="7.3683"><ele></ele><time>2025-9-5T0:59:53Z</time></trkpt>
<trkpt lat="46.16995" lon="7.36834"><ele></ele><time>2025-9-5T0:59:56Z</time></trkpt>
<trkpt lat="46.16994" lon="7.36835"><ele></ele><time>2025-9-5T0:59:59Z</time></trkpt>
<trkpt lat="46.16992" lon="7.36836"><ele></ele><time>2025-9-5T1:0:2Z</time></trkpt>
<trkpt lat="46.1699" lon="7.36838"><ele></ele><time>2025-9-5T1:0:5Z</time></trkpt>
<trkpt lat="46.16986" lon="7.36839"><ele></ele><time>2025-9-5T1:0:8Z</time></trkpt>
<trkpt lat="46.16985" lon="7.36839"><ele></ele><time>2025-9-5T1:0:11Z</time></trkpt>
<trkpt lat="46.16982" lon="7.3684"><ele></ele><time>2025-9-5T1:0:14Z</time></trkpt>
<trkpt lat="46.16979" lon="7.36839"><ele></ele><time>2025-9-5T1:0:17Z</time></trkpt>
<trkpt lat="46.16977" lon="7.3684"><ele></ele><time>2025-9-5T1:0:20Z</time></trkpt>
<trkpt lat="46.16976" lon="7.36841"><ele></ele><time>2025-9-5T1:0:23Z</time></trkpt>
<trkpt lat="46.16974" lon="7.36844"><ele></ele><time>2025-9-5T1:0:26Z</time></trkpt>
<trkpt lat="46.16974" lon="7.36843"><ele></ele><time>2025-9-5T1:0:29Z</time></trkpt>
<trkpt lat="46.16974" lon="7.36843"><ele></ele><time>2025-9-5T1:0:32Z</time></trkpt>
<trkpt lat="46.16974" lon="7.36843"><ele></ele><time>2025-9-5T1:0:35Z</time></trkpt>
<trkpt lat="46.16973" lon="7.36843"><ele></ele><time>2025-9-5T1:0:38Z</time></trkpt>
<trkpt lat="46.16973" lon="7.36843"><ele></ele><time>2025-9-5T1:0:41Z</time></trkpt>
<trkpt lat="46.16971" lon="7.36841"><ele></ele><time>2025-9-5T1:0:44Z</time></trkpt>
<trkpt lat="46.16961" lon="7.36838"><ele></ele><time>2025-9-5T1:0:47Z</time></trkpt>
<trkpt lat="46.1696" lon="7.36838"><ele></ele><time>2025-9-5T1:0:50Z</time></trkpt>
<trkpt lat="46.16957" lon="7.36837"><ele></ele><time>2025-9-5T1:0:53Z</time></trkpt>
<trkpt lat="46.16947" lon="7.36832"><ele></ele><time>2025-9-5T1:0:56Z</time></trkpt>
<trkpt lat="46.16943" lon="7.36829"><ele></ele><time>2025-9-5T1:0:59Z</time></trkpt>
<trkpt lat="46.16939" lon="7.36826"><ele></ele><time>2025-9-5T1:1:2Z</time></trkpt>
<trkpt lat="46.16933" lon="7.3682"><ele></ele><time>2025-9-5T1:1:5Z</time></trkpt>
<trkpt lat="46.16927" lon="7.36815"><ele></ele><time>2025-9-5T1:1:8Z</time></trkpt>
<trkpt lat="46.16922" lon="7.3681"><ele></ele><time>2025-9-5T1:1:11Z</time></trkpt>
<trkpt lat="46.16911" lon="7.368"><ele></ele><time>2025-9-5T1:1:14Z</time></trkpt>
<trkpt lat="46.16902" lon="7.36794"><ele></ele><time>2025-9-5T1:1:17Z</time></trkpt>
<trkpt lat="46.16899" lon="7.36791"><ele></ele><time>2025-9-5T1:1:20Z</time></trkpt>
<trkpt lat="46.16887" lon="7.36781"><ele></ele><time>2025-9-5T1:1:23Z</time></trkpt>
<trkpt lat="46.16882" lon="7.36779"><ele></ele><time>2025-9-5T1:1:26Z</time></trkpt>
<trkpt lat="46.16878" lon="7.36775"><ele></ele><time>2025-9-5T1:1:29Z</time></trkpt>
<trkpt lat="46.16866" lon="7.36769"><ele></ele><time>2025-9-5T1:1:32Z</time></trkpt>
<trkpt lat="46.16855" lon="7.36763"><ele></ele><time>2025-9-5T1:1:35Z</time></trkpt>
<trkpt lat="46.16849" lon="7.36763"><ele></ele><time>2025-9-5T1:1:38Z</time></trkpt>
<trkpt lat="46.16839" lon="7.3676"><ele></ele><time>2025-9-5T1:1:41Z</time></trkpt>
<trkpt lat="46.16837" lon="7.36759"><ele></ele><time>2025-9-5T1:1:44Z</time></trkpt>
<trkpt lat="46.16823" lon="7.36751"><ele></ele><time>2025-9-5T1:1:47Z</time></trkpt>
<trkpt lat="46.16818" lon="7.36749"><ele></ele><time>2025-9-5T1:1:50Z</time></trkpt>
<trkpt lat="46.16817" lon="7.36749"><ele></ele><time>2025-9-5T1:1:53Z</time></trkpt>
<trkpt lat="46.1681" lon="7.36748"><ele></ele><time>2025-9-5T1:1:56Z</time></trkpt>
<trkpt lat="46.16803" lon="7.36748"><ele></ele><time>2025-9-5T1:1:59Z</time></trkpt>
<trkpt lat="46.16799" lon="7.3675"><ele></ele><time>2025-9-5T1:2:2Z</time></trkpt>
<trkpt lat="46.16791" lon="7.36755"><ele></ele><time>2025-9-5T1:2:5Z</time></trkpt>
<trkpt lat="46.16785" lon="7.36761"><ele></ele><time>2025-9-5T1:2:8Z</time></trkpt>
<trkpt lat="46.16775" lon="7.36768"><ele></ele><time>2025-9-5T1:2:11Z</time></trkpt>
<trkpt lat="46.16773" lon="7.36769"><ele></ele><time>2025-9-5T1:2:14Z</time></trkpt>
<trkpt lat="46.16759" lon="7.36775"><ele></ele><time>2025-9-5T1:2:17Z</time></trkpt>
<trkpt lat="46.16747" lon="7.3678"><ele></ele><time>2025-9-5T1:2:20Z</time></trkpt>
<trkpt lat="46.16743" lon="7.36779"><ele></ele><time>2025-9-5T1:2:23Z</time></trkpt>
<trkpt lat="46.16727" lon="7.36782"><ele></ele><time>2025-9-5T1:2:26Z</time></trkpt>
<trkpt lat="46.16713" lon="7.36794"><ele></ele><time>2025-9-5T1:2:29Z</time></trkpt>
<trkpt lat="46.16697" lon="7.368"><ele></ele><time>2025-9-5T1:2:32Z</time></trkpt>
<trkpt lat="46.16693" lon="7.36801"><ele></ele><time>2025-9-5T1:2:35Z</time></trkpt>
<trkpt lat="46.16685" lon="7.36808"><ele></ele><time>2025-9-5T1:2:38Z</time></trkpt>
<trkpt lat="46.16674" lon="7.36821"><ele></ele><time>2025-9-5T1:2:41Z</time></trkpt>
<trkpt lat="46.16656" lon="7.36831"><ele></ele><time>2025-9-5T1:2:44Z</time></trkpt>
<trkpt lat="46.16653" lon="7.36834"><ele></ele><time>2025-9-5T1:2:47Z</time></trkpt>
<trkpt lat="46.16648" lon="7.36837"><ele></ele><time>2025-9-5T1:2:50Z</time></trkpt>
<trkpt lat="46.16646" lon="7.36837"><ele></ele><time>2025-9-5T1:2:53Z</time></trkpt>
<trkpt lat="46.16645" lon="7.36837"><ele></ele><time>2025-9-5T1:2:56Z</time></trkpt>
<trkpt lat="46.16643" lon="7.36835"><ele></ele><time>2025-9-5T1:2:59Z</time></trkpt>
<trkpt lat="46.1664" lon="7.36834"><ele></ele><time>2025-9-5T1:3:2Z</time></trkpt>
<trkpt lat="46.16637" lon="7.36833"><ele></ele><time>2025-9-5T1:3:5Z</time></trkpt>
<trkpt lat="46.16633" lon="7.36833"><ele></ele><time>2025-9-5T1:3:8Z</time></trkpt>
<trkpt lat="46.16631" lon="7.36833"><ele></ele><time>2025-9-5T1:3:11Z</time></trkpt>
<trkpt lat="46.16631" lon="7.36833"><ele></ele><time>2025-9-5T1:3:14Z</time></trkpt>
<trkpt lat="46.16631" lon="7.36833"><ele></ele><time>2025-9-5T1:3:17Z</time></trkpt>
<trkpt lat="46.16631" lon="7.36833"><ele></ele><time>2025-9-5T1:3:20Z</time></trkpt>
<trkpt lat="46.16631" lon="7.36833"><ele></ele><time>2025-9-5T1:3:23Z</time></trkpt>
<trkpt lat="46.16631" lon="7.36833"><ele></ele><time>2025-9-5T1:3:26Z</time></trkpt>
<trkpt lat="46.16629" lon="7.36833"><ele></ele><time>2025-9-5T1:3:29Z</time></trkpt>
<trkpt lat="46.16618" lon="7.36833"><ele></ele><time>2025-9-5T1:3:32Z</time></trkpt>
<trkpt lat="46.16613" lon="7.36833"><ele></ele><time>2025-9-5T1:3:35Z</time></trkpt>
<trkpt lat="46.16609" lon="7.36833"><ele></ele><time>2025-9-5T1:3:38Z</time></trkpt>
<trkpt lat="46.16598" lon="7.36837"><ele></ele><time>2025-9-5T1:3:41Z</time></trkpt>
<trkpt lat="46.16584" lon="7.36833"><ele></ele><time>2025-9-5T1:3:44Z</time></trkpt>
<trkpt lat="46.1658" lon="7.36831"><ele></ele><time>2025-9-5T1:3:47Z</time></trkpt>
<trkpt lat="46.16579" lon="7.3683"><ele></ele><time>2025-9-5T1:3:50Z</time></trkpt>
<trkpt lat="46.16579" lon="7.3683"><ele></ele><time>2025-9-5T1:3:53Z</time></trkpt>
<trkpt lat="46.16579" lon="7.3683"><ele></ele><time>2025-9-5T1:3:56Z</time></trkpt>
<trkpt lat="46.16574" lon="7.36827"><ele></ele><time>2025-9-5T1:3:59Z</time></trkpt>
<trkpt lat="46.16571" lon="7.36825"><ele></ele><time>2025-9-5T1:4:2Z</time></trkpt>
<trkpt lat="46.1657" lon="7.36825"><ele></ele><time>2025-9-5T1:4:5Z</time></trkpt>
<trkpt lat="46.16569" lon="7.36825"><ele></ele><time>2025-9-5T1:4:8Z</time></trkpt>
<trkpt lat="46.16567" lon="7.36825"><ele></ele><time>2025-9-5T1:4:11Z</time></trkpt>
<trkpt lat="46.16565" lon="7.36825"><ele></ele><time>2025-9-5T1:4:14Z</time></trkpt>
<trkpt lat="46.16564" lon="7.36824"><ele></ele><time>2025-9-5T1:4:17Z</time></trkpt>
<trkpt lat="46.16562" lon="7.36822"><ele></ele><time>2025-9-5T1:4:20Z</time></trkpt>
<trkpt lat="46.16561" lon="7.36821"><ele></ele><time>2025-9-5T1:4:23Z</time></trkpt>
<trkpt lat="46.1656" lon="7.36821"><ele></ele><time>2025-9-5T1:4:26Z</time></trkpt>
<trkpt lat="46.16558" lon="7.36821"><ele></ele><time>2025-9-5T1:4:29Z</time></trkpt>
<trkpt lat="46.16556" lon="7.3682"><ele></ele><time>2025-9-5T1:4:32Z</time></trkpt>
<trkpt lat="46.16554" lon="7.3682"><ele></ele><time>2025-9-5T1:4:35Z</time></trkpt>
<trkpt lat="46.16552" lon="7.36819"><ele></ele><time>2025-9-5T1:4:38Z</time></trkpt>
<trkpt lat="46.16548" lon="7.36819"><ele></ele><time>2025-9-5T1:4:41Z</time></trkpt>
<trkpt lat="46.16548" lon="7.36819"><ele></ele><time>2025-9-5T1:4:44Z</time></trkpt>
<trkpt lat="46.16546" lon="7.3682"><ele></ele><time>2025-9-5T1:4:47Z</time></trkpt>
<trkpt lat="46.16544" lon="7.36819"><ele></ele><time>2025-9-5T1:4:50Z</time></trkpt>
<trkpt lat="46.16542" lon="7.36818"><ele></ele><time>2025-9-5T1:4:53Z</time></trkpt>
<trkpt lat="46.1654" lon="7.36818"><ele></ele><time>2025-9-5T1:4:56Z</time></trkpt>
<trkpt lat="46.16539" lon="7.36819"><ele></ele><time>2025-9-5T1:4:59Z</time></trkpt>
<trkpt lat="46.16536" lon="7.36821"><ele></ele><time>2025-9-5T1:5:2Z</time></trkpt>
<trkpt lat="46.16534" lon="7.36822"><ele></ele><time>2025-9-5T1:5:5Z</time></trkpt>
<trkpt lat="46.16532" lon="7.36821"><ele></ele><time>2025-9-5T1:5:8Z</time></trkpt>
<trkpt lat="46.1653" lon="7.3682"><ele></ele><time>2025-9-5T1:5:11Z</time></trkpt>
<trkpt lat="46.16528" lon="7.3682"><ele></ele><time>2025-9-5T1:5:14Z</time></trkpt>
<trkpt lat="46.16527" lon="7.3682"><ele></ele><time>2025-9-5T1:5:17Z</time></trkpt>
<trkpt lat="46.16524" lon="7.3682"><ele></ele><time>2025-9-5T1:5:20Z</time></trkpt>
<trkpt lat="46.16523" lon="7.3682"><ele></ele><time>2025-9-5T1:5:23Z</time></trkpt>
<trkpt lat="46.16522" lon="7.3682"><ele></ele><time>2025-9-5T1:5:26Z</time></trkpt>
<trkpt lat="46.1652" lon="7.3682"><ele></ele><time>2025-9-5T1:5:29Z</time></trkpt>
<trkpt lat="46.16519" lon="7.3682"><ele></ele><time>2025-9-5T1:5:32Z</time></trkpt>
<trkpt lat="46.16517" lon="7.36819"><ele></ele><time>2025-9-5T1:5:35Z</time></trkpt>
<trkpt lat="46.16516" lon="7.36819"><ele></ele><time>2025-9-5T1:5:38Z</time></trkpt>
<trkpt lat="46.16514" lon="7.36818"><ele></ele><time>2025-9-5T1:5:41Z</time></trkpt>
<trkpt lat="46.16514" lon="7.36818"><ele></ele><time>2025-9-5T1:5:44Z</time></trkpt>
<trkpt lat="46.16512" lon="7.36817"><ele></ele><time>2025-9-5T1:5:47Z</time></trkpt>
<trkpt lat="46.16511" lon="7.36816"><ele></ele><time>2025-9-5T1:5:50Z</time></trkpt>
<trkpt lat="46.16509" lon="7.36813"><ele></ele><time>2025-9-5T1:5:53Z</time></trkpt>
<trkpt lat="46.16508" lon="7.36813"><ele></ele><time>2025-9-5T1:5:56Z</time></trkpt>
<trkpt lat="46.16505" lon="7.36811"><ele></ele><time>2025-9-5T1:5:59Z</time></trkpt>
<trkpt lat="46.16505" lon="7.36811"><ele></ele><time>2025-9-5T1:6:2Z</time></trkpt>
<trkpt lat="46.16505" lon="7.36811"><ele></ele><time>2025-9-5T1:6:5Z</time></trkpt>
<trkpt lat="46.16503" lon="7.36809"><ele></ele><time>2025-9-5T1:6:8Z</time></trkpt>
<trkpt lat="46.16502" lon="7.36808"><ele></ele><time>2025-9-5T1:6:11Z</time></trkpt>
<trkpt lat="46.16497" lon="7.36803"><ele></ele><time>2025-9-5T1:6:14Z</time></trkpt>
<trkpt lat="46.16494" lon="7.36799"><ele></ele><time>2025-9-5T1:6:17Z</time></trkpt>
<trkpt lat="46.16492" lon="7.36796"><ele></ele><time>2025-9-5T1:6:20Z</time></trkpt>
<trkpt lat="46.16487" lon="7.36792"><ele></ele><time>2025-9-5T1:6:23Z</time></trkpt>
<trkpt lat="46.16486" lon="7.3679"><ele></ele><time>2025-9-5T1:6:26Z</time></trkpt>
<trkpt lat="46.16482" lon="7.36788"><ele></ele><time>2025-9-5T1:6:29Z</time></trkpt>
<trkpt lat="46.16481" lon="7.36788"><ele></ele><time>2025-9-5T1:6:32Z</time></trkpt>
<trkpt lat="46.16476" lon="7.36784"><ele></ele><time>2025-9-5T1:6:35Z</time></trkpt>
<trkpt lat="46.16474" lon="7.36783"><ele></ele><time>2025-9-5T1:6:38Z</time></trkpt>
<trkpt lat="46.16472" lon="7.36781"><ele></ele><time>2025-9-5T1:6:41Z</time></trkpt>
<trkpt lat="46.16471" lon="7.36778"><ele></ele><time>2025-9-5T1:6:44Z</time></trkpt>
<trkpt lat="46.1647" lon="7.36777"><ele></ele><time>2025-9-5T1:6:47Z</time></trkpt>
<trkpt lat="46.16468" lon="7.3677"><ele></ele><time>2025-9-5T1:6:50Z</time></trkpt>
<trkpt lat="46.16468" lon="7.36769"><ele></ele><time>2025-9-5T1:6:53Z</time></trkpt>
<trkpt lat="46.16464" lon="7.36765"><ele></ele><time>2025-9-5T1:6:56Z</time></trkpt>
<trkpt lat="46.16461" lon="7.36763"><ele></ele><time>2025-9-5T1:6:59Z</time></trkpt>
<trkpt lat="46.16459" lon="7.36757"><ele></ele><time>2025-9-5T1:7:2Z</time></trkpt>
<trkpt lat="46.16459" lon="7.36756"><ele></ele><time>2025-9-5T1:7:5Z</time></trkpt>
<trkpt lat="46.16457" lon="7.36752"><ele></ele><time>2025-9-5T1:7:8Z</time></trkpt>
<trkpt lat="46.16456" lon="7.36751"><ele></ele><time>2025-9-5T1:7:11Z</time></trkpt>
<trkpt lat="46.16453" lon="7.36747"><ele></ele><time>2025-9-5T1:7:14Z</time></trkpt>
<trkpt lat="46.16449" lon="7.36742"><ele></ele><time>2025-9-5T1:7:17Z</time></trkpt>
<trkpt lat="46.16448" lon="7.36742"><ele></ele><time>2025-9-5T1:7:20Z</time></trkpt>
<trkpt lat="46.16445" lon="7.36736"><ele></ele><time>2025-9-5T1:7:23Z</time></trkpt>
<trkpt lat="46.1644" lon="7.36726"><ele></ele><time>2025-9-5T1:7:26Z</time></trkpt>
<trkpt lat="46.16439" lon="7.36724"><ele></ele><time>2025-9-5T1:7:29Z</time></trkpt>
<trkpt lat="46.16436" lon="7.36721"><ele></ele><time>2025-9-5T1:7:32Z</time></trkpt>
<trkpt lat="46.1643" lon="7.36718"><ele></ele><time>2025-9-5T1:7:35Z</time></trkpt>
<trkpt lat="46.16427" lon="7.36716"><ele></ele><time>2025-9-5T1:7:38Z</time></trkpt>
<trkpt lat="46.16427" lon="7.36717"><ele></ele><time>2025-9-5T1:7:41Z</time></trkpt>
<trkpt lat="46.16427" lon="7.36717"><ele></ele><time>2025-9-5T1:7:44Z</time></trkpt>
<trkpt lat="46.16427" lon="7.36717"><ele></ele><time>2025-9-5T1:7:47Z</time></trkpt>
<trkpt lat="46.16426" lon="7.36718"><ele></ele><time>2025-9-5T1:7:50Z</time></trkpt>
<trkpt lat="46.16426" lon="7.36717"><ele></ele><time>2025-9-5T1:7:53Z</time></trkpt>
<trkpt lat="46.16427" lon="7.36717"><ele></ele><time>2025-9-5T1:7:56Z</time></trkpt>
<trkpt lat="46.16427" lon="7.36717"><ele></ele><time>2025-9-5T1:7:59Z</time></trkpt>
<trkpt lat="46.16426" lon="7.36718"><ele></ele><time>2025-9-5T1:8:2Z</time></trkpt>
<trkpt lat="46.16426" lon="7.36718"><ele></ele><time>2025-9-5T1:8:5Z</time></trkpt>
<trkpt lat="46.16426" lon="7.36718"><ele></ele><time>2025-9-5T1:8:8Z</time></trkpt>
<trkpt lat="46.16426" lon="7.36718"><ele></ele><time>2025-9-5T1:8:11Z</time></trkpt>
<trkpt lat="46.16426" lon="7.36718"><ele></ele><time>2025-9-5T1:8:14Z</time></trkpt>
<trkpt lat="46.16426" lon="7.36718"><ele></ele><time>2025-9-5T1:8:17Z</time></trkpt>
<trkpt lat="46.16426" lon="7.36718"><ele></ele><time>2025-9-5T1:8:20Z</time></trkpt>
<trkpt lat="46.16426" lon="7.36718"><ele></ele><time>2025-9-5T1:8:23Z</time></trkpt>
<trkpt lat="46.16426" lon="7.36718"><ele></ele><time>2025-9-5T1:8:26Z</time></trkpt>
<trkpt lat="46.16426" lon="7.36716"><ele></ele><time>2025-9-5T1:8:29Z</time></trkpt>
<trkpt lat="46.16426" lon="7.36716"><ele></ele><time>2025-9-5T1:8:32Z</time></trkpt>
<trkpt lat="46.16426" lon="7.36716"><ele></ele><time>2025-9-5T1:8:35Z</time></trkpt>
<trkpt lat="46.16426" lon="7.36716"><ele></ele><time>2025-9-5T1:8:38Z</time></trkpt>
<trkpt lat="46.16426" lon="7.36716"><ele></ele><time>2025-9-5T1:8:41Z</time></trkpt>
<trkpt lat="46.16426" lon="7.36716"><ele></ele><time>2025-9-5T1:8:44Z</time></trkpt>
<trkpt lat="46.16426" lon="7.36716"><ele></ele><time>2025-9-5T1:8:47Z</time></trkpt>
<trkpt lat="46.16426" lon="7.36716"><ele></ele><time>2025-9-5T1:8:50Z</time></trkpt>
<trkpt lat="46.16426" lon="7.36716"><ele></ele><time>2025-9-5T1:8:53Z</time></trkpt>
<trkpt lat="46.16426" lon="7.36716"><ele></ele><time>2025-9-5T1:8:56Z</time></trkpt>
<trkpt lat="46.16426" lon="7.36716"><ele></ele><time>2025-9-5T1:8:59Z</time></trkpt>
<trkpt lat="46.16426" lon="7.36716"><ele></ele><time>2025-9-5T1:9:2Z</time></trkpt>
<trkpt lat="46.16426" lon="7.36716"><ele></ele><time>2025-9-5T1:9:5Z</time></trkpt>
<trkpt lat="46.16426" lon="7.36716"><ele></ele><time>2025-9-5T1:9:8Z</time></trkpt>
<trkpt lat="46.16426" lon="7.36716"><ele></ele><time>2025-9-5T1:9:11Z</time></trkpt>
<trkpt lat="46.16426" lon="7.36716"><ele></ele><time>2025-9-5T1:9:14Z</time></trkpt>
<trkpt lat="46.16426" lon="7.36716"><ele></ele><time>2025-9-5T1:9:17Z</time></trkpt>
<trkpt lat="46.16426" lon="7.36716"><ele></ele><time>2025-9-5T1:9:20Z</time></trkpt>
<trkpt lat="46.16426" lon="7.36716"><ele></ele><time>2025-9-5T1:9:23Z</time></trkpt>
<trkpt lat="46.16426" lon="7.36717"><ele></ele><time>2025-9-5T1:9:26Z</time></trkpt>
<trkpt lat="46.16426" lon="7.36716"><ele></ele><time>2025-9-5T1:9:29Z</time></trkpt>
<trkpt lat="46.16426" lon="7.36716"><ele></ele><time>2025-9-5T1:9:32Z</time></trkpt>
<trkpt lat="46.16426" lon="7.36716"><ele></ele><time>2025-9-5T1:9:35Z</time></trkpt>
<trkpt lat="46.16426" lon="7.36716"><ele></ele><time>2025-9-5T1:9:38Z</time></trkpt>
<trkpt lat="46.16426" lon="7.36716"><ele></ele><time>2025-9-5T1:9:41Z</time></trkpt>
<trkpt lat="46.16426" lon="7.36716"><ele></ele><time>2025-9-5T1:9:44Z</time></trkpt>
<trkpt lat="46.16426" lon="7.36716"><ele></ele><time>2025-9-5T1:9:47Z</time></trkpt>
<trkpt lat="46.16426" lon="7.36716"><ele></ele><time>2025-9-5T1:9:50Z</time></trkpt>
<trkpt lat="46.16426" lon="7.36717"><ele></ele><time>2025-9-5T1:9:53Z</time></trkpt>
<trkpt lat="46.16426" lon="7.36716"><ele></ele><time>2025-9-5T1:9:56Z</time></trkpt>
<trkpt lat="46.16426" lon="7.36716"><ele></ele><time>2025-9-5T1:9:59Z</time></trkpt>
<trkpt lat="46.16426" lon="7.36717"><ele></ele><time>2025-9-5T1:10:2Z</time></trkpt>
<trkpt lat="46.16427" lon="7.36717"><ele></ele><time>2025-9-5T1:10:5Z</time></trkpt>
<trkpt lat="46.16426" lon="7.36717"><ele></ele><time>2025-9-5T1:10:8Z</time></trkpt>
<trkpt lat="46.16426" lon="7.36716"><ele></ele><time>2025-9-5T1:10:11Z</time></trkpt>
<trkpt lat="46.16426" lon="7.36716"><ele></ele><time>2025-9-5T1:10:14Z</time></trkpt>
<trkpt lat="46.16427" lon="7.36717"><ele></ele><time>2025-9-5T1:10:17Z</time></trkpt>
<trkpt lat="46.16426" lon="7.36716"><ele></ele><time>2025-9-5T1:10:20Z</time></trkpt>
<trkpt lat="46.16426" lon="7.36716"><ele></ele><time>2025-9-5T1:10:23Z</time></trkpt>
<trkpt lat="46.16426" lon="7.36716"><ele></ele><time>2025-9-5T1:10:26Z</time></trkpt>
<trkpt lat="46.16426" lon="7.36716"><ele></ele><time>2025-9-5T1:10:29Z</time></trkpt>
<trkpt lat="46.16426" lon="7.36716"><ele></ele><time>2025-9-5T1:10:32Z</time></trkpt>
<trkpt lat="46.16426" lon="7.36716"><ele></ele><time>2025-9-5T1:10:35Z</time></trkpt>
<trkpt lat="46.16426" lon="7.36716"><ele></ele><time>2025-9-5T1:10:38Z</time></trkpt>
<trkpt lat="46.16426" lon="7.36716"><ele></ele><time>2025-9-5T1:10:41Z</time></trkpt>
<trkpt lat="46.16426" lon="7.36716"><ele></ele><time>2025-9-5T1:10:44Z</time></trkpt>
<trkpt lat="46.16426" lon="7.36716"><ele></ele><time>2025-9-5T1:10:47Z</time></trkpt>
<trkpt lat="46.16426" lon="7.36716"><ele></ele><time>2025-9-5T1:10:50Z</time></trkpt>
<trkpt lat="46.16426" lon="7.36716"><ele></ele><time>2025-9-5T1:10:53Z</time></trkpt>
<trkpt lat="46.16426" lon="7.36716"><ele></ele><time>2025-9-5T1:10:56Z</time></trkpt>
<trkpt lat="46.16426" lon="7.36716"><ele></ele><time>2025-9-5T1:10:59Z</time></trkpt>
<trkpt lat="46.16426" lon="7.36716"><ele></ele><time>2025-9-5T1:11:2Z</time></trkpt>
<trkpt lat="46.16426" lon="7.36716"><ele></ele><time>2025-9-5T1:11:5Z</time></trkpt>
<trkpt lat="46.16427" lon="7.36717"><ele></ele><time>2025-9-5T1:11:8Z</time></trkpt>
<trkpt lat="46.16426" lon="7.36716"><ele></ele><time>2025-9-5T1:11:11Z</time></trkpt>
<trkpt lat="46.16426" lon="7.36716"><ele></ele><time>2025-9-5T1:11:14Z</time></trkpt>
<trkpt lat="46.16427" lon="7.36717"><ele></ele><time>2025-9-5T1:11:17Z</time></trkpt>
<trkpt lat="46.16426" lon="7.36716"><ele></ele><time>2025-9-5T1:11:20Z</time></trkpt>
<trkpt lat="46.16426" lon="7.36716"><ele></ele><time>2025-9-5T1:11:23Z</time></trkpt>
<trkpt lat="46.16426" lon="7.36716"><ele></ele><time>2025-9-5T1:11:26Z</time></trkpt>
<trkpt lat="46.16427" lon="7.36717"><ele></ele><time>2025-9-5T1:11:29Z</time></trkpt>
<trkpt lat="46.16426" lon="7.36718"><ele></ele><time>2025-9-5T1:11:32Z</time></trkpt>
<trkpt lat="46.16426" lon="7.36716"><ele></ele><time>2025-9-5T1:11:35Z</time></trkpt>
<trkpt lat="46.16426" lon="7.36716"><ele></ele><time>2025-9-5T1:11:38Z</time></trkpt>
<trkpt lat="46.16426" lon="7.36716"><ele></ele><time>2025-9-5T1:11:41Z</time></trkpt>
<trkpt lat="46.16426" lon="7.36716"><ele></ele><time>2025-9-5T1:11:44Z</time></trkpt>
<trkpt lat="46.16426" lon="7.36716"><ele></ele><time>2025-9-5T1:11:47Z</time></trkpt>
<trkpt lat="46.16426" lon="7.36716"><ele></ele><time>2025-9-5T1:11:50Z</time></trkpt>
<trkpt lat="46.16426" lon="7.36716"><ele></ele><time>2025-9-5T1:11:53Z</time></trkpt>
<trkpt lat="46.16426" lon="7.36716"><ele></ele><time>2025-9-5T1:11:56Z</time></trkpt>
<trkpt lat="46.16426" lon="7.36717"><ele></ele><time>2025-9-5T1:11:59Z</time></trkpt>
<trkpt lat="46.16426" lon="7.36716"><ele></ele><time>2025-9-5T1:12:2Z</time></trkpt>
<trkpt lat="46.16426" lon="7.36716"><ele></ele><time>2025-9-5T1:12:5Z</time></trkpt>
<trkpt lat="46.16426" lon="7.36716"><ele></ele><time>2025-9-5T1:12:8Z</time></trkpt>
<trkpt lat="46.16426" lon="7.36716"><ele></ele><time>2025-9-5T1:12:11Z</time></trkpt>
<trkpt lat="46.16426" lon="7.36716"><ele></ele><time>2025-9-5T1:12:14Z</time></trkpt>
<trkpt lat="46.16426" lon="7.36716"><ele></ele><time>2025-9-5T1:12:17Z</time></trkpt>
<trkpt lat="46.16426" lon="7.36717"><ele></ele><time>2025-9-5T1:12:20Z</time></trkpt>
<trkpt lat="46.16426" lon="7.36716"><ele></ele><time>2025-9-5T1:12:23Z</time></trkpt>
<trkpt lat="46.16426" lon="7.36717"><ele></ele><time>2025-9-5T1:12:26Z</time></trkpt>
<trkpt lat="46.16426" lon="7.36716"><ele></ele><time>2025-9-5T1:12:29Z</time></trkpt>
<trkpt lat="46.16426" lon="7.36716"><ele></ele><time>2025-9-5T1:12:32Z</time></trkpt>
<trkpt lat="46.16426" lon="7.36716"><ele></ele><time>2025-9-5T1:12:35Z</time></trkpt>
<trkpt lat="46.16426" lon="7.36716"><ele></ele><time>2025-9-5T1:12:38Z</time></trkpt>
<trkpt lat="46.16426" lon="7.36717"><ele></ele><time>2025-9-5T1:12:41Z</time></trkpt>
<trkpt lat="46.16426" lon="7.36716"><ele></ele><time>2025-9-5T1:12:44Z</time></trkpt>
<trkpt lat="46.16426" lon="7.36716"><ele></ele><time>2025-9-5T1:12:47Z</time></trkpt>
<trkpt lat="46.16426" lon="7.36716"><ele></ele><time>2025-9-5T1:12:50Z</time></trkpt>
<trkpt lat="46.16426" lon="7.36717"><ele></ele><time>2025-9-5T1:12:53Z</time></trkpt>
<trkpt lat="46.16426" lon="7.36716"><ele></ele><time>2025-9-5T1:12:56Z</time></trkpt>
<trkpt lat="46.16426" lon="7.36716"><ele></ele><time>2025-9-5T1:12:59Z</time></trkpt>
<trkpt lat="46.16426" lon="7.36716"><ele></ele><time>2025-9-5T1:13:2Z</time></trkpt>
<trkpt lat="46.16426" lon="7.36716"><ele></ele><time>2025-9-5T1:13:5Z</time></trkpt>
<trkpt lat="46.16427" lon="7.36717"><ele></ele><time>2025-9-5T1:13:8Z</time></trkpt>
<trkpt lat="46.16426" lon="7.36717"><ele></ele><time>2025-9-5T1:13:11Z</time></trkpt>
<trkpt lat="46.16426" lon="7.36717"><ele></ele><time>2025-9-5T1:13:14Z</time></trkpt>
<trkpt lat="46.16426" lon="7.36716"><ele></ele><time>2025-9-5T1:13:17Z</time></trkpt>
<trkpt lat="46.16426" lon="7.36718"><ele></ele><time>2025-9-5T1:13:20Z</time></trkpt>
<trkpt lat="46.16426" lon="7.36716"><ele></ele><time>2025-9-5T1:13:23Z</time></trkpt>
<trkpt lat="46.16426" lon="7.36716"><ele></ele><time>2025-9-5T1:13:26Z</time></trkpt>
<trkpt lat="46.16426" lon="7.36716"><ele></ele><time>2025-9-5T1:13:29Z</time></trkpt>
<trkpt lat="46.16426" lon="7.36716"><ele></ele><time>2025-9-5T1:13:32Z</time></trkpt>
<trkpt lat="46.16426" lon="7.36716"><ele></ele><time>2025-9-5T1:13:35Z</time></trkpt>
<trkpt lat="46.16426" lon="7.36717"><ele></ele><time>2025-9-5T1:13:38Z</time></trkpt>
<trkpt lat="46.16426" lon="7.36716"><ele></ele><time>2025-9-5T1:13:41Z</time></trkpt>
<trkpt lat="46.16426" lon="7.36716"><ele></ele><time>2025-9-5T1:13:44Z</time></trkpt>
<trkpt lat="46.16426" lon="7.36716"><ele></ele><time>2025-9-5T1:13:47Z</time></trkpt>
<trkpt lat="46.16426" lon="7.36716"><ele></ele><time>2025-9-5T1:13:50Z</time></trkpt>
<trkpt lat="46.16426" lon="7.36716"><ele></ele><time>2025-9-5T1:13:53Z</time></trkpt>
<trkpt lat="46.16426" lon="7.36716"><ele></ele><time>2025-9-5T1:13:56Z</time></trkpt>
<trkpt lat="46.16426" lon="7.36716"><ele></ele><time>2025-9-5T1:13:59Z</time></trkpt>
<trkpt lat="46.16426" lon="7.36716"><ele></ele><time>2025-9-5T1:14:2Z</time></trkpt>
<trkpt lat="46.16426" lon="7.36716"><ele></ele><time>2025-9-5T1:14:5Z</time></trkpt>
<trkpt lat="46.16426" lon="7.36716"><ele></ele><time>2025-9-5T1:14:8Z</time></trkpt>
<trkpt lat="46.16427" lon="7.36716"><ele></ele><time>2025-9-5T1:14:11Z</time></trkpt>
<trkpt lat="46.16426" lon="7.36716"><ele></ele><time>2025-9-5T1:14:14Z</time></trkpt>
<trkpt lat="46.16427" lon="7.36716"><ele></ele><time>2025-9-5T1:14:17Z</time></trkpt>
<trkpt lat="46.16426" lon="7.36717"><ele></ele><time>2025-9-5T1:14:20Z</time></trkpt>
<trkpt lat="46.16426" lon="7.36716"><ele></ele><time>2025-9-5T1:14:23Z</time></trkpt>
<trkpt lat="46.16426" lon="7.36716"><ele></ele><time>2025-9-5T1:14:26Z</time></trkpt>
<trkpt lat="46.16426" lon="7.36717"><ele></ele><time>2025-9-5T1:14:29Z</time></trkpt>
<trkpt lat="46.16426" lon="7.36716"><ele></ele><time>2025-9-5T1:14:32Z</time></trkpt>
<trkpt lat="46.16426" lon="7.36716"><ele></ele><time>2025-9-5T1:14:35Z</time></trkpt>
<trkpt lat="46.16426" lon="7.36716"><ele></ele><time>2025-9-5T1:14:38Z</time></trkpt>
<trkpt lat="46.16426" lon="7.36716"><ele></ele><time>2025-9-5T1:14:41Z</time></trkpt>
<trkpt lat="46.16426" lon="7.36716"><ele></ele><time>2025-9-5T1:14:44Z</time></trkpt>
<trkpt lat="46.16426" lon="7.36716"><ele></ele><time>2025-9-5T1:14:47Z</time></trkpt>
<trkpt lat="46.16426" lon="7.36716"><ele></ele><time>2025-9-5T1:14:50Z</time></trkpt>
<trkpt lat="46.16426" lon="7.36716"><ele></ele><time>2025-9-5T1:14:53Z</time></trkpt>
<trkpt lat="46.16426" lon="7.36716"><ele></ele><time>2025-9-5T1:14:56Z</time></trkpt>
<trkpt lat="46.16426" lon="7.36716"><ele></ele><time>2025-9-5T1:14:59Z</time></trkpt>
<trkpt lat="46.16426" lon="7.36716"><ele></ele><time>2025-9-5T1:15:2Z</time></trkpt>
<trkpt lat="46.16426" lon="7.36716"><ele></ele><time>2025-9-5T1:15:5Z</time></trkpt>
<trkpt lat="46.16426" lon="7.36716"><ele></ele><time>2025-9-5T1:15:8Z</time></trkpt>
<trkpt lat="46.16426" lon="7.36716"><ele></ele><time>2025-9-5T1:15:11Z</time></trkpt>
<trkpt lat="46.16426" lon="7.36716"><ele></ele><time>2025-9-5T1:15:14Z</time></trkpt>
<trkpt lat="46.16426" lon="7.36716"><ele></ele><time>2025-9-5T1:15:17Z</time></trkpt>
<trkpt lat="46.16426" lon="7.36716"><ele></ele><time>2025-9-5T1:15:20Z</time></trkpt>
<trkpt lat="46.16426" lon="7.36716"><ele></ele><time>2025-9-5T1:15:23Z</time></trkpt>
<trkpt lat="46.16426" lon="7.36716"><ele></ele><time>2025-9-5T1:15:26Z</time></trkpt>
<trkpt lat="46.16426" lon="7.36716"><ele></ele><time>2025-9-5T1:15:29Z</time></trkpt>
<trkpt lat="46.16426" lon="7.36716"><ele></ele><time>2025-9-5T1:15:32Z</time></trkpt>
<trkpt lat="46.16426" lon="7.36716"><ele></ele><time>2025-9-5T1:15:35Z</time></trkpt>
<trkpt lat="46.16426" lon="7.36716"><ele></ele><time>2025-9-5T1:15:38Z</time></trkpt>
<trkpt lat="46.16426" lon="7.36716"><ele></ele><time>2025-9-5T1:15:41Z</time></trkpt>
<trkpt lat="46.16426" lon="7.36716"><ele></ele><time>2025-9-5T1:15:44Z</time></trkpt>
<trkpt lat="46.16426" lon="7.36716"><ele></ele><time>2025-9-5T1:15:47Z</time></trkpt>
<trkpt lat="46.16426" lon="7.36716"><ele></ele><time>2025-9-5T1:15:50Z</time></trkpt>
<trkpt lat="46.16426" lon="7.36716"><ele></ele><time>2025-9-5T1:15:53Z</time></trkpt>
<trkpt lat="46.16426" lon="7.36716"><ele></ele><time>2025-9-5T1:15:56Z</time></trkpt>
<trkpt lat="46.16426" lon="7.36716"><ele></ele><time>2025-9-5T1:15:59Z</time></trkpt>
<trkpt lat="46.16426" lon="7.36716"><ele></ele><time>2025-9-5T1:16:2Z</time></trkpt>
<trkpt lat="46.16426" lon="7.36716"><ele></ele><time>2025-9-5T1:16:5Z</time></trkpt>
<trkpt lat="46.16426" lon="7.36716"><ele></ele><time>2025-9-5T1:16:8Z</time></trkpt>
<trkpt lat="46.16426" lon="7.36716"><ele></ele><time>2025-9-5T1:16:11Z</time></trkpt>
<trkpt lat="46.16426" lon="7.36716"><ele></ele><time>2025-9-5T1:16:14Z</time></trkpt>
<trkpt lat="46.16426" lon="7.36716"><ele></ele><time>2025-9-5T1:16:17Z</time></trkpt>
<trkpt lat="46.16426" lon="7.36716"><ele></ele><time>2025-9-5T1:16:20Z</time></trkpt>
<trkpt lat="46.16426" lon="7.36716"><ele></ele><time>2025-9-5T1:16:23Z</time></trkpt>
<trkpt lat="46.16426" lon="7.36716"><ele></ele><time>2025-9-5T1:16:26Z</time></trkpt>
<trkpt lat="46.16426" lon="7.36716"><ele></ele><time>2025-9-5T1:16:29Z</time></trkpt>
<trkpt lat="46.16426" lon="7.36716"><ele></ele><time>2025-9-5T1:16:32Z</time></trkpt>
<trkpt lat="46.16426" lon="7.36716"><ele></ele><time>2025-9-5T1:16:35Z</time></trkpt>
<trkpt lat="46.16426" lon="7.36716"><ele></ele><time>2025-9-5T1:16:38Z</time></trkpt>
<trkpt lat="46.16426" lon="7.36716"><ele></ele><time>2025-9-5T1:16:41Z</time></trkpt>
<trkpt lat="46.16426" lon="7.36716"><ele></ele><time>2025-9-5T1:16:44Z</time></trkpt>
<trkpt lat="46.16426" lon="7.36716"><ele></ele><time>2025-9-5T1:16:47Z</time></trkpt>
<trkpt lat="46.16426" lon="7.36716"><ele></ele><time>2025-9-5T1:16:50Z</time></trkpt>
<trkpt lat="46.16426" lon="7.36716"><ele></ele><time>2025-9-5T1:16:53Z</time></trkpt>
<trkpt lat="46.16426" lon="7.36716"><ele></ele><time>2025-9-5T1:16:56Z</time></trkpt>
<trkpt lat="46.16426" lon="7.36716"><ele></ele><time>2025-9-5T1:16:59Z</time></trkpt>
<trkpt lat="46.16426" lon="7.36716"><ele></ele><time>2025-9-5T1:17:2Z</time></trkpt>
<trkpt lat="46.16426" lon="7.36716"><ele></ele><time>2025-9-5T1:17:5Z</time></trkpt>
<trkpt lat="46.16426" lon="7.36716"><ele></ele><time>2025-9-5T1:17:8Z</time></trkpt>
<trkpt lat="46.16426" lon="7.36716"><ele></ele><time>2025-9-5T1:17:11Z</time></trkpt>
<trkpt lat="46.16426" lon="7.36716"><ele></ele><time>2025-9-5T1:17:14Z</time></trkpt>
<trkpt lat="46.16426" lon="7.36716"><ele></ele><time>2025-9-5T1:17:17Z</time></trkpt>
<trkpt lat="46.16426" lon="7.36716"><ele></ele><time>2025-9-5T1:17:20Z</time></trkpt>
<trkpt lat="46.16426" lon="7.36716"><ele></ele><time>2025-9-5T1:17:23Z</time></trkpt>
<trkpt lat="46.16426" lon="7.36716"><ele></ele><time>2025-9-5T1:17:26Z</time></trkpt>
<trkpt lat="46.16426" lon="7.36716"><ele></ele><time>2025-9-5T1:17:29Z</time></trkpt>
<trkpt lat="46.16426" lon="7.36716"><ele></ele><time>2025-9-5T1:17:32Z</time></trkpt>
<trkpt lat="46.16426" lon="7.36716"><ele></ele><time>2025-9-5T1:17:35Z</time></trkpt>
<trkpt lat="46.16426" lon="7.36718"><ele></ele><time>2025-9-5T1:17:38Z</time></trkpt>
<trkpt lat="46.16426" lon="7.36716"><ele></ele><time>2025-9-5T1:17:41Z</time></trkpt>
<trkpt lat="46.16426" lon="7.36716"><ele></ele><time>2025-9-5T1:17:44Z</time></trkpt>
<trkpt lat="46.16426" lon="7.36717"><ele></ele><time>2025-9-5T1:17:47Z</time></trkpt>
<trkpt lat="46.16426" lon="7.36718"><ele></ele><time>2025-9-5T1:17:50Z</time></trkpt>
<trkpt lat="46.16424" lon="7.36717"><ele></ele><time>2025-9-5T1:17:53Z</time></trkpt>
<trkpt lat="46.16424" lon="7.36717"><ele></ele><time>2025-9-5T1:17:56Z</time></trkpt>
<trkpt lat="46.16424" lon="7.36717"><ele></ele><time>2025-9-5T1:17:59Z</time></trkpt>
<trkpt lat="46.16424" lon="7.36717"><ele></ele><time>2025-9-5T1:18:2Z</time></trkpt>
<trkpt lat="46.16424" lon="7.36717"><ele></ele><time>2025-9-5T1:18:5Z</time></trkpt>
<trkpt lat="46.16424" lon="7.36717"><ele></ele><time>2025-9-5T1:18:8Z</time></trkpt>
<trkpt lat="46.16424" lon="7.36717"><ele></ele><time>2025-9-5T1:18:11Z</time></trkpt>
<trkpt lat="46.16426" lon="7.36717"><ele></ele><time>2025-9-5T1:18:14Z</time></trkpt>
<trkpt lat="46.16427" lon="7.36717"><ele></ele><time>2025-9-5T1:18:17Z</time></trkpt>
<trkpt lat="46.16426" lon="7.36717"><ele></ele><time>2025-9-5T1:18:20Z</time></trkpt>
<trkpt lat="46.16426" lon="7.36717"><ele></ele><time>2025-9-5T1:18:23Z</time></trkpt>
<trkpt lat="46.16427" lon="7.36717"><ele></ele><time>2025-9-5T1:18:26Z</time></trkpt>
<trkpt lat="46.16426" lon="7.36717"><ele></ele><time>2025-9-5T1:18:29Z</time></trkpt>
<trkpt lat="46.16425" lon="7.36717"><ele></ele><time>2025-9-5T1:18:32Z</time></trkpt>
<trkpt lat="46.16426" lon="7.36717"><ele></ele><time>2025-9-5T1:18:35Z</time></trkpt>
<trkpt lat="46.16426" lon="7.36717"><ele></ele><time>2025-9-5T1:18:38Z</time></trkpt>
<trkpt lat="46.16426" lon="7.36717"><ele></ele><time>2025-9-5T1:18:41Z</time></trkpt>
<trkpt lat="46.16426" lon="7.36718"><ele></ele><time>2025-9-5T1:18:44Z</time></trkpt>
<trkpt lat="46.16426" lon="7.36717"><ele></ele><time>2025-9-5T1:18:47Z</time></trkpt>
<trkpt lat="46.16426" lon="7.36717"><ele></ele><time>2025-9-5T1:18:50Z</time></trkpt>
<trkpt lat="46.16426" lon="7.36717"><ele></ele><time>2025-9-5T1:18:53Z</time></trkpt>
<trkpt lat="46.16426" lon="7.36717"><ele></ele><time>2025-9-5T1:18:56Z</time></trkpt>
<trkpt lat="46.16426" lon="7.36717"><ele></ele><time>2025-9-5T1:18:59Z</time></trkpt>
<trkpt lat="46.16426" lon="7.36717"><ele></ele><time>2025-9-5T1:19:2Z</time></trkpt>
<trkpt lat="46.16426" lon="7.36717"><ele></ele><time>2025-9-5T1:19:5Z</time></trkpt>
<trkpt lat="46.16426" lon="7.36718"><ele></ele><time>2025-9-5T1:19:8Z</time></trkpt>
<trkpt lat="46.16426" lon="7.36717"><ele></ele><time>2025-9-5T1:19:11Z</time></trkpt>
<trkpt lat="46.16426" lon="7.36717"><ele></ele><time>2025-9-5T1:19:14Z</time></trkpt>
<trkpt lat="46.16426" lon="7.36717"><ele></ele><time>2025-9-5T1:19:17Z</time></trkpt>
<trkpt lat="46.16426" lon="7.36717"><ele></ele><time>2025-9-5T1:19:20Z</time></trkpt>
<trkpt lat="46.16426" lon="7.36717"><ele></ele><time>2025-9-5T1:19:23Z</time></trkpt>
<trkpt lat="46.16426" lon="7.36717"><ele></ele><time>2025-9-5T1:19:26Z</time></trkpt>
<trkpt lat="46.16426" lon="7.36717"><ele></ele><time>2025-9-5T1:19:29Z</time></trkpt>
<trkpt lat="46.16426" lon="7.36717"><ele></ele><time>2025-9-5T1:19:32Z</time></trkpt>
<trkpt lat="46.16426" lon="7.36717"><ele></ele><time>2025-9-5T1:19:35Z</time></trkpt>
<trkpt lat="46.16426" lon="7.36717"><ele></ele><time>2025-9-5T1:19:38Z</time></trkpt>
<trkpt lat="46.16426" lon="7.36717"><ele></ele><time>2025-9-5T1:19:41Z</time></trkpt>
<trkpt lat="46.16426" lon="7.36717"><ele></ele><time>2025-9-5T1:19:44Z</time></trkpt>
<trkpt lat="46.16426" lon="7.36717"><ele></ele><time>2025-9-5T1:19:47Z</time></trkpt>
<trkpt lat="46.16426" lon="7.36717"><ele></ele><time>2025-9-5T1:19:50Z</time></trkpt>
<trkpt lat="46.16426" lon="7.36717"><ele></ele><time>2025-9-5T1:19:53Z</time></trkpt>
<trkpt lat="46.16426" lon="7.36716"><ele></ele><time>2025-9-5T1:19:56Z</time></trkpt>
<trkpt lat="46.16427" lon="7.36718"><ele></ele><time>2025-9-5T1:19:59Z</time></trkpt>
<trkpt lat="46.16426" lon="7.36717"><ele></ele><time>2025-9-5T1:20:2Z</time></trkpt>
<trkpt lat="46.16426" lon="7.36717"><ele></ele><time>2025-9-5T1:20:5Z</time></trkpt>
<trkpt lat="46.16427" lon="7.36718"><ele></ele><time>2025-9-5T1:20:8Z</time></trkpt>
<trkpt lat="46.16426" lon="7.36717"><ele></ele><time>2025-9-5T1:20:11Z</time></trkpt>
<trkpt lat="46.16427" lon="7.36717"><ele></ele><time>2025-9-5T1:20:14Z</time></trkpt>
<trkpt lat="46.16426" lon="7.36717"><ele></ele><time>2025-9-5T1:20:17Z</time></trkpt>
<trkpt lat="46.16426" lon="7.36717"><ele></ele><time>2025-9-5T1:20:20Z</time></trkpt>
<trkpt lat="46.16426" lon="7.36718"><ele></ele><time>2025-9-5T1:20:23Z</time></trkpt>
<trkpt lat="46.16426" lon="7.36717"><ele></ele><time>2025-9-5T1:20:26Z</time></trkpt>
<trkpt lat="46.16426" lon="7.36717"><ele></ele><time>2025-9-5T1:20:29Z</time></trkpt>
<trkpt lat="46.16426" lon="7.36717"><ele></ele><time>2025-9-5T1:20:32Z</time></trkpt>
<trkpt lat="46.16426" lon="7.36717"><ele></ele><time>2025-9-5T1:20:35Z</time></trkpt>
<trkpt lat="46.16426" lon="7.36717"><ele></ele><time>2025-9-5T1:20:38Z</time></trkpt>
<trkpt lat="46.16426" lon="7.36717"><ele></ele><time>2025-9-5T1:20:41Z</time></trkpt>
<trkpt lat="46.16426" lon="7.36717"><ele></ele><time>2025-9-5T1:20:44Z</time></trkpt>
<trkpt lat="46.16426" lon="7.36717"><ele></ele><time>2025-9-5T1:20:47Z</time></trkpt>
<trkpt lat="46.16426" lon="7.36717"><ele></ele><time>2025-9-5T1:20:50Z</time></trkpt>
<trkpt lat="46.16426" lon="7.36717"><ele></ele><time>2025-9-5T1:20:53Z</time></trkpt>
<trkpt lat="46.16426" lon="7.36717"><ele></ele><time>2025-9-5T1:20:56Z</time></trkpt>
<trkpt lat="46.16426" lon="7.36718"><ele></ele><time>2025-9-5T1:20:59Z</time></trkpt>
<trkpt lat="46.16426" lon="7.36718"><ele></ele><time>2025-9-5T1:21:2Z</time></trkpt>
<trkpt lat="46.16425" lon="7.36718"><ele></ele><time>2025-9-5T1:21:5Z</time></trkpt>
<trkpt lat="46.16426" lon="7.36718"><ele></ele><time>2025-9-5T1:21:8Z</time></trkpt>
<trkpt lat="46.16426" lon="7.36718"><ele></ele><time>2025-9-5T1:21:11Z</time></trkpt>
<trkpt lat="46.16426" lon="7.36718"><ele></ele><time>2025-9-5T1:21:14Z</time></trkpt>
<trkpt lat="46.16426" lon="7.36718"><ele></ele><time>2025-9-5T1:21:17Z</time></trkpt>
<trkpt lat="46.16426" lon="7.36718"><ele></ele><time>2025-9-5T1:21:20Z</time></trkpt>
<trkpt lat="46.16426" lon="7.36718"><ele></ele><time>2025-9-5T1:21:23Z</time></trkpt>
<trkpt lat="46.16426" lon="7.36718"><ele></ele><time>2025-9-5T1:21:26Z</time></trkpt>
<trkpt lat="46.16426" lon="7.36718"><ele></ele><time>2025-9-5T1:21:29Z</time></trkpt>
<trkpt lat="46.16425" lon="7.36718"><ele></ele><time>2025-9-5T1:21:32Z</time></trkpt>
<trkpt lat="46.16426" lon="7.36718"><ele></ele><time>2025-9-5T1:21:35Z</time></trkpt>
<trkpt lat="46.16426" lon="7.36718"><ele></ele><time>2025-9-5T1:21:38Z</time></trkpt>
<trkpt lat="46.16426" lon="7.36718"><ele></ele><time>2025-9-5T1:21:41Z</time></trkpt>
<trkpt lat="46.16425" lon="7.36719"><ele></ele><time>2025-9-5T1:21:44Z</time></trkpt>
<trkpt lat="46.16426" lon="7.36718"><ele></ele><time>2025-9-5T1:21:47Z</time></trkpt>
<trkpt lat="46.16425" lon="7.36719"><ele></ele><time>2025-9-5T1:21:50Z</time></trkpt>
<trkpt lat="46.16426" lon="7.36718"><ele></ele><time>2025-9-5T1:21:53Z</time></trkpt>
<trkpt lat="46.16426" lon="7.36718"><ele></ele><time>2025-9-5T1:21:56Z</time></trkpt>
<trkpt lat="46.16426" lon="7.36718"><ele></ele><time>2025-9-5T1:21:59Z</time></trkpt>
<trkpt lat="46.16426" lon="7.36718"><ele></ele><time>2025-9-5T1:22:2Z</time></trkpt>
<trkpt lat="46.16426" lon="7.36718"><ele></ele><time>2025-9-5T1:22:5Z</time></trkpt>
<trkpt lat="46.16426" lon="7.36718"><ele></ele><time>2025-9-5T1:22:8Z</time></trkpt>
<trkpt lat="46.16426" lon="7.36718"><ele></ele><time>2025-9-5T1:22:11Z</time></trkpt>
<trkpt lat="46.16426" lon="7.36718"><ele></ele><time>2025-9-5T1:22:14Z</time></trkpt>
<trkpt lat="46.16426" lon="7.36718"><ele></ele><time>2025-9-5T1:22:17Z</time></trkpt>
<trkpt lat="46.16426" lon="7.36718"><ele></ele><time>2025-9-5T1:22:20Z</time></trkpt>
<trkpt lat="46.16426" lon="7.36718"><ele></ele><time>2025-9-5T1:22:23Z</time></trkpt>
<trkpt lat="46.16426" lon="7.36718"><ele></ele><time>2025-9-5T1:22:26Z</time></trkpt>
<trkpt lat="46.16426" lon="7.36718"><ele></ele><time>2025-9-5T1:22:29Z</time></trkpt>
<trkpt lat="46.16426" lon="7.36718"><ele></ele><time>2025-9-5T1:22:32Z</time></trkpt>
<trkpt lat="46.16426" lon="7.36717"><ele></ele><time>2025-9-5T1:22:35Z</time></trkpt>
<trkpt lat="46.16427" lon="7.36717"><ele></ele><time>2025-9-5T1:22:38Z</time></trkpt>
<trkpt lat="46.16426" lon="7.36717"><ele></ele><time>2025-9-5T1:22:41Z</time></trkpt>
<trkpt lat="46.16427" lon="7.36717"><ele></ele><time>2025-9-5T1:22:44Z</time></trkpt>
<trkpt lat="46.16427" lon="7.36717"><ele></ele><time>2025-9-5T1:22:47Z</time></trkpt>
<trkpt lat="46.16427" lon="7.36717"><ele></ele><time>2025-9-5T1:22:50Z</time></trkpt>
<trkpt lat="46.16427" lon="7.36715"><ele></ele><time>2025-9-5T1:22:53Z</time></trkpt>
<trkpt lat="46.16427" lon="7.36716"><ele></ele><time>2025-9-5T1:22:56Z</time></trkpt>
<trkpt lat="46.16427" lon="7.36717"><ele></ele><time>2025-9-5T1:22:59Z</time></trkpt>
<trkpt lat="46.16427" lon="7.36717"><ele></ele><time>2025-9-5T1:23:2Z</time></trkpt>
<trkpt lat="46.16427" lon="7.36717"><ele></ele><time>2025-9-5T1:23:5Z</time></trkpt>
<trkpt lat="46.16427" lon="7.36716"><ele></ele><time>2025-9-5T1:23:8Z</time></trkpt>
<trkpt lat="46.16427" lon="7.36715"><ele></ele><time>2025-9-5T1:23:11Z</time></trkpt>
<trkpt lat="46.16427" lon="7.36714"><ele></ele><time>2025-9-5T1:23:14Z</time></trkpt>
<trkpt lat="46.16427" lon="7.36714"><ele></ele><time>2025-9-5T1:23:17Z</time></trkpt>
<trkpt lat="46.16427" lon="7.36715"><ele></ele><time>2025-9-5T1:23:20Z</time></trkpt>
<trkpt lat="46.16427" lon="7.36714"><ele></ele><time>2025-9-5T1:23:23Z</time></trkpt>
<trkpt lat="46.16428" lon="7.36714"><ele></ele><time>2025-9-5T1:23:26Z</time></trkpt>
<trkpt lat="46.16427" lon="7.36715"><ele></ele><time>2025-9-5T1:23:29Z</time></trkpt>
<trkpt lat="46.16427" lon="7.36717"><ele></ele><time>2025-9-5T1:23:32Z</time></trkpt>
<trkpt lat="46.16427" lon="7.36717"><ele></ele><time>2025-9-5T1:23:35Z</time></trkpt>
<trkpt lat="46.16426" lon="7.36717"><ele></ele><time>2025-9-5T1:23:38Z</time></trkpt>
<trkpt lat="46.16426" lon="7.36717"><ele></ele><time>2025-9-5T1:23:41Z</time></trkpt>
<trkpt lat="46.16425" lon="7.36719"><ele></ele><time>2025-9-5T1:23:44Z</time></trkpt>
<trkpt lat="46.16426" lon="7.36719"><ele></ele><time>2025-9-5T1:23:47Z</time></trkpt>
<trkpt lat="46.16426" lon="7.36719"><ele></ele><time>2025-9-5T1:23:50Z</time></trkpt>
<trkpt lat="46.16426" lon="7.36719"><ele></ele><time>2025-9-5T1:23:53Z</time></trkpt>
<trkpt lat="46.16426" lon="7.36719"><ele></ele><time>2025-9-5T1:23:56Z</time></trkpt>
<trkpt lat="46.16426" lon="7.36719"><ele></ele><time>2025-9-5T1:23:59Z</time></trkpt>
<trkpt lat="46.16426" lon="7.36719"><ele></ele><time>2025-9-5T1:24:2Z</time></trkpt>
<trkpt lat="46.16426" lon="7.36719"><ele></ele><time>2025-9-5T1:24:5Z</time></trkpt>
<trkpt lat="46.16426" lon="7.36717"><ele></ele><time>2025-9-5T1:24:8Z</time></trkpt>
<trkpt lat="46.16426" lon="7.36717"><ele></ele><time>2025-9-5T1:24:11Z</time></trkpt>
<trkpt lat="46.16426" lon="7.36717"><ele></ele><time>2025-9-5T1:24:14Z</time></trkpt>
<trkpt lat="46.16427" lon="7.36719"><ele></ele><time>2025-9-5T1:24:17Z</time></trkpt>
<trkpt lat="46.16427" lon="7.36719"><ele></ele><time>2025-9-5T1:24:20Z</time></trkpt>
<trkpt lat="46.16427" lon="7.36719"><ele></ele><time>2025-9-5T1:24:23Z</time></trkpt>
<trkpt lat="46.16427" lon="7.36719"><ele></ele><time>2025-9-5T1:24:26Z</time></trkpt>
<trkpt lat="46.16427" lon="7.36719"><ele></ele><time>2025-9-5T1:24:29Z</time></trkpt>
<trkpt lat="46.16427" lon="7.36719"><ele></ele><time>2025-9-5T1:24:32Z</time></trkpt>
<trkpt lat="46.16427" lon="7.36719"><ele></ele><time>2025-9-5T1:24:35Z</time></trkpt>
<trkpt lat="46.16427" lon="7.36719"><ele></ele><time>2025-9-5T1:24:38Z</time></trkpt>
<trkpt lat="46.16427" lon="7.36719"><ele></ele><time>2025-9-5T1:24:41Z</time></trkpt>
<trkpt lat="46.16429" lon="7.36719"><ele></ele><time>2025-9-5T1:24:44Z</time></trkpt>
<trkpt lat="46.16428" lon="7.3672"><ele></ele><time>2025-9-5T1:24:47Z</time></trkpt>
<trkpt lat="46.16428" lon="7.3672"><ele></ele><time>2025-9-5T1:24:50Z</time></trkpt>
<trkpt lat="46.16427" lon="7.36718"><ele></ele><time>2025-9-5T1:24:53Z</time></trkpt>
<trkpt lat="46.16427" lon="7.36718"><ele></ele><time>2025-9-5T1:24:56Z</time></trkpt>
<trkpt lat="46.16427" lon="7.36715"><ele></ele><time>2025-9-5T1:24:59Z</time></trkpt>
<trkpt lat="46.16427" lon="7.36712"><ele></ele><time>2025-9-5T1:25:2Z</time></trkpt>
<trkpt lat="46.16431" lon="7.3671"><ele></ele><time>2025-9-5T1:25:5Z</time></trkpt>
<trkpt lat="46.16432" lon="7.36708"><ele></ele><time>2025-9-5T1:25:8Z</time></trkpt>
<trkpt lat="46.16432" lon="7.36706"><ele></ele><time>2025-9-5T1:25:11Z</time></trkpt>
<trkpt lat="46.16432" lon="7.36706"><ele></ele><time>2025-9-5T1:25:14Z</time></trkpt>
<trkpt lat="46.16432" lon="7.36706"><ele></ele><time>2025-9-5T1:25:17Z</time></trkpt>
<trkpt lat="46.16432" lon="7.36706"><ele></ele><time>2025-9-5T1:25:20Z</time></trkpt>
<trkpt lat="46.16432" lon="7.36706"><ele></ele><time>2025-9-5T1:25:23Z</time></trkpt>
<trkpt lat="46.16431" lon="7.367"><ele></ele><time>2025-9-5T1:25:26Z</time></trkpt>
<trkpt lat="46.16429" lon="7.36692"><ele></ele><time>2025-9-5T1:25:29Z</time></trkpt>
<trkpt lat="46.16428" lon="7.36688"><ele></ele><time>2025-9-5T1:25:32Z</time></trkpt>
<trkpt lat="46.16426" lon="7.36676"><ele></ele><time>2025-9-5T1:25:35Z</time></trkpt>
<trkpt lat="46.16425" lon="7.36673"><ele></ele><time>2025-9-5T1:25:38Z</time></trkpt>
<trkpt lat="46.16422" lon="7.36662"><ele></ele><time>2025-9-5T1:25:41Z</time></trkpt>
<trkpt lat="46.16421" lon="7.36658"><ele></ele><time>2025-9-5T1:25:44Z</time></trkpt>
<trkpt lat="46.1642" lon="7.36653"><ele></ele><time>2025-9-5T1:25:47Z</time></trkpt>
<trkpt lat="46.16418" lon="7.36646"><ele></ele><time>2025-9-5T1:25:50Z</time></trkpt>
<trkpt lat="46.16417" lon="7.36644"><ele></ele><time>2025-9-5T1:25:53Z</time></trkpt>
<trkpt lat="46.16417" lon="7.36643"><ele></ele><time>2025-9-5T1:25:56Z</time></trkpt>
<trkpt lat="46.16417" lon="7.36643"><ele></ele><time>2025-9-5T1:25:59Z</time></trkpt>
<trkpt lat="46.16417" lon="7.36642"><ele></ele><time>2025-9-5T1:26:2Z</time></trkpt>
<trkpt lat="46.16416" lon="7.36636"><ele></ele><time>2025-9-5T1:26:5Z</time></trkpt>
<trkpt lat="46.16414" lon="7.36631"><ele></ele><time>2025-9-5T1:26:8Z</time></trkpt>
<trkpt lat="46.16414" lon="7.36629"><ele></ele><time>2025-9-5T1:26:11Z</time></trkpt>
<trkpt lat="46.16413" lon="7.36628"><ele></ele><time>2025-9-5T1:26:14Z</time></trkpt>
<trkpt lat="46.16411" lon="7.36621"><ele></ele><time>2025-9-5T1:26:17Z</time></trkpt>
<trkpt lat="46.16411" lon="7.3662"><ele></ele><time>2025-9-5T1:26:20Z</time></trkpt>
<trkpt lat="46.16408" lon="7.36614"><ele></ele><time>2025-9-5T1:26:23Z</time></trkpt>
<trkpt lat="46.16407" lon="7.36613"><ele></ele><time>2025-9-5T1:26:26Z</time></trkpt>
<trkpt lat="46.16406" lon="7.36612"><ele></ele><time>2025-9-5T1:26:29Z</time></trkpt>
<trkpt lat="46.16404" lon="7.36607"><ele></ele><time>2025-9-5T1:26:32Z</time></trkpt>
<trkpt lat="46.16404" lon="7.36605"><ele></ele><time>2025-9-5T1:26:35Z</time></trkpt>
<trkpt lat="46.16403" lon="7.36599"><ele></ele><time>2025-9-5T1:26:38Z</time></trkpt>
<trkpt lat="46.164" lon="7.36596"><ele></ele><time>2025-9-5T1:26:41Z</time></trkpt>
<trkpt lat="46.164" lon="7.36594"><ele></ele><time>2025-9-5T1:26:44Z</time></trkpt>
<trkpt lat="46.16399" lon="7.36593"><ele></ele><time>2025-9-5T1:26:47Z</time></trkpt>
<trkpt lat="46.16398" lon="7.36593"><ele></ele><time>2025-9-5T1:26:50Z</time></trkpt>
<trkpt lat="46.16397" lon="7.36594"><ele></ele><time>2025-9-5T1:26:53Z</time></trkpt>
<trkpt lat="46.16395" lon="7.36594"><ele></ele><time>2025-9-5T1:26:56Z</time></trkpt>
<trkpt lat="46.16391" lon="7.36592"><ele></ele><time>2025-9-5T1:26:59Z</time></trkpt>
<trkpt lat="46.1639" lon="7.36592"><ele></ele><time>2025-9-5T1:27:2Z</time></trkpt>
<trkpt lat="46.16389" lon="7.36589"><ele></ele><time>2025-9-5T1:27:5Z</time></trkpt>
<trkpt lat="46.16384" lon="7.36588"><ele></ele><time>2025-9-5T1:27:8Z</time></trkpt>
<trkpt lat="46.16382" lon="7.36583"><ele></ele><time>2025-9-5T1:27:11Z</time></trkpt>
<trkpt lat="46.16381" lon="7.36582"><ele></ele><time>2025-9-5T1:27:14Z</time></trkpt>
<trkpt lat="46.1638" lon="7.36579"><ele></ele><time>2025-9-5T1:27:17Z</time></trkpt>
<trkpt lat="46.16376" lon="7.36574"><ele></ele><time>2025-9-5T1:27:20Z</time></trkpt>
<trkpt lat="46.16373" lon="7.36571"><ele></ele><time>2025-9-5T1:27:23Z</time></trkpt>
<trkpt lat="46.1637" lon="7.36568"><ele></ele><time>2025-9-5T1:27:26Z</time></trkpt>
<trkpt lat="46.16366" lon="7.36561"><ele></ele><time>2025-9-5T1:27:29Z</time></trkpt>
<trkpt lat="46.16363" lon="7.36559"><ele></ele><time>2025-9-5T1:27:32Z</time></trkpt>
<trkpt lat="46.16362" lon="7.36559"><ele></ele><time>2025-9-5T1:27:35Z</time></trkpt>
<trkpt lat="46.16359" lon="7.36556"><ele></ele><time>2025-9-5T1:27:38Z</time></trkpt>
<trkpt lat="46.16359" lon="7.36556"><ele></ele><time>2025-9-5T1:27:41Z</time></trkpt>
<trkpt lat="46.16355" lon="7.36551"><ele></ele><time>2025-9-5T1:27:44Z</time></trkpt>
<trkpt lat="46.16352" lon="7.36545"><ele></ele><time>2025-9-5T1:27:47Z</time></trkpt>
<trkpt lat="46.16347" lon="7.36539"><ele></ele><time>2025-9-5T1:27:50Z</time></trkpt>
<trkpt lat="46.16341" lon="7.36532"><ele></ele><time>2025-9-5T1:27:53Z</time></trkpt>
<trkpt lat="46.16328" lon="7.3652"><ele></ele><time>2025-9-5T1:27:56Z</time></trkpt>
<trkpt lat="46.16324" lon="7.36515"><ele></ele><time>2025-9-5T1:27:59Z</time></trkpt>
<trkpt lat="46.1632" lon="7.3651"><ele></ele><time>2025-9-5T1:28:2Z</time></trkpt>
<trkpt lat="46.16316" lon="7.36504"><ele></ele><time>2025-9-5T1:28:5Z</time></trkpt>
<trkpt lat="46.16309" lon="7.36493"><ele></ele><time>2025-9-5T1:28:8Z</time></trkpt>
<trkpt lat="46.16306" lon="7.36489"><ele></ele><time>2025-9-5T1:28:11Z</time></trkpt>
<trkpt lat="46.16297" lon="7.36485"><ele></ele><time>2025-9-5T1:28:14Z</time></trkpt>
<trkpt lat="46.16296" lon="7.36486"><ele></ele><time>2025-9-5T1:28:17Z</time></trkpt>
<trkpt lat="46.16292" lon="7.36487"><ele></ele><time>2025-9-5T1:28:20Z</time></trkpt>
<trkpt lat="46.16292" lon="7.36487"><ele></ele><time>2025-9-5T1:28:23Z</time></trkpt>
<trkpt lat="46.16289" lon="7.36489"><ele></ele><time>2025-9-5T1:28:26Z</time></trkpt>
<trkpt lat="46.16287" lon="7.3649"><ele></ele><time>2025-9-5T1:28:29Z</time></trkpt>
<trkpt lat="46.16285" lon="7.36491"><ele></ele><time>2025-9-5T1:28:32Z</time></trkpt>
<trkpt lat="46.16285" lon="7.36491"><ele></ele><time>2025-9-5T1:28:35Z</time></trkpt>
<trkpt lat="46.1628" lon="7.36493"><ele></ele><time>2025-9-5T1:28:38Z</time></trkpt>
<trkpt lat="46.16275" lon="7.36493"><ele></ele><time>2025-9-5T1:28:41Z</time></trkpt>
<trkpt lat="46.16273" lon="7.36493"><ele></ele><time>2025-9-5T1:28:44Z</time></trkpt>
<trkpt lat="46.16273" lon="7.36493"><ele></ele><time>2025-9-5T1:28:47Z</time></trkpt>
<trkpt lat="46.16273" lon="7.36493"><ele></ele><time>2025-9-5T1:28:50Z</time></trkpt>
<trkpt lat="46.16273" lon="7.36493"><ele></ele><time>2025-9-5T1:28:53Z</time></trkpt>
<trkpt lat="46.16272" lon="7.36494"><ele></ele><time>2025-9-5T1:28:56Z</time></trkpt>
<trkpt lat="46.16269" lon="7.36494"><ele></ele><time>2025-9-5T1:28:59Z</time></trkpt>
<trkpt lat="46.16267" lon="7.36493"><ele></ele><time>2025-9-5T1:29:2Z</time></trkpt>
<trkpt lat="46.16268" lon="7.36493"><ele></ele><time>2025-9-5T1:29:5Z</time></trkpt>
<trkpt lat="46.16262" lon="7.36493"><ele></ele><time>2025-9-5T1:29:8Z</time></trkpt>
<trkpt lat="46.16249" lon="7.36491"><ele></ele><time>2025-9-5T1:29:11Z</time></trkpt>
<trkpt lat="46.16242" lon="7.3649"><ele></ele><time>2025-9-5T1:29:14Z</time></trkpt>
<trkpt lat="46.16241" lon="7.36491"><ele></ele><time>2025-9-5T1:29:17Z</time></trkpt>
<trkpt lat="46.16241" lon="7.3649"><ele></ele><time>2025-9-5T1:29:20Z</time></trkpt>
<trkpt lat="46.16241" lon="7.3649"><ele></ele><time>2025-9-5T1:29:23Z</time></trkpt>
<trkpt lat="46.16241" lon="7.3649"><ele></ele><time>2025-9-5T1:29:26Z</time></trkpt>
<trkpt lat="46.16241" lon="7.3649"><ele></ele><time>2025-9-5T1:29:29Z</time></trkpt>
<trkpt lat="46.16241" lon="7.3649"><ele></ele><time>2025-9-5T1:29:32Z</time></trkpt>
<trkpt lat="46.16241" lon="7.3649"><ele></ele><time>2025-9-5T1:29:35Z</time></trkpt>
<trkpt lat="46.16241" lon="7.3649"><ele></ele><time>2025-9-5T1:29:38Z</time></trkpt>
<trkpt lat="46.16241" lon="7.3649"><ele></ele><time>2025-9-5T1:29:41Z</time></trkpt>
<trkpt lat="46.16241" lon="7.3649"><ele></ele><time>2025-9-5T1:29:44Z</time></trkpt>
<trkpt lat="46.16241" lon="7.3649"><ele></ele><time>2025-9-5T1:29:47Z</time></trkpt>
<trkpt lat="46.1624" lon="7.36493"><ele></ele><time>2025-9-5T1:29:50Z</time></trkpt>
<trkpt lat="46.16241" lon="7.36493"><ele></ele><time>2025-9-5T1:29:53Z</time></trkpt>
<trkpt lat="46.1624" lon="7.36493"><ele></ele><time>2025-9-5T1:29:56Z</time></trkpt>
<trkpt lat="46.16241" lon="7.36492"><ele></ele><time>2025-9-5T1:29:59Z</time></trkpt>
<trkpt lat="46.16241" lon="7.36492"><ele></ele><time>2025-9-5T1:30:2Z</time></trkpt>
<trkpt lat="46.16241" lon="7.36492"><ele></ele><time>2025-9-5T1:30:5Z</time></trkpt>
<trkpt lat="46.16241" lon="7.36492"><ele></ele><time>2025-9-5T1:30:8Z</time></trkpt>
<trkpt lat="46.16241" lon="7.36492"><ele></ele><time>2025-9-5T1:30:11Z</time></trkpt>
<trkpt lat="46.16241" lon="7.36492"><ele></ele><time>2025-9-5T1:30:14Z</time></trkpt>
<trkpt lat="46.16241" lon="7.36491"><ele></ele><time>2025-9-5T1:30:17Z</time></trkpt>
<trkpt lat="46.16241" lon="7.36492"><ele></ele><time>2025-9-5T1:30:20Z</time></trkpt>
<trkpt lat="46.16241" lon="7.36492"><ele></ele><time>2025-9-5T1:30:23Z</time></trkpt>
<trkpt lat="46.16241" lon="7.36492"><ele></ele><time>2025-9-5T1:30:26Z</time></trkpt>
<trkpt lat="46.16241" lon="7.36492"><ele></ele><time>2025-9-5T1:30:29Z</time></trkpt>
<trkpt lat="46.1624" lon="7.36493"><ele></ele><time>2025-9-5T1:30:32Z</time></trkpt>
<trkpt lat="46.1624" lon="7.36492"><ele></ele><time>2025-9-5T1:30:35Z</time></trkpt>
<trkpt lat="46.16241" lon="7.36492"><ele></ele><time>2025-9-5T1:30:38Z</time></trkpt>
<trkpt lat="46.16241" lon="7.36492"><ele></ele><time>2025-9-5T1:30:41Z</time></trkpt>
<trkpt lat="46.16241" lon="7.36492"><ele></ele><time>2025-9-5T1:30:44Z</time></trkpt>
<trkpt lat="46.16241" lon="7.36492"><ele></ele><time>2025-9-5T1:30:47Z</time></trkpt>
<trkpt lat="46.16241" lon="7.36491"><ele></ele><time>2025-9-5T1:30:50Z</time></trkpt>
<trkpt lat="46.16241" lon="7.36492"><ele></ele><time>2025-9-5T1:30:53Z</time></trkpt>
<trkpt lat="46.16237" lon="7.3649"><ele></ele><time>2025-9-5T1:30:56Z</time></trkpt>
<trkpt lat="46.16224" lon="7.36489"><ele></ele><time>2025-9-5T1:30:59Z</time></trkpt>
<trkpt lat="46.16216" lon="7.3649"><ele></ele><time>2025-9-5T1:31:2Z</time></trkpt>
<trkpt lat="46.16207" lon="7.36495"><ele></ele><time>2025-9-5T1:31:5Z</time></trkpt>
<trkpt lat="46.16191" lon="7.36509"><ele></ele><time>2025-9-5T1:31:8Z</time></trkpt>
<trkpt lat="46.16183" lon="7.36514"><ele></ele><time>2025-9-5T1:31:11Z</time></trkpt>
<trkpt lat="46.16174" lon="7.36519"><ele></ele><time>2025-9-5T1:31:14Z</time></trkpt>
<trkpt lat="46.1617" lon="7.36521"><ele></ele><time>2025-9-5T1:31:17Z</time></trkpt>
<trkpt lat="46.16166" lon="7.36522"><ele></ele><time>2025-9-5T1:31:20Z</time></trkpt>
<trkpt lat="46.16154" lon="7.36525"><ele></ele><time>2025-9-5T1:31:23Z</time></trkpt>
<trkpt lat="46.16143" lon="7.36527"><ele></ele><time>2025-9-5T1:31:26Z</time></trkpt>
<trkpt lat="46.16136" lon="7.36531"><ele></ele><time>2025-9-5T1:31:29Z</time></trkpt>
<trkpt lat="46.16133" lon="7.3653"><ele></ele><time>2025-9-5T1:31:32Z</time></trkpt>
<trkpt lat="46.16126" lon="7.3653"><ele></ele><time>2025-9-5T1:31:35Z</time></trkpt>
<trkpt lat="46.16117" lon="7.36529"><ele></ele><time>2025-9-5T1:31:38Z</time></trkpt>
<trkpt lat="46.16111" lon="7.3653"><ele></ele><time>2025-9-5T1:31:41Z</time></trkpt>
<trkpt lat="46.16105" lon="7.36531"><ele></ele><time>2025-9-5T1:31:44Z</time></trkpt>
<trkpt lat="46.16096" lon="7.36527"><ele></ele><time>2025-9-5T1:31:47Z</time></trkpt>
<trkpt lat="46.16094" lon="7.36527"><ele></ele><time>2025-9-5T1:31:50Z</time></trkpt>
<trkpt lat="46.1609" lon="7.36526"><ele></ele><time>2025-9-5T1:31:53Z</time></trkpt>
<trkpt lat="46.16089" lon="7.36526"><ele></ele><time>2025-9-5T1:31:56Z</time></trkpt>
<trkpt lat="46.16082" lon="7.36524"><ele></ele><time>2025-9-5T1:31:59Z</time></trkpt>
<trkpt lat="46.16079" lon="7.36525"><ele></ele><time>2025-9-5T1:32:2Z</time></trkpt>
<trkpt lat="46.16072" lon="7.36526"><ele></ele><time>2025-9-5T1:32:5Z</time></trkpt>
<trkpt lat="46.16067" lon="7.36527"><ele></ele><time>2025-9-5T1:32:8Z</time></trkpt>
<trkpt lat="46.16066" lon="7.36527"><ele></ele><time>2025-9-5T1:32:11Z</time></trkpt>
<trkpt lat="46.16063" lon="7.36528"><ele></ele><time>2025-9-5T1:32:14Z</time></trkpt>
<trkpt lat="46.1606" lon="7.36528"><ele></ele><time>2025-9-5T1:32:17Z</time></trkpt>
<trkpt lat="46.1606" lon="7.36528"><ele></ele><time>2025-9-5T1:32:20Z</time></trkpt>
<trkpt lat="46.16061" lon="7.36529"><ele></ele><time>2025-9-5T1:32:23Z</time></trkpt>
<trkpt lat="46.1606" lon="7.36528"><ele></ele><time>2025-9-5T1:32:26Z</time></trkpt>
<trkpt lat="46.16053" lon="7.36529"><ele></ele><time>2025-9-5T1:32:29Z</time></trkpt>
<trkpt lat="46.1605" lon="7.36531"><ele></ele><time>2025-9-5T1:32:32Z</time></trkpt>
<trkpt lat="46.16039" lon="7.36536"><ele></ele><time>2025-9-5T1:32:35Z</time></trkpt>
<trkpt lat="46.16033" lon="7.36539"><ele></ele><time>2025-9-5T1:32:38Z</time></trkpt>
<trkpt lat="46.16023" lon="7.36541"><ele></ele><time>2025-9-5T1:32:41Z</time></trkpt>
<trkpt lat="46.16006" lon="7.36549"><ele></ele><time>2025-9-5T1:32:44Z</time></trkpt>
<trkpt lat="46.16003" lon="7.36552"><ele></ele><time>2025-9-5T1:32:47Z</time></trkpt>
<trkpt lat="46.16001" lon="7.36554"><ele></ele><time>2025-9-5T1:32:50Z</time></trkpt>
<trkpt lat="46.15989" lon="7.36561"><ele></ele><time>2025-9-5T1:32:53Z</time></trkpt>
<trkpt lat="46.15979" lon="7.36567"><ele></ele><time>2025-9-5T1:32:56Z</time></trkpt>
<trkpt lat="46.15968" lon="7.36577"><ele></ele><time>2025-9-5T1:32:59Z</time></trkpt>
<trkpt lat="46.15965" lon="7.36579"><ele></ele><time>2025-9-5T1:33:2Z</time></trkpt>
<trkpt lat="46.15957" lon="7.36598"><ele></ele><time>2025-9-5T1:33:5Z</time></trkpt>
<trkpt lat="46.15948" lon="7.36624"><ele></ele><time>2025-9-5T1:33:8Z</time></trkpt>
<trkpt lat="46.1594" lon="7.36649"><ele></ele><time>2025-9-5T1:33:11Z</time></trkpt>
<trkpt lat="46.15938" lon="7.36655"><ele></ele><time>2025-9-5T1:33:14Z</time></trkpt>
<trkpt lat="46.15937" lon="7.3666"><ele></ele><time>2025-9-5T1:33:17Z</time></trkpt>
<trkpt lat="46.15935" lon="7.36666"><ele></ele><time>2025-9-5T1:33:20Z</time></trkpt>
<trkpt lat="46.15933" lon="7.36675"><ele></ele><time>2025-9-5T1:33:23Z</time></trkpt>
<trkpt lat="46.15931" lon="7.36682"><ele></ele><time>2025-9-5T1:33:26Z</time></trkpt>
<trkpt lat="46.15931" lon="7.36683"><ele></ele><time>2025-9-5T1:33:29Z</time></trkpt>
<trkpt lat="46.15931" lon="7.36684"><ele></ele><time>2025-9-5T1:33:32Z</time></trkpt>
<trkpt lat="46.15931" lon="7.36684"><ele></ele><time>2025-9-5T1:33:35Z</time></trkpt>
<trkpt lat="46.1593" lon="7.36688"><ele></ele><time>2025-9-5T1:33:38Z</time></trkpt>
<trkpt lat="46.15929" lon="7.36692"><ele></ele><time>2025-9-5T1:33:41Z</time></trkpt>
<trkpt lat="46.15929" lon="7.36694"><ele></ele><time>2025-9-5T1:33:44Z</time></trkpt>
<trkpt lat="46.15929" lon="7.36696"><ele></ele><time>2025-9-5T1:33:47Z</time></trkpt>
<trkpt lat="46.15927" lon="7.36701"><ele></ele><time>2025-9-5T1:33:50Z</time></trkpt>
<trkpt lat="46.15927" lon="7.36702"><ele></ele><time>2025-9-5T1:33:53Z</time></trkpt>
<trkpt lat="46.15926" lon="7.36706"><ele></ele><time>2025-9-5T1:33:56Z</time></trkpt>
<trkpt lat="46.15924" lon="7.36708"><ele></ele><time>2025-9-5T1:33:59Z</time></trkpt>
<trkpt lat="46.15923" lon="7.36709"><ele></ele><time>2025-9-5T1:34:2Z</time></trkpt>
<trkpt lat="46.15922" lon="7.36712"><ele></ele><time>2025-9-5T1:34:5Z</time></trkpt>
<trkpt lat="46.15922" lon="7.36714"><ele></ele><time>2025-9-5T1:34:8Z</time></trkpt>
<trkpt lat="46.15922" lon="7.36715"><ele></ele><time>2025-9-5T1:34:11Z</time></trkpt>
<trkpt lat="46.15921" lon="7.36718"><ele></ele><time>2025-9-5T1:34:14Z</time></trkpt>
<trkpt lat="46.1592" lon="7.36721"><ele></ele><time>2025-9-5T1:34:17Z</time></trkpt>
<trkpt lat="46.1592" lon="7.36721"><ele></ele><time>2025-9-5T1:34:20Z</time></trkpt>
<trkpt lat="46.1592" lon="7.36721"><ele></ele><time>2025-9-5T1:34:23Z</time></trkpt>
<trkpt lat="46.1592" lon="7.36721"><ele></ele><time>2025-9-5T1:34:26Z</time></trkpt>
<trkpt lat="46.15916" lon="7.36725"><ele></ele><time>2025-9-5T1:34:29Z</time></trkpt>
<trkpt lat="46.15916" lon="7.36726"><ele></ele><time>2025-9-5T1:34:32Z</time></trkpt>
<trkpt lat="46.15912" lon="7.36724"><ele></ele><time>2025-9-5T1:34:35Z</time></trkpt>
<trkpt lat="46.15911" lon="7.36722"><ele></ele><time>2025-9-5T1:34:38Z</time></trkpt>
<trkpt lat="46.1591" lon="7.3672"><ele></ele><time>2025-9-5T1:34:41Z</time></trkpt>
<trkpt lat="46.15906" lon="7.36716"><ele></ele><time>2025-9-5T1:34:44Z</time></trkpt>
<trkpt lat="46.15906" lon="7.36715"><ele></ele><time>2025-9-5T1:34:47Z</time></trkpt>
<trkpt lat="46.15904" lon="7.36713"><ele></ele><time>2025-9-5T1:34:50Z</time></trkpt>
<trkpt lat="46.15903" lon="7.36711"><ele></ele><time>2025-9-5T1:34:53Z</time></trkpt>
<trkpt lat="46.15903" lon="7.36709"><ele></ele><time>2025-9-5T1:34:56Z</time></trkpt>
<trkpt lat="46.159" lon="7.36706"><ele></ele><time>2025-9-5T1:34:59Z</time></trkpt>
<trkpt lat="46.15897" lon="7.36702"><ele></ele><time>2025-9-5T1:35:2Z</time></trkpt>
<trkpt lat="46.15896" lon="7.36701"><ele></ele><time>2025-9-5T1:35:5Z</time></trkpt>
<trkpt lat="46.15894" lon="7.36694"><ele></ele><time>2025-9-5T1:35:8Z</time></trkpt>
<trkpt lat="46.15894" lon="7.36692"><ele></ele><time>2025-9-5T1:35:11Z</time></trkpt>
<trkpt lat="46.15891" lon="7.36689"><ele></ele><time>2025-9-5T1:35:14Z</time></trkpt>
<trkpt lat="46.15889" lon="7.36685"><ele></ele><time>2025-9-5T1:35:17Z</time></trkpt>
<trkpt lat="46.15888" lon="7.36684"><ele></ele><time>2025-9-5T1:35:20Z</time></trkpt>
<trkpt lat="46.15885" lon="7.36681"><ele></ele><time>2025-9-5T1:35:23Z</time></trkpt>
<trkpt lat="46.15884" lon="7.36679"><ele></ele><time>2025-9-5T1:35:26Z</time></trkpt>
<trkpt lat="46.15883" lon="7.36674"><ele></ele><time>2025-9-5T1:35:29Z</time></trkpt>
<trkpt lat="46.15881" lon="7.3667"><ele></ele><time>2025-9-5T1:35:32Z</time></trkpt>
<trkpt lat="46.15881" lon="7.36667"><ele></ele><time>2025-9-5T1:35:35Z</time></trkpt>
<trkpt lat="46.1588" lon="7.36663"><ele></ele><time>2025-9-5T1:35:38Z</time></trkpt>
<trkpt lat="46.1588" lon="7.36662"><ele></ele><time>2025-9-5T1:35:41Z</time></trkpt>
<trkpt lat="46.15878" lon="7.36654"><ele></ele><time>2025-9-5T1:35:44Z</time></trkpt>
<trkpt lat="46.15877" lon="7.36648"><ele></ele><time>2025-9-5T1:35:47Z</time></trkpt>
<trkpt lat="46.15876" lon="7.36644"><ele></ele><time>2025-9-5T1:35:50Z</time></trkpt>
<trkpt lat="46.15876" lon="7.36644"><ele></ele><time>2025-9-5T1:35:53Z</time></trkpt>
<trkpt lat="46.15877" lon="7.36644"><ele></ele><time>2025-9-5T1:35:56Z</time></trkpt>
<trkpt lat="46.15877" lon="7.36644"><ele></ele><time>2025-9-5T1:35:59Z</time></trkpt>
<trkpt lat="46.15877" lon="7.36644"><ele></ele><time>2025-9-5T1:36:2Z</time></trkpt>
<trkpt lat="46.15877" lon="7.36643"><ele></ele><time>2025-9-5T1:36:5Z</time></trkpt>
<trkpt lat="46.15876" lon="7.36645"><ele></ele><time>2025-9-5T1:36:8Z</time></trkpt>
<trkpt lat="46.15876" lon="7.36645"><ele></ele><time>2025-9-5T1:36:11Z</time></trkpt>
<trkpt lat="46.15876" lon="7.36646"><ele></ele><time>2025-9-5T1:36:14Z</time></trkpt>
<trkpt lat="46.15876" lon="7.36646"><ele></ele><time>2025-9-5T1:36:17Z</time></trkpt>
<trkpt lat="46.15876" lon="7.36646"><ele></ele><time>2025-9-5T1:36:20Z</time></trkpt>
<trkpt lat="46.15876" lon="7.36646"><ele></ele><time>2025-9-5T1:36:23Z</time></trkpt>
<trkpt lat="46.15876" lon="7.36646"><ele></ele><time>2025-9-5T1:36:26Z</time></trkpt>
<trkpt lat="46.15876" lon="7.36646"><ele></ele><time>2025-9-5T1:36:29Z</time></trkpt>
<trkpt lat="46.15876" lon="7.36646"><ele></ele><time>2025-9-5T1:36:32Z</time></trkpt>
<trkpt lat="46.15876" lon="7.36646"><ele></ele><time>2025-9-5T1:36:35Z</time></trkpt>
<trkpt lat="46.15876" lon="7.36646"><ele></ele><time>2025-9-5T1:36:38Z</time></trkpt>
<trkpt lat="46.15876" lon="7.36646"><ele></ele><time>2025-9-5T1:36:41Z</time></trkpt>
<trkpt lat="46.15876" lon="7.36646"><ele></ele><time>2025-9-5T1:36:44Z</time></trkpt>
<trkpt lat="46.15876" lon="7.36646"><ele></ele><time>2025-9-5T1:36:47Z</time></trkpt>
<trkpt lat="46.15876" lon="7.36646"><ele></ele><time>2025-9-5T1:36:50Z</time></trkpt>
<trkpt lat="46.15876" lon="7.36646"><ele></ele><time>2025-9-5T1:36:53Z</time></trkpt>
<trkpt lat="46.15876" lon="7.36646"><ele></ele><time>2025-9-5T1:36:56Z</time></trkpt>
<trkpt lat="46.15876" lon="7.36646"><ele></ele><time>2025-9-5T1:36:59Z</time></trkpt>
<trkpt lat="46.15876" lon="7.36646"><ele></ele><time>2025-9-5T1:37:2Z</time></trkpt>
<trkpt lat="46.15875" lon="7.36647"><ele></ele><time>2025-9-5T1:37:5Z</time></trkpt>
<trkpt lat="46.15875" lon="7.36647"><ele></ele><time>2025-9-5T1:37:8Z</time></trkpt>
<trkpt lat="46.15875" lon="7.36647"><ele></ele><time>2025-9-5T1:37:11Z</time></trkpt>
<trkpt lat="46.15875" lon="7.36647"><ele></ele><time>2025-9-5T1:37:14Z</time></trkpt>
<trkpt lat="46.15875" lon="7.36647"><ele></ele><time>2025-9-5T1:37:17Z</time></trkpt>
<trkpt lat="46.15876" lon="7.36646"><ele></ele><time>2025-9-5T1:37:20Z</time></trkpt>
<trkpt lat="46.15876" lon="7.36645"><ele></ele><time>2025-9-5T1:37:23Z</time></trkpt>
<trkpt lat="46.15877" lon="7.36645"><ele></ele><time>2025-9-5T1:37:26Z</time></trkpt>
<trkpt lat="46.15878" lon="7.36645"><ele></ele><time>2025-9-5T1:37:29Z</time></trkpt>
<trkpt lat="46.15877" lon="7.36646"><ele></ele><time>2025-9-5T1:37:32Z</time></trkpt>
<trkpt lat="46.15877" lon="7.36646"><ele></ele><time>2025-9-5T1:37:35Z</time></trkpt>
<trkpt lat="46.15877" lon="7.36646"><ele></ele><time>2025-9-5T1:37:38Z</time></trkpt>
<trkpt lat="46.15877" lon="7.36646"><ele></ele><time>2025-9-5T1:37:41Z</time></trkpt>
<trkpt lat="46.15877" lon="7.36645"><ele></ele><time>2025-9-5T1:37:44Z</time></trkpt>
<trkpt lat="46.15876" lon="7.36645"><ele></ele><time>2025-9-5T1:37:47Z</time></trkpt>
<trkpt lat="46.15877" lon="7.36646"><ele></ele><time>2025-9-5T1:37:50Z</time></trkpt>
<trkpt lat="46.15876" lon="7.36645"><ele></ele><time>2025-9-5T1:37:53Z</time></trkpt>
<trkpt lat="46.15875" lon="7.36646"><ele></ele><time>2025-9-5T1:37:56Z</time></trkpt>
<trkpt lat="46.15874" lon="7.36644"><ele></ele><time>2025-9-5T1:37:59Z</time></trkpt>
<trkpt lat="46.1587" lon="7.36637"><ele></ele><time>2025-9-5T1:38:2Z</time></trkpt>
<trkpt lat="46.15866" lon="7.36632"><ele></ele><time>2025-9-5T1:38:5Z</time></trkpt>
<trkpt lat="46.15861" lon="7.36625"><ele></ele><time>2025-9-5T1:38:8Z</time></trkpt>
<trkpt lat="46.15855" lon="7.3662"><ele></ele><time>2025-9-5T1:38:11Z</time></trkpt>
<trkpt lat="46.15849" lon="7.36617"><ele></ele><time>2025-9-5T1:38:14Z</time></trkpt>
<trkpt lat="46.1584" lon="7.36613"><ele></ele><time>2025-9-5T1:38:17Z</time></trkpt>
<trkpt lat="46.15831" lon="7.36609"><ele></ele><time>2025-9-5T1:38:20Z</time></trkpt>
<trkpt lat="46.15824" lon="7.36613"><ele></ele><time>2025-9-5T1:38:23Z</time></trkpt>
<trkpt lat="46.15811" lon="7.36622"><ele></ele><time>2025-9-5T1:38:26Z</time></trkpt>
<trkpt lat="46.15802" lon="7.36626"><ele></ele><time>2025-9-5T1:38:29Z</time></trkpt>
<trkpt lat="46.15796" lon="7.36623"><ele></ele><time>2025-9-5T1:38:32Z</time></trkpt>
<trkpt lat="46.1579" lon="7.36622"><ele></ele><time>2025-9-5T1:38:35Z</time></trkpt>
<trkpt lat="46.15776" lon="7.36618"><ele></ele><time>2025-9-5T1:38:38Z</time></trkpt>
<trkpt lat="46.15765" lon="7.36613"><ele></ele><time>2025-9-5T1:38:41Z</time></trkpt>
<trkpt lat="46.15761" lon="7.36613"><ele></ele><time>2025-9-5T1:38:44Z</time></trkpt>
<trkpt lat="46.15756" lon="7.36612"><ele></ele><time>2025-9-5T1:38:47Z</time></trkpt>
<trkpt lat="46.15747" lon="7.36608"><ele></ele><time>2025-9-5T1:38:50Z</time></trkpt>
<trkpt lat="46.15742" lon="7.36607"><ele></ele><time>2025-9-5T1:38:53Z</time></trkpt>
<trkpt lat="46.15732" lon="7.36606"><ele></ele><time>2025-9-5T1:38:56Z</time></trkpt>
<trkpt lat="46.15731" lon="7.36606"><ele></ele><time>2025-9-5T1:38:59Z</time></trkpt>
<trkpt lat="46.15731" lon="7.36606"><ele></ele><time>2025-9-5T1:39:2Z</time></trkpt>
<trkpt lat="46.15731" lon="7.36606"><ele></ele><time>2025-9-5T1:39:5Z</time></trkpt>
<trkpt lat="46.15731" lon="7.36606"><ele></ele><time>2025-9-5T1:39:8Z</time></trkpt>
<trkpt lat="46.15732" lon="7.36605"><ele></ele><time>2025-9-5T1:39:11Z</time></trkpt>
<trkpt lat="46.15732" lon="7.36605"><ele></ele><time>2025-9-5T1:39:14Z</time></trkpt>
<trkpt lat="46.15731" lon="7.36606"><ele></ele><time>2025-9-5T1:39:17Z</time></trkpt>
<trkpt lat="46.15731" lon="7.36606"><ele></ele><time>2025-9-5T1:39:20Z</time></trkpt>
<trkpt lat="46.15731" lon="7.36606"><ele></ele><time>2025-9-5T1:39:23Z</time></trkpt>
<trkpt lat="46.15731" lon="7.36606"><ele></ele><time>2025-9-5T1:39:26Z</time></trkpt>
<trkpt lat="46.15731" lon="7.36606"><ele></ele><time>2025-9-5T1:39:29Z</time></trkpt>
<trkpt lat="46.15731" lon="7.36606"><ele></ele><time>2025-9-5T1:39:32Z</time></trkpt>
<trkpt lat="46.15731" lon="7.36606"><ele></ele><time>2025-9-5T1:39:35Z</time></trkpt>
<trkpt lat="46.15731" lon="7.36606"><ele></ele><time>2025-9-5T1:39:38Z</time></trkpt>
<trkpt lat="46.15732" lon="7.36606"><ele></ele><time>2025-9-5T1:39:41Z</time></trkpt>
<trkpt lat="46.15731" lon="7.36606"><ele></ele><time>2025-9-5T1:39:44Z</time></trkpt>
<trkpt lat="46.15731" lon="7.36606"><ele></ele><time>2025-9-5T1:39:47Z</time></trkpt>
<trkpt lat="46.15731" lon="7.36606"><ele></ele><time>2025-9-5T1:39:50Z</time></trkpt>
<trkpt lat="46.15731" lon="7.36606"><ele></ele><time>2025-9-5T1:39:53Z</time></trkpt>
<trkpt lat="46.15731" lon="7.36606"><ele></ele><time>2025-9-5T1:39:56Z</time></trkpt>
<trkpt lat="46.15731" lon="7.36606"><ele></ele><time>2025-9-5T1:39:59Z</time></trkpt>
<trkpt lat="46.15731" lon="7.36606"><ele></ele><time>2025-9-5T1:40:2Z</time></trkpt>
<trkpt lat="46.15732" lon="7.36606"><ele></ele><time>2025-9-5T1:40:5Z</time></trkpt>
<trkpt lat="46.15731" lon="7.36606"><ele></ele><time>2025-9-5T1:40:8Z</time></trkpt>
<trkpt lat="46.15731" lon="7.36606"><ele></ele><time>2025-9-5T1:40:11Z</time></trkpt>
<trkpt lat="46.15731" lon="7.36606"><ele></ele><time>2025-9-5T1:40:14Z</time></trkpt>
<trkpt lat="46.15731" lon="7.36606"><ele></ele><time>2025-9-5T1:40:17Z</time></trkpt>
<trkpt lat="46.15731" lon="7.36606"><ele></ele><time>2025-9-5T1:40:20Z</time></trkpt>
<trkpt lat="46.15731" lon="7.36606"><ele></ele><time>2025-9-5T1:40:23Z</time></trkpt>
<trkpt lat="46.15731" lon="7.36606"><ele></ele><time>2025-9-5T1:40:26Z</time></trkpt>
<trkpt lat="46.15731" lon="7.36606"><ele></ele><time>2025-9-5T1:40:29Z</time></trkpt>
<trkpt lat="46.15731" lon="7.36606"><ele></ele><time>2025-9-5T1:40:32Z</time></trkpt>
<trkpt lat="46.15731" lon="7.36606"><ele></ele><time>2025-9-5T1:40:35Z</time></trkpt>
<trkpt lat="46.15731" lon="7.36606"><ele></ele><time>2025-9-5T1:40:38Z</time></trkpt>
<trkpt lat="46.15731" lon="7.36606"><ele></ele><time>2025-9-5T1:40:41Z</time></trkpt>
<trkpt lat="46.15728" lon="7.36605"><ele></ele><time>2025-9-5T1:40:44Z</time></trkpt>
<trkpt lat="46.15712" lon="7.366"><ele></ele><time>2025-9-5T1:40:47Z</time></trkpt>
<trkpt lat="46.157" lon="7.36601"><ele></ele><time>2025-9-5T1:40:50Z</time></trkpt>
<trkpt lat="46.15697" lon="7.36601"><ele></ele><time>2025-9-5T1:40:53Z</time></trkpt>
<trkpt lat="46.15687" lon="7.36607"><ele></ele><time>2025-9-5T1:40:56Z</time></trkpt>
<trkpt lat="46.15683" lon="7.36608"><ele></ele><time>2025-9-5T1:40:59Z</time></trkpt>
<trkpt lat="46.15674" lon="7.36608"><ele></ele><time>2025-9-5T1:41:2Z</time></trkpt>
<trkpt lat="46.15664" lon="7.36609"><ele></ele><time>2025-9-5T1:41:5Z</time></trkpt>
<trkpt lat="46.1566" lon="7.3661"><ele></ele><time>2025-9-5T1:41:8Z</time></trkpt>
<trkpt lat="46.15646" lon="7.36611"><ele></ele><time>2025-9-5T1:41:11Z</time></trkpt>
<trkpt lat="46.15637" lon="7.3661"><ele></ele><time>2025-9-5T1:41:14Z</time></trkpt>
<trkpt lat="46.15628" lon="7.36615"><ele></ele><time>2025-9-5T1:41:17Z</time></trkpt>
<trkpt lat="46.15618" lon="7.36622"><ele></ele><time>2025-9-5T1:41:20Z</time></trkpt>
<trkpt lat="46.15613" lon="7.36624"><ele></ele><time>2025-9-5T1:41:23Z</time></trkpt>
<trkpt lat="46.15602" lon="7.36629"><ele></ele><time>2025-9-5T1:41:26Z</time></trkpt>
<trkpt lat="46.15592" lon="7.36638"><ele></ele><time>2025-9-5T1:41:29Z</time></trkpt>
<trkpt lat="46.15588" lon="7.36637"><ele></ele><time>2025-9-5T1:41:32Z</time></trkpt>
<trkpt lat="46.15579" lon="7.36634"><ele></ele><time>2025-9-5T1:41:35Z</time></trkpt>
<trkpt lat="46.1556" lon="7.36643"><ele></ele><time>2025-9-5T1:41:38Z</time></trkpt>
<trkpt lat="46.1555" lon="7.36661"><ele></ele><time>2025-9-5T1:41:41Z</time></trkpt>
<trkpt lat="46.15539" lon="7.36669"><ele></ele><time>2025-9-5T1:41:44Z</time></trkpt>
<trkpt lat="46.15535" lon="7.36669"><ele></ele><time>2025-9-5T1:41:47Z</time></trkpt>
<trkpt lat="46.15531" lon="7.3667"><ele></ele><time>2025-9-5T1:41:50Z</time></trkpt>
<trkpt lat="46.15527" lon="7.36672"><ele></ele><time>2025-9-5T1:41:53Z</time></trkpt>
<trkpt lat="46.1552" lon="7.36676"><ele></ele><time>2025-9-5T1:41:56Z</time></trkpt>
<trkpt lat="46.15516" lon="7.36677"><ele></ele><time>2025-9-5T1:41:59Z</time></trkpt>
<trkpt lat="46.15507" lon="7.36683"><ele></ele><time>2025-9-5T1:42:2Z</time></trkpt>
<trkpt lat="46.15506" lon="7.36684"><ele></ele><time>2025-9-5T1:42:5Z</time></trkpt>
<trkpt lat="46.15506" lon="7.36684"><ele></ele><time>2025-9-5T1:42:8Z</time></trkpt>
<trkpt lat="46.15506" lon="7.36685"><ele></ele><time>2025-9-5T1:42:11Z</time></trkpt>
<trkpt lat="46.15506" lon="7.36684"><ele></ele><time>2025-9-5T1:42:14Z</time></trkpt>
<trkpt lat="46.15506" lon="7.36684"><ele></ele><time>2025-9-5T1:42:17Z</time></trkpt>
<trkpt lat="46.15506" lon="7.36684"><ele></ele><time>2025-9-5T1:42:20Z</time></trkpt>
<trkpt lat="46.15506" lon="7.36684"><ele></ele><time>2025-9-5T1:42:23Z</time></trkpt>
<trkpt lat="46.15506" lon="7.36684"><ele></ele><time>2025-9-5T1:42:26Z</time></trkpt>
<trkpt lat="46.15506" lon="7.36684"><ele></ele><time>2025-9-5T1:42:29Z</time></trkpt>
<trkpt lat="46.15506" lon="7.36684"><ele></ele><time>2025-9-5T1:42:32Z</time></trkpt>
<trkpt lat="46.15504" lon="7.36685"><ele></ele><time>2025-9-5T1:42:35Z</time></trkpt>
<trkpt lat="46.15494" lon="7.36688"><ele></ele><time>2025-9-5T1:42:38Z</time></trkpt>
<trkpt lat="46.15486" lon="7.36691"><ele></ele><time>2025-9-5T1:42:41Z</time></trkpt>
<trkpt lat="46.15476" lon="7.36693"><ele></ele><time>2025-9-5T1:42:44Z</time></trkpt>
<trkpt lat="46.15471" lon="7.36694"><ele></ele><time>2025-9-5T1:42:47Z</time></trkpt>
<trkpt lat="46.1547" lon="7.36694"><ele></ele><time>2025-9-5T1:42:50Z</time></trkpt>
<trkpt lat="46.15463" lon="7.36697"><ele></ele><time>2025-9-5T1:42:53Z</time></trkpt>
<trkpt lat="46.15457" lon="7.36699"><ele></ele><time>2025-9-5T1:42:56Z</time></trkpt>
<trkpt lat="46.1545" lon="7.367"><ele></ele><time>2025-9-5T1:42:59Z</time></trkpt>
<trkpt lat="46.15446" lon="7.36702"><ele></ele><time>2025-9-5T1:43:2Z</time></trkpt>
<trkpt lat="46.1544" lon="7.36708"><ele></ele><time>2025-9-5T1:43:5Z</time></trkpt>
<trkpt lat="46.15433" lon="7.36714"><ele></ele><time>2025-9-5T1:43:8Z</time></trkpt>
<trkpt lat="46.1543" lon="7.3672"><ele></ele><time>2025-9-5T1:43:11Z</time></trkpt>
<trkpt lat="46.15424" lon="7.36738"><ele></ele><time>2025-9-5T1:43:14Z</time></trkpt>
<trkpt lat="46.15421" lon="7.36743"><ele></ele><time>2025-9-5T1:43:17Z</time></trkpt>
<trkpt lat="46.15414" lon="7.36754"><ele></ele><time>2025-9-5T1:43:20Z</time></trkpt>
<trkpt lat="46.1541" lon="7.36759"><ele></ele><time>2025-9-5T1:43:23Z</time></trkpt>
<trkpt lat="46.15407" lon="7.36764"><ele></ele><time>2025-9-5T1:43:26Z</time></trkpt>
<trkpt lat="46.15403" lon="7.36769"><ele></ele><time>2025-9-5T1:43:29Z</time></trkpt>
<trkpt lat="46.154" lon="7.36772"><ele></ele><time>2025-9-5T1:43:32Z</time></trkpt>
<trkpt lat="46.15393" lon="7.36777"><ele></ele><time>2025-9-5T1:43:35Z</time></trkpt>
<trkpt lat="46.15388" lon="7.36784"><ele></ele><time>2025-9-5T1:43:38Z</time></trkpt>
<trkpt lat="46.1538" lon="7.36788"><ele></ele><time>2025-9-5T1:43:41Z</time></trkpt>
<trkpt lat="46.15375" lon="7.36791"><ele></ele><time>2025-9-5T1:43:44Z</time></trkpt>
<trkpt lat="46.15373" lon="7.36792"><ele></ele><time>2025-9-5T1:43:47Z</time></trkpt>
<trkpt lat="46.15371" lon="7.36793"><ele></ele><time>2025-9-5T1:43:50Z</time></trkpt>
<trkpt lat="46.1537" lon="7.36793"><ele></ele><time>2025-9-5T1:43:53Z</time></trkpt>
<trkpt lat="46.15368" lon="7.36793"><ele></ele><time>2025-9-5T1:43:56Z</time></trkpt>
<trkpt lat="46.15368" lon="7.36793"><ele></ele><time>2025-9-5T1:43:59Z</time></trkpt>
<trkpt lat="46.15366" lon="7.36795"><ele></ele><time>2025-9-5T1:44:2Z</time></trkpt>
<trkpt lat="46.15362" lon="7.36796"><ele></ele><time>2025-9-5T1:44:5Z</time></trkpt>
<trkpt lat="46.15358" lon="7.368"><ele></ele><time>2025-9-5T1:44:8Z</time></trkpt>
<trkpt lat="46.15353" lon="7.36806"><ele></ele><time>2025-9-5T1:44:11Z</time></trkpt>
<trkpt lat="46.15351" lon="7.36811"><ele></ele><time>2025-9-5T1:44:14Z</time></trkpt>
<trkpt lat="46.15347" lon="7.36816"><ele></ele><time>2025-9-5T1:44:17Z</time></trkpt>
<trkpt lat="46.1534" lon="7.36826"><ele></ele><time>2025-9-5T1:44:20Z</time></trkpt>
<trkpt lat="46.15336" lon="7.36837"><ele></ele><time>2025-9-5T1:44:23Z</time></trkpt>
<trkpt lat="46.15333" lon="7.36839"><ele></ele><time>2025-9-5T1:44:26Z</time></trkpt>
<trkpt lat="46.15332" lon="7.36842"><ele></ele><time>2025-9-5T1:44:29Z</time></trkpt>
<trkpt lat="46.15329" lon="7.36851"><ele></ele><time>2025-9-5T1:44:32Z</time></trkpt>
<trkpt lat="46.15323" lon="7.36862"><ele></ele><time>2025-9-5T1:44:35Z</time></trkpt>
<trkpt lat="46.15318" lon="7.36865"><ele></ele><time>2025-9-5T1:44:38Z</time></trkpt>
<trkpt lat="46.15318" lon="7.36865"><ele></ele><time>2025-9-5T1:44:41Z</time></trkpt>
<trkpt lat="46.15318" lon="7.36867"><ele></ele><time>2025-9-5T1:44:44Z</time></trkpt>
<trkpt lat="46.15318" lon="7.36867"><ele></ele><time>2025-9-5T1:44:47Z</time></trkpt>
<trkpt lat="46.15318" lon="7.36868"><ele></ele><time>2025-9-5T1:44:50Z</time></trkpt>
<trkpt lat="46.15318" lon="7.36867"><ele></ele><time>2025-9-5T1:44:53Z</time></trkpt>
<trkpt lat="46.15318" lon="7.36867"><ele></ele><time>2025-9-5T1:44:56Z</time></trkpt>
<trkpt lat="46.15317" lon="7.36867"><ele></ele><time>2025-9-5T1:44:59Z</time></trkpt>
<trkpt lat="46.15317" lon="7.36869"><ele></ele><time>2025-9-5T1:45:2Z</time></trkpt>
<trkpt lat="46.15317" lon="7.36872"><ele></ele><time>2025-9-5T1:45:5Z</time></trkpt>
<trkpt lat="46.15315" lon="7.36888"><ele></ele><time>2025-9-5T1:45:8Z</time></trkpt>
<trkpt lat="46.15315" lon="7.3691"><ele></ele><time>2025-9-5T1:45:11Z</time></trkpt>
<trkpt lat="46.15312" lon="7.36924"><ele></ele><time>2025-9-5T1:45:14Z</time></trkpt>
<trkpt lat="46.15308" lon="7.3693"><ele></ele><time>2025-9-5T1:45:17Z</time></trkpt>
<trkpt lat="46.15308" lon="7.3693"><ele></ele><time>2025-9-5T1:45:20Z</time></trkpt>
<trkpt lat="46.15309" lon="7.3693"><ele></ele><time>2025-9-5T1:45:23Z</time></trkpt>
<trkpt lat="46.15308" lon="7.3693"><ele></ele><time>2025-9-5T1:45:26Z</time></trkpt>
<trkpt lat="46.15307" lon="7.36935"><ele></ele><time>2025-9-5T1:45:29Z</time></trkpt>
<trkpt lat="46.15306" lon="7.36937"><ele></ele><time>2025-9-5T1:45:32Z</time></trkpt>
<trkpt lat="46.15299" lon="7.36959"><ele></ele><time>2025-9-5T1:45:35Z</time></trkpt>
<trkpt lat="46.15299" lon="7.36977"><ele></ele><time>2025-9-5T1:45:38Z</time></trkpt>
<trkpt lat="46.15299" lon="7.36981"><ele></ele><time>2025-9-5T1:45:41Z</time></trkpt>
<trkpt lat="46.15298" lon="7.36997"><ele></ele><time>2025-9-5T1:45:44Z</time></trkpt>
<trkpt lat="46.15298" lon="7.37"><ele></ele><time>2025-9-5T1:45:47Z</time></trkpt>
<trkpt lat="46.15298" lon="7.37001"><ele></ele><time>2025-9-5T1:45:50Z</time></trkpt>
<trkpt lat="46.15298" lon="7.37001"><ele></ele><time>2025-9-5T1:45:53Z</time></trkpt>
<trkpt lat="46.15297" lon="7.37005"><ele></ele><time>2025-9-5T1:45:56Z</time></trkpt>
<trkpt lat="46.15298" lon="7.37006"><ele></ele><time>2025-9-5T1:45:59Z</time></trkpt>
<trkpt lat="46.153" lon="7.37015"><ele></ele><time>2025-9-5T1:46:2Z</time></trkpt>
<trkpt lat="46.153" lon="7.37039"><ele></ele><time>2025-9-5T1:46:5Z</time></trkpt>
<trkpt lat="46.153" lon="7.37049"><ele></ele><time>2025-9-5T1:46:8Z</time></trkpt>
<trkpt lat="46.15302" lon="7.37052"><ele></ele><time>2025-9-5T1:46:11Z</time></trkpt>
<trkpt lat="46.15307" lon="7.37057"><ele></ele><time>2025-9-5T1:46:14Z</time></trkpt>
<trkpt lat="46.15315" lon="7.37066"><ele></ele><time>2025-9-5T1:46:17Z</time></trkpt>
<trkpt lat="46.15323" lon="7.37076"><ele></ele><time>2025-9-5T1:46:20Z</time></trkpt>
<trkpt lat="46.15324" lon="7.37082"><ele></ele><time>2025-9-5T1:46:23Z</time></trkpt>
<trkpt lat="46.15324" lon="7.37088"><ele></ele><time>2025-9-5T1:46:26Z</time></trkpt>
<trkpt lat="46.15325" lon="7.37101"><ele></ele><time>2025-9-5T1:46:29Z</time></trkpt>
<trkpt lat="46.15326" lon="7.37109"><ele></ele><time>2025-9-5T1:46:32Z</time></trkpt>
<trkpt lat="46.15326" lon="7.37121"><ele></ele><time>2025-9-5T1:46:35Z</time></trkpt>
<trkpt lat="46.15326" lon="7.37139"><ele></ele><time>2025-9-5T1:46:38Z</time></trkpt>
<trkpt lat="46.15326" lon="7.37142"><ele></ele><time>2025-9-5T1:46:41Z</time></trkpt>
<trkpt lat="46.15328" lon="7.37164"><ele></ele><time>2025-9-5T1:46:44Z</time></trkpt>
<trkpt lat="46.15329" lon="7.37172"><ele></ele><time>2025-9-5T1:46:47Z</time></trkpt>
<trkpt lat="46.15331" lon="7.37175"><ele></ele><time>2025-9-5T1:46:50Z</time></trkpt>
<trkpt lat="46.15337" lon="7.3719"><ele></ele><time>2025-9-5T1:46:53Z</time></trkpt>
<trkpt lat="46.15339" lon="7.37205"><ele></ele><time>2025-9-5T1:46:56Z</time></trkpt>
<trkpt lat="46.15339" lon="7.37206"><ele></ele><time>2025-9-5T1:46:59Z</time></trkpt>
<trkpt lat="46.15339" lon="7.37206"><ele></ele><time>2025-9-5T1:47:2Z</time></trkpt>
<trkpt lat="46.15339" lon="7.37206"><ele></ele><time>2025-9-5T1:47:5Z</time></trkpt>
<trkpt lat="46.15339" lon="7.37206"><ele></ele><time>2025-9-5T1:47:8Z</time></trkpt>
<trkpt lat="46.15339" lon="7.37206"><ele></ele><time>2025-9-5T1:47:11Z</time></trkpt>
<trkpt lat="46.15339" lon="7.37206"><ele></ele><time>2025-9-5T1:47:14Z</time></trkpt>
<trkpt lat="46.15339" lon="7.37206"><ele></ele><time>2025-9-5T1:47:17Z</time></trkpt>
<trkpt lat="46.15339" lon="7.37206"><ele></ele><time>2025-9-5T1:47:20Z</time></trkpt>
<trkpt lat="46.15339" lon="7.37206"><ele></ele><time>2025-9-5T1:47:23Z</time></trkpt>
<trkpt lat="46.15339" lon="7.37206"><ele></ele><time>2025-9-5T1:47:26Z</time></trkpt>
<trkpt lat="46.15339" lon="7.37206"><ele></ele><time>2025-9-5T1:47:29Z</time></trkpt>
<trkpt lat="46.1534" lon="7.37209"><ele></ele><time>2025-9-5T1:47:32Z</time></trkpt>
<trkpt lat="46.15344" lon="7.37221"><ele></ele><time>2025-9-5T1:47:35Z</time></trkpt>
<trkpt lat="46.15346" lon="7.37226"><ele></ele><time>2025-9-5T1:47:38Z</time></trkpt>
<trkpt lat="46.15353" lon="7.37239"><ele></ele><time>2025-9-5T1:47:41Z</time></trkpt>
<trkpt lat="46.15353" lon="7.37246"><ele></ele><time>2025-9-5T1:47:44Z</time></trkpt>
<trkpt lat="46.15351" lon="7.37252"><ele></ele><time>2025-9-5T1:47:47Z</time></trkpt>
<trkpt lat="46.15347" lon="7.37255"><ele></ele><time>2025-9-5T1:47:50Z</time></trkpt>
<trkpt lat="46.15342" lon="7.37254"><ele></ele><time>2025-9-5T1:47:53Z</time></trkpt>
<trkpt lat="46.15336" lon="7.37252"><ele></ele><time>2025-9-5T1:47:56Z</time></trkpt>
<trkpt lat="46.15329" lon="7.3725"><ele></ele><time>2025-9-5T1:47:59Z</time></trkpt>
<trkpt lat="46.15322" lon="7.37248"><ele></ele><time>2025-9-5T1:48:2Z</time></trkpt>
<trkpt lat="46.15315" lon="7.37247"><ele></ele><time>2025-9-5T1:48:5Z</time></trkpt>
<trkpt lat="46.15305" lon="7.37246"><ele></ele><time>2025-9-5T1:48:8Z</time></trkpt>
<trkpt lat="46.15292" lon="7.37246"><ele></ele><time>2025-9-5T1:48:11Z</time></trkpt>
<trkpt lat="46.15286" lon="7.37242"><ele></ele><time>2025-9-5T1:48:14Z</time></trkpt>
<trkpt lat="46.15283" lon="7.3724"><ele></ele><time>2025-9-5T1:48:17Z</time></trkpt>
<trkpt lat="46.1528" lon="7.37236"><ele></ele><time>2025-9-5T1:48:20Z</time></trkpt>
<trkpt lat="46.15269" lon="7.37227"><ele></ele><time>2025-9-5T1:48:23Z</time></trkpt>
<trkpt lat="46.15264" lon="7.37221"><ele></ele><time>2025-9-5T1:48:26Z</time></trkpt>
<trkpt lat="46.15264" lon="7.3722"><ele></ele><time>2025-9-5T1:48:29Z</time></trkpt>
<trkpt lat="46.15264" lon="7.3722"><ele></ele><time>2025-9-5T1:48:32Z</time></trkpt>
<trkpt lat="46.15264" lon="7.3722"><ele></ele><time>2025-9-5T1:48:35Z</time></trkpt>
<trkpt lat="46.15264" lon="7.3722"><ele></ele><time>2025-9-5T1:48:38Z</time></trkpt>
<trkpt lat="46.15264" lon="7.3722"><ele></ele><time>2025-9-5T1:48:41Z</time></trkpt>
<trkpt lat="46.15264" lon="7.3722"><ele></ele><time>2025-9-5T1:48:44Z</time></trkpt>
<trkpt lat="46.15264" lon="7.3722"><ele></ele><time>2025-9-5T1:48:47Z</time></trkpt>
<trkpt lat="46.15264" lon="7.3722"><ele></ele><time>2025-9-5T1:48:50Z</time></trkpt>
<trkpt lat="46.15264" lon="7.3722"><ele></ele><time>2025-9-5T1:48:53Z</time></trkpt>
<trkpt lat="46.15262" lon="7.37215"><ele></ele><time>2025-9-5T1:48:56Z</time></trkpt>
<trkpt lat="46.15258" lon="7.372"><ele></ele><time>2025-9-5T1:48:59Z</time></trkpt>
<trkpt lat="46.15255" lon="7.37194"><ele></ele><time>2025-9-5T1:49:2Z</time></trkpt>
<trkpt lat="46.1525" lon="7.37183"><ele></ele><time>2025-9-5T1:49:5Z</time></trkpt>
<trkpt lat="46.15243" lon="7.37175"><ele></ele><time>2025-9-5T1:49:8Z</time></trkpt>
<trkpt lat="46.15236" lon="7.37171"><ele></ele><time>2025-9-5T1:49:11Z</time></trkpt>
<trkpt lat="46.1523" lon="7.37169"><ele></ele><time>2025-9-5T1:49:14Z</time></trkpt>
<trkpt lat="46.15225" lon="7.37168"><ele></ele><time>2025-9-5T1:49:17Z</time></trkpt>
<trkpt lat="46.15224" lon="7.37168"><ele></ele><time>2025-9-5T1:49:20Z</time></trkpt>
<trkpt lat="46.15224" lon="7.37168"><ele></ele><time>2025-9-5T1:49:23Z</time></trkpt>
<trkpt lat="46.15224" lon="7.37169"><ele></ele><time>2025-9-5T1:49:26Z</time></trkpt>
<trkpt lat="46.15222" lon="7.37168"><ele></ele><time>2025-9-5T1:49:29Z</time></trkpt>
<trkpt lat="46.15221" lon="7.37168"><ele></ele><time>2025-9-5T1:49:32Z</time></trkpt>
<trkpt lat="46.15219" lon="7.37168"><ele></ele><time>2025-9-5T1:49:35Z</time></trkpt>
<trkpt lat="46.15206" lon="7.37166"><ele></ele><time>2025-9-5T1:49:38Z</time></trkpt>
<trkpt lat="46.152" lon="7.37164"><ele></ele><time>2025-9-5T1:49:41Z</time></trkpt>
<trkpt lat="46.15191" lon="7.37161"><ele></ele><time>2025-9-5T1:49:44Z</time></trkpt>
<trkpt lat="46.15186" lon="7.37157"><ele></ele><time>2025-9-5T1:49:47Z</time></trkpt>
<trkpt lat="46.15184" lon="7.37156"><ele></ele><time>2025-9-5T1:49:50Z</time></trkpt>
<trkpt lat="46.15178" lon="7.37151"><ele></ele><time>2025-9-5T1:49:53Z</time></trkpt>
<trkpt lat="46.15177" lon="7.37149"><ele></ele><time>2025-9-5T1:49:56Z</time></trkpt>
<trkpt lat="46.15176" lon="7.37149"><ele></ele><time>2025-9-5T1:49:59Z</time></trkpt>
<trkpt lat="46.15176" lon="7.37149"><ele></ele><time>2025-9-5T1:50:2Z</time></trkpt>
<trkpt lat="46.15173" lon="7.37146"><ele></ele><time>2025-9-5T1:50:5Z</time></trkpt>
<trkpt lat="46.15171" lon="7.37145"><ele></ele><time>2025-9-5T1:50:8Z</time></trkpt>
<trkpt lat="46.15161" lon="7.37146"><ele></ele><time>2025-9-5T1:50:11Z</time></trkpt>
<trkpt lat="46.15157" lon="7.37148"><ele></ele><time>2025-9-5T1:50:14Z</time></trkpt>
<trkpt lat="46.15153" lon="7.3715"><ele></ele><time>2025-9-5T1:50:17Z</time></trkpt>
<trkpt lat="46.15149" lon="7.37152"><ele></ele><time>2025-9-5T1:50:20Z</time></trkpt>
<trkpt lat="46.15145" lon="7.37156"><ele></ele><time>2025-9-5T1:50:23Z</time></trkpt>
<trkpt lat="46.15137" lon="7.3716"><ele></ele><time>2025-9-5T1:50:26Z</time></trkpt>
<trkpt lat="46.15133" lon="7.37162"><ele></ele><time>2025-9-5T1:50:29Z</time></trkpt>
<trkpt lat="46.15125" lon="7.37164"><ele></ele><time>2025-9-5T1:50:32Z</time></trkpt>
<trkpt lat="46.15113" lon="7.37167"><ele></ele><time>2025-9-5T1:50:35Z</time></trkpt>
<trkpt lat="46.15105" lon="7.37173"><ele></ele><time>2025-9-5T1:50:38Z</time></trkpt>
<trkpt lat="46.15101" lon="7.37175"><ele></ele><time>2025-9-5T1:50:41Z</time></trkpt>
<trkpt lat="46.151" lon="7.37175"><ele></ele><time>2025-9-5T1:50:44Z</time></trkpt>
<trkpt lat="46.151" lon="7.37175"><ele></ele><time>2025-9-5T1:50:47Z</time></trkpt>
<trkpt lat="46.151" lon="7.37175"><ele></ele><time>2025-9-5T1:50:50Z</time></trkpt>
<trkpt lat="46.151" lon="7.37175"><ele></ele><time>2025-9-5T1:50:53Z</time></trkpt>
<trkpt lat="46.15098" lon="7.37176"><ele></ele><time>2025-9-5T1:50:56Z</time></trkpt>
<trkpt lat="46.15098" lon="7.37175"><ele></ele><time>2025-9-5T1:50:59Z</time></trkpt>
<trkpt lat="46.15096" lon="7.37176"><ele></ele><time>2025-9-5T1:51:2Z</time></trkpt>
<trkpt lat="46.15084" lon="7.37175"><ele></ele><time>2025-9-5T1:51:5Z</time></trkpt>
<trkpt lat="46.15074" lon="7.37167"><ele></ele><time>2025-9-5T1:51:8Z</time></trkpt>
<trkpt lat="46.15069" lon="7.37161"><ele></ele><time>2025-9-5T1:51:11Z</time></trkpt>
<trkpt lat="46.15065" lon="7.37158"><ele></ele><time>2025-9-5T1:51:14Z</time></trkpt>
<trkpt lat="46.15063" lon="7.37155"><ele></ele><time>2025-9-5T1:51:17Z</time></trkpt>
<trkpt lat="46.15062" lon="7.37154"><ele></ele><time>2025-9-5T1:51:20Z</time></trkpt>
<trkpt lat="46.15061" lon="7.37154"><ele></ele><time>2025-9-5T1:51:23Z</time></trkpt>
<trkpt lat="46.15061" lon="7.37153"><ele></ele><time>2025-9-5T1:51:26Z</time></trkpt>
<trkpt lat="46.15061" lon="7.37153"><ele></ele><time>2025-9-5T1:51:29Z</time></trkpt>
<trkpt lat="46.15061" lon="7.37152"><ele></ele><time>2025-9-5T1:51:32Z</time></trkpt>
<trkpt lat="46.15056" lon="7.37152"><ele></ele><time>2025-9-5T1:51:35Z</time></trkpt>
<trkpt lat="46.15056" lon="7.37152"><ele></ele><time>2025-9-5T1:51:38Z</time></trkpt>
<trkpt lat="46.15045" lon="7.37139"><ele></ele><time>2025-9-5T1:51:41Z</time></trkpt>
<trkpt lat="46.15037" lon="7.37127"><ele></ele><time>2025-9-5T1:51:44Z</time></trkpt>
<trkpt lat="46.15031" lon="7.37117"><ele></ele><time>2025-9-5T1:51:47Z</time></trkpt>
<trkpt lat="46.15023" lon="7.37101"><ele></ele><time>2025-9-5T1:51:50Z</time></trkpt>
<trkpt lat="46.15011" lon="7.37087"><ele></ele><time>2025-9-5T1:51:53Z</time></trkpt>
<trkpt lat="46.15" lon="7.37078"><ele></ele><time>2025-9-5T1:51:56Z</time></trkpt>
<trkpt lat="46.14994" lon="7.37074"><ele></ele><time>2025-9-5T1:51:59Z</time></trkpt>
<trkpt lat="46.1499" lon="7.37073"><ele></ele><time>2025-9-5T1:52:2Z</time></trkpt>
<trkpt lat="46.14983" lon="7.3707"><ele></ele><time>2025-9-5T1:52:5Z</time></trkpt>
<trkpt lat="46.14971" lon="7.37067"><ele></ele><time>2025-9-5T1:52:8Z</time></trkpt>
<trkpt lat="46.14962" lon="7.37064"><ele></ele><time>2025-9-5T1:52:11Z</time></trkpt>
<trkpt lat="46.14952" lon="7.37061"><ele></ele><time>2025-9-5T1:52:14Z</time></trkpt>
<trkpt lat="46.14938" lon="7.37055"><ele></ele><time>2025-9-5T1:52:17Z</time></trkpt>
<trkpt lat="46.14933" lon="7.37054"><ele></ele><time>2025-9-5T1:52:20Z</time></trkpt>
<trkpt lat="46.14924" lon="7.37051"><ele></ele><time>2025-9-5T1:52:23Z</time></trkpt>
<trkpt lat="46.14911" lon="7.37046"><ele></ele><time>2025-9-5T1:52:26Z</time></trkpt>
<trkpt lat="46.14904" lon="7.37046"><ele></ele><time>2025-9-5T1:52:29Z</time></trkpt>
<trkpt lat="46.14901" lon="7.37047"><ele></ele><time>2025-9-5T1:52:32Z</time></trkpt>
<trkpt lat="46.14891" lon="7.37052"><ele></ele><time>2025-9-5T1:52:35Z</time></trkpt>
<trkpt lat="46.14888" lon="7.37053"><ele></ele><time>2025-9-5T1:52:38Z</time></trkpt>
<trkpt lat="46.14882" lon="7.37056"><ele></ele><time>2025-9-5T1:52:41Z</time></trkpt>
<trkpt lat="46.14878" lon="7.37058"><ele></ele><time>2025-9-5T1:52:44Z</time></trkpt>
<trkpt lat="46.14877" lon="7.37059"><ele></ele><time>2025-9-5T1:52:47Z</time></trkpt>
<trkpt lat="46.14877" lon="7.37059"><ele></ele><time>2025-9-5T1:52:50Z</time></trkpt>
<trkpt lat="46.14876" lon="7.37058"><ele></ele><time>2025-9-5T1:52:53Z</time></trkpt>
<trkpt lat="46.14877" lon="7.37059"><ele></ele><time>2025-9-5T1:52:56Z</time></trkpt>
<trkpt lat="46.14876" lon="7.3706"><ele></ele><time>2025-9-5T1:52:59Z</time></trkpt>
<trkpt lat="46.14876" lon="7.37058"><ele></ele><time>2025-9-5T1:53:2Z</time></trkpt>
<trkpt lat="46.14876" lon="7.37058"><ele></ele><time>2025-9-5T1:53:5Z</time></trkpt>
<trkpt lat="46.14876" lon="7.37058"><ele></ele><time>2025-9-5T1:53:8Z</time></trkpt>
<trkpt lat="46.14876" lon="7.37058"><ele></ele><time>2025-9-5T1:53:11Z</time></trkpt>
<trkpt lat="46.14876" lon="7.37058"><ele></ele><time>2025-9-5T1:53:14Z</time></trkpt>
<trkpt lat="46.14877" lon="7.37059"><ele></ele><time>2025-9-5T1:53:17Z</time></trkpt>
<trkpt lat="46.14876" lon="7.37058"><ele></ele><time>2025-9-5T1:53:20Z</time></trkpt>
<trkpt lat="46.14876" lon="7.37058"><ele></ele><time>2025-9-5T1:53:23Z</time></trkpt>
<trkpt lat="46.14876" lon="7.37058"><ele></ele><time>2025-9-5T1:53:26Z</time></trkpt>
<trkpt lat="46.14876" lon="7.37058"><ele></ele><time>2025-9-5T1:53:29Z</time></trkpt>
<trkpt lat="46.14877" lon="7.37059"><ele></ele><time>2025-9-5T1:53:32Z</time></trkpt>
<trkpt lat="46.14877" lon="7.37059"><ele></ele><time>2025-9-5T1:53:35Z</time></trkpt>
<trkpt lat="46.14878" lon="7.37059"><ele></ele><time>2025-9-5T1:53:38Z</time></trkpt>
<trkpt lat="46.14879" lon="7.37057"><ele></ele><time>2025-9-5T1:53:41Z</time></trkpt>
<trkpt lat="46.14879" lon="7.37057"><ele></ele><time>2025-9-5T1:53:44Z</time></trkpt>
<trkpt lat="46.14879" lon="7.37058"><ele></ele><time>2025-9-5T1:53:47Z</time></trkpt>
<trkpt lat="46.14879" lon="7.37057"><ele></ele><time>2025-9-5T1:53:50Z</time></trkpt>
<trkpt lat="46.14879" lon="7.37059"><ele></ele><time>2025-9-5T1:53:53Z</time></trkpt>
<trkpt lat="46.14879" lon="7.37057"><ele></ele><time>2025-9-5T1:53:56Z</time></trkpt>
<trkpt lat="46.14879" lon="7.37057"><ele></ele><time>2025-9-5T1:53:59Z</time></trkpt>
<trkpt lat="46.14879" lon="7.37057"><ele></ele><time>2025-9-5T1:54:2Z</time></trkpt>
<trkpt lat="46.14878" lon="7.37057"><ele></ele><time>2025-9-5T1:54:5Z</time></trkpt>
<trkpt lat="46.14877" lon="7.37056"><ele></ele><time>2025-9-5T1:54:8Z</time></trkpt>
<trkpt lat="46.14877" lon="7.37058"><ele></ele><time>2025-9-5T1:54:11Z</time></trkpt>
<trkpt lat="46.14876" lon="7.37065"><ele></ele><time>2025-9-5T1:54:14Z</time></trkpt>
<trkpt lat="46.14866" lon="7.37076"><ele></ele><time>2025-9-5T1:54:17Z</time></trkpt>
<trkpt lat="46.14861" lon="7.37079"><ele></ele><time>2025-9-5T1:54:20Z</time></trkpt>
<trkpt lat="46.14856" lon="7.3708"><ele></ele><time>2025-9-5T1:54:23Z</time></trkpt>
<trkpt lat="46.14845" lon="7.37079"><ele></ele><time>2025-9-5T1:54:26Z</time></trkpt>
<trkpt lat="46.14839" lon="7.37074"><ele></ele><time>2025-9-5T1:54:29Z</time></trkpt>
<trkpt lat="46.14833" lon="7.37074"><ele></ele><time>2025-9-5T1:54:32Z</time></trkpt>
<trkpt lat="46.14828" lon="7.37078"><ele></ele><time>2025-9-5T1:54:35Z</time></trkpt>
<trkpt lat="46.14829" lon="7.37084"><ele></ele><time>2025-9-5T1:54:38Z</time></trkpt>
<trkpt lat="46.14832" lon="7.37091"><ele></ele><time>2025-9-5T1:54:41Z</time></trkpt>
<trkpt lat="46.14836" lon="7.37099"><ele></ele><time>2025-9-5T1:54:44Z</time></trkpt>
<trkpt lat="46.14841" lon="7.37107"><ele></ele><time>2025-9-5T1:54:47Z</time></trkpt>
<trkpt lat="46.14854" lon="7.37124"><ele></ele><time>2025-9-5T1:54:50Z</time></trkpt>
<trkpt lat="46.14861" lon="7.37133"><ele></ele><time>2025-9-5T1:54:53Z</time></trkpt>
<trkpt lat="46.14868" lon="7.37139"><ele></ele><time>2025-9-5T1:54:56Z</time></trkpt>
<trkpt lat="46.14875" lon="7.37144"><ele></ele><time>2025-9-5T1:54:59Z</time></trkpt>
<trkpt lat="46.1488" lon="7.37151"><ele></ele><time>2025-9-5T1:55:2Z</time></trkpt>
<trkpt lat="46.14881" lon="7.37159"><ele></ele><time>2025-9-5T1:55:5Z</time></trkpt>
<trkpt lat="46.1488" lon="7.37165"><ele></ele><time>2025-9-5T1:55:8Z</time></trkpt>
<trkpt lat="46.14876" lon="7.37168"><ele></ele><time>2025-9-5T1:55:11Z</time></trkpt>
<trkpt lat="46.1487" lon="7.37168"><ele></ele><time>2025-9-5T1:55:14Z</time></trkpt>
<trkpt lat="46.14863" lon="7.37168"><ele></ele><time>2025-9-5T1:55:17Z</time></trkpt>
<trkpt lat="46.14855" lon="7.37168"><ele></ele><time>2025-9-5T1:55:20Z</time></trkpt>
<trkpt lat="46.14846" lon="7.37168"><ele></ele><time>2025-9-5T1:55:23Z</time></trkpt>
<trkpt lat="46.14837" lon="7.37167"><ele></ele><time>2025-9-5T1:55:26Z</time></trkpt>
<trkpt lat="46.14828" lon="7.37165"><ele></ele><time>2025-9-5T1:55:29Z</time></trkpt>
<trkpt lat="46.14812" lon="7.3716"><ele></ele><time>2025-9-5T1:55:32Z</time></trkpt>
<trkpt lat="46.14807" lon="7.37157"><ele></ele><time>2025-9-5T1:55:35Z</time></trkpt>
<trkpt lat="46.14802" lon="7.37153"><ele></ele><time>2025-9-5T1:55:38Z</time></trkpt>
<trkpt lat="46.14794" lon="7.37147"><ele></ele><time>2025-9-5T1:55:41Z</time></trkpt>
<trkpt lat="46.14779" lon="7.37148"><ele></ele><time>2025-9-5T1:55:44Z</time></trkpt>
<trkpt lat="46.14763" lon="7.37158"><ele></ele><time>2025-9-5T1:55:47Z</time></trkpt>
<trkpt lat="46.14759" lon="7.37159"><ele></ele><time>2025-9-5T1:55:50Z</time></trkpt>
<trkpt lat="46.14754" lon="7.37159"><ele></ele><time>2025-9-5T1:55:53Z</time></trkpt>
<trkpt lat="46.14743" lon="7.37157"><ele></ele><time>2025-9-5T1:55:56Z</time></trkpt>
<trkpt lat="46.1473" lon="7.37154"><ele></ele><time>2025-9-5T1:55:59Z</time></trkpt>
<trkpt lat="46.14722" lon="7.37153"><ele></ele><time>2025-9-5T1:56:2Z</time></trkpt>
<trkpt lat="46.14708" lon="7.37155"><ele></ele><time>2025-9-5T1:56:5Z</time></trkpt>
<trkpt lat="46.14701" lon="7.3716"><ele></ele><time>2025-9-5T1:56:8Z</time></trkpt>
<trkpt lat="46.14696" lon="7.37167"><ele></ele><time>2025-9-5T1:56:11Z</time></trkpt>
<trkpt lat="46.14693" lon="7.37177"><ele></ele><time>2025-9-5T1:56:14Z</time></trkpt>
<trkpt lat="46.14691" lon="7.37188"><ele></ele><time>2025-9-5T1:56:17Z</time></trkpt>
<trkpt lat="46.1469" lon="7.37211"><ele></ele><time>2025-9-5T1:56:20Z</time></trkpt>
<trkpt lat="46.14688" lon="7.37221"><ele></ele><time>2025-9-5T1:56:23Z</time></trkpt>
<trkpt lat="46.14686" lon="7.3723"><ele></ele><time>2025-9-5T1:56:26Z</time></trkpt>
<trkpt lat="46.14684" lon="7.37238"><ele></ele><time>2025-9-5T1:56:29Z</time></trkpt>
<trkpt lat="46.14682" lon="7.37245"><ele></ele><time>2025-9-5T1:56:32Z</time></trkpt>
<trkpt lat="46.1468" lon="7.37251"><ele></ele><time>2025-9-5T1:56:35Z</time></trkpt>
<trkpt lat="46.14677" lon="7.37257"><ele></ele><time>2025-9-5T1:56:38Z</time></trkpt>
<trkpt lat="46.14673" lon="7.37262"><ele></ele><time>2025-9-5T1:56:41Z</time></trkpt>
<trkpt lat="46.14669" lon="7.37266"><ele></ele><time>2025-9-5T1:56:44Z</time></trkpt>
<trkpt lat="46.14659" lon="7.3727"><ele></ele><time>2025-9-5T1:56:47Z</time></trkpt>
<trkpt lat="46.14654" lon="7.3727"><ele></ele><time>2025-9-5T1:56:50Z</time></trkpt>
<trkpt lat="46.14648" lon="7.3727"><ele></ele><time>2025-9-5T1:56:53Z</time></trkpt>
<trkpt lat="46.14641" lon="7.37269"><ele></ele><time>2025-9-5T1:56:56Z</time></trkpt>
<trkpt lat="46.14634" lon="7.37268"><ele></ele><time>2025-9-5T1:56:59Z</time></trkpt>
<trkpt lat="46.14627" lon="7.37265"><ele></ele><time>2025-9-5T1:57:2Z</time></trkpt>
<trkpt lat="46.14619" lon="7.37263"><ele></ele><time>2025-9-5T1:57:5Z</time></trkpt>
<trkpt lat="46.14612" lon="7.37261"><ele></ele><time>2025-9-5T1:57:8Z</time></trkpt>
<trkpt lat="46.14605" lon="7.3726"><ele></ele><time>2025-9-5T1:57:11Z</time></trkpt>
<trkpt lat="46.14598" lon="7.37263"><ele></ele><time>2025-9-5T1:57:14Z</time></trkpt>
<trkpt lat="46.14592" lon="7.37268"><ele></ele><time>2025-9-5T1:57:17Z</time></trkpt>
<trkpt lat="46.14585" lon="7.37272"><ele></ele><time>2025-9-5T1:57:20Z</time></trkpt>
<trkpt lat="46.1458" lon="7.37276"><ele></ele><time>2025-9-5T1:57:23Z</time></trkpt>
<trkpt lat="46.14574" lon="7.37281"><ele></ele><time>2025-9-5T1:57:26Z</time></trkpt>
<trkpt lat="46.14569" lon="7.37287"><ele></ele><time>2025-9-5T1:57:29Z</time></trkpt>
<trkpt lat="46.14562" lon="7.37303"><ele></ele><time>2025-9-5T1:57:32Z</time></trkpt>
<trkpt lat="46.14555" lon="7.37317"><ele></ele><time>2025-9-5T1:57:35Z</time></trkpt>
<trkpt lat="46.14551" lon="7.37322"><ele></ele><time>2025-9-5T1:57:38Z</time></trkpt>
<trkpt lat="46.14547" lon="7.37326"><ele></ele><time>2025-9-5T1:57:41Z</time></trkpt>
<trkpt lat="46.14539" lon="7.37334"><ele></ele><time>2025-9-5T1:57:44Z</time></trkpt>
<trkpt lat="46.14532" lon="7.37342"><ele></ele><time>2025-9-5T1:57:47Z</time></trkpt>
<trkpt lat="46.14531" lon="7.37347"><ele></ele><time>2025-9-5T1:57:50Z</time></trkpt>
<trkpt lat="46.1453" lon="7.37351"><ele></ele><time>2025-9-5T1:57:53Z</time></trkpt>
<trkpt lat="46.14529" lon="7.37357"><ele></ele><time>2025-9-5T1:57:56Z</time></trkpt>
<trkpt lat="46.14529" lon="7.37357"><ele></ele><time>2025-9-5T1:57:59Z</time></trkpt>
<trkpt lat="46.14529" lon="7.37357"><ele></ele><time>2025-9-5T1:58:2Z</time></trkpt>
<trkpt lat="46.14529" lon="7.37357"><ele></ele><time>2025-9-5T1:58:5Z</time></trkpt>
<trkpt lat="46.14529" lon="7.37357"><ele></ele><time>2025-9-5T1:58:8Z</time></trkpt>
<trkpt lat="46.14529" lon="7.37357"><ele></ele><time>2025-9-5T1:58:11Z</time></trkpt>
<trkpt lat="46.14529" lon="7.37357"><ele></ele><time>2025-9-5T1:58:14Z</time></trkpt>
<trkpt lat="46.1453" lon="7.3736"><ele></ele><time>2025-9-5T1:58:17Z</time></trkpt>
<trkpt lat="46.14527" lon="7.37364"><ele></ele><time>2025-9-5T1:58:20Z</time></trkpt>
<trkpt lat="46.14521" lon="7.3737"><ele></ele><time>2025-9-5T1:58:23Z</time></trkpt>
<trkpt lat="46.14518" lon="7.37374"><ele></ele><time>2025-9-5T1:58:26Z</time></trkpt>
<trkpt lat="46.1451" lon="7.37386"><ele></ele><time>2025-9-5T1:58:29Z</time></trkpt>
<trkpt lat="46.14505" lon="7.37394"><ele></ele><time>2025-9-5T1:58:32Z</time></trkpt>
<trkpt lat="46.145" lon="7.37401"><ele></ele><time>2025-9-5T1:58:35Z</time></trkpt>
<trkpt lat="46.14496" lon="7.37408"><ele></ele><time>2025-9-5T1:58:38Z</time></trkpt>
<trkpt lat="46.14492" lon="7.37425"><ele></ele><time>2025-9-5T1:58:41Z</time></trkpt>
<trkpt lat="46.1449" lon="7.37435"><ele></ele><time>2025-9-5T1:58:44Z</time></trkpt>
<trkpt lat="46.14489" lon="7.37445"><ele></ele><time>2025-9-5T1:58:47Z</time></trkpt>
<trkpt lat="46.14486" lon="7.37454"><ele></ele><time>2025-9-5T1:58:50Z</time></trkpt>
<trkpt lat="46.1448" lon="7.37472"><ele></ele><time>2025-9-5T1:58:53Z</time></trkpt>
<trkpt lat="46.14477" lon="7.3748"><ele></ele><time>2025-9-5T1:58:56Z</time></trkpt>
<trkpt lat="46.14466" lon="7.37504"><ele></ele><time>2025-9-5T1:58:59Z</time></trkpt>
<trkpt lat="46.14461" lon="7.37511"><ele></ele><time>2025-9-5T1:59:2Z</time></trkpt>
<trkpt lat="46.14457" lon="7.37516"><ele></ele><time>2025-9-5T1:59:5Z</time></trkpt>
<trkpt lat="46.14452" lon="7.37521"><ele></ele><time>2025-9-5T1:59:8Z</time></trkpt>
<trkpt lat="46.14442" lon="7.37526"><ele></ele><time>2025-9-5T1:59:11Z</time></trkpt>
<trkpt lat="46.14436" lon="7.37528"><ele></ele><time>2025-9-5T1:59:14Z</time></trkpt>
<trkpt lat="46.14429" lon="7.37529"><ele></ele><time>2025-9-5T1:59:17Z</time></trkpt>
<trkpt lat="46.14422" lon="7.37532"><ele></ele><time>2025-9-5T1:59:20Z</time></trkpt>
<trkpt lat="46.14408" lon="7.37543"><ele></ele><time>2025-9-5T1:59:23Z</time></trkpt>
<trkpt lat="46.14401" lon="7.3755"><ele></ele><time>2025-9-5T1:59:26Z</time></trkpt>
<trkpt lat="46.14394" lon="7.37558"><ele></ele><time>2025-9-5T1:59:29Z</time></trkpt>
<trkpt lat="46.14386" lon="7.37565"><ele></ele><time>2025-9-5T1:59:32Z</time></trkpt>
<trkpt lat="46.14378" lon="7.3757"><ele></ele><time>2025-9-5T1:59:35Z</time></trkpt>
<trkpt lat="46.14369" lon="7.37575"><ele></ele><time>2025-9-5T1:59:38Z</time></trkpt>
<trkpt lat="46.14359" lon="7.3758"><ele></ele><time>2025-9-5T1:59:41Z</time></trkpt>
<trkpt lat="46.14349" lon="7.37585"><ele></ele><time>2025-9-5T1:59:44Z</time></trkpt>
<trkpt lat="46.14339" lon="7.37589"><ele></ele><time>2025-9-5T1:59:47Z</time></trkpt>
<trkpt lat="46.14329" lon="7.37596"><ele></ele><time>2025-9-5T1:59:50Z</time></trkpt>
<trkpt lat="46.14311" lon="7.37611"><ele></ele><time>2025-9-5T1:59:53Z</time></trkpt>
<trkpt lat="46.14302" lon="7.37618"><ele></ele><time>2025-9-5T1:59:56Z</time></trkpt>
<trkpt lat="46.14293" lon="7.37623"><ele></ele><time>2025-9-5T1:59:59Z</time></trkpt>
<trkpt lat="46.14285" lon="7.37628"><ele></ele><time>2025-9-5T2:0:2Z</time></trkpt>
<trkpt lat="46.14277" lon="7.37635"><ele></ele><time>2025-9-5T2:0:5Z</time></trkpt>
<trkpt lat="46.14257" lon="7.37653"><ele></ele><time>2025-9-5T2:0:8Z</time></trkpt>
<trkpt lat="46.14252" lon="7.37658"><ele></ele><time>2025-9-5T2:0:11Z</time></trkpt>
<trkpt lat="46.14246" lon="7.37662"><ele></ele><time>2025-9-5T2:0:14Z</time></trkpt>
<trkpt lat="46.14232" lon="7.37668"><ele></ele><time>2025-9-5T2:0:17Z</time></trkpt>
<trkpt lat="46.14224" lon="7.37672"><ele></ele><time>2025-9-5T2:0:20Z</time></trkpt>
<trkpt lat="46.14216" lon="7.37678"><ele></ele><time>2025-9-5T2:0:23Z</time></trkpt>
<trkpt lat="46.142" lon="7.37691"><ele></ele><time>2025-9-5T2:0:26Z</time></trkpt>
<trkpt lat="46.14192" lon="7.37697"><ele></ele><time>2025-9-5T2:0:29Z</time></trkpt>
<trkpt lat="46.14176" lon="7.3771"><ele></ele><time>2025-9-5T2:0:32Z</time></trkpt>
<trkpt lat="46.14167" lon="7.37714"><ele></ele><time>2025-9-5T2:0:35Z</time></trkpt>
<trkpt lat="46.14152" lon="7.37722"><ele></ele><time>2025-9-5T2:0:38Z</time></trkpt>
<trkpt lat="46.1413" lon="7.37728"><ele></ele><time>2025-9-5T2:0:41Z</time></trkpt>
<trkpt lat="46.14122" lon="7.37728"><ele></ele><time>2025-9-5T2:0:44Z</time></trkpt>
<trkpt lat="46.14077" lon="7.37736"><ele></ele><time>2025-9-5T2:0:47Z</time></trkpt>
<trkpt lat="46.1407" lon="7.37736"><ele></ele><time>2025-9-5T2:0:50Z</time></trkpt>
<trkpt lat="46.14048" lon="7.37732"><ele></ele><time>2025-9-5T2:0:53Z</time></trkpt>
<trkpt lat="46.1404" lon="7.37732"><ele></ele><time>2025-9-5T2:0:56Z</time></trkpt>
<trkpt lat="46.14031" lon="7.3773"><ele></ele><time>2025-9-5T2:0:59Z</time></trkpt>
<trkpt lat="46.14022" lon="7.37727"><ele></ele><time>2025-9-5T2:1:2Z</time></trkpt>
<trkpt lat="46.14013" lon="7.37724"><ele></ele><time>2025-9-5T2:1:5Z</time></trkpt>
<trkpt lat="46.14005" lon="7.37722"><ele></ele><time>2025-9-5T2:1:8Z</time></trkpt>
<trkpt lat="46.13979" lon="7.37719"><ele></ele><time>2025-9-5T2:1:11Z</time></trkpt>
<trkpt lat="46.13964" lon="7.3772"><ele></ele><time>2025-9-5T2:1:14Z</time></trkpt>
<trkpt lat="46.1395" lon="7.37726"><ele></ele><time>2025-9-5T2:1:17Z</time></trkpt>
<trkpt lat="46.13938" lon="7.37731"><ele></ele><time>2025-9-5T2:1:20Z</time></trkpt>
<trkpt lat="46.13911" lon="7.37737"><ele></ele><time>2025-9-5T2:1:23Z</time></trkpt>
<trkpt lat="46.13896" lon="7.37735"><ele></ele><time>2025-9-5T2:1:26Z</time></trkpt>
<trkpt lat="46.13888" lon="7.37738"><ele></ele><time>2025-9-5T2:1:29Z</time></trkpt>
<trkpt lat="46.13879" lon="7.37742"><ele></ele><time>2025-9-5T2:1:32Z</time></trkpt>
<trkpt lat="46.13871" lon="7.37747"><ele></ele><time>2025-9-5T2:1:35Z</time></trkpt>
<trkpt lat="46.13863" lon="7.37752"><ele></ele><time>2025-9-5T2:1:38Z</time></trkpt>
<trkpt lat="46.13854" lon="7.37757"><ele></ele><time>2025-9-5T2:1:41Z</time></trkpt>
<trkpt lat="46.13836" lon="7.37766"><ele></ele><time>2025-9-5T2:1:44Z</time></trkpt>
<trkpt lat="46.13818" lon="7.37776"><ele></ele><time>2025-9-5T2:1:47Z</time></trkpt>
<trkpt lat="46.13811" lon="7.37786"><ele></ele><time>2025-9-5T2:1:50Z</time></trkpt>
<trkpt lat="46.13805" lon="7.37794"><ele></ele><time>2025-9-5T2:1:53Z</time></trkpt>
<trkpt lat="46.13799" lon="7.37802"><ele></ele><time>2025-9-5T2:1:56Z</time></trkpt>
<trkpt lat="46.13793" lon="7.37808"><ele></ele><time>2025-9-5T2:1:59Z</time></trkpt>
<trkpt lat="46.13786" lon="7.37811"><ele></ele><time>2025-9-5T2:2:2Z</time></trkpt>
<trkpt lat="46.1378" lon="7.37812"><ele></ele><time>2025-9-5T2:2:5Z</time></trkpt>
<trkpt lat="46.13773" lon="7.37805"><ele></ele><time>2025-9-5T2:2:8Z</time></trkpt>
<trkpt lat="46.13772" lon="7.37801"><ele></ele><time>2025-9-5T2:2:11Z</time></trkpt>
<trkpt lat="46.13772" lon="7.37794"><ele></ele><time>2025-9-5T2:2:14Z</time></trkpt>
<trkpt lat="46.13775" lon="7.37776"><ele></ele><time>2025-9-5T2:2:17Z</time></trkpt>
<trkpt lat="46.13778" lon="7.37754"><ele></ele><time>2025-9-5T2:2:20Z</time></trkpt>
<trkpt lat="46.13774" lon="7.37731"><ele></ele><time>2025-9-5T2:2:23Z</time></trkpt>
<trkpt lat="46.13773" lon="7.3771"><ele></ele><time>2025-9-5T2:2:26Z</time></trkpt>
<trkpt lat="46.13777" lon="7.37689"><ele></ele><time>2025-9-5T2:2:29Z</time></trkpt>
<trkpt lat="46.13783" lon="7.37667"><ele></ele><time>2025-9-5T2:2:32Z</time></trkpt>
<trkpt lat="46.13786" lon="7.37655"><ele></ele><time>2025-9-5T2:2:35Z</time></trkpt>
<trkpt lat="46.13785" lon="7.37642"><ele></ele><time>2025-9-5T2:2:38Z</time></trkpt>
<trkpt lat="46.13782" lon="7.37632"><ele></ele><time>2025-9-5T2:2:41Z</time></trkpt>
<trkpt lat="46.13778" lon="7.37623"><ele></ele><time>2025-9-5T2:2:44Z</time></trkpt>
<trkpt lat="46.13771" lon="7.37618"><ele></ele><time>2025-9-5T2:2:47Z</time></trkpt>
<trkpt lat="46.13756" lon="7.37607"><ele></ele><time>2025-9-5T2:2:50Z</time></trkpt>
<trkpt lat="46.1374" lon="7.376"><ele></ele><time>2025-9-5T2:2:53Z</time></trkpt>
<trkpt lat="46.13723" lon="7.37594"><ele></ele><time>2025-9-5T2:2:56Z</time></trkpt>
<trkpt lat="46.13714" lon="7.37594"><ele></ele><time>2025-9-5T2:2:59Z</time></trkpt>
<trkpt lat="46.13707" lon="7.37594"><ele></ele><time>2025-9-5T2:3:2Z</time></trkpt>
<trkpt lat="46.137" lon="7.37596"><ele></ele><time>2025-9-5T2:3:5Z</time></trkpt>
<trkpt lat="46.13689" lon="7.37595"><ele></ele><time>2025-9-5T2:3:8Z</time></trkpt>
<trkpt lat="46.13684" lon="7.37591"><ele></ele><time>2025-9-5T2:3:11Z</time></trkpt>
<trkpt lat="46.1368" lon="7.37585"><ele></ele><time>2025-9-5T2:3:14Z</time></trkpt>
<trkpt lat="46.13669" lon="7.37572"><ele></ele><time>2025-9-5T2:3:17Z</time></trkpt>
<trkpt lat="46.13661" lon="7.37568"><ele></ele><time>2025-9-5T2:3:20Z</time></trkpt>
<trkpt lat="46.13653" lon="7.37568"><ele></ele><time>2025-9-5T2:3:23Z</time></trkpt>
<trkpt lat="46.13644" lon="7.3757"><ele></ele><time>2025-9-5T2:3:26Z</time></trkpt>
<trkpt lat="46.13626" lon="7.37573"><ele></ele><time>2025-9-5T2:3:29Z</time></trkpt>
<trkpt lat="46.1361" lon="7.37581"><ele></ele><time>2025-9-5T2:3:32Z</time></trkpt>
<trkpt lat="46.136" lon="7.37593"><ele></ele><time>2025-9-5T2:3:35Z</time></trkpt>
<trkpt lat="46.13597" lon="7.37598"><ele></ele><time>2025-9-5T2:3:38Z</time></trkpt>
<trkpt lat="46.13587" lon="7.37604"><ele></ele><time>2025-9-5T2:3:41Z</time></trkpt>
<trkpt lat="46.1358" lon="7.37604"><ele></ele><time>2025-9-5T2:3:44Z</time></trkpt>
<trkpt lat="46.13574" lon="7.37606"><ele></ele><time>2025-9-5T2:3:47Z</time></trkpt>
<trkpt lat="46.13568" lon="7.37609"><ele></ele><time>2025-9-5T2:3:50Z</time></trkpt>
<trkpt lat="46.13562" lon="7.37612"><ele></ele><time>2025-9-5T2:3:53Z</time></trkpt>
<trkpt lat="46.13557" lon="7.37616"><ele></ele><time>2025-9-5T2:3:56Z</time></trkpt>
<trkpt lat="46.13551" lon="7.37617"><ele></ele><time>2025-9-5T2:3:59Z</time></trkpt>
<trkpt lat="46.13538" lon="7.37614"><ele></ele><time>2025-9-5T2:4:2Z</time></trkpt>
<trkpt lat="46.13523" lon="7.37608"><ele></ele><time>2025-9-5T2:4:5Z</time></trkpt>
<trkpt lat="46.13508" lon="7.37598"><ele></ele><time>2025-9-5T2:4:8Z</time></trkpt>
<trkpt lat="46.13501" lon="7.37591"><ele></ele><time>2025-9-5T2:4:11Z</time></trkpt>
<trkpt lat="46.13493" lon="7.37584"><ele></ele><time>2025-9-5T2:4:14Z</time></trkpt>
<trkpt lat="46.13484" lon="7.37579"><ele></ele><time>2025-9-5T2:4:17Z</time></trkpt>
<trkpt lat="46.13474" lon="7.37574"><ele></ele><time>2025-9-5T2:4:20Z</time></trkpt>
<trkpt lat="46.13466" lon="7.37568"><ele></ele><time>2025-9-5T2:4:23Z</time></trkpt>
<trkpt lat="46.13458" lon="7.3756"><ele></ele><time>2025-9-5T2:4:26Z</time></trkpt>
<trkpt lat="46.1345" lon="7.37554"><ele></ele><time>2025-9-5T2:4:29Z</time></trkpt>
<trkpt lat="46.13442" lon="7.37551"><ele></ele><time>2025-9-5T2:4:32Z</time></trkpt>
<trkpt lat="46.13433" lon="7.3755"><ele></ele><time>2025-9-5T2:4:35Z</time></trkpt>
<trkpt lat="46.13416" lon="7.37544"><ele></ele><time>2025-9-5T2:4:38Z</time></trkpt>
<trkpt lat="46.13407" lon="7.37542"><ele></ele><time>2025-9-5T2:4:41Z</time></trkpt>
<trkpt lat="46.13398" lon="7.37544"><ele></ele><time>2025-9-5T2:4:44Z</time></trkpt>
<trkpt lat="46.13388" lon="7.37549"><ele></ele><time>2025-9-5T2:4:47Z</time></trkpt>
<trkpt lat="46.13379" lon="7.37553"><ele></ele><time>2025-9-5T2:4:50Z</time></trkpt>
<trkpt lat="46.1337" lon="7.37557"><ele></ele><time>2025-9-5T2:4:53Z</time></trkpt>
<trkpt lat="46.13362" lon="7.37562"><ele></ele><time>2025-9-5T2:4:56Z</time></trkpt>
<trkpt lat="46.13355" lon="7.37568"><ele></ele><time>2025-9-5T2:4:59Z</time></trkpt>
<trkpt lat="46.13348" lon="7.37573"><ele></ele><time>2025-9-5T2:5:2Z</time></trkpt>
<trkpt lat="46.1334" lon="7.37578"><ele></ele><time>2025-9-5T2:5:5Z</time></trkpt>
<trkpt lat="46.13325" lon="7.37581"><ele></ele><time>2025-9-5T2:5:8Z</time></trkpt>
<trkpt lat="46.13318" lon="7.37584"><ele></ele><time>2025-9-5T2:5:11Z</time></trkpt>
<trkpt lat="46.13303" lon="7.37597"><ele></ele><time>2025-9-5T2:5:14Z</time></trkpt>
<trkpt lat="46.13295" lon="7.37603"><ele></ele><time>2025-9-5T2:5:17Z</time></trkpt>
<trkpt lat="46.13282" lon="7.37613"><ele></ele><time>2025-9-5T2:5:20Z</time></trkpt>
<trkpt lat="46.13276" lon="7.37616"><ele></ele><time>2025-9-5T2:5:23Z</time></trkpt>
<trkpt lat="46.13271" lon="7.37618"><ele></ele><time>2025-9-5T2:5:26Z</time></trkpt>
<trkpt lat="46.13265" lon="7.37618"><ele></ele><time>2025-9-5T2:5:29Z</time></trkpt>
<trkpt lat="46.13246" lon="7.37615"><ele></ele><time>2025-9-5T2:5:32Z</time></trkpt>
<trkpt lat="46.13231" lon="7.37612"><ele></ele><time>2025-9-5T2:5:35Z</time></trkpt>
<trkpt lat="46.13214" lon="7.3761"><ele></ele><time>2025-9-5T2:5:38Z</time></trkpt>
<trkpt lat="46.13195" lon="7.37616"><ele></ele><time>2025-9-5T2:5:41Z</time></trkpt>
<trkpt lat="46.13185" lon="7.3762"><ele></ele><time>2025-9-5T2:5:44Z</time></trkpt>
<trkpt lat="46.13176" lon="7.37621"><ele></ele><time>2025-9-5T2:5:47Z</time></trkpt>
<trkpt lat="46.13167" lon="7.37622"><ele></ele><time>2025-9-5T2:5:50Z</time></trkpt>
<trkpt lat="46.13158" lon="7.37625"><ele></ele><time>2025-9-5T2:5:53Z</time></trkpt>
<trkpt lat="46.1315" lon="7.37631"><ele></ele><time>2025-9-5T2:5:56Z</time></trkpt>
<trkpt lat="46.13142" lon="7.37636"><ele></ele><time>2025-9-5T2:5:59Z</time></trkpt>
<trkpt lat="46.13136" lon="7.37642"><ele></ele><time>2025-9-5T2:6:2Z</time></trkpt>
<trkpt lat="46.1313" lon="7.37645"><ele></ele><time>2025-9-5T2:6:5Z</time></trkpt>
<trkpt lat="46.13119" lon="7.37646"><ele></ele><time>2025-9-5T2:6:8Z</time></trkpt>
<trkpt lat="46.13115" lon="7.37647"><ele></ele><time>2025-9-5T2:6:11Z</time></trkpt>
<trkpt lat="46.1311" lon="7.3765"><ele></ele><time>2025-9-5T2:6:14Z</time></trkpt>
<trkpt lat="46.1311" lon="7.37653"><ele></ele><time>2025-9-5T2:6:17Z</time></trkpt>
<trkpt lat="46.13111" lon="7.37659"><ele></ele><time>2025-9-5T2:6:20Z</time></trkpt>
<trkpt lat="46.13115" lon="7.37661"><ele></ele><time>2025-9-5T2:6:23Z</time></trkpt>
<trkpt lat="46.13119" lon="7.37662"><ele></ele><time>2025-9-5T2:6:26Z</time></trkpt>
<trkpt lat="46.13123" lon="7.37661"><ele></ele><time>2025-9-5T2:6:29Z</time></trkpt>
<trkpt lat="46.13125" lon="7.3766"><ele></ele><time>2025-9-5T2:6:32Z</time></trkpt>
<trkpt lat="46.13129" lon="7.37658"><ele></ele><time>2025-9-5T2:6:35Z</time></trkpt>
<trkpt lat="46.13132" lon="7.37657"><ele></ele><time>2025-9-5T2:6:38Z</time></trkpt>
<trkpt lat="46.13144" lon="7.37654"><ele></ele><time>2025-9-5T2:6:41Z</time></trkpt>
<trkpt lat="46.1315" lon="7.37654"><ele></ele><time>2025-9-5T2:6:44Z</time></trkpt>
<trkpt lat="46.13156" lon="7.37654"><ele></ele><time>2025-9-5T2:6:47Z</time></trkpt>
<trkpt lat="46.13171" lon="7.37655"><ele></ele><time>2025-9-5T2:6:50Z</time></trkpt>
<trkpt lat="46.1318" lon="7.37656"><ele></ele><time>2025-9-5T2:6:53Z</time></trkpt>
<trkpt lat="46.13189" lon="7.37656"><ele></ele><time>2025-9-5T2:6:56Z</time></trkpt>
<trkpt lat="46.13198" lon="7.37657"><ele></ele><time>2025-9-5T2:6:59Z</time></trkpt>
<trkpt lat="46.13207" lon="7.37659"><ele></ele><time>2025-9-5T2:7:2Z</time></trkpt>
<trkpt lat="46.13217" lon="7.37663"><ele></ele><time>2025-9-5T2:7:5Z</time></trkpt>
<trkpt lat="46.13226" lon="7.37669"><ele></ele><time>2025-9-5T2:7:8Z</time></trkpt>
<trkpt lat="46.13235" lon="7.37675"><ele></ele><time>2025-9-5T2:7:11Z</time></trkpt>
<trkpt lat="46.13245" lon="7.3768"><ele></ele><time>2025-9-5T2:7:14Z</time></trkpt>
<trkpt lat="46.13254" lon="7.37684"><ele></ele><time>2025-9-5T2:7:17Z</time></trkpt>
<trkpt lat="46.13263" lon="7.37687"><ele></ele><time>2025-9-5T2:7:20Z</time></trkpt>
<trkpt lat="46.13273" lon="7.37689"><ele></ele><time>2025-9-5T2:7:23Z</time></trkpt>
<trkpt lat="46.13283" lon="7.37689"><ele></ele><time>2025-9-5T2:7:26Z</time></trkpt>
<trkpt lat="46.13293" lon="7.37687"><ele></ele><time>2025-9-5T2:7:29Z</time></trkpt>
<trkpt lat="46.13302" lon="7.37687"><ele></ele><time>2025-9-5T2:7:32Z</time></trkpt>
<trkpt lat="46.1331" lon="7.37691"><ele></ele><time>2025-9-5T2:7:35Z</time></trkpt>
<trkpt lat="46.13318" lon="7.37698"><ele></ele><time>2025-9-5T2:7:38Z</time></trkpt>
<trkpt lat="46.13323" lon="7.37707"><ele></ele><time>2025-9-5T2:7:41Z</time></trkpt>
<trkpt lat="46.13327" lon="7.37719"><ele></ele><time>2025-9-5T2:7:44Z</time></trkpt>
<trkpt lat="46.13329" lon="7.37731"><ele></ele><time>2025-9-5T2:7:47Z</time></trkpt>
<trkpt lat="46.13329" lon="7.37743"><ele></ele><time>2025-9-5T2:7:50Z</time></trkpt>
<trkpt lat="46.13329" lon="7.37764"><ele></ele><time>2025-9-5T2:7:53Z</time></trkpt>
<trkpt lat="46.13328" lon="7.37774"><ele></ele><time>2025-9-5T2:7:56Z</time></trkpt>
<trkpt lat="46.13331" lon="7.37782"><ele></ele><time>2025-9-5T2:7:59Z</time></trkpt>
<trkpt lat="46.13335" lon="7.37787"><ele></ele><time>2025-9-5T2:8:2Z</time></trkpt>
<trkpt lat="46.13341" lon="7.37788"><ele></ele><time>2025-9-5T2:8:5Z</time></trkpt>
<trkpt lat="46.13348" lon="7.37788"><ele></ele><time>2025-9-5T2:8:8Z</time></trkpt>
<trkpt lat="46.13364" lon="7.37786"><ele></ele><time>2025-9-5T2:8:11Z</time></trkpt>
<trkpt lat="46.13374" lon="7.37784"><ele></ele><time>2025-9-5T2:8:14Z</time></trkpt>
<trkpt lat="46.13383" lon="7.37784"><ele></ele><time>2025-9-5T2:8:17Z</time></trkpt>
<trkpt lat="46.13403" lon="7.37789"><ele></ele><time>2025-9-5T2:8:20Z</time></trkpt>
<trkpt lat="46.13413" lon="7.37793"><ele></ele><time>2025-9-5T2:8:23Z</time></trkpt>
<trkpt lat="46.13424" lon="7.37797"><ele></ele><time>2025-9-5T2:8:26Z</time></trkpt>
<trkpt lat="46.13434" lon="7.37803"><ele></ele><time>2025-9-5T2:8:29Z</time></trkpt>
<trkpt lat="46.13454" lon="7.37812"><ele></ele><time>2025-9-5T2:8:32Z</time></trkpt>
<trkpt lat="46.13465" lon="7.37816"><ele></ele><time>2025-9-5T2:8:35Z</time></trkpt>
<trkpt lat="46.13476" lon="7.37819"><ele></ele><time>2025-9-5T2:8:38Z</time></trkpt>
<trkpt lat="46.13486" lon="7.37821"><ele></ele><time>2025-9-5T2:8:41Z</time></trkpt>
<trkpt lat="46.13494" lon="7.37823"><ele></ele><time>2025-9-5T2:8:44Z</time></trkpt>
<trkpt lat="46.135" lon="7.3783"><ele></ele><time>2025-9-5T2:8:47Z</time></trkpt>
<trkpt lat="46.13502" lon="7.37837"><ele></ele><time>2025-9-5T2:8:50Z</time></trkpt>
<trkpt lat="46.13495" lon="7.37843"><ele></ele><time>2025-9-5T2:8:53Z</time></trkpt>
<trkpt lat="46.13492" lon="7.37843"><ele></ele><time>2025-9-5T2:8:56Z</time></trkpt>
<trkpt lat="46.1349" lon="7.37842"><ele></ele><time>2025-9-5T2:8:59Z</time></trkpt>
<trkpt lat="46.13479" lon="7.37838"><ele></ele><time>2025-9-5T2:9:2Z</time></trkpt>
<trkpt lat="46.13475" lon="7.37837"><ele></ele><time>2025-9-5T2:9:5Z</time></trkpt>
<trkpt lat="46.1347" lon="7.37837"><ele></ele><time>2025-9-5T2:9:8Z</time></trkpt>
<trkpt lat="46.13464" lon="7.37838"><ele></ele><time>2025-9-5T2:9:11Z</time></trkpt>
<trkpt lat="46.13458" lon="7.37841"><ele></ele><time>2025-9-5T2:9:14Z</time></trkpt>
<trkpt lat="46.13444" lon="7.37848"><ele></ele><time>2025-9-5T2:9:17Z</time></trkpt>
<trkpt lat="46.13426" lon="7.37856"><ele></ele><time>2025-9-5T2:9:20Z</time></trkpt>
<trkpt lat="46.13417" lon="7.37861"><ele></ele><time>2025-9-5T2:9:23Z</time></trkpt>
<trkpt lat="46.13408" lon="7.37866"><ele></ele><time>2025-9-5T2:9:26Z</time></trkpt>
<trkpt lat="46.13389" lon="7.37879"><ele></ele><time>2025-9-5T2:9:29Z</time></trkpt>
<trkpt lat="46.13381" lon="7.37887"><ele></ele><time>2025-9-5T2:9:32Z</time></trkpt>
<trkpt lat="46.13374" lon="7.37895"><ele></ele><time>2025-9-5T2:9:35Z</time></trkpt>
<trkpt lat="46.13367" lon="7.37903"><ele></ele><time>2025-9-5T2:9:38Z</time></trkpt>
<trkpt lat="46.13354" lon="7.37915"><ele></ele><time>2025-9-5T2:9:41Z</time></trkpt>
<trkpt lat="46.13339" lon="7.37918"><ele></ele><time>2025-9-5T2:9:44Z</time></trkpt>
<trkpt lat="46.13331" lon="7.37918"><ele></ele><time>2025-9-5T2:9:47Z</time></trkpt>
<trkpt lat="46.13321" lon="7.37919"><ele></ele><time>2025-9-5T2:9:50Z</time></trkpt>
<trkpt lat="46.13311" lon="7.3792"><ele></ele><time>2025-9-5T2:9:53Z</time></trkpt>
<trkpt lat="46.13301" lon="7.37923"><ele></ele><time>2025-9-5T2:9:56Z</time></trkpt>
<trkpt lat="46.13291" lon="7.37925"><ele></ele><time>2025-9-5T2:9:59Z</time></trkpt>
<trkpt lat="46.13282" lon="7.37928"><ele></ele><time>2025-9-5T2:10:2Z</time></trkpt>
<trkpt lat="46.13273" lon="7.37931"><ele></ele><time>2025-9-5T2:10:5Z</time></trkpt>
<trkpt lat="46.13264" lon="7.37932"><ele></ele><time>2025-9-5T2:10:8Z</time></trkpt>
<trkpt lat="46.13255" lon="7.37931"><ele></ele><time>2025-9-5T2:10:11Z</time></trkpt>
<trkpt lat="46.13247" lon="7.37927"><ele></ele><time>2025-9-5T2:10:14Z</time></trkpt>
<trkpt lat="46.13238" lon="7.37921"><ele></ele><time>2025-9-5T2:10:17Z</time></trkpt>
<trkpt lat="46.13229" lon="7.37913"><ele></ele><time>2025-9-5T2:10:20Z</time></trkpt>
<trkpt lat="46.13219" lon="7.37906"><ele></ele><time>2025-9-5T2:10:23Z</time></trkpt>
<trkpt lat="46.13208" lon="7.37904"><ele></ele><time>2025-9-5T2:10:26Z</time></trkpt>
<trkpt lat="46.13196" lon="7.37906"><ele></ele><time>2025-9-5T2:10:29Z</time></trkpt>
<trkpt lat="46.13184" lon="7.3791"><ele></ele><time>2025-9-5T2:10:32Z</time></trkpt>
<trkpt lat="46.13172" lon="7.37914"><ele></ele><time>2025-9-5T2:10:35Z</time></trkpt>
<trkpt lat="46.13161" lon="7.37919"><ele></ele><time>2025-9-5T2:10:38Z</time></trkpt>
<trkpt lat="46.1315" lon="7.37925"><ele></ele><time>2025-9-5T2:10:41Z</time></trkpt>
<trkpt lat="46.13141" lon="7.3793"><ele></ele><time>2025-9-5T2:10:44Z</time></trkpt>
<trkpt lat="46.13123" lon="7.37937"><ele></ele><time>2025-9-5T2:10:47Z</time></trkpt>
<trkpt lat="46.13105" lon="7.3794"><ele></ele><time>2025-9-5T2:10:50Z</time></trkpt>
<trkpt lat="46.13094" lon="7.37939"><ele></ele><time>2025-9-5T2:10:53Z</time></trkpt>
<trkpt lat="46.13083" lon="7.37939"><ele></ele><time>2025-9-5T2:10:56Z</time></trkpt>
<trkpt lat="46.13071" lon="7.37939"><ele></ele><time>2025-9-5T2:10:59Z</time></trkpt>
<trkpt lat="46.13059" lon="7.3794"><ele></ele><time>2025-9-5T2:11:2Z</time></trkpt>
<trkpt lat="46.13048" lon="7.37941"><ele></ele><time>2025-9-5T2:11:5Z</time></trkpt>
<trkpt lat="46.13038" lon="7.37941"><ele></ele><time>2025-9-5T2:11:8Z</time></trkpt>
<trkpt lat="46.13031" lon="7.37946"><ele></ele><time>2025-9-5T2:11:11Z</time></trkpt>
<trkpt lat="46.13029" lon="7.37954"><ele></ele><time>2025-9-5T2:11:14Z</time></trkpt>
<trkpt lat="46.13037" lon="7.37959"><ele></ele><time>2025-9-5T2:11:17Z</time></trkpt>
<trkpt lat="46.13042" lon="7.37957"><ele></ele><time>2025-9-5T2:11:20Z</time></trkpt>
<trkpt lat="46.13056" lon="7.37953"><ele></ele><time>2025-9-5T2:11:23Z</time></trkpt>
<trkpt lat="46.13064" lon="7.37954"><ele></ele><time>2025-9-5T2:11:26Z</time></trkpt>
<trkpt lat="46.13072" lon="7.37957"><ele></ele><time>2025-9-5T2:11:29Z</time></trkpt>
<trkpt lat="46.1308" lon="7.37963"><ele></ele><time>2025-9-5T2:11:32Z</time></trkpt>
<trkpt lat="46.13089" lon="7.37968"><ele></ele><time>2025-9-5T2:11:35Z</time></trkpt>
<trkpt lat="46.13098" lon="7.37973"><ele></ele><time>2025-9-5T2:11:38Z</time></trkpt>
<trkpt lat="46.13118" lon="7.37981"><ele></ele><time>2025-9-5T2:11:41Z</time></trkpt>
<trkpt lat="46.13129" lon="7.37984"><ele></ele><time>2025-9-5T2:11:44Z</time></trkpt>
<trkpt lat="46.1314" lon="7.37989"><ele></ele><time>2025-9-5T2:11:47Z</time></trkpt>
<trkpt lat="46.13151" lon="7.37996"><ele></ele><time>2025-9-5T2:11:50Z</time></trkpt>
<trkpt lat="46.13161" lon="7.38006"><ele></ele><time>2025-9-5T2:11:53Z</time></trkpt>
<trkpt lat="46.13172" lon="7.38017"><ele></ele><time>2025-9-5T2:11:56Z</time></trkpt>
<trkpt lat="46.13183" lon="7.38028"><ele></ele><time>2025-9-5T2:11:59Z</time></trkpt>
<trkpt lat="46.13193" lon="7.38039"><ele></ele><time>2025-9-5T2:12:2Z</time></trkpt>
<trkpt lat="46.13204" lon="7.38051"><ele></ele><time>2025-9-5T2:12:5Z</time></trkpt>
<trkpt lat="46.13214" lon="7.38064"><ele></ele><time>2025-9-5T2:12:8Z</time></trkpt>
<trkpt lat="46.13223" lon="7.38079"><ele></ele><time>2025-9-5T2:12:11Z</time></trkpt>
<trkpt lat="46.13232" lon="7.38093"><ele></ele><time>2025-9-5T2:12:14Z</time></trkpt>
<trkpt lat="46.1324" lon="7.38108"><ele></ele><time>2025-9-5T2:12:17Z</time></trkpt>
<trkpt lat="46.1325" lon="7.3812"><ele></ele><time>2025-9-5T2:12:20Z</time></trkpt>
<trkpt lat="46.13259" lon="7.38131"><ele></ele><time>2025-9-5T2:12:23Z</time></trkpt>
<trkpt lat="46.13267" lon="7.38141"><ele></ele><time>2025-9-5T2:12:26Z</time></trkpt>
<trkpt lat="46.13274" lon="7.38151"><ele></ele><time>2025-9-5T2:12:29Z</time></trkpt>
<trkpt lat="46.13287" lon="7.38167"><ele></ele><time>2025-9-5T2:12:32Z</time></trkpt>
<trkpt lat="46.13293" lon="7.3817"><ele></ele><time>2025-9-5T2:12:35Z</time></trkpt>
<trkpt lat="46.133" lon="7.38168"><ele></ele><time>2025-9-5T2:12:38Z</time></trkpt>
<trkpt lat="46.13307" lon="7.38164"><ele></ele><time>2025-9-5T2:12:41Z</time></trkpt>
<trkpt lat="46.13315" lon="7.38161"><ele></ele><time>2025-9-5T2:12:44Z</time></trkpt>
<trkpt lat="46.13323" lon="7.38162"><ele></ele><time>2025-9-5T2:12:47Z</time></trkpt>
<trkpt lat="46.13331" lon="7.38167"><ele></ele><time>2025-9-5T2:12:50Z</time></trkpt>
<trkpt lat="46.13337" lon="7.38173"><ele></ele><time>2025-9-5T2:12:53Z</time></trkpt>
<trkpt lat="46.13344" lon="7.38176"><ele></ele><time>2025-9-5T2:12:56Z</time></trkpt>
<trkpt lat="46.13351" lon="7.38174"><ele></ele><time>2025-9-5T2:12:59Z</time></trkpt>
<trkpt lat="46.13366" lon="7.38169"><ele></ele><time>2025-9-5T2:13:2Z</time></trkpt>
<trkpt lat="46.13384" lon="7.38165"><ele></ele><time>2025-9-5T2:13:5Z</time></trkpt>
<trkpt lat="46.13393" lon="7.38161"><ele></ele><time>2025-9-5T2:13:8Z</time></trkpt>
<trkpt lat="46.13408" lon="7.38162"><ele></ele><time>2025-9-5T2:13:11Z</time></trkpt>
<trkpt lat="46.13413" lon="7.38175"><ele></ele><time>2025-9-5T2:13:14Z</time></trkpt>
<trkpt lat="46.13406" lon="7.3818"><ele></ele><time>2025-9-5T2:13:17Z</time></trkpt>
<trkpt lat="46.13401" lon="7.38181"><ele></ele><time>2025-9-5T2:13:20Z</time></trkpt>
<trkpt lat="46.13388" lon="7.38184"><ele></ele><time>2025-9-5T2:13:23Z</time></trkpt>
<trkpt lat="46.13381" lon="7.38188"><ele></ele><time>2025-9-5T2:13:26Z</time></trkpt>
<trkpt lat="46.13373" lon="7.38194"><ele></ele><time>2025-9-5T2:13:29Z</time></trkpt>
<trkpt lat="46.13358" lon="7.38207"><ele></ele><time>2025-9-5T2:13:32Z</time></trkpt>
<trkpt lat="46.13351" lon="7.38218"><ele></ele><time>2025-9-5T2:13:35Z</time></trkpt>
<trkpt lat="46.13344" lon="7.3823"><ele></ele><time>2025-9-5T2:13:38Z</time></trkpt>
<trkpt lat="46.13339" lon="7.38243"><ele></ele><time>2025-9-5T2:13:41Z</time></trkpt>
<trkpt lat="46.13332" lon="7.38258"><ele></ele><time>2025-9-5T2:13:44Z</time></trkpt>
<trkpt lat="46.13324" lon="7.3827"><ele></ele><time>2025-9-5T2:13:47Z</time></trkpt>
<trkpt lat="46.13315" lon="7.3828"><ele></ele><time>2025-9-5T2:13:50Z</time></trkpt>
<trkpt lat="46.13306" lon="7.38289"><ele></ele><time>2025-9-5T2:13:53Z</time></trkpt>
<trkpt lat="46.13289" lon="7.38305"><ele></ele><time>2025-9-5T2:13:56Z</time></trkpt>
<trkpt lat="46.1328" lon="7.3831"><ele></ele><time>2025-9-5T2:13:59Z</time></trkpt>
<trkpt lat="46.13272" lon="7.38314"><ele></ele><time>2025-9-5T2:14:2Z</time></trkpt>
<trkpt lat="46.13255" lon="7.38318"><ele></ele><time>2025-9-5T2:14:5Z</time></trkpt>
<trkpt lat="46.13245" lon="7.38321"><ele></ele><time>2025-9-5T2:14:8Z</time></trkpt>
<trkpt lat="46.13235" lon="7.38326"><ele></ele><time>2025-9-5T2:14:11Z</time></trkpt>
<trkpt lat="46.13224" lon="7.38333"><ele></ele><time>2025-9-5T2:14:14Z</time></trkpt>
<trkpt lat="46.13214" lon="7.38342"><ele></ele><time>2025-9-5T2:14:17Z</time></trkpt>
<trkpt lat="46.13204" lon="7.3835"><ele></ele><time>2025-9-5T2:14:20Z</time></trkpt>
<trkpt lat="46.13195" lon="7.38357"><ele></ele><time>2025-9-5T2:14:23Z</time></trkpt>
<trkpt lat="46.13188" lon="7.38362"><ele></ele><time>2025-9-5T2:14:26Z</time></trkpt>
<trkpt lat="46.13181" lon="7.38364"><ele></ele><time>2025-9-5T2:14:29Z</time></trkpt>
<trkpt lat="46.13175" lon="7.38365"><ele></ele><time>2025-9-5T2:14:32Z</time></trkpt>
<trkpt lat="46.1316" lon="7.38363"><ele></ele><time>2025-9-5T2:14:35Z</time></trkpt>
<trkpt lat="46.13143" lon="7.3836"><ele></ele><time>2025-9-5T2:14:38Z</time></trkpt>
<trkpt lat="46.13134" lon="7.38355"><ele></ele><time>2025-9-5T2:14:41Z</time></trkpt>
<trkpt lat="46.13126" lon="7.38349"><ele></ele><time>2025-9-5T2:14:44Z</time></trkpt>
<trkpt lat="46.13116" lon="7.38342"><ele></ele><time>2025-9-5T2:14:47Z</time></trkpt>
<trkpt lat="46.13106" lon="7.38342"><ele></ele><time>2025-9-5T2:14:50Z</time></trkpt>
<trkpt lat="46.13099" lon="7.38345"><ele></ele><time>2025-9-5T2:14:53Z</time></trkpt>
<trkpt lat="46.13091" lon="7.38348"><ele></ele><time>2025-9-5T2:14:56Z</time></trkpt>
<trkpt lat="46.13084" lon="7.38347"><ele></ele><time>2025-9-5T2:14:59Z</time></trkpt>
<trkpt lat="46.13077" lon="7.38344"><ele></ele><time>2025-9-5T2:15:2Z</time></trkpt>
<trkpt lat="46.13071" lon="7.38338"><ele></ele><time>2025-9-5T2:15:5Z</time></trkpt>
<trkpt lat="46.13066" lon="7.38329"><ele></ele><time>2025-9-5T2:15:8Z</time></trkpt>
<trkpt lat="46.13061" lon="7.38318"><ele></ele><time>2025-9-5T2:15:11Z</time></trkpt>
<trkpt lat="46.13057" lon="7.38307"><ele></ele><time>2025-9-5T2:15:14Z</time></trkpt>
<trkpt lat="46.13048" lon="7.38292"><ele></ele><time>2025-9-5T2:15:17Z</time></trkpt>
<trkpt lat="46.13042" lon="7.38298"><ele></ele><time>2025-9-5T2:15:20Z</time></trkpt>
<trkpt lat="46.13049" lon="7.38312"><ele></ele><time>2025-9-5T2:15:23Z</time></trkpt>
<trkpt lat="46.13052" lon="7.38319"><ele></ele><time>2025-9-5T2:15:26Z</time></trkpt>
<trkpt lat="46.13055" lon="7.38329"><ele></ele><time>2025-9-5T2:15:29Z</time></trkpt>
<trkpt lat="46.13058" lon="7.3834"><ele></ele><time>2025-9-5T2:15:32Z</time></trkpt>
<trkpt lat="46.13059" lon="7.38352"><ele></ele><time>2025-9-5T2:15:35Z</time></trkpt>
<trkpt lat="46.13061" lon="7.38364"><ele></ele><time>2025-9-5T2:15:38Z</time></trkpt>
<trkpt lat="46.13062" lon="7.38376"><ele></ele><time>2025-9-5T2:15:41Z</time></trkpt>
<trkpt lat="46.13063" lon="7.38396"><ele></ele><time>2025-9-5T2:15:44Z</time></trkpt>
<trkpt lat="46.13064" lon="7.38406"><ele></ele><time>2025-9-5T2:15:47Z</time></trkpt>
<trkpt lat="46.13066" lon="7.38414"><ele></ele><time>2025-9-5T2:15:50Z</time></trkpt>
<trkpt lat="46.1307" lon="7.38422"><ele></ele><time>2025-9-5T2:15:53Z</time></trkpt>
<trkpt lat="46.13076" lon="7.3843"><ele></ele><time>2025-9-5T2:15:56Z</time></trkpt>
<trkpt lat="46.13082" lon="7.38435"><ele></ele><time>2025-9-5T2:15:59Z</time></trkpt>
<trkpt lat="46.1309" lon="7.3844"><ele></ele><time>2025-9-5T2:16:2Z</time></trkpt>
<trkpt lat="46.13099" lon="7.38445"><ele></ele><time>2025-9-5T2:16:5Z</time></trkpt>
<trkpt lat="46.13107" lon="7.38451"><ele></ele><time>2025-9-5T2:16:8Z</time></trkpt>
<trkpt lat="46.13113" lon="7.38459"><ele></ele><time>2025-9-5T2:16:11Z</time></trkpt>
<trkpt lat="46.13117" lon="7.38467"><ele></ele><time>2025-9-5T2:16:14Z</time></trkpt>
<trkpt lat="46.13126" lon="7.38479"><ele></ele><time>2025-9-5T2:16:17Z</time></trkpt>
<trkpt lat="46.13133" lon="7.38484"><ele></ele><time>2025-9-5T2:16:20Z</time></trkpt>
<trkpt lat="46.1314" lon="7.38488"><ele></ele><time>2025-9-5T2:16:23Z</time></trkpt>
<trkpt lat="46.13156" lon="7.38495"><ele></ele><time>2025-9-5T2:16:26Z</time></trkpt>
<trkpt lat="46.13163" lon="7.385"><ele></ele><time>2025-9-5T2:16:29Z</time></trkpt>
<trkpt lat="46.13171" lon="7.38504"><ele></ele><time>2025-9-5T2:16:32Z</time></trkpt>
<trkpt lat="46.13179" lon="7.38504"><ele></ele><time>2025-9-5T2:16:35Z</time></trkpt>
<trkpt lat="46.13187" lon="7.38505"><ele></ele><time>2025-9-5T2:16:38Z</time></trkpt>
<trkpt lat="46.13196" lon="7.38501"><ele></ele><time>2025-9-5T2:16:41Z</time></trkpt>
<trkpt lat="46.13203" lon="7.38494"><ele></ele><time>2025-9-5T2:16:44Z</time></trkpt>
<trkpt lat="46.13211" lon="7.38488"><ele></ele><time>2025-9-5T2:16:47Z</time></trkpt>
<trkpt lat="46.1322" lon="7.38484"><ele></ele><time>2025-9-5T2:16:50Z</time></trkpt>
<trkpt lat="46.1323" lon="7.38483"><ele></ele><time>2025-9-5T2:16:53Z</time></trkpt>
<trkpt lat="46.13239" lon="7.38483"><ele></ele><time>2025-9-5T2:16:56Z</time></trkpt>
<trkpt lat="46.13247" lon="7.38477"><ele></ele><time>2025-9-5T2:16:59Z</time></trkpt>
<trkpt lat="46.13257" lon="7.38469"><ele></ele><time>2025-9-5T2:17:2Z</time></trkpt>
<trkpt lat="46.13265" lon="7.38458"><ele></ele><time>2025-9-5T2:17:5Z</time></trkpt>
<trkpt lat="46.13274" lon="7.38448"><ele></ele><time>2025-9-5T2:17:8Z</time></trkpt>
<trkpt lat="46.13282" lon="7.38441"><ele></ele><time>2025-9-5T2:17:11Z</time></trkpt>
<trkpt lat="46.13289" lon="7.38439"><ele></ele><time>2025-9-5T2:17:14Z</time></trkpt>
<trkpt lat="46.13294" lon="7.38445"><ele></ele><time>2025-9-5T2:17:17Z</time></trkpt>
<trkpt lat="46.13295" lon="7.38452"><ele></ele><time>2025-9-5T2:17:20Z</time></trkpt>
<trkpt lat="46.13286" lon="7.38461"><ele></ele><time>2025-9-5T2:17:23Z</time></trkpt>
<trkpt lat="46.13273" lon="7.38471"><ele></ele><time>2025-9-5T2:17:26Z</time></trkpt>
<trkpt lat="46.13268" lon="7.3848"><ele></ele><time>2025-9-5T2:17:29Z</time></trkpt>
<trkpt lat="46.13262" lon="7.38489"><ele></ele><time>2025-9-5T2:17:32Z</time></trkpt>
<trkpt lat="46.13254" lon="7.38497"><ele></ele><time>2025-9-5T2:17:35Z</time></trkpt>
<trkpt lat="46.13248" lon="7.38506"><ele></ele><time>2025-9-5T2:17:38Z</time></trkpt>
<trkpt lat="46.1324" lon="7.38514"><ele></ele><time>2025-9-5T2:17:41Z</time></trkpt>
<trkpt lat="46.13232" lon="7.38524"><ele></ele><time>2025-9-5T2:17:44Z</time></trkpt>
<trkpt lat="46.13225" lon="7.38535"><ele></ele><time>2025-9-5T2:17:47Z</time></trkpt>
<trkpt lat="46.13216" lon="7.38545"><ele></ele><time>2025-9-5T2:17:50Z</time></trkpt>
<trkpt lat="46.13206" lon="7.38552"><ele></ele><time>2025-9-5T2:17:53Z</time></trkpt>
<trkpt lat="46.13195" lon="7.38559"><ele></ele><time>2025-9-5T2:17:56Z</time></trkpt>
<trkpt lat="46.13185" lon="7.38569"><ele></ele><time>2025-9-5T2:17:59Z</time></trkpt>
<trkpt lat="46.13176" lon="7.38579"><ele></ele><time>2025-9-5T2:18:2Z</time></trkpt>
<trkpt lat="46.1317" lon="7.38588"><ele></ele><time>2025-9-5T2:18:5Z</time></trkpt>
<trkpt lat="46.13164" lon="7.38595"><ele></ele><time>2025-9-5T2:18:8Z</time></trkpt>
<trkpt lat="46.13158" lon="7.38602"><ele></ele><time>2025-9-5T2:18:11Z</time></trkpt>
<trkpt lat="46.13151" lon="7.38608"><ele></ele><time>2025-9-5T2:18:14Z</time></trkpt>
<trkpt lat="46.13143" lon="7.38609"><ele></ele><time>2025-9-5T2:18:17Z</time></trkpt>
<trkpt lat="46.13134" lon="7.3861"><ele></ele><time>2025-9-5T2:18:20Z</time></trkpt>
<trkpt lat="46.13126" lon="7.38612"><ele></ele><time>2025-9-5T2:18:23Z</time></trkpt>
<trkpt lat="46.13119" lon="7.3862"><ele></ele><time>2025-9-5T2:18:26Z</time></trkpt>
<trkpt lat="46.13112" lon="7.38627"><ele></ele><time>2025-9-5T2:18:29Z</time></trkpt>
<trkpt lat="46.13104" lon="7.38633"><ele></ele><time>2025-9-5T2:18:32Z</time></trkpt>
<trkpt lat="46.13095" lon="7.38636"><ele></ele><time>2025-9-5T2:18:35Z</time></trkpt>
<trkpt lat="46.13086" lon="7.38637"><ele></ele><time>2025-9-5T2:18:38Z</time></trkpt>
<trkpt lat="46.13077" lon="7.38641"><ele></ele><time>2025-9-5T2:18:41Z</time></trkpt>
<trkpt lat="46.13069" lon="7.38648"><ele></ele><time>2025-9-5T2:18:44Z</time></trkpt>
<trkpt lat="46.1306" lon="7.38654"><ele></ele><time>2025-9-5T2:18:47Z</time></trkpt>
<trkpt lat="46.13053" lon="7.38658"><ele></ele><time>2025-9-5T2:18:50Z</time></trkpt>
<trkpt lat="46.13046" lon="7.38662"><ele></ele><time>2025-9-5T2:18:53Z</time></trkpt>
<trkpt lat="46.13039" lon="7.38663"><ele></ele><time>2025-9-5T2:18:56Z</time></trkpt>
<trkpt lat="46.13024" lon="7.38664"><ele></ele><time>2025-9-5T2:18:59Z</time></trkpt>
<trkpt lat="46.13017" lon="7.38662"><ele></ele><time>2025-9-5T2:19:2Z</time></trkpt>
<trkpt lat="46.1301" lon="7.3866"><ele></ele><time>2025-9-5T2:19:5Z</time></trkpt>
<trkpt lat="46.13003" lon="7.38654"><ele></ele><time>2025-9-5T2:19:8Z</time></trkpt>
<trkpt lat="46.12996" lon="7.38647"><ele></ele><time>2025-9-5T2:19:11Z</time></trkpt>
<trkpt lat="46.12988" lon="7.38638"><ele></ele><time>2025-9-5T2:19:14Z</time></trkpt>
<trkpt lat="46.1298" lon="7.38629"><ele></ele><time>2025-9-5T2:19:17Z</time></trkpt>
<trkpt lat="46.1297" lon="7.38623"><ele></ele><time>2025-9-5T2:19:20Z</time></trkpt>
<trkpt lat="46.12959" lon="7.38619"><ele></ele><time>2025-9-5T2:19:23Z</time></trkpt>
<trkpt lat="46.12949" lon="7.38613"><ele></ele><time>2025-9-5T2:19:26Z</time></trkpt>
<trkpt lat="46.12943" lon="7.38605"><ele></ele><time>2025-9-5T2:19:29Z</time></trkpt>
<trkpt lat="46.12935" lon="7.386"><ele></ele><time>2025-9-5T2:19:32Z</time></trkpt>
<trkpt lat="46.12929" lon="7.38602"><ele></ele><time>2025-9-5T2:19:35Z</time></trkpt>
<trkpt lat="46.1293" lon="7.38617"><ele></ele><time>2025-9-5T2:19:38Z</time></trkpt>
<trkpt lat="46.12935" lon="7.38623"><ele></ele><time>2025-9-5T2:19:41Z</time></trkpt>
<trkpt lat="46.12941" lon="7.38628"><ele></ele><time>2025-9-5T2:19:44Z</time></trkpt>
<trkpt lat="46.12948" lon="7.38636"><ele></ele><time>2025-9-5T2:19:47Z</time></trkpt>
<trkpt lat="46.12954" lon="7.38645"><ele></ele><time>2025-9-5T2:19:50Z</time></trkpt>
<trkpt lat="46.12959" lon="7.38656"><ele></ele><time>2025-9-5T2:19:53Z</time></trkpt>
<trkpt lat="46.12965" lon="7.38669"><ele></ele><time>2025-9-5T2:19:56Z</time></trkpt>
<trkpt lat="46.1297" lon="7.38682"><ele></ele><time>2025-9-5T2:19:59Z</time></trkpt>
<trkpt lat="46.12975" lon="7.38695"><ele></ele><time>2025-9-5T2:20:2Z</time></trkpt>
<trkpt lat="46.12984" lon="7.38715"><ele></ele><time>2025-9-5T2:20:5Z</time></trkpt>
<trkpt lat="46.12989" lon="7.38723"><ele></ele><time>2025-9-5T2:20:8Z</time></trkpt>
<trkpt lat="46.12994" lon="7.38731"><ele></ele><time>2025-9-5T2:20:11Z</time></trkpt>
<trkpt lat="46.13001" lon="7.38737"><ele></ele><time>2025-9-5T2:20:14Z</time></trkpt>
<trkpt lat="46.13008" lon="7.38743"><ele></ele><time>2025-9-5T2:20:17Z</time></trkpt>
<trkpt lat="46.13017" lon="7.38748"><ele></ele><time>2025-9-5T2:20:20Z</time></trkpt>
<trkpt lat="46.13027" lon="7.38752"><ele></ele><time>2025-9-5T2:20:23Z</time></trkpt>
<trkpt lat="46.13036" lon="7.38755"><ele></ele><time>2025-9-5T2:20:26Z</time></trkpt>
<trkpt lat="46.13055" lon="7.3876"><ele></ele><time>2025-9-5T2:20:29Z</time></trkpt>
<trkpt lat="46.13064" lon="7.38761"><ele></ele><time>2025-9-5T2:20:32Z</time></trkpt>
<trkpt lat="46.13072" lon="7.38762"><ele></ele><time>2025-9-5T2:20:35Z</time></trkpt>
<trkpt lat="46.13082" lon="7.38761"><ele></ele><time>2025-9-5T2:20:38Z</time></trkpt>
<trkpt lat="46.13093" lon="7.38755"><ele></ele><time>2025-9-5T2:20:41Z</time></trkpt>
<trkpt lat="46.13102" lon="7.38753"><ele></ele><time>2025-9-5T2:20:44Z</time></trkpt>
<trkpt lat="46.13113" lon="7.38751"><ele></ele><time>2025-9-5T2:20:47Z</time></trkpt>
<trkpt lat="46.13124" lon="7.38751"><ele></ele><time>2025-9-5T2:20:50Z</time></trkpt>
<trkpt lat="46.13135" lon="7.38751"><ele></ele><time>2025-9-5T2:20:53Z</time></trkpt>
<trkpt lat="46.13146" lon="7.3875"><ele></ele><time>2025-9-5T2:20:56Z</time></trkpt>
<trkpt lat="46.13156" lon="7.38749"><ele></ele><time>2025-9-5T2:20:59Z</time></trkpt>
<trkpt lat="46.13176" lon="7.38749"><ele></ele><time>2025-9-5T2:21:2Z</time></trkpt>
<trkpt lat="46.13191" lon="7.38746"><ele></ele><time>2025-9-5T2:21:5Z</time></trkpt>
<trkpt lat="46.13204" lon="7.38735"><ele></ele><time>2025-9-5T2:21:8Z</time></trkpt>
<trkpt lat="46.1321" lon="7.38729"><ele></ele><time>2025-9-5T2:21:11Z</time></trkpt>
<trkpt lat="46.13216" lon="7.38722"><ele></ele><time>2025-9-5T2:21:14Z</time></trkpt>
<trkpt lat="46.13225" lon="7.38718"><ele></ele><time>2025-9-5T2:21:17Z</time></trkpt>
<trkpt lat="46.13233" lon="7.38718"><ele></ele><time>2025-9-5T2:21:20Z</time></trkpt>
<trkpt lat="46.13242" lon="7.38718"><ele></ele><time>2025-9-5T2:21:23Z</time></trkpt>
<trkpt lat="46.13252" lon="7.38715"><ele></ele><time>2025-9-5T2:21:26Z</time></trkpt>
<trkpt lat="46.13261" lon="7.38709"><ele></ele><time>2025-9-5T2:21:29Z</time></trkpt>
<trkpt lat="46.13269" lon="7.38699"><ele></ele><time>2025-9-5T2:21:32Z</time></trkpt>
<trkpt lat="46.13276" lon="7.38689"><ele></ele><time>2025-9-5T2:21:35Z</time></trkpt>
<trkpt lat="46.13282" lon="7.38684"><ele></ele><time>2025-9-5T2:21:38Z</time></trkpt>
<trkpt lat="46.13287" lon="7.38683"><ele></ele><time>2025-9-5T2:21:41Z</time></trkpt>
<trkpt lat="46.1329" lon="7.38689"><ele></ele><time>2025-9-5T2:21:44Z</time></trkpt>
<trkpt lat="46.1329" lon="7.38696"><ele></ele><time>2025-9-5T2:21:47Z</time></trkpt>
<trkpt lat="46.13287" lon="7.38703"><ele></ele><time>2025-9-5T2:21:50Z</time></trkpt>
<trkpt lat="46.13284" lon="7.38709"><ele></ele><time>2025-9-5T2:21:53Z</time></trkpt>
<trkpt lat="46.13281" lon="7.38716"><ele></ele><time>2025-9-5T2:21:56Z</time></trkpt>
<trkpt lat="46.13273" lon="7.38734"><ele></ele><time>2025-9-5T2:21:59Z</time></trkpt>
<trkpt lat="46.13262" lon="7.38754"><ele></ele><time>2025-9-5T2:22:2Z</time></trkpt>
<trkpt lat="46.13255" lon="7.38765"><ele></ele><time>2025-9-5T2:22:5Z</time></trkpt>
<trkpt lat="46.13247" lon="7.38776"><ele></ele><time>2025-9-5T2:22:8Z</time></trkpt>
<trkpt lat="46.13238" lon="7.38787"><ele></ele><time>2025-9-5T2:22:11Z</time></trkpt>
<trkpt lat="46.1323" lon="7.38799"><ele></ele><time>2025-9-5T2:22:14Z</time></trkpt>
<trkpt lat="46.13223" lon="7.38812"><ele></ele><time>2025-9-5T2:22:17Z</time></trkpt>
<trkpt lat="46.13216" lon="7.38824"><ele></ele><time>2025-9-5T2:22:20Z</time></trkpt>
<trkpt lat="46.1321" lon="7.38832"><ele></ele><time>2025-9-5T2:22:23Z</time></trkpt>
<trkpt lat="46.13204" lon="7.38838"><ele></ele><time>2025-9-5T2:22:26Z</time></trkpt>
<trkpt lat="46.13196" lon="7.38844"><ele></ele><time>2025-9-5T2:22:29Z</time></trkpt>
<trkpt lat="46.13188" lon="7.38847"><ele></ele><time>2025-9-5T2:22:32Z</time></trkpt>
<trkpt lat="46.1318" lon="7.3885"><ele></ele><time>2025-9-5T2:22:35Z</time></trkpt>
<trkpt lat="46.13171" lon="7.38855"><ele></ele><time>2025-9-5T2:22:38Z</time></trkpt>
<trkpt lat="46.13162" lon="7.38861"><ele></ele><time>2025-9-5T2:22:41Z</time></trkpt>
<trkpt lat="46.13155" lon="7.38873"><ele></ele><time>2025-9-5T2:22:44Z</time></trkpt>
<trkpt lat="46.13147" lon="7.38884"><ele></ele><time>2025-9-5T2:22:47Z</time></trkpt>
<trkpt lat="46.13139" lon="7.38894"><ele></ele><time>2025-9-5T2:22:50Z</time></trkpt>
<trkpt lat="46.1313" lon="7.38903"><ele></ele><time>2025-9-5T2:22:53Z</time></trkpt>
<trkpt lat="46.1312" lon="7.38909"><ele></ele><time>2025-9-5T2:22:56Z</time></trkpt>
<trkpt lat="46.13108" lon="7.38914"><ele></ele><time>2025-9-5T2:22:59Z</time></trkpt>
<trkpt lat="46.13097" lon="7.38919"><ele></ele><time>2025-9-5T2:23:2Z</time></trkpt>
<trkpt lat="46.13073" lon="7.3893"><ele></ele><time>2025-9-5T2:23:5Z</time></trkpt>
<trkpt lat="46.13062" lon="7.38936"><ele></ele><time>2025-9-5T2:23:8Z</time></trkpt>
<trkpt lat="46.13051" lon="7.3894"><ele></ele><time>2025-9-5T2:23:11Z</time></trkpt>
<trkpt lat="46.13041" lon="7.38945"><ele></ele><time>2025-9-5T2:23:14Z</time></trkpt>
<trkpt lat="46.13032" lon="7.38951"><ele></ele><time>2025-9-5T2:23:17Z</time></trkpt>
<trkpt lat="46.13022" lon="7.38956"><ele></ele><time>2025-9-5T2:23:20Z</time></trkpt>
<trkpt lat="46.13013" lon="7.3896"><ele></ele><time>2025-9-5T2:23:23Z</time></trkpt>
<trkpt lat="46.13003" lon="7.38965"><ele></ele><time>2025-9-5T2:23:26Z</time></trkpt>
<trkpt lat="46.12993" lon="7.38969"><ele></ele><time>2025-9-5T2:23:29Z</time></trkpt>
<trkpt lat="46.12983" lon="7.38972"><ele></ele><time>2025-9-5T2:23:32Z</time></trkpt>
<trkpt lat="46.12973" lon="7.38974"><ele></ele><time>2025-9-5T2:23:35Z</time></trkpt>
<trkpt lat="46.12962" lon="7.38974"><ele></ele><time>2025-9-5T2:23:38Z</time></trkpt>
<trkpt lat="46.12953" lon="7.38974"><ele></ele><time>2025-9-5T2:23:41Z</time></trkpt>
<trkpt lat="46.12943" lon="7.38972"><ele></ele><time>2025-9-5T2:23:44Z</time></trkpt>
<trkpt lat="46.12925" lon="7.38969"><ele></ele><time>2025-9-5T2:23:47Z</time></trkpt>
<trkpt lat="46.12917" lon="7.38967"><ele></ele><time>2025-9-5T2:23:50Z</time></trkpt>
<trkpt lat="46.12909" lon="7.38961"><ele></ele><time>2025-9-5T2:23:53Z</time></trkpt>
<trkpt lat="46.12901" lon="7.38954"><ele></ele><time>2025-9-5T2:23:56Z</time></trkpt>
<trkpt lat="46.12894" lon="7.38944"><ele></ele><time>2025-9-5T2:23:59Z</time></trkpt>
<trkpt lat="46.12885" lon="7.38934"><ele></ele><time>2025-9-5T2:24:2Z</time></trkpt>
<trkpt lat="46.12876" lon="7.38924"><ele></ele><time>2025-9-5T2:24:5Z</time></trkpt>
<trkpt lat="46.12867" lon="7.38913"><ele></ele><time>2025-9-5T2:24:8Z</time></trkpt>
<trkpt lat="46.12857" lon="7.38904"><ele></ele><time>2025-9-5T2:24:11Z</time></trkpt>
<trkpt lat="46.12846" lon="7.38897"><ele></ele><time>2025-9-5T2:24:14Z</time></trkpt>
<trkpt lat="46.12836" lon="7.38891"><ele></ele><time>2025-9-5T2:24:17Z</time></trkpt>
<trkpt lat="46.12825" lon="7.3889"><ele></ele><time>2025-9-5T2:24:20Z</time></trkpt>
<trkpt lat="46.12815" lon="7.38894"><ele></ele><time>2025-9-5T2:24:23Z</time></trkpt>
<trkpt lat="46.12806" lon="7.389"><ele></ele><time>2025-9-5T2:24:26Z</time></trkpt>
<trkpt lat="46.12789" lon="7.38913"><ele></ele><time>2025-9-5T2:24:29Z</time></trkpt>
<trkpt lat="46.12772" lon="7.38913"><ele></ele><time>2025-9-5T2:24:32Z</time></trkpt>
<trkpt lat="46.12764" lon="7.38908"><ele></ele><time>2025-9-5T2:24:35Z</time></trkpt>
<trkpt lat="46.12758" lon="7.38906"><ele></ele><time>2025-9-5T2:24:38Z</time></trkpt>
<trkpt lat="46.12753" lon="7.38907"><ele></ele><time>2025-9-5T2:24:41Z</time></trkpt>
<trkpt lat="46.1275" lon="7.38911"><ele></ele><time>2025-9-5T2:24:44Z</time></trkpt>
<trkpt lat="46.12749" lon="7.38919"><ele></ele><time>2025-9-5T2:24:47Z</time></trkpt>
<trkpt lat="46.12748" lon="7.38924"><ele></ele><time>2025-9-5T2:24:50Z</time></trkpt>
<trkpt lat="46.12748" lon="7.38924"><ele></ele><time>2025-9-5T2:24:53Z</time></trkpt>
<trkpt lat="46.12748" lon="7.38926"><ele></ele><time>2025-9-5T2:24:56Z</time></trkpt>
<trkpt lat="46.12753" lon="7.38932"><ele></ele><time>2025-9-5T2:24:59Z</time></trkpt>
<trkpt lat="46.12757" lon="7.38932"><ele></ele><time>2025-9-5T2:25:2Z</time></trkpt>
<trkpt lat="46.12777" lon="7.38936"><ele></ele><time>2025-9-5T2:25:5Z</time></trkpt>
<trkpt lat="46.12782" lon="7.38937"><ele></ele><time>2025-9-5T2:25:8Z</time></trkpt>
<trkpt lat="46.128" lon="7.38944"><ele></ele><time>2025-9-5T2:25:11Z</time></trkpt>
<trkpt lat="46.12813" lon="7.38951"><ele></ele><time>2025-9-5T2:25:14Z</time></trkpt>
<trkpt lat="46.1282" lon="7.38955"><ele></ele><time>2025-9-5T2:25:17Z</time></trkpt>
<trkpt lat="46.12834" lon="7.38966"><ele></ele><time>2025-9-5T2:25:20Z</time></trkpt>
<trkpt lat="46.12847" lon="7.38979"><ele></ele><time>2025-9-5T2:25:23Z</time></trkpt>
<trkpt lat="46.12853" lon="7.38986"><ele></ele><time>2025-9-5T2:25:26Z</time></trkpt>
<trkpt lat="46.1287" lon="7.39005"><ele></ele><time>2025-9-5T2:25:29Z</time></trkpt>
<trkpt lat="46.12875" lon="7.39007"><ele></ele><time>2025-9-5T2:25:32Z</time></trkpt>
<trkpt lat="46.12886" lon="7.39013"><ele></ele><time>2025-9-5T2:25:35Z</time></trkpt>
<trkpt lat="46.12894" lon="7.39023"><ele></ele><time>2025-9-5T2:25:38Z</time></trkpt>
<trkpt lat="46.12898" lon="7.39028"><ele></ele><time>2025-9-5T2:25:41Z</time></trkpt>
<trkpt lat="46.12905" lon="7.39038"><ele></ele><time>2025-9-5T2:25:44Z</time></trkpt>
<trkpt lat="46.12917" lon="7.39048"><ele></ele><time>2025-9-5T2:25:47Z</time></trkpt>
<trkpt lat="46.12934" lon="7.39059"><ele></ele><time>2025-9-5T2:25:50Z</time></trkpt>
<trkpt lat="46.12941" lon="7.39065"><ele></ele><time>2025-9-5T2:25:53Z</time></trkpt>
<trkpt lat="46.12949" lon="7.39068"><ele></ele><time>2025-9-5T2:25:56Z</time></trkpt>
<trkpt lat="46.12953" lon="7.39069"><ele></ele><time>2025-9-5T2:25:59Z</time></trkpt>
<trkpt lat="46.12961" lon="7.3907"><ele></ele><time>2025-9-5T2:26:2Z</time></trkpt>
<trkpt lat="46.12985" lon="7.39067"><ele></ele><time>2025-9-5T2:26:5Z</time></trkpt>
<trkpt lat="46.13006" lon="7.39062"><ele></ele><time>2025-9-5T2:26:8Z</time></trkpt>
<trkpt lat="46.13014" lon="7.3906"><ele></ele><time>2025-9-5T2:26:11Z</time></trkpt>
<trkpt lat="46.1302" lon="7.39059"><ele></ele><time>2025-9-5T2:26:14Z</time></trkpt>
<trkpt lat="46.13023" lon="7.39058"><ele></ele><time>2025-9-5T2:26:17Z</time></trkpt>
<trkpt lat="46.1303" lon="7.39057"><ele></ele><time>2025-9-5T2:26:20Z</time></trkpt>
<trkpt lat="46.1304" lon="7.39058"><ele></ele><time>2025-9-5T2:26:23Z</time></trkpt>
<trkpt lat="46.13042" lon="7.39059"><ele></ele><time>2025-9-5T2:26:26Z</time></trkpt>
<trkpt lat="46.13056" lon="7.3906"><ele></ele><time>2025-9-5T2:26:29Z</time></trkpt>
<trkpt lat="46.13059" lon="7.3906"><ele></ele><time>2025-9-5T2:26:32Z</time></trkpt>
<trkpt lat="46.13075" lon="7.39058"><ele></ele><time>2025-9-5T2:26:35Z</time></trkpt>
<trkpt lat="46.13084" lon="7.39058"><ele></ele><time>2025-9-5T2:26:38Z</time></trkpt>
<trkpt lat="46.13088" lon="7.39058"><ele></ele><time>2025-9-5T2:26:41Z</time></trkpt>
<trkpt lat="46.13093" lon="7.39058"><ele></ele><time>2025-9-5T2:26:44Z</time></trkpt>
<trkpt lat="46.13099" lon="7.39056"><ele></ele><time>2025-9-5T2:26:47Z</time></trkpt>
<trkpt lat="46.13104" lon="7.39054"><ele></ele><time>2025-9-5T2:26:50Z</time></trkpt>
<trkpt lat="46.13113" lon="7.39049"><ele></ele><time>2025-9-5T2:26:53Z</time></trkpt>
<trkpt lat="46.13118" lon="7.39045"><ele></ele><time>2025-9-5T2:26:56Z</time></trkpt>
<trkpt lat="46.13122" lon="7.39041"><ele></ele><time>2025-9-5T2:26:59Z</time></trkpt>
<trkpt lat="46.13127" lon="7.39038"><ele></ele><time>2025-9-5T2:27:2Z</time></trkpt>
<trkpt lat="46.13144" lon="7.39023"><ele></ele><time>2025-9-5T2:27:5Z</time></trkpt>
<trkpt lat="46.13167" lon="7.39004"><ele></ele><time>2025-9-5T2:27:8Z</time></trkpt>
<trkpt lat="46.13187" lon="7.39002"><ele></ele><time>2025-9-5T2:27:11Z</time></trkpt>
<trkpt lat="46.13205" lon="7.39"><ele></ele><time>2025-9-5T2:27:14Z</time></trkpt>
<trkpt lat="46.13217" lon="7.38996"><ele></ele><time>2025-9-5T2:27:17Z</time></trkpt>
<trkpt lat="46.13257" lon="7.38983"><ele></ele><time>2025-9-5T2:27:20Z</time></trkpt>
<trkpt lat="46.13277" lon="7.38972"><ele></ele><time>2025-9-5T2:27:23Z</time></trkpt>
<trkpt lat="46.13286" lon="7.38968"><ele></ele><time>2025-9-5T2:27:26Z</time></trkpt>
<trkpt lat="46.13303" lon="7.38955"><ele></ele><time>2025-9-5T2:27:29Z</time></trkpt>
<trkpt lat="46.13307" lon="7.38953"><ele></ele><time>2025-9-5T2:27:32Z</time></trkpt>
<trkpt lat="46.13317" lon="7.38949"><ele></ele><time>2025-9-5T2:27:35Z</time></trkpt>
<trkpt lat="46.13333" lon="7.38944"><ele></ele><time>2025-9-5T2:27:38Z</time></trkpt>
<trkpt lat="46.13338" lon="7.38941"><ele></ele><time>2025-9-5T2:27:41Z</time></trkpt>
<trkpt lat="46.13349" lon="7.38928"><ele></ele><time>2025-9-5T2:27:44Z</time></trkpt>
<trkpt lat="46.13366" lon="7.38894"><ele></ele><time>2025-9-5T2:27:47Z</time></trkpt>
<trkpt lat="46.13374" lon="7.38872"><ele></ele><time>2025-9-5T2:27:50Z</time></trkpt>
<trkpt lat="46.13384" lon="7.38863"><ele></ele><time>2025-9-5T2:27:53Z</time></trkpt>
<trkpt lat="46.13404" lon="7.38847"><ele></ele><time>2025-9-5T2:27:56Z</time></trkpt>
<trkpt lat="46.13413" lon="7.38836"><ele></ele><time>2025-9-5T2:27:59Z</time></trkpt>
<trkpt lat="46.13425" lon="7.38819"><ele></ele><time>2025-9-5T2:28:2Z</time></trkpt>
<trkpt lat="46.1343" lon="7.3882"><ele></ele><time>2025-9-5T2:28:5Z</time></trkpt>
<trkpt lat="46.13435" lon="7.38824"><ele></ele><time>2025-9-5T2:28:8Z</time></trkpt>
<trkpt lat="46.13439" lon="7.38829"><ele></ele><time>2025-9-5T2:28:11Z</time></trkpt>
<trkpt lat="46.13442" lon="7.38833"><ele></ele><time>2025-9-5T2:28:14Z</time></trkpt>
<trkpt lat="46.13446" lon="7.38836"><ele></ele><time>2025-9-5T2:28:17Z</time></trkpt>
<trkpt lat="46.13462" lon="7.38842"><ele></ele><time>2025-9-5T2:28:20Z</time></trkpt>
<trkpt lat="46.13472" lon="7.38849"><ele></ele><time>2025-9-5T2:28:23Z</time></trkpt>
<trkpt lat="46.13483" lon="7.38856"><ele></ele><time>2025-9-5T2:28:26Z</time></trkpt>
<trkpt lat="46.13488" lon="7.38859"><ele></ele><time>2025-9-5T2:28:29Z</time></trkpt>
<trkpt lat="46.13505" lon="7.38867"><ele></ele><time>2025-9-5T2:28:32Z</time></trkpt>
<trkpt lat="46.13517" lon="7.38869"><ele></ele><time>2025-9-5T2:28:35Z</time></trkpt>
<trkpt lat="46.13523" lon="7.38869"><ele></ele><time>2025-9-5T2:28:38Z</time></trkpt>
<trkpt lat="46.13545" lon="7.38866"><ele></ele><time>2025-9-5T2:28:41Z</time></trkpt>
<trkpt lat="46.13576" lon="7.38854"><ele></ele><time>2025-9-5T2:28:44Z</time></trkpt>
<trkpt lat="46.13595" lon="7.38848"><ele></ele><time>2025-9-5T2:28:47Z</time></trkpt>
<trkpt lat="46.13599" lon="7.3885"><ele></ele><time>2025-9-5T2:28:50Z</time></trkpt>
<trkpt lat="46.13603" lon="7.38853"><ele></ele><time>2025-9-5T2:28:53Z</time></trkpt>
<trkpt lat="46.13611" lon="7.38859"><ele></ele><time>2025-9-5T2:28:56Z</time></trkpt>
<trkpt lat="46.1362" lon="7.38867"><ele></ele><time>2025-9-5T2:28:59Z</time></trkpt>
<trkpt lat="46.13631" lon="7.38873"><ele></ele><time>2025-9-5T2:29:2Z</time></trkpt>
<trkpt lat="46.13645" lon="7.38872"><ele></ele><time>2025-9-5T2:29:5Z</time></trkpt>
<trkpt lat="46.13661" lon="7.38868"><ele></ele><time>2025-9-5T2:29:8Z</time></trkpt>
<trkpt lat="46.13673" lon="7.38867"><ele></ele><time>2025-9-5T2:29:11Z</time></trkpt>
<trkpt lat="46.13679" lon="7.38867"><ele></ele><time>2025-9-5T2:29:14Z</time></trkpt>
<trkpt lat="46.13705" lon="7.38868"><ele></ele><time>2025-9-5T2:29:17Z</time></trkpt>
<trkpt lat="46.13717" lon="7.38867"><ele></ele><time>2025-9-5T2:29:20Z</time></trkpt>
<trkpt lat="46.13735" lon="7.38866"><ele></ele><time>2025-9-5T2:29:23Z</time></trkpt>
<trkpt lat="46.13767" lon="7.38853"><ele></ele><time>2025-9-5T2:29:26Z</time></trkpt>
<trkpt lat="46.13793" lon="7.38839"><ele></ele><time>2025-9-5T2:29:29Z</time></trkpt>
<trkpt lat="46.13819" lon="7.38823"><ele></ele><time>2025-9-5T2:29:32Z</time></trkpt>
<trkpt lat="46.13828" lon="7.38817"><ele></ele><time>2025-9-5T2:29:35Z</time></trkpt>
<trkpt lat="46.13843" lon="7.38812"><ele></ele><time>2025-9-5T2:29:38Z</time></trkpt>
<trkpt lat="46.1386" lon="7.38816"><ele></ele><time>2025-9-5T2:29:41Z</time></trkpt>
<trkpt lat="46.13873" lon="7.3882"><ele></ele><time>2025-9-5T2:29:44Z</time></trkpt>
<trkpt lat="46.13884" lon="7.38821"><ele></ele><time>2025-9-5T2:29:47Z</time></trkpt>
<trkpt lat="46.13891" lon="7.3882"><ele></ele><time>2025-9-5T2:29:50Z</time></trkpt>
<trkpt lat="46.13904" lon="7.38817"><ele></ele><time>2025-9-5T2:29:53Z</time></trkpt>
<trkpt lat="46.13918" lon="7.38809"><ele></ele><time>2025-9-5T2:29:56Z</time></trkpt>
<trkpt lat="46.13933" lon="7.38801"><ele></ele><time>2025-9-5T2:29:59Z</time></trkpt>
<trkpt lat="46.13949" lon="7.38793"><ele></ele><time>2025-9-5T2:30:2Z</time></trkpt>
<trkpt lat="46.13958" lon="7.38789"><ele></ele><time>2025-9-5T2:30:5Z</time></trkpt>
<trkpt lat="46.13967" lon="7.38788"><ele></ele><time>2025-9-5T2:30:8Z</time></trkpt>
<trkpt lat="46.13987" lon="7.38786"><ele></ele><time>2025-9-5T2:30:11Z</time></trkpt>
<trkpt lat="46.13997" lon="7.38786"><ele></ele><time>2025-9-5T2:30:14Z</time></trkpt>
<trkpt lat="46.14007" lon="7.38786"><ele></ele><time>2025-9-5T2:30:17Z</time></trkpt>
<trkpt lat="46.14029" lon="7.38783"><ele></ele><time>2025-9-5T2:30:20Z</time></trkpt>
<trkpt lat="46.1404" lon="7.38782"><ele></ele><time>2025-9-5T2:30:23Z</time></trkpt>
<trkpt lat="46.14061" lon="7.38783"><ele></ele><time>2025-9-5T2:30:26Z</time></trkpt>
<trkpt lat="46.1408" lon="7.38789"><ele></ele><time>2025-9-5T2:30:29Z</time></trkpt>
<trkpt lat="46.14099" lon="7.38796"><ele></ele><time>2025-9-5T2:30:32Z</time></trkpt>
<trkpt lat="46.14108" lon="7.38795"><ele></ele><time>2025-9-5T2:30:35Z</time></trkpt>
<trkpt lat="46.14118" lon="7.38792"><ele></ele><time>2025-9-5T2:30:38Z</time></trkpt>
<trkpt lat="46.14135" lon="7.38785"><ele></ele><time>2025-9-5T2:30:41Z</time></trkpt>
<trkpt lat="46.14143" lon="7.38783"><ele></ele><time>2025-9-5T2:30:44Z</time></trkpt>
<trkpt lat="46.1416" lon="7.38784"><ele></ele><time>2025-9-5T2:30:47Z</time></trkpt>
<trkpt lat="46.14174" lon="7.38779"><ele></ele><time>2025-9-5T2:30:50Z</time></trkpt>
<trkpt lat="46.14188" lon="7.38771"><ele></ele><time>2025-9-5T2:30:53Z</time></trkpt>
<trkpt lat="46.14202" lon="7.38766"><ele></ele><time>2025-9-5T2:30:56Z</time></trkpt>
<trkpt lat="46.14209" lon="7.38768"><ele></ele><time>2025-9-5T2:30:59Z</time></trkpt>
<trkpt lat="46.14224" lon="7.38765"><ele></ele><time>2025-9-5T2:31:2Z</time></trkpt>
<trkpt lat="46.14229" lon="7.38761"><ele></ele><time>2025-9-5T2:31:5Z</time></trkpt>
<trkpt lat="46.14234" lon="7.38757"><ele></ele><time>2025-9-5T2:31:8Z</time></trkpt>
<trkpt lat="46.14245" lon="7.38749"><ele></ele><time>2025-9-5T2:31:11Z</time></trkpt>
<trkpt lat="46.1425" lon="7.38747"><ele></ele><time>2025-9-5T2:31:14Z</time></trkpt>
<trkpt lat="46.14254" lon="7.38747"><ele></ele><time>2025-9-5T2:31:17Z</time></trkpt>
<trkpt lat="46.14258" lon="7.38745"><ele></ele><time>2025-9-5T2:31:20Z</time></trkpt>
<trkpt lat="46.14266" lon="7.38743"><ele></ele><time>2025-9-5T2:31:23Z</time></trkpt>
<trkpt lat="46.14282" lon="7.38739"><ele></ele><time>2025-9-5T2:31:26Z</time></trkpt>
<trkpt lat="46.14298" lon="7.38741"><ele></ele><time>2025-9-5T2:31:29Z</time></trkpt>
<trkpt lat="46.14302" lon="7.38741"><ele></ele><time>2025-9-5T2:31:32Z</time></trkpt>
<trkpt lat="46.14309" lon="7.38736"><ele></ele><time>2025-9-5T2:31:35Z</time></trkpt>
<trkpt lat="46.14312" lon="7.38734"><ele></ele><time>2025-9-5T2:31:38Z</time></trkpt>
<trkpt lat="46.14313" lon="7.38732"><ele></ele><time>2025-9-5T2:31:41Z</time></trkpt>
<trkpt lat="46.1432" lon="7.38722"><ele></ele><time>2025-9-5T2:31:44Z</time></trkpt>
<trkpt lat="46.14322" lon="7.38721"><ele></ele><time>2025-9-5T2:31:47Z</time></trkpt>
<trkpt lat="46.14327" lon="7.38715"><ele></ele><time>2025-9-5T2:31:50Z</time></trkpt>
<trkpt lat="46.14334" lon="7.38709"><ele></ele><time>2025-9-5T2:31:53Z</time></trkpt>
<trkpt lat="46.14335" lon="7.38708"><ele></ele><time>2025-9-5T2:31:56Z</time></trkpt>
<trkpt lat="46.14341" lon="7.38703"><ele></ele><time>2025-9-5T2:31:59Z</time></trkpt>
<trkpt lat="46.14343" lon="7.38702"><ele></ele><time>2025-9-5T2:32:2Z</time></trkpt>
<trkpt lat="46.14347" lon="7.387"><ele></ele><time>2025-9-5T2:32:5Z</time></trkpt>
<trkpt lat="46.14353" lon="7.38697"><ele></ele><time>2025-9-5T2:32:8Z</time></trkpt>
<trkpt lat="46.1436" lon="7.38694"><ele></ele><time>2025-9-5T2:32:11Z</time></trkpt>
<trkpt lat="46.14362" lon="7.38694"><ele></ele><time>2025-9-5T2:32:14Z</time></trkpt>
<trkpt lat="46.1437" lon="7.38695"><ele></ele><time>2025-9-5T2:32:17Z</time></trkpt>
<trkpt lat="46.14372" lon="7.38695"><ele></ele><time>2025-9-5T2:32:20Z</time></trkpt>
<trkpt lat="46.14374" lon="7.38695"><ele></ele><time>2025-9-5T2:32:23Z</time></trkpt>
<trkpt lat="46.14377" lon="7.38695"><ele></ele><time>2025-9-5T2:32:26Z</time></trkpt>
<trkpt lat="46.14385" lon="7.38691"><ele></ele><time>2025-9-5T2:32:29Z</time></trkpt>
<trkpt lat="46.14391" lon="7.38687"><ele></ele><time>2025-9-5T2:32:32Z</time></trkpt>
<trkpt lat="46.14393" lon="7.38684"><ele></ele><time>2025-9-5T2:32:35Z</time></trkpt>
<trkpt lat="46.14398" lon="7.38677"><ele></ele><time>2025-9-5T2:32:38Z</time></trkpt>
<trkpt lat="46.14399" lon="7.38675"><ele></ele><time>2025-9-5T2:32:41Z</time></trkpt>
<trkpt lat="46.14404" lon="7.38669"><ele></ele><time>2025-9-5T2:32:44Z</time></trkpt>
<trkpt lat="46.14406" lon="7.38666"><ele></ele><time>2025-9-5T2:32:47Z</time></trkpt>
<trkpt lat="46.14408" lon="7.38664"><ele></ele><time>2025-9-5T2:32:50Z</time></trkpt>
<trkpt lat="46.14415" lon="7.38659"><ele></ele><time>2025-9-5T2:32:53Z</time></trkpt>
<trkpt lat="46.14419" lon="7.38658"><ele></ele><time>2025-9-5T2:32:56Z</time></trkpt>
<trkpt lat="46.14423" lon="7.38658"><ele></ele><time>2025-9-5T2:32:59Z</time></trkpt>
<trkpt lat="46.14433" lon="7.38656"><ele></ele><time>2025-9-5T2:33:2Z</time></trkpt>
<trkpt lat="46.14448" lon="7.38651"><ele></ele><time>2025-9-5T2:33:5Z</time></trkpt>
<trkpt lat="46.14464" lon="7.38645"><ele></ele><time>2025-9-5T2:33:8Z</time></trkpt>
<trkpt lat="46.14476" lon="7.38646"><ele></ele><time>2025-9-5T2:33:11Z</time></trkpt>
<trkpt lat="46.14499" lon="7.38651"><ele></ele><time>2025-9-5T2:33:14Z</time></trkpt>
<trkpt lat="46.14513" lon="7.38652"><ele></ele><time>2025-9-5T2:33:17Z</time></trkpt>
<trkpt lat="46.14523" lon="7.38652"><ele></ele><time>2025-9-5T2:33:20Z</time></trkpt>
<trkpt lat="46.14533" lon="7.38648"><ele></ele><time>2025-9-5T2:33:23Z</time></trkpt>
<trkpt lat="46.1454" lon="7.38644"><ele></ele><time>2025-9-5T2:33:26Z</time></trkpt>
<trkpt lat="46.14556" lon="7.38628"><ele></ele><time>2025-9-5T2:33:29Z</time></trkpt>
<trkpt lat="46.14568" lon="7.38626"><ele></ele><time>2025-9-5T2:33:32Z</time></trkpt>
<trkpt lat="46.14586" lon="7.38616"><ele></ele><time>2025-9-5T2:33:35Z</time></trkpt>
<trkpt lat="46.14599" lon="7.38608"><ele></ele><time>2025-9-5T2:33:38Z</time></trkpt>
<trkpt lat="46.14606" lon="7.38602"><ele></ele><time>2025-9-5T2:33:41Z</time></trkpt>
<trkpt lat="46.14626" lon="7.38587"><ele></ele><time>2025-9-5T2:33:44Z</time></trkpt>
<trkpt lat="46.14643" lon="7.38578"><ele></ele><time>2025-9-5T2:33:47Z</time></trkpt>
<trkpt lat="46.14659" lon="7.38567"><ele></ele><time>2025-9-5T2:33:50Z</time></trkpt>
<trkpt lat="46.14677" lon="7.3856"><ele></ele><time>2025-9-5T2:33:53Z</time></trkpt>
<trkpt lat="46.14682" lon="7.38558"><ele></ele><time>2025-9-5T2:33:56Z</time></trkpt>
<trkpt lat="46.14686" lon="7.38557"><ele></ele><time>2025-9-5T2:33:59Z</time></trkpt>
<trkpt lat="46.147" lon="7.38554"><ele></ele><time>2025-9-5T2:34:2Z</time></trkpt>
<trkpt lat="46.14708" lon="7.38548"><ele></ele><time>2025-9-5T2:34:5Z</time></trkpt>
<trkpt lat="46.14713" lon="7.38538"><ele></ele><time>2025-9-5T2:34:8Z</time></trkpt>
<trkpt lat="46.14715" lon="7.38527"><ele></ele><time>2025-9-5T2:34:11Z</time></trkpt>
<trkpt lat="46.14717" lon="7.38514"><ele></ele><time>2025-9-5T2:34:14Z</time></trkpt>
<trkpt lat="46.14727" lon="7.38501"><ele></ele><time>2025-9-5T2:34:17Z</time></trkpt>
<trkpt lat="46.14736" lon="7.38499"><ele></ele><time>2025-9-5T2:34:20Z</time></trkpt>
<trkpt lat="46.14741" lon="7.38501"><ele></ele><time>2025-9-5T2:34:23Z</time></trkpt>
<trkpt lat="46.14745" lon="7.38503"><ele></ele><time>2025-9-5T2:34:26Z</time></trkpt>
<trkpt lat="46.14753" lon="7.38509"><ele></ele><time>2025-9-5T2:34:29Z</time></trkpt>
<trkpt lat="46.14761" lon="7.38515"><ele></ele><time>2025-9-5T2:34:32Z</time></trkpt>
<trkpt lat="46.14764" lon="7.3852"><ele></ele><time>2025-9-5T2:34:35Z</time></trkpt>
<trkpt lat="46.14772" lon="7.38526"><ele></ele><time>2025-9-5T2:34:38Z</time></trkpt>
<trkpt lat="46.14777" lon="7.38527"><ele></ele><time>2025-9-5T2:34:41Z</time></trkpt>
<trkpt lat="46.14781" lon="7.38526"><ele></ele><time>2025-9-5T2:34:44Z</time></trkpt>
<trkpt lat="46.14791" lon="7.38524"><ele></ele><time>2025-9-5T2:34:47Z</time></trkpt>
<trkpt lat="46.14796" lon="7.38528"><ele></ele><time>2025-9-5T2:34:50Z</time></trkpt>
<trkpt lat="46.148" lon="7.38532"><ele></ele><time>2025-9-5T2:34:53Z</time></trkpt>
<trkpt lat="46.14806" lon="7.38544"><ele></ele><time>2025-9-5T2:34:56Z</time></trkpt>
<trkpt lat="46.14815" lon="7.38557"><ele></ele><time>2025-9-5T2:34:59Z</time></trkpt>
<trkpt lat="46.14823" lon="7.38562"><ele></ele><time>2025-9-5T2:35:2Z</time></trkpt>
<trkpt lat="46.14832" lon="7.38566"><ele></ele><time>2025-9-5T2:35:5Z</time></trkpt>
<trkpt lat="46.14852" lon="7.38572"><ele></ele><time>2025-9-5T2:35:8Z</time></trkpt>
<trkpt lat="46.14881" lon="7.38578"><ele></ele><time>2025-9-5T2:35:11Z</time></trkpt>
<trkpt lat="46.14924" lon="7.38582"><ele></ele><time>2025-9-5T2:35:14Z</time></trkpt>
<trkpt lat="46.14942" lon="7.3858"><ele></ele><time>2025-9-5T2:35:17Z</time></trkpt>
<trkpt lat="46.14953" lon="7.38577"><ele></ele><time>2025-9-5T2:35:20Z</time></trkpt>
<trkpt lat="46.14958" lon="7.38575"><ele></ele><time>2025-9-5T2:35:23Z</time></trkpt>
<trkpt lat="46.14983" lon="7.38569"><ele></ele><time>2025-9-5T2:35:26Z</time></trkpt>
<trkpt lat="46.14999" lon="7.38567"><ele></ele><time>2025-9-5T2:35:29Z</time></trkpt>
<trkpt lat="46.15013" lon="7.38562"><ele></ele><time>2025-9-5T2:35:32Z</time></trkpt>
<trkpt lat="46.15017" lon="7.38559"><ele></ele><time>2025-9-5T2:35:35Z</time></trkpt>
<trkpt lat="46.15029" lon="7.38552"><ele></ele><time>2025-9-5T2:35:38Z</time></trkpt>
<trkpt lat="46.15043" lon="7.38546"><ele></ele><time>2025-9-5T2:35:41Z</time></trkpt>
<trkpt lat="46.15053" lon="7.38543"><ele></ele><time>2025-9-5T2:35:44Z</time></trkpt>
<trkpt lat="46.15058" lon="7.38543"><ele></ele><time>2025-9-5T2:35:47Z</time></trkpt>
<trkpt lat="46.15068" lon="7.38544"><ele></ele><time>2025-9-5T2:35:50Z</time></trkpt>
<trkpt lat="46.15089" lon="7.38547"><ele></ele><time>2025-9-5T2:35:53Z</time></trkpt>
<trkpt lat="46.15127" lon="7.38547"><ele></ele><time>2025-9-5T2:35:56Z</time></trkpt>
<trkpt lat="46.15148" lon="7.38543"><ele></ele><time>2025-9-5T2:35:59Z</time></trkpt>
<trkpt lat="46.1517" lon="7.38538"><ele></ele><time>2025-9-5T2:36:2Z</time></trkpt>
<trkpt lat="46.15204" lon="7.3852"><ele></ele><time>2025-9-5T2:36:5Z</time></trkpt>
<trkpt lat="46.15239" lon="7.38499"><ele></ele><time>2025-9-5T2:36:8Z</time></trkpt>
<trkpt lat="46.15248" lon="7.38498"><ele></ele><time>2025-9-5T2:36:11Z</time></trkpt>
<trkpt lat="46.15262" lon="7.385"><ele></ele><time>2025-9-5T2:36:14Z</time></trkpt>
<trkpt lat="46.15293" lon="7.38505"><ele></ele><time>2025-9-5T2:36:17Z</time></trkpt>
<trkpt lat="46.15311" lon="7.38503"><ele></ele><time>2025-9-5T2:36:20Z</time></trkpt>
<trkpt lat="46.15317" lon="7.38503"><ele></ele><time>2025-9-5T2:36:23Z</time></trkpt>
<trkpt lat="46.15323" lon="7.38501"><ele></ele><time>2025-9-5T2:36:26Z</time></trkpt>
<trkpt lat="46.15348" lon="7.38487"><ele></ele><time>2025-9-5T2:36:29Z</time></trkpt>
<trkpt lat="46.15367" lon="7.38481"><ele></ele><time>2025-9-5T2:36:32Z</time></trkpt>
<trkpt lat="46.15381" lon="7.38479"><ele></ele><time>2025-9-5T2:36:35Z</time></trkpt>
<trkpt lat="46.15403" lon="7.38484"><ele></ele><time>2025-9-5T2:36:38Z</time></trkpt>
<trkpt lat="46.15408" lon="7.38484"><ele></ele><time>2025-9-5T2:36:41Z</time></trkpt>
<trkpt lat="46.15429" lon="7.38486"><ele></ele><time>2025-9-5T2:36:44Z</time></trkpt>
<trkpt lat="46.15458" lon="7.38495"><ele></ele><time>2025-9-5T2:36:47Z</time></trkpt>
<trkpt lat="46.15467" lon="7.38499"><ele></ele><time>2025-9-5T2:36:50Z</time></trkpt>
<trkpt lat="46.15485" lon="7.38504"><ele></ele><time>2025-9-5T2:36:53Z</time></trkpt>
<trkpt lat="46.155" lon="7.38507"><ele></ele><time>2025-9-5T2:36:56Z</time></trkpt>
<trkpt lat="46.15511" lon="7.3851"><ele></ele><time>2025-9-5T2:36:59Z</time></trkpt>
<trkpt lat="46.15528" lon="7.38513"><ele></ele><time>2025-9-5T2:37:2Z</time></trkpt>
<trkpt lat="46.15539" lon="7.38511"><ele></ele><time>2025-9-5T2:37:5Z</time></trkpt>
<trkpt lat="46.15545" lon="7.38509"><ele></ele><time>2025-9-5T2:37:8Z</time></trkpt>
<trkpt lat="46.1555" lon="7.38507"><ele></ele><time>2025-9-5T2:37:11Z</time></trkpt>
<trkpt lat="46.15567" lon="7.38502"><ele></ele><time>2025-9-5T2:37:14Z</time></trkpt>
<trkpt lat="46.15572" lon="7.38502"><ele></ele><time>2025-9-5T2:37:17Z</time></trkpt>
<trkpt lat="46.15607" lon="7.38511"><ele></ele><time>2025-9-5T2:37:20Z</time></trkpt>
<trkpt lat="46.15627" lon="7.38518"><ele></ele><time>2025-9-5T2:37:23Z</time></trkpt>
<trkpt lat="46.15632" lon="7.3852"><ele></ele><time>2025-9-5T2:37:26Z</time></trkpt>
<trkpt lat="46.15647" lon="7.38524"><ele></ele><time>2025-9-5T2:37:29Z</time></trkpt>
<trkpt lat="46.15657" lon="7.38526"><ele></ele><time>2025-9-5T2:37:32Z</time></trkpt>
<trkpt lat="46.1567" lon="7.3854"><ele></ele><time>2025-9-5T2:37:35Z</time></trkpt>
<trkpt lat="46.15691" lon="7.38567"><ele></ele><time>2025-9-5T2:37:38Z</time></trkpt>
<trkpt lat="46.15699" lon="7.38571"><ele></ele><time>2025-9-5T2:37:41Z</time></trkpt>
<trkpt lat="46.157" lon="7.38571"><ele></ele><time>2025-9-5T2:37:44Z</time></trkpt>
<trkpt lat="46.157" lon="7.38571"><ele></ele><time>2025-9-5T2:37:47Z</time></trkpt>
<trkpt lat="46.157" lon="7.38571"><ele></ele><time>2025-9-5T2:37:50Z</time></trkpt>
<trkpt lat="46.15701" lon="7.38573"><ele></ele><time>2025-9-5T2:37:53Z</time></trkpt>
<trkpt lat="46.157" lon="7.38574"><ele></ele><time>2025-9-5T2:37:56Z</time></trkpt>
<trkpt lat="46.157" lon="7.38574"><ele></ele><time>2025-9-5T2:37:59Z</time></trkpt>
<trkpt lat="46.15701" lon="7.38574"><ele></ele><time>2025-9-5T2:38:2Z</time></trkpt>
<trkpt lat="46.157" lon="7.38576"><ele></ele><time>2025-9-5T2:38:5Z</time></trkpt>
<trkpt lat="46.157" lon="7.38574"><ele></ele><time>2025-9-5T2:38:8Z</time></trkpt>
<trkpt lat="46.157" lon="7.38574"><ele></ele><time>2025-9-5T2:38:11Z</time></trkpt>
<trkpt lat="46.157" lon="7.38576"><ele></ele><time>2025-9-5T2:38:14Z</time></trkpt>
<trkpt lat="46.15701" lon="7.38574"><ele></ele><time>2025-9-5T2:38:17Z</time></trkpt>
<trkpt lat="46.157" lon="7.38574"><ele></ele><time>2025-9-5T2:38:20Z</time></trkpt>
<trkpt lat="46.157" lon="7.38574"><ele></ele><time>2025-9-5T2:38:23Z</time></trkpt>
<trkpt lat="46.157" lon="7.38574"><ele></ele><time>2025-9-5T2:38:26Z</time></trkpt>
<trkpt lat="46.157" lon="7.38574"><ele></ele><time>2025-9-5T2:38:29Z</time></trkpt>
<trkpt lat="46.157" lon="7.38574"><ele></ele><time>2025-9-5T2:38:32Z</time></trkpt>
<trkpt lat="46.15699" lon="7.38576"><ele></ele><time>2025-9-5T2:38:35Z</time></trkpt>
<trkpt lat="46.15699" lon="7.38576"><ele></ele><time>2025-9-5T2:38:38Z</time></trkpt>
<trkpt lat="46.15699" lon="7.38576"><ele></ele><time>2025-9-5T2:38:41Z</time></trkpt>
<trkpt lat="46.15699" lon="7.38576"><ele></ele><time>2025-9-5T2:38:44Z</time></trkpt>
<trkpt lat="46.157" lon="7.38575"><ele></ele><time>2025-9-5T2:38:47Z</time></trkpt>
<trkpt lat="46.15702" lon="7.38573"><ele></ele><time>2025-9-5T2:38:50Z</time></trkpt>
<trkpt lat="46.15702" lon="7.38573"><ele></ele><time>2025-9-5T2:38:53Z</time></trkpt>
<trkpt lat="46.15702" lon="7.38573"><ele></ele><time>2025-9-5T2:38:56Z</time></trkpt>
<trkpt lat="46.15702" lon="7.38573"><ele></ele><time>2025-9-5T2:38:59Z</time></trkpt>
<trkpt lat="46.15702" lon="7.38574"><ele></ele><time>2025-9-5T2:39:2Z</time></trkpt>
<trkpt lat="46.15701" lon="7.38575"><ele></ele><time>2025-9-5T2:39:5Z</time></trkpt>
<trkpt lat="46.15699" lon="7.38575"><ele></ele><time>2025-9-5T2:39:8Z</time></trkpt>
<trkpt lat="46.15699" lon="7.38575"><ele></ele><time>2025-9-5T2:39:11Z</time></trkpt>
<trkpt lat="46.15698" lon="7.38574"><ele></ele><time>2025-9-5T2:39:14Z</time></trkpt>
<trkpt lat="46.15698" lon="7.38574"><ele></ele><time>2025-9-5T2:39:17Z</time></trkpt>
<trkpt lat="46.15698" lon="7.38573"><ele></ele><time>2025-9-5T2:39:20Z</time></trkpt>
<trkpt lat="46.15698" lon="7.38573"><ele></ele><time>2025-9-5T2:39:23Z</time></trkpt>
<trkpt lat="46.15698" lon="7.38573"><ele></ele><time>2025-9-5T2:39:26Z</time></trkpt>
<trkpt lat="46.15697" lon="7.38573"><ele></ele><time>2025-9-5T2:39:29Z</time></trkpt>
<trkpt lat="46.15697" lon="7.38573"><ele></ele><time>2025-9-5T2:39:32Z</time></trkpt>
<trkpt lat="46.15698" lon="7.38574"><ele></ele><time>2025-9-5T2:39:35Z</time></trkpt>
<trkpt lat="46.15698" lon="7.38574"><ele></ele><time>2025-9-5T2:39:38Z</time></trkpt>
<trkpt lat="46.15698" lon="7.38574"><ele></ele><time>2025-9-5T2:39:41Z</time></trkpt>
<trkpt lat="46.15698" lon="7.38573"><ele></ele><time>2025-9-5T2:39:44Z</time></trkpt>
<trkpt lat="46.15699" lon="7.38573"><ele></ele><time>2025-9-5T2:39:47Z</time></trkpt>
<trkpt lat="46.157" lon="7.38572"><ele></ele><time>2025-9-5T2:39:50Z</time></trkpt>
<trkpt lat="46.157" lon="7.38572"><ele></ele><time>2025-9-5T2:39:53Z</time></trkpt>
<trkpt lat="46.157" lon="7.38572"><ele></ele><time>2025-9-5T2:39:56Z</time></trkpt>
<trkpt lat="46.15701" lon="7.3857"><ele></ele><time>2025-9-5T2:39:59Z</time></trkpt>
<trkpt lat="46.15701" lon="7.3857"><ele></ele><time>2025-9-5T2:40:2Z</time></trkpt>
<trkpt lat="46.15701" lon="7.38571"><ele></ele><time>2025-9-5T2:40:5Z</time></trkpt>
<trkpt lat="46.15701" lon="7.3857"><ele></ele><time>2025-9-5T2:40:8Z</time></trkpt>
<trkpt lat="46.15702" lon="7.38565"><ele></ele><time>2025-9-5T2:40:11Z</time></trkpt>
<trkpt lat="46.15703" lon="7.3856"><ele></ele><time>2025-9-5T2:40:14Z</time></trkpt>
<trkpt lat="46.15703" lon="7.38549"><ele></ele><time>2025-9-5T2:40:17Z</time></trkpt>
<trkpt lat="46.15704" lon="7.38545"><ele></ele><time>2025-9-5T2:40:20Z</time></trkpt>
<trkpt lat="46.15707" lon="7.38528"><ele></ele><time>2025-9-5T2:40:23Z</time></trkpt>
<trkpt lat="46.15714" lon="7.38505"><ele></ele><time>2025-9-5T2:40:26Z</time></trkpt>
<trkpt lat="46.15722" lon="7.38481"><ele></ele><time>2025-9-5T2:40:29Z</time></trkpt>
<trkpt lat="46.15728" lon="7.38474"><ele></ele><time>2025-9-5T2:40:32Z</time></trkpt>
<trkpt lat="46.15746" lon="7.38458"><ele></ele><time>2025-9-5T2:40:35Z</time></trkpt>
<trkpt lat="46.1575" lon="7.38456"><ele></ele><time>2025-9-5T2:40:38Z</time></trkpt>
<trkpt lat="46.15761" lon="7.38452"><ele></ele><time>2025-9-5T2:40:41Z</time></trkpt>
<trkpt lat="46.15773" lon="7.38448"><ele></ele><time>2025-9-5T2:40:44Z</time></trkpt>
<trkpt lat="46.15785" lon="7.38441"><ele></ele><time>2025-9-5T2:40:47Z</time></trkpt>
<trkpt lat="46.15803" lon="7.38429"><ele></ele><time>2025-9-5T2:40:50Z</time></trkpt>
<trkpt lat="46.15814" lon="7.38428"><ele></ele><time>2025-9-5T2:40:53Z</time></trkpt>
<trkpt lat="46.15823" lon="7.38433"><ele></ele><time>2025-9-5T2:40:56Z</time></trkpt>
<trkpt lat="46.1583" lon="7.3844"><ele></ele><time>2025-9-5T2:40:59Z</time></trkpt>
<trkpt lat="46.15858" lon="7.38477"><ele></ele><time>2025-9-5T2:41:2Z</time></trkpt>
<trkpt lat="46.15865" lon="7.38502"><ele></ele><time>2025-9-5T2:41:5Z</time></trkpt>
<trkpt lat="46.15867" lon="7.38509"><ele></ele><time>2025-9-5T2:41:8Z</time></trkpt>
<trkpt lat="46.15879" lon="7.38544"><ele></ele><time>2025-9-5T2:41:11Z</time></trkpt>
<trkpt lat="46.15882" lon="7.38549"><ele></ele><time>2025-9-5T2:41:14Z</time></trkpt>
<trkpt lat="46.1589" lon="7.38554"><ele></ele><time>2025-9-5T2:41:17Z</time></trkpt>
<trkpt lat="46.15893" lon="7.38556"><ele></ele><time>2025-9-5T2:41:20Z</time></trkpt>
<trkpt lat="46.15915" lon="7.38565"><ele></ele><time>2025-9-5T2:41:23Z</time></trkpt>
<trkpt lat="46.1592" lon="7.38567"><ele></ele><time>2025-9-5T2:41:26Z</time></trkpt>
<trkpt lat="46.15934" lon="7.3857"><ele></ele><time>2025-9-5T2:41:29Z</time></trkpt>
<trkpt lat="46.15944" lon="7.3857"><ele></ele><time>2025-9-5T2:41:32Z</time></trkpt>
<trkpt lat="46.15954" lon="7.38569"><ele></ele><time>2025-9-5T2:41:35Z</time></trkpt>
<trkpt lat="46.15968" lon="7.38567"><ele></ele><time>2025-9-5T2:41:38Z</time></trkpt>
<trkpt lat="46.15977" lon="7.38561"><ele></ele><time>2025-9-5T2:41:41Z</time></trkpt>
<trkpt lat="46.15986" lon="7.38554"><ele></ele><time>2025-9-5T2:41:44Z</time></trkpt>
<trkpt lat="46.16" lon="7.38545"><ele></ele><time>2025-9-5T2:41:47Z</time></trkpt>
<trkpt lat="46.1601" lon="7.38543"><ele></ele><time>2025-9-5T2:41:50Z</time></trkpt>
<trkpt lat="46.16014" lon="7.38543"><ele></ele><time>2025-9-5T2:41:53Z</time></trkpt>
<trkpt lat="46.16024" lon="7.38543"><ele></ele><time>2025-9-5T2:41:56Z</time></trkpt>
<trkpt lat="46.16034" lon="7.38546"><ele></ele><time>2025-9-5T2:41:59Z</time></trkpt>
<trkpt lat="46.16039" lon="7.38546"><ele></ele><time>2025-9-5T2:42:2Z</time></trkpt>
<trkpt lat="46.16044" lon="7.38548"><ele></ele><time>2025-9-5T2:42:5Z</time></trkpt>
<trkpt lat="46.16055" lon="7.38549"><ele></ele><time>2025-9-5T2:42:8Z</time></trkpt>
<trkpt lat="46.1606" lon="7.38549"><ele></ele><time>2025-9-5T2:42:11Z</time></trkpt>
<trkpt lat="46.16066" lon="7.38547"><ele></ele><time>2025-9-5T2:42:14Z</time></trkpt>
<trkpt lat="46.16083" lon="7.38546"><ele></ele><time>2025-9-5T2:42:17Z</time></trkpt>
<trkpt lat="46.16118" lon="7.38557"><ele></ele><time>2025-9-5T2:42:20Z</time></trkpt>
<trkpt lat="46.16154" lon="7.38569"><ele></ele><time>2025-9-5T2:42:23Z</time></trkpt>
<trkpt lat="46.16178" lon="7.38576"><ele></ele><time>2025-9-5T2:42:26Z</time></trkpt>
<trkpt lat="46.16183" lon="7.38578"><ele></ele><time>2025-9-5T2:42:29Z</time></trkpt>
<trkpt lat="46.16188" lon="7.38582"><ele></ele><time>2025-9-5T2:42:32Z</time></trkpt>
<trkpt lat="46.16201" lon="7.38598"><ele></ele><time>2025-9-5T2:42:35Z</time></trkpt>
<trkpt lat="46.16225" lon="7.38623"><ele></ele><time>2025-9-5T2:42:38Z</time></trkpt>
<trkpt lat="46.16236" lon="7.38628"><ele></ele><time>2025-9-5T2:42:41Z</time></trkpt>
<trkpt lat="46.16261" lon="7.38639"><ele></ele><time>2025-9-5T2:42:44Z</time></trkpt>
<trkpt lat="46.16271" lon="7.38645"><ele></ele><time>2025-9-5T2:42:47Z</time></trkpt>
<trkpt lat="46.1629" lon="7.38656"><ele></ele><time>2025-9-5T2:42:50Z</time></trkpt>
<trkpt lat="46.16297" lon="7.38666"><ele></ele><time>2025-9-5T2:42:53Z</time></trkpt>
<trkpt lat="46.16315" lon="7.38685"><ele></ele><time>2025-9-5T2:42:56Z</time></trkpt>
<trkpt lat="46.1632" lon="7.38685"><ele></ele><time>2025-9-5T2:42:59Z</time></trkpt>
<trkpt lat="46.16326" lon="7.38683"><ele></ele><time>2025-9-5T2:43:2Z</time></trkpt>
<trkpt lat="46.1634" lon="7.38676"><ele></ele><time>2025-9-5T2:43:5Z</time></trkpt>
<trkpt lat="46.16344" lon="7.38672"><ele></ele><time>2025-9-5T2:43:8Z</time></trkpt>
<trkpt lat="46.1636" lon="7.38654"><ele></ele><time>2025-9-5T2:43:11Z</time></trkpt>
<trkpt lat="46.16386" lon="7.38636"><ele></ele><time>2025-9-5T2:43:14Z</time></trkpt>
<trkpt lat="46.16402" lon="7.38628"><ele></ele><time>2025-9-5T2:43:17Z</time></trkpt>
<trkpt lat="46.16414" lon="7.38623"><ele></ele><time>2025-9-5T2:43:20Z</time></trkpt>
<trkpt lat="46.16427" lon="7.38629"><ele></ele><time>2025-9-5T2:43:23Z</time></trkpt>
<trkpt lat="46.16433" lon="7.38644"><ele></ele><time>2025-9-5T2:43:26Z</time></trkpt>
<trkpt lat="46.16436" lon="7.38652"><ele></ele><time>2025-9-5T2:43:29Z</time></trkpt>
<trkpt lat="46.16442" lon="7.38677"><ele></ele><time>2025-9-5T2:43:32Z</time></trkpt>
<trkpt lat="46.16448" lon="7.38696"><ele></ele><time>2025-9-5T2:43:35Z</time></trkpt>
<trkpt lat="46.16451" lon="7.38706"><ele></ele><time>2025-9-5T2:43:38Z</time></trkpt>
<trkpt lat="46.16458" lon="7.38722"><ele></ele><time>2025-9-5T2:43:41Z</time></trkpt>
<trkpt lat="46.16463" lon="7.38724"><ele></ele><time>2025-9-5T2:43:44Z</time></trkpt>
<trkpt lat="46.16468" lon="7.38723"><ele></ele><time>2025-9-5T2:43:47Z</time></trkpt>
<trkpt lat="46.16474" lon="7.38714"><ele></ele><time>2025-9-5T2:43:50Z</time></trkpt>
<trkpt lat="46.16494" lon="7.38678"><ele></ele><time>2025-9-5T2:43:53Z</time></trkpt>
<trkpt lat="46.16513" lon="7.38657"><ele></ele><time>2025-9-5T2:43:56Z</time></trkpt>
<trkpt lat="46.16519" lon="7.38658"><ele></ele><time>2025-9-5T2:43:59Z</time></trkpt>
<trkpt lat="46.16524" lon="7.38662"><ele></ele><time>2025-9-5T2:44:2Z</time></trkpt>
<trkpt lat="46.16529" lon="7.38669"><ele></ele><time>2025-9-5T2:44:5Z</time></trkpt>
<trkpt lat="46.16531" lon="7.38677"><ele></ele><time>2025-9-5T2:44:8Z</time></trkpt>
<trkpt lat="46.16533" lon="7.38686"><ele></ele><time>2025-9-5T2:44:11Z</time></trkpt>
<trkpt lat="46.16535" lon="7.38694"><ele></ele><time>2025-9-5T2:44:14Z</time></trkpt>
<trkpt lat="46.1654" lon="7.3871"><ele></ele><time>2025-9-5T2:44:17Z</time></trkpt>
<trkpt lat="46.16548" lon="7.3872"><ele></ele><time>2025-9-5T2:44:20Z</time></trkpt>
<trkpt lat="46.16557" lon="7.38724"><ele></ele><time>2025-9-5T2:44:23Z</time></trkpt>
<trkpt lat="46.16564" lon="7.38728"><ele></ele><time>2025-9-5T2:44:26Z</time></trkpt>
<trkpt lat="46.16568" lon="7.38733"><ele></ele><time>2025-9-5T2:44:29Z</time></trkpt>
<trkpt lat="46.1657" lon="7.3874"><ele></ele><time>2025-9-5T2:44:32Z</time></trkpt>
<trkpt lat="46.16571" lon="7.38745"><ele></ele><time>2025-9-5T2:44:35Z</time></trkpt>
<trkpt lat="46.16578" lon="7.38765"><ele></ele><time>2025-9-5T2:44:38Z</time></trkpt>
<trkpt lat="46.16587" lon="7.38788"><ele></ele><time>2025-9-5T2:44:41Z</time></trkpt>
<trkpt lat="46.16588" lon="7.38796"><ele></ele><time>2025-9-5T2:44:44Z</time></trkpt>
<trkpt lat="46.16587" lon="7.38805"><ele></ele><time>2025-9-5T2:44:47Z</time></trkpt>
<trkpt lat="46.16587" lon="7.3883"><ele></ele><time>2025-9-5T2:44:50Z</time></trkpt>
<trkpt lat="46.1659" lon="7.38846"><ele></ele><time>2025-9-5T2:44:53Z</time></trkpt>
<trkpt lat="46.16593" lon="7.38861"><ele></ele><time>2025-9-5T2:44:56Z</time></trkpt>
<trkpt lat="46.16603" lon="7.38889"><ele></ele><time>2025-9-5T2:44:59Z</time></trkpt>
<trkpt lat="46.16613" lon="7.38908"><ele></ele><time>2025-9-5T2:45:2Z</time></trkpt>
<trkpt lat="46.16621" lon="7.38919"><ele></ele><time>2025-9-5T2:45:5Z</time></trkpt>
<trkpt lat="46.16645" lon="7.3894"><ele></ele><time>2025-9-5T2:45:8Z</time></trkpt>
<trkpt lat="46.1665" lon="7.38944"><ele></ele><time>2025-9-5T2:45:11Z</time></trkpt>
<trkpt lat="46.16655" lon="7.38949"><ele></ele><time>2025-9-5T2:45:14Z</time></trkpt>
<trkpt lat="46.16659" lon="7.38953"><ele></ele><time>2025-9-5T2:45:17Z</time></trkpt>
<trkpt lat="46.16672" lon="7.38966"><ele></ele><time>2025-9-5T2:45:20Z</time></trkpt>
<trkpt lat="46.16701" lon="7.38984"><ele></ele><time>2025-9-5T2:45:23Z</time></trkpt>
<trkpt lat="46.1673" lon="7.39"><ele></ele><time>2025-9-5T2:45:26Z</time></trkpt>
<trkpt lat="46.16749" lon="7.39013"><ele></ele><time>2025-9-5T2:45:29Z</time></trkpt>
<trkpt lat="46.16759" lon="7.39016"><ele></ele><time>2025-9-5T2:45:32Z</time></trkpt>
<trkpt lat="46.16775" lon="7.39021"><ele></ele><time>2025-9-5T2:45:35Z</time></trkpt>
<trkpt lat="46.16785" lon="7.3903"><ele></ele><time>2025-9-5T2:45:38Z</time></trkpt>
<trkpt lat="46.1681" lon="7.3905"><ele></ele><time>2025-9-5T2:45:41Z</time></trkpt>
<trkpt lat="46.16816" lon="7.39054"><ele></ele><time>2025-9-5T2:45:44Z</time></trkpt>
<trkpt lat="46.1682" lon="7.39059"><ele></ele><time>2025-9-5T2:45:47Z</time></trkpt>
<trkpt lat="46.16838" lon="7.3908"><ele></ele><time>2025-9-5T2:45:50Z</time></trkpt>
<trkpt lat="46.16867" lon="7.39104"><ele></ele><time>2025-9-5T2:45:53Z</time></trkpt>
<trkpt lat="46.16905" lon="7.39125"><ele></ele><time>2025-9-5T2:45:56Z</time></trkpt>
<trkpt lat="46.16916" lon="7.39132"><ele></ele><time>2025-9-5T2:45:59Z</time></trkpt>
<trkpt lat="46.16933" lon="7.39152"><ele></ele><time>2025-9-5T2:46:2Z</time></trkpt>
<trkpt lat="46.16946" lon="7.39167"><ele></ele><time>2025-9-5T2:46:5Z</time></trkpt>
<trkpt lat="46.16961" lon="7.39176"><ele></ele><time>2025-9-5T2:46:8Z</time></trkpt>
<trkpt lat="46.16988" lon="7.39188"><ele></ele><time>2025-9-5T2:46:11Z</time></trkpt>
<trkpt lat="46.16992" lon="7.39192"><ele></ele><time>2025-9-5T2:46:14Z</time></trkpt>
<trkpt lat="46.17019" lon="7.39204"><ele></ele><time>2025-9-5T2:46:17Z</time></trkpt>
<trkpt lat="46.17041" lon="7.39209"><ele></ele><time>2025-9-5T2:46:20Z</time></trkpt>
<trkpt lat="46.17052" lon="7.39214"><ele></ele><time>2025-9-5T2:46:23Z</time></trkpt>
<trkpt lat="46.1709" lon="7.39225"><ele></ele><time>2025-9-5T2:46:26Z</time></trkpt>
<trkpt lat="46.17111" lon="7.39229"><ele></ele><time>2025-9-5T2:46:29Z</time></trkpt>
<trkpt lat="46.17116" lon="7.3923"><ele></ele><time>2025-9-5T2:46:32Z</time></trkpt>
<trkpt lat="46.1712" lon="7.39235"><ele></ele><time>2025-9-5T2:46:35Z</time></trkpt>
<trkpt lat="46.17121" lon="7.39236"><ele></ele><time>2025-9-5T2:46:38Z</time></trkpt>
<trkpt lat="46.17125" lon="7.39238"><ele></ele><time>2025-9-5T2:46:41Z</time></trkpt>
<trkpt lat="46.17137" lon="7.39243"><ele></ele><time>2025-9-5T2:46:44Z</time></trkpt>
<trkpt lat="46.17146" lon="7.39246"><ele></ele><time>2025-9-5T2:46:47Z</time></trkpt>
<trkpt lat="46.17151" lon="7.39248"><ele></ele><time>2025-9-5T2:46:50Z</time></trkpt>
<trkpt lat="46.1716" lon="7.39254"><ele></ele><time>2025-9-5T2:46:53Z</time></trkpt>
<trkpt lat="46.17189" lon="7.39282"><ele></ele><time>2025-9-5T2:46:56Z</time></trkpt>
<trkpt lat="46.17215" lon="7.39312"><ele></ele><time>2025-9-5T2:46:59Z</time></trkpt>
<trkpt lat="46.17224" lon="7.3932"><ele></ele><time>2025-9-5T2:47:2Z</time></trkpt>
<trkpt lat="46.17229" lon="7.39324"><ele></ele><time>2025-9-5T2:47:5Z</time></trkpt>
<trkpt lat="46.1724" lon="7.39329"><ele></ele><time>2025-9-5T2:47:8Z</time></trkpt>
<trkpt lat="46.17246" lon="7.3933"><ele></ele><time>2025-9-5T2:47:11Z</time></trkpt>
<trkpt lat="46.1728" lon="7.39339"><ele></ele><time>2025-9-5T2:47:14Z</time></trkpt>
<trkpt lat="46.17291" lon="7.39345"><ele></ele><time>2025-9-5T2:47:17Z</time></trkpt>
<trkpt lat="46.17325" lon="7.39366"><ele></ele><time>2025-9-5T2:47:20Z</time></trkpt>
<trkpt lat="46.17338" lon="7.39374"><ele></ele><time>2025-9-5T2:47:23Z</time></trkpt>
<trkpt lat="46.17352" lon="7.39379"><ele></ele><time>2025-9-5T2:47:26Z</time></trkpt>
<trkpt lat="46.17359" lon="7.39377"><ele></ele><time>2025-9-5T2:47:29Z</time></trkpt>
<trkpt lat="46.17365" lon="7.39375"><ele></ele><time>2025-9-5T2:47:32Z</time></trkpt>
<trkpt lat="46.1738" lon="7.39366"><ele></ele><time>2025-9-5T2:47:35Z</time></trkpt>
<trkpt lat="46.17401" lon="7.39354"><ele></ele><time>2025-9-5T2:47:38Z</time></trkpt>
<trkpt lat="46.17405" lon="7.3935"><ele></ele><time>2025-9-5T2:47:41Z</time></trkpt>
<trkpt lat="46.17409" lon="7.39347"><ele></ele><time>2025-9-5T2:47:44Z</time></trkpt>
<trkpt lat="46.17416" lon="7.39345"><ele></ele><time>2025-9-5T2:47:47Z</time></trkpt>
<trkpt lat="46.17433" lon="7.39348"><ele></ele><time>2025-9-5T2:47:50Z</time></trkpt>
<trkpt lat="46.17438" lon="7.39349"><ele></ele><time>2025-9-5T2:47:53Z</time></trkpt>
<trkpt lat="46.17449" lon="7.39346"><ele></ele><time>2025-9-5T2:47:56Z</time></trkpt>
<trkpt lat="46.17454" lon="7.39346"><ele></ele><time>2025-9-5T2:47:59Z</time></trkpt>
<trkpt lat="46.17464" lon="7.39344"><ele></ele><time>2025-9-5T2:48:2Z</time></trkpt>
<trkpt lat="46.17468" lon="7.39345"><ele></ele><time>2025-9-5T2:48:5Z</time></trkpt>
<trkpt lat="46.17475" lon="7.39351"><ele></ele><time>2025-9-5T2:48:8Z</time></trkpt>
<trkpt lat="46.17481" lon="7.39361"><ele></ele><time>2025-9-5T2:48:11Z</time></trkpt>
<trkpt lat="46.17484" lon="7.39369"><ele></ele><time>2025-9-5T2:48:14Z</time></trkpt>
<trkpt lat="46.17487" lon="7.39377"><ele></ele><time>2025-9-5T2:48:17Z</time></trkpt>
<trkpt lat="46.17497" lon="7.39395"><ele></ele><time>2025-9-5T2:48:20Z</time></trkpt>
<trkpt lat="46.17506" lon="7.39402"><ele></ele><time>2025-9-5T2:48:23Z</time></trkpt>
<trkpt lat="46.17522" lon="7.39419"><ele></ele><time>2025-9-5T2:48:26Z</time></trkpt>
<trkpt lat="46.17538" lon="7.39421"><ele></ele><time>2025-9-5T2:48:29Z</time></trkpt>
<trkpt lat="46.1755" lon="7.39421"><ele></ele><time>2025-9-5T2:48:32Z</time></trkpt>
<trkpt lat="46.17563" lon="7.39419"><ele></ele><time>2025-9-5T2:48:35Z</time></trkpt>
<trkpt lat="46.17569" lon="7.39424"><ele></ele><time>2025-9-5T2:48:38Z</time></trkpt>
<trkpt lat="46.17579" lon="7.39435"><ele></ele><time>2025-9-5T2:48:41Z</time></trkpt>
<trkpt lat="46.17593" lon="7.39448"><ele></ele><time>2025-9-5T2:48:44Z</time></trkpt>
<trkpt lat="46.17597" lon="7.39449"><ele></ele><time>2025-9-5T2:48:47Z</time></trkpt>
<trkpt lat="46.17601" lon="7.3945"><ele></ele><time>2025-9-5T2:48:50Z</time></trkpt>
<trkpt lat="46.1761" lon="7.39454"><ele></ele><time>2025-9-5T2:48:53Z</time></trkpt>
<trkpt lat="46.17615" lon="7.39457"><ele></ele><time>2025-9-5T2:48:56Z</time></trkpt>
<trkpt lat="46.1762" lon="7.39458"><ele></ele><time>2025-9-5T2:48:59Z</time></trkpt>
<trkpt lat="46.17631" lon="7.39456"><ele></ele><time>2025-9-5T2:49:2Z</time></trkpt>
<trkpt lat="46.17643" lon="7.39457"><ele></ele><time>2025-9-5T2:49:5Z</time></trkpt>
<trkpt lat="46.17653" lon="7.39461"><ele></ele><time>2025-9-5T2:49:8Z</time></trkpt>
<trkpt lat="46.17663" lon="7.3946"><ele></ele><time>2025-9-5T2:49:11Z</time></trkpt>
<trkpt lat="46.17674" lon="7.39456"><ele></ele><time>2025-9-5T2:49:14Z</time></trkpt>
<trkpt lat="46.17679" lon="7.39454"><ele></ele><time>2025-9-5T2:49:17Z</time></trkpt>
<trkpt lat="46.17683" lon="7.39455"><ele></ele><time>2025-9-5T2:49:20Z</time></trkpt>
<trkpt lat="46.17694" lon="7.39454"><ele></ele><time>2025-9-5T2:49:23Z</time></trkpt>
<trkpt lat="46.17734" lon="7.39456"><ele></ele><time>2025-9-5T2:49:26Z</time></trkpt>
<trkpt lat="46.1774" lon="7.39458"><ele></ele><time>2025-9-5T2:49:29Z</time></trkpt>
<trkpt lat="46.17742" lon="7.3946"><ele></ele><time>2025-9-5T2:49:32Z</time></trkpt>
<trkpt lat="46.17743" lon="7.39465"><ele></ele><time>2025-9-5T2:49:35Z</time></trkpt>
<trkpt lat="46.17746" lon="7.39473"><ele></ele><time>2025-9-5T2:49:38Z</time></trkpt>
<trkpt lat="46.17749" lon="7.39478"><ele></ele><time>2025-9-5T2:49:41Z</time></trkpt>
<trkpt lat="46.17752" lon="7.39482"><ele></ele><time>2025-9-5T2:49:44Z</time></trkpt>
<trkpt lat="46.17759" lon="7.39492"><ele></ele><time>2025-9-5T2:49:47Z</time></trkpt>
<trkpt lat="46.17762" lon="7.39498"><ele></ele><time>2025-9-5T2:49:50Z</time></trkpt>
<trkpt lat="46.17766" lon="7.39505"><ele></ele><time>2025-9-5T2:49:53Z</time></trkpt>
<trkpt lat="46.17772" lon="7.39512"><ele></ele><time>2025-9-5T2:49:56Z</time></trkpt>
<trkpt lat="46.17774" lon="7.39514"><ele></ele><time>2025-9-5T2:49:59Z</time></trkpt>
<trkpt lat="46.17784" lon="7.39524"><ele></ele><time>2025-9-5T2:50:2Z</time></trkpt>
<trkpt lat="46.17785" lon="7.39526"><ele></ele><time>2025-9-5T2:50:5Z</time></trkpt>
<trkpt lat="46.17788" lon="7.39527"><ele></ele><time>2025-9-5T2:50:8Z</time></trkpt>
<trkpt lat="46.1779" lon="7.39531"><ele></ele><time>2025-9-5T2:50:11Z</time></trkpt>
<trkpt lat="46.17792" lon="7.39548"><ele></ele><time>2025-9-5T2:50:14Z</time></trkpt>
<trkpt lat="46.17794" lon="7.3956"><ele></ele><time>2025-9-5T2:50:17Z</time></trkpt>
<trkpt lat="46.17797" lon="7.39567"><ele></ele><time>2025-9-5T2:50:20Z</time></trkpt>
<trkpt lat="46.178" lon="7.3957"><ele></ele><time>2025-9-5T2:50:23Z</time></trkpt>
<trkpt lat="46.178" lon="7.3957"><ele></ele><time>2025-9-5T2:50:26Z</time></trkpt>
<trkpt lat="46.17801" lon="7.3957"><ele></ele><time>2025-9-5T2:50:29Z</time></trkpt>
<trkpt lat="46.17805" lon="7.39571"><ele></ele><time>2025-9-5T2:50:32Z</time></trkpt>
<trkpt lat="46.17806" lon="7.39572"><ele></ele><time>2025-9-5T2:50:35Z</time></trkpt>
<trkpt lat="46.17809" lon="7.39575"><ele></ele><time>2025-9-5T2:50:38Z</time></trkpt>
<trkpt lat="46.17816" lon="7.39576"><ele></ele><time>2025-9-5T2:50:41Z</time></trkpt>
<trkpt lat="46.17819" lon="7.39575"><ele></ele><time>2025-9-5T2:50:44Z</time></trkpt>
<trkpt lat="46.1782" lon="7.39574"><ele></ele><time>2025-9-5T2:50:47Z</time></trkpt>
<trkpt lat="46.17823" lon="7.39573"><ele></ele><time>2025-9-5T2:50:50Z</time></trkpt>
<trkpt lat="46.17834" lon="7.3957"><ele></ele><time>2025-9-5T2:50:53Z</time></trkpt>
<trkpt lat="46.17837" lon="7.39571"><ele></ele><time>2025-9-5T2:50:56Z</time></trkpt>
<trkpt lat="46.17843" lon="7.39584"><ele></ele><time>2025-9-5T2:50:59Z</time></trkpt>
<trkpt lat="46.17844" lon="7.39586"><ele></ele><time>2025-9-5T2:51:2Z</time></trkpt>
<trkpt lat="46.17851" lon="7.39594"><ele></ele><time>2025-9-5T2:51:5Z</time></trkpt>
<trkpt lat="46.17855" lon="7.39596"><ele></ele><time>2025-9-5T2:51:8Z</time></trkpt>
<trkpt lat="46.17857" lon="7.39597"><ele></ele><time>2025-9-5T2:51:11Z</time></trkpt>
<trkpt lat="46.17866" lon="7.396"><ele></ele><time>2025-9-5T2:51:14Z</time></trkpt>
<trkpt lat="46.17874" lon="7.396"><ele></ele><time>2025-9-5T2:51:17Z</time></trkpt>
<trkpt lat="46.17881" lon="7.39599"><ele></ele><time>2025-9-5T2:51:20Z</time></trkpt>
<trkpt lat="46.1789" lon="7.396"><ele></ele><time>2025-9-5T2:51:23Z</time></trkpt>
<trkpt lat="46.17894" lon="7.396"><ele></ele><time>2025-9-5T2:51:26Z</time></trkpt>
<trkpt lat="46.179" lon="7.396"><ele></ele><time>2025-9-5T2:51:29Z</time></trkpt>
<trkpt lat="46.17912" lon="7.39602"><ele></ele><time>2025-9-5T2:51:32Z</time></trkpt>
<trkpt lat="46.17914" lon="7.39602"><ele></ele><time>2025-9-5T2:51:35Z</time></trkpt>
<trkpt lat="46.17929" lon="7.39603"><ele></ele><time>2025-9-5T2:51:38Z</time></trkpt>
<trkpt lat="46.17937" lon="7.39604"><ele></ele><time>2025-9-5T2:51:41Z</time></trkpt>
<trkpt lat="46.17942" lon="7.39604"><ele></ele><time>2025-9-5T2:51:44Z</time></trkpt>
<trkpt lat="46.17944" lon="7.39604"><ele></ele><time>2025-9-5T2:51:47Z</time></trkpt>
<trkpt lat="46.17952" lon="7.39607"><ele></ele><time>2025-9-5T2:51:50Z</time></trkpt>
<trkpt lat="46.17961" lon="7.39611"><ele></ele><time>2025-9-5T2:51:53Z</time></trkpt>
<trkpt lat="46.17973" lon="7.39613"><ele></ele><time>2025-9-5T2:51:56Z</time></trkpt>
<trkpt lat="46.17977" lon="7.39613"><ele></ele><time>2025-9-5T2:51:59Z</time></trkpt>
<trkpt lat="46.17992" lon="7.39615"><ele></ele><time>2025-9-5T2:52:2Z</time></trkpt>
<trkpt lat="46.17999" lon="7.39616"><ele></ele><time>2025-9-5T2:52:5Z</time></trkpt>
<trkpt lat="46.18013" lon="7.39616"><ele></ele><time>2025-9-5T2:52:8Z</time></trkpt>
<trkpt lat="46.18018" lon="7.39621"><ele></ele><time>2025-9-5T2:52:11Z</time></trkpt>
<trkpt lat="46.18019" lon="7.39623"><ele></ele><time>2025-9-5T2:52:14Z</time></trkpt>
<trkpt lat="46.18019" lon="7.39622"><ele></ele><time>2025-9-5T2:52:17Z</time></trkpt>
<trkpt lat="46.1802" lon="7.39623"><ele></ele><time>2025-9-5T2:52:20Z</time></trkpt>
</trkseg></trk></gpx>